<?xml version="1.0" encoding="UTF-8" standalone="no" ?>
<gpx xmlns="http://www.topografix.com/GPX/1/1" xmlns:xsi="http://www.w3.org/2001/XMLSchema-instance" xsi:schemaLocation="http://www.topografix.com/GPX/1/1 http://www.topografix.com/GPX/1/1/gpx.xsd" version="1.1" creator="VisuGPX - https://www.visugpx.com">
  <metadata>
    <name>Champagnat Cyclisme sur route</name>
  </metadata>
  <trk>
    <name><![CDATA[Champagnat Cyclisme sur route_1]]></name>
    <trkseg>
      <trkpt lat="46.4826" lon="5.36823">
        <ele>271.6</ele>
        <time>2022-06-12T06:18:43Z</time>
      </trkpt>
      <trkpt lat="46.48249" lon="5.36812">
        <ele>271.2</ele>
        <time>2022-06-12T06:18:44Z</time>
      </trkpt>
      <trkpt lat="46.48238" lon="5.36803">
        <ele>270.2</ele>
        <time>2022-06-12T06:18:45Z</time>
      </trkpt>
      <trkpt lat="46.48225" lon="5.36792">
        <ele>269</ele>
        <time>2022-06-12T06:18:46Z</time>
      </trkpt>
      <trkpt lat="46.48205" lon="5.36775">
        <ele>267.4</ele>
        <time>2022-06-12T06:18:48Z</time>
      </trkpt>
      <trkpt lat="46.48193" lon="5.36766">
        <ele>266.8</ele>
        <time>2022-06-12T06:18:49Z</time>
      </trkpt>
      <trkpt lat="46.48182" lon="5.36758">
        <ele>266.2</ele>
        <time>2022-06-12T06:18:50Z</time>
      </trkpt>
      <trkpt lat="46.4816" lon="5.3674">
        <ele>264.8</ele>
        <time>2022-06-12T06:18:52Z</time>
      </trkpt>
      <trkpt lat="46.48149" lon="5.36731">
        <ele>263.6</ele>
        <time>2022-06-12T06:18:53Z</time>
      </trkpt>
      <trkpt lat="46.4813" lon="5.36717">
        <ele>262.4</ele>
        <time>2022-06-12T06:18:55Z</time>
      </trkpt>
      <trkpt lat="46.48114" lon="5.36705">
        <ele>260.4</ele>
        <time>2022-06-12T06:18:57Z</time>
      </trkpt>
      <trkpt lat="46.48109" lon="5.36696">
        <ele>260</ele>
        <time>2022-06-12T06:18:58Z</time>
      </trkpt>
      <trkpt lat="46.48109" lon="5.36688">
        <ele>259.4</ele>
        <time>2022-06-12T06:18:59Z</time>
      </trkpt>
      <trkpt lat="46.4811" lon="5.36676">
        <ele>258.8</ele>
        <time>2022-06-12T06:19:00Z</time>
      </trkpt>
      <trkpt lat="46.48113" lon="5.3667">
        <ele>258</ele>
        <time>2022-06-12T06:19:01Z</time>
      </trkpt>
      <trkpt lat="46.48119" lon="5.36663">
        <ele>257</ele>
        <time>2022-06-12T06:19:02Z</time>
      </trkpt>
      <trkpt lat="46.4813" lon="5.36653">
        <ele>256.6</ele>
        <time>2022-06-12T06:19:03Z</time>
      </trkpt>
      <trkpt lat="46.48137" lon="5.36646">
        <ele>255.8</ele>
        <time>2022-06-12T06:19:04Z</time>
      </trkpt>
      <trkpt lat="46.48149" lon="5.36632">
        <ele>255.2</ele>
        <time>2022-06-12T06:19:06Z</time>
      </trkpt>
      <trkpt lat="46.48156" lon="5.36624">
        <ele>254.8</ele>
        <time>2022-06-12T06:19:07Z</time>
      </trkpt>
      <trkpt lat="46.48162" lon="5.36617">
        <ele>254.4</ele>
        <time>2022-06-12T06:19:08Z</time>
      </trkpt>
      <trkpt lat="46.48181" lon="5.36606">
        <ele>254</ele>
        <time>2022-06-12T06:19:10Z</time>
      </trkpt>
      <trkpt lat="46.48199" lon="5.36601">
        <ele>253.8</ele>
        <time>2022-06-12T06:19:12Z</time>
      </trkpt>
      <trkpt lat="46.48208" lon="5.36598">
        <ele>253.8</ele>
        <time>2022-06-12T06:19:13Z</time>
      </trkpt>
      <trkpt lat="46.4822" lon="5.36584">
        <ele>253.6</ele>
        <time>2022-06-12T06:19:15Z</time>
      </trkpt>
      <trkpt lat="46.48227" lon="5.36563">
        <ele>253.2</ele>
        <time>2022-06-12T06:19:17Z</time>
      </trkpt>
      <trkpt lat="46.48232" lon="5.36554">
        <ele>253.2</ele>
        <time>2022-06-12T06:19:18Z</time>
      </trkpt>
      <trkpt lat="46.48239" lon="5.36547">
        <ele>253</ele>
        <time>2022-06-12T06:19:19Z</time>
      </trkpt>
      <trkpt lat="46.48252" lon="5.36532">
        <ele>252.8</ele>
        <time>2022-06-12T06:19:21Z</time>
      </trkpt>
      <trkpt lat="46.48259" lon="5.36525">
        <ele>252.6</ele>
        <time>2022-06-12T06:19:22Z</time>
      </trkpt>
      <trkpt lat="46.48306" lon="5.36472">
        <ele>251.8</ele>
        <time>2022-06-12T06:19:29Z</time>
      </trkpt>
      <trkpt lat="46.48313" lon="5.36464">
        <ele>251.6</ele>
        <time>2022-06-12T06:19:30Z</time>
      </trkpt>
      <trkpt lat="46.48342" lon="5.36432">
        <ele>250.6</ele>
        <time>2022-06-12T06:19:34Z</time>
      </trkpt>
      <trkpt lat="46.48372" lon="5.364">
        <ele>249.2</ele>
        <time>2022-06-12T06:19:38Z</time>
      </trkpt>
      <trkpt lat="46.4838" lon="5.36392">
        <ele>248.8</ele>
        <time>2022-06-12T06:19:39Z</time>
      </trkpt>
      <trkpt lat="46.48402" lon="5.3637">
        <ele>248.4</ele>
        <time>2022-06-12T06:19:42Z</time>
      </trkpt>
      <trkpt lat="46.48418" lon="5.36358">
        <ele>248</ele>
        <time>2022-06-12T06:19:44Z</time>
      </trkpt>
      <trkpt lat="46.48434" lon="5.36351">
        <ele>247.4</ele>
        <time>2022-06-12T06:19:46Z</time>
      </trkpt>
      <trkpt lat="46.4845" lon="5.36347">
        <ele>247.2</ele>
        <time>2022-06-12T06:19:48Z</time>
      </trkpt>
      <trkpt lat="46.48505" lon="5.36338">
        <ele>246.2</ele>
        <time>2022-06-12T06:19:55Z</time>
      </trkpt>
      <trkpt lat="46.48559" lon="5.36329">
        <ele>245.6</ele>
        <time>2022-06-12T06:20:02Z</time>
      </trkpt>
      <trkpt lat="46.48567" lon="5.36328">
        <ele>245.6</ele>
        <time>2022-06-12T06:20:03Z</time>
      </trkpt>
      <trkpt lat="46.48608" lon="5.36321">
        <ele>245</ele>
        <time>2022-06-12T06:20:08Z</time>
      </trkpt>
      <trkpt lat="46.48616" lon="5.36319">
        <ele>244.8</ele>
        <time>2022-06-12T06:20:09Z</time>
      </trkpt>
      <trkpt lat="46.4863" lon="5.36303">
        <ele>244.4</ele>
        <time>2022-06-12T06:20:11Z</time>
      </trkpt>
      <trkpt lat="46.48637" lon="5.36279">
        <ele>243.8</ele>
        <time>2022-06-12T06:20:13Z</time>
      </trkpt>
      <trkpt lat="46.48642" lon="5.36237">
        <ele>242.2</ele>
        <time>2022-06-12T06:20:16Z</time>
      </trkpt>
      <trkpt lat="46.48644" lon="5.36209">
        <ele>241.4</ele>
        <time>2022-06-12T06:20:18Z</time>
      </trkpt>
      <trkpt lat="46.48645" lon="5.36181">
        <ele>241</ele>
        <time>2022-06-12T06:20:20Z</time>
      </trkpt>
      <trkpt lat="46.48651" lon="5.36129">
        <ele>240</ele>
        <time>2022-06-12T06:20:24Z</time>
      </trkpt>
      <trkpt lat="46.48654" lon="5.36116">
        <ele>239.6</ele>
        <time>2022-06-12T06:20:25Z</time>
      </trkpt>
      <trkpt lat="46.48667" lon="5.36057">
        <ele>239</ele>
        <time>2022-06-12T06:20:30Z</time>
      </trkpt>
      <trkpt lat="46.48676" lon="5.36009">
        <ele>239.2</ele>
        <time>2022-06-12T06:20:35Z</time>
      </trkpt>
      <trkpt lat="46.48677" lon="5.36001">
        <ele>239.4</ele>
        <time>2022-06-12T06:20:36Z</time>
      </trkpt>
      <trkpt lat="46.48685" lon="5.35947">
        <ele>240.2</ele>
        <time>2022-06-12T06:20:42Z</time>
      </trkpt>
      <trkpt lat="46.48697" lon="5.35895">
        <ele>240.6</ele>
        <time>2022-06-12T06:20:47Z</time>
      </trkpt>
      <trkpt lat="46.48725" lon="5.35825">
        <ele>240</ele>
        <time>2022-06-12T06:20:54Z</time>
      </trkpt>
      <trkpt lat="46.48729" lon="5.35815">
        <ele>239.6</ele>
        <time>2022-06-12T06:20:55Z</time>
      </trkpt>
      <trkpt lat="46.48758" lon="5.35749">
        <ele>238.8</ele>
        <time>2022-06-12T06:21:02Z</time>
      </trkpt>
      <trkpt lat="46.48775" lon="5.35712">
        <ele>237.8</ele>
        <time>2022-06-12T06:21:06Z</time>
      </trkpt>
      <trkpt lat="46.48798" lon="5.35661">
        <ele>237.6</ele>
        <time>2022-06-12T06:21:12Z</time>
      </trkpt>
      <trkpt lat="46.4882" lon="5.35613">
        <ele>237.8</ele>
        <time>2022-06-12T06:21:18Z</time>
      </trkpt>
      <trkpt lat="46.48835" lon="5.35583">
        <ele>238.2</ele>
        <time>2022-06-12T06:21:22Z</time>
      </trkpt>
      <trkpt lat="46.48845" lon="5.35571">
        <ele>238.2</ele>
        <time>2022-06-12T06:21:24Z</time>
      </trkpt>
      <trkpt lat="46.48858" lon="5.35566">
        <ele>238.2</ele>
        <time>2022-06-12T06:21:26Z</time>
      </trkpt>
      <trkpt lat="46.48865" lon="5.35564">
        <ele>238</ele>
        <time>2022-06-12T06:21:27Z</time>
      </trkpt>
      <trkpt lat="46.4891" lon="5.35562">
        <ele>237.4</ele>
        <time>2022-06-12T06:21:33Z</time>
      </trkpt>
      <trkpt lat="46.48941" lon="5.35559">
        <ele>236.8</ele>
        <time>2022-06-12T06:21:37Z</time>
      </trkpt>
      <trkpt lat="46.48975" lon="5.35556">
        <ele>236.2</ele>
        <time>2022-06-12T06:21:41Z</time>
      </trkpt>
      <trkpt lat="46.49008" lon="5.35555">
        <ele>235.6</ele>
        <time>2022-06-12T06:21:45Z</time>
      </trkpt>
      <trkpt lat="46.49039" lon="5.35553">
        <ele>235.2</ele>
        <time>2022-06-12T06:21:49Z</time>
      </trkpt>
      <trkpt lat="46.49072" lon="5.35551">
        <ele>234.8</ele>
        <time>2022-06-12T06:21:54Z</time>
      </trkpt>
      <trkpt lat="46.49093" lon="5.35549">
        <ele>235.2</ele>
        <time>2022-06-12T06:21:58Z</time>
      </trkpt>
      <trkpt lat="46.49115" lon="5.35547">
        <ele>235.6</ele>
        <time>2022-06-12T06:22:03Z</time>
      </trkpt>
      <trkpt lat="46.49142" lon="5.35546">
        <ele>236.4</ele>
        <time>2022-06-12T06:22:09Z</time>
      </trkpt>
      <trkpt lat="46.49156" lon="5.35545">
        <ele>236.6</ele>
        <time>2022-06-12T06:22:12Z</time>
      </trkpt>
      <trkpt lat="46.49168" lon="5.35544">
        <ele>237.4</ele>
        <time>2022-06-12T06:22:15Z</time>
      </trkpt>
      <trkpt lat="46.49185" lon="5.35542">
        <ele>237.8</ele>
        <time>2022-06-12T06:22:18Z</time>
      </trkpt>
      <trkpt lat="46.49198" lon="5.35542">
        <ele>238</ele>
        <time>2022-06-12T06:22:20Z</time>
      </trkpt>
      <trkpt lat="46.49204" lon="5.35541">
        <ele>238</ele>
        <time>2022-06-12T06:22:21Z</time>
      </trkpt>
      <trkpt lat="46.49227" lon="5.35538">
        <ele>238.4</ele>
        <time>2022-06-12T06:22:24Z</time>
      </trkpt>
      <trkpt lat="46.49277" lon="5.35534">
        <ele>238.6</ele>
        <time>2022-06-12T06:22:30Z</time>
      </trkpt>
      <trkpt lat="46.49324" lon="5.35535">
        <ele>238.4</ele>
        <time>2022-06-12T06:22:36Z</time>
      </trkpt>
      <trkpt lat="46.49333" lon="5.35534">
        <ele>238.4</ele>
        <time>2022-06-12T06:22:37Z</time>
      </trkpt>
      <trkpt lat="46.49377" lon="5.35532">
        <ele>237.8</ele>
        <time>2022-06-12T06:22:43Z</time>
      </trkpt>
      <trkpt lat="46.4938" lon="5.35533">
        <ele>237.2</ele>
        <time>2022-06-12T06:22:46Z</time>
      </trkpt>
      <trkpt lat="46.4938" lon="5.35533">
        <ele>237</ele>
        <time>2022-06-12T06:22:47Z</time>
      </trkpt>
      <trkpt lat="46.4938" lon="5.35533">
        <ele>236.8</ele>
        <time>2022-06-12T06:22:48Z</time>
      </trkpt>
      <trkpt lat="46.49384" lon="5.35534">
        <ele>235.6</ele>
        <time>2022-06-12T06:23:27Z</time>
      </trkpt>
      <trkpt lat="46.4939" lon="5.35536">
        <ele>235.4</ele>
        <time>2022-06-12T06:23:29Z</time>
      </trkpt>
      <trkpt lat="46.49413" lon="5.35544">
        <ele>235.6</ele>
        <time>2022-06-12T06:23:34Z</time>
      </trkpt>
      <trkpt lat="46.49445" lon="5.35557">
        <ele>235.4</ele>
        <time>2022-06-12T06:23:39Z</time>
      </trkpt>
      <trkpt lat="46.4949" lon="5.35577">
        <ele>235.2</ele>
        <time>2022-06-12T06:23:46Z</time>
      </trkpt>
      <trkpt lat="46.49547" lon="5.356">
        <ele>235</ele>
        <time>2022-06-12T06:23:54Z</time>
      </trkpt>
      <trkpt lat="46.49562" lon="5.35605">
        <ele>234.6</ele>
        <time>2022-06-12T06:23:56Z</time>
      </trkpt>
      <trkpt lat="46.4957" lon="5.35608">
        <ele>234.4</ele>
        <time>2022-06-12T06:23:57Z</time>
      </trkpt>
      <trkpt lat="46.49608" lon="5.3562">
        <ele>233.6</ele>
        <time>2022-06-12T06:24:02Z</time>
      </trkpt>
      <trkpt lat="46.4963" lon="5.35627">
        <ele>233.4</ele>
        <time>2022-06-12T06:24:05Z</time>
      </trkpt>
      <trkpt lat="46.49681" lon="5.35643">
        <ele>232.6</ele>
        <time>2022-06-12T06:24:12Z</time>
      </trkpt>
      <trkpt lat="46.4969" lon="5.35646">
        <ele>232.2</ele>
        <time>2022-06-12T06:24:14Z</time>
      </trkpt>
      <trkpt lat="46.49697" lon="5.35647">
        <ele>231.6</ele>
        <time>2022-06-12T06:24:17Z</time>
      </trkpt>
      <trkpt lat="46.49698" lon="5.35645">
        <ele>231.4</ele>
        <time>2022-06-12T06:24:18Z</time>
      </trkpt>
      <trkpt lat="46.49702" lon="5.35637">
        <ele>230.8</ele>
        <time>2022-06-12T06:24:20Z</time>
      </trkpt>
      <trkpt lat="46.49703" lon="5.35631">
        <ele>230.6</ele>
        <time>2022-06-12T06:24:21Z</time>
      </trkpt>
      <trkpt lat="46.49706" lon="5.35605">
        <ele>230.4</ele>
        <time>2022-06-12T06:24:24Z</time>
      </trkpt>
      <trkpt lat="46.49714" lon="5.35554">
        <ele>230.4</ele>
        <time>2022-06-12T06:24:29Z</time>
      </trkpt>
      <trkpt lat="46.49723" lon="5.35478">
        <ele>230.4</ele>
        <time>2022-06-12T06:24:36Z</time>
      </trkpt>
      <trkpt lat="46.49733" lon="5.35398">
        <ele>229.8</ele>
        <time>2022-06-12T06:24:43Z</time>
      </trkpt>
      <trkpt lat="46.49735" lon="5.35375">
        <ele>229.4</ele>
        <time>2022-06-12T06:24:45Z</time>
      </trkpt>
      <trkpt lat="46.49735" lon="5.3534">
        <ele>229</ele>
        <time>2022-06-12T06:24:48Z</time>
      </trkpt>
      <trkpt lat="46.49733" lon="5.35319">
        <ele>228.8</ele>
        <time>2022-06-12T06:24:50Z</time>
      </trkpt>
      <trkpt lat="46.49724" lon="5.35272">
        <ele>228.6</ele>
        <time>2022-06-12T06:24:55Z</time>
      </trkpt>
      <trkpt lat="46.49709" lon="5.35201">
        <ele>229.6</ele>
        <time>2022-06-12T06:25:03Z</time>
      </trkpt>
      <trkpt lat="46.49693" lon="5.35123">
        <ele>230</ele>
        <time>2022-06-12T06:25:11Z</time>
      </trkpt>
      <trkpt lat="46.49691" lon="5.35112">
        <ele>230</ele>
        <time>2022-06-12T06:25:12Z</time>
      </trkpt>
      <trkpt lat="46.49675" lon="5.35035">
        <ele>229.6</ele>
        <time>2022-06-12T06:25:20Z</time>
      </trkpt>
      <trkpt lat="46.49662" lon="5.34967">
        <ele>230.2</ele>
        <time>2022-06-12T06:25:28Z</time>
      </trkpt>
      <trkpt lat="46.49659" lon="5.3495">
        <ele>230.6</ele>
        <time>2022-06-12T06:25:30Z</time>
      </trkpt>
      <trkpt lat="46.49646" lon="5.34891">
        <ele>231.4</ele>
        <time>2022-06-12T06:25:37Z</time>
      </trkpt>
      <trkpt lat="46.49634" lon="5.34828">
        <ele>231.4</ele>
        <time>2022-06-12T06:25:44Z</time>
      </trkpt>
      <trkpt lat="46.49628" lon="5.34774">
        <ele>231.4</ele>
        <time>2022-06-12T06:25:49Z</time>
      </trkpt>
      <trkpt lat="46.49628" lon="5.34763">
        <ele>231.2</ele>
        <time>2022-06-12T06:25:50Z</time>
      </trkpt>
      <trkpt lat="46.49629" lon="5.347">
        <ele>229.8</ele>
        <time>2022-06-12T06:25:55Z</time>
      </trkpt>
      <trkpt lat="46.49632" lon="5.34673">
        <ele>229.4</ele>
        <time>2022-06-12T06:25:57Z</time>
      </trkpt>
      <trkpt lat="46.49638" lon="5.34617">
        <ele>228.2</ele>
        <time>2022-06-12T06:26:01Z</time>
      </trkpt>
      <trkpt lat="46.49644" lon="5.34574">
        <ele>226.8</ele>
        <time>2022-06-12T06:26:04Z</time>
      </trkpt>
      <trkpt lat="46.49651" lon="5.34534">
        <ele>225.6</ele>
        <time>2022-06-12T06:26:07Z</time>
      </trkpt>
      <trkpt lat="46.49666" lon="5.34478">
        <ele>224.6</ele>
        <time>2022-06-12T06:26:12Z</time>
      </trkpt>
      <trkpt lat="46.49679" lon="5.3443">
        <ele>224.8</ele>
        <time>2022-06-12T06:26:17Z</time>
      </trkpt>
      <trkpt lat="46.49691" lon="5.34389">
        <ele>225.6</ele>
        <time>2022-06-12T06:26:22Z</time>
      </trkpt>
      <trkpt lat="46.49696" lon="5.34373">
        <ele>225.8</ele>
        <time>2022-06-12T06:26:24Z</time>
      </trkpt>
      <trkpt lat="46.49705" lon="5.34342">
        <ele>227</ele>
        <time>2022-06-12T06:26:28Z</time>
      </trkpt>
      <trkpt lat="46.49713" lon="5.34319">
        <ele>227.6</ele>
        <time>2022-06-12T06:26:31Z</time>
      </trkpt>
      <trkpt lat="46.49716" lon="5.34311">
        <ele>228</ele>
        <time>2022-06-12T06:26:32Z</time>
      </trkpt>
      <trkpt lat="46.49738" lon="5.34265">
        <ele>229</ele>
        <time>2022-06-12T06:26:38Z</time>
      </trkpt>
      <trkpt lat="46.49742" lon="5.34258">
        <ele>229</ele>
        <time>2022-06-12T06:26:39Z</time>
      </trkpt>
      <trkpt lat="46.49767" lon="5.34216">
        <ele>228.8</ele>
        <time>2022-06-12T06:26:45Z</time>
      </trkpt>
      <trkpt lat="46.49804" lon="5.34156">
        <ele>229.2</ele>
        <time>2022-06-12T06:26:54Z</time>
      </trkpt>
      <trkpt lat="46.49833" lon="5.34109">
        <ele>229.8</ele>
        <time>2022-06-12T06:27:01Z</time>
      </trkpt>
      <trkpt lat="46.49856" lon="5.34073">
        <ele>230</ele>
        <time>2022-06-12T06:27:06Z</time>
      </trkpt>
      <trkpt lat="46.49866" lon="5.3406">
        <ele>229.8</ele>
        <time>2022-06-12T06:27:08Z</time>
      </trkpt>
      <trkpt lat="46.49908" lon="5.34013">
        <ele>229.6</ele>
        <time>2022-06-12T06:27:16Z</time>
      </trkpt>
      <trkpt lat="46.49931" lon="5.33988">
        <ele>229.8</ele>
        <time>2022-06-12T06:27:21Z</time>
      </trkpt>
      <trkpt lat="46.49946" lon="5.33975">
        <ele>230.2</ele>
        <time>2022-06-12T06:27:24Z</time>
      </trkpt>
      <trkpt lat="46.49974" lon="5.33946">
        <ele>231.2</ele>
        <time>2022-06-12T06:27:30Z</time>
      </trkpt>
      <trkpt lat="46.49979" lon="5.33941">
        <ele>231.2</ele>
        <time>2022-06-12T06:27:31Z</time>
      </trkpt>
      <trkpt lat="46.50011" lon="5.33911">
        <ele>231.8</ele>
        <time>2022-06-12T06:27:37Z</time>
      </trkpt>
      <trkpt lat="46.50049" lon="5.33868">
        <ele>232</ele>
        <time>2022-06-12T06:27:44Z</time>
      </trkpt>
      <trkpt lat="46.50092" lon="5.33817">
        <ele>231.2</ele>
        <time>2022-06-12T06:27:51Z</time>
      </trkpt>
      <trkpt lat="46.50131" lon="5.33774">
        <ele>230</ele>
        <time>2022-06-12T06:27:57Z</time>
      </trkpt>
      <trkpt lat="46.50149" lon="5.33753">
        <ele>229.6</ele>
        <time>2022-06-12T06:28:00Z</time>
      </trkpt>
      <trkpt lat="46.50167" lon="5.33735">
        <ele>229.6</ele>
        <time>2022-06-12T06:28:03Z</time>
      </trkpt>
      <trkpt lat="46.50194" lon="5.33704">
        <ele>229.6</ele>
        <time>2022-06-12T06:28:08Z</time>
      </trkpt>
      <trkpt lat="46.50205" lon="5.33692">
        <ele>229.8</ele>
        <time>2022-06-12T06:28:10Z</time>
      </trkpt>
      <trkpt lat="46.50222" lon="5.33675">
        <ele>229.8</ele>
        <time>2022-06-12T06:28:13Z</time>
      </trkpt>
      <trkpt lat="46.50266" lon="5.33626">
        <ele>229.8</ele>
        <time>2022-06-12T06:28:21Z</time>
      </trkpt>
      <trkpt lat="46.50306" lon="5.33581">
        <ele>229.2</ele>
        <time>2022-06-12T06:28:28Z</time>
      </trkpt>
      <trkpt lat="46.50317" lon="5.33568">
        <ele>229</ele>
        <time>2022-06-12T06:28:30Z</time>
      </trkpt>
      <trkpt lat="46.50335" lon="5.33549">
        <ele>228.6</ele>
        <time>2022-06-12T06:28:33Z</time>
      </trkpt>
      <trkpt lat="46.50341" lon="5.33544">
        <ele>228.4</ele>
        <time>2022-06-12T06:28:34Z</time>
      </trkpt>
      <trkpt lat="46.5037" lon="5.33514">
        <ele>228</ele>
        <time>2022-06-12T06:28:39Z</time>
      </trkpt>
      <trkpt lat="46.50399" lon="5.33483">
        <ele>227.6</ele>
        <time>2022-06-12T06:28:44Z</time>
      </trkpt>
      <trkpt lat="46.50445" lon="5.33426">
        <ele>227.2</ele>
        <time>2022-06-12T06:28:52Z</time>
      </trkpt>
      <trkpt lat="46.50454" lon="5.33409">
        <ele>226.8</ele>
        <time>2022-06-12T06:28:54Z</time>
      </trkpt>
      <trkpt lat="46.50457" lon="5.33399">
        <ele>226.4</ele>
        <time>2022-06-12T06:28:55Z</time>
      </trkpt>
      <trkpt lat="46.5046" lon="5.33388">
        <ele>226.4</ele>
        <time>2022-06-12T06:28:56Z</time>
      </trkpt>
      <trkpt lat="46.50464" lon="5.33366">
        <ele>226</ele>
        <time>2022-06-12T06:28:58Z</time>
      </trkpt>
      <trkpt lat="46.50466" lon="5.33332">
        <ele>225.8</ele>
        <time>2022-06-12T06:29:01Z</time>
      </trkpt>
      <trkpt lat="46.50467" lon="5.33309">
        <ele>225.8</ele>
        <time>2022-06-12T06:29:03Z</time>
      </trkpt>
      <trkpt lat="46.50468" lon="5.33266">
        <ele>225.6</ele>
        <time>2022-06-12T06:29:07Z</time>
      </trkpt>
      <trkpt lat="46.50469" lon="5.33219">
        <ele>225.6</ele>
        <time>2022-06-12T06:29:12Z</time>
      </trkpt>
      <trkpt lat="46.50468" lon="5.33208">
        <ele>225.6</ele>
        <time>2022-06-12T06:29:13Z</time>
      </trkpt>
      <trkpt lat="46.50469" lon="5.33181">
        <ele>226</ele>
        <time>2022-06-12T06:29:15Z</time>
      </trkpt>
      <trkpt lat="46.50472" lon="5.33167">
        <ele>226</ele>
        <time>2022-06-12T06:29:16Z</time>
      </trkpt>
      <trkpt lat="46.50475" lon="5.33132">
        <ele>226</ele>
        <time>2022-06-12T06:29:19Z</time>
      </trkpt>
      <trkpt lat="46.50474" lon="5.33122">
        <ele>226</ele>
        <time>2022-06-12T06:29:20Z</time>
      </trkpt>
      <trkpt lat="46.50474" lon="5.33113">
        <ele>225.8</ele>
        <time>2022-06-12T06:29:21Z</time>
      </trkpt>
      <trkpt lat="46.50472" lon="5.33081">
        <ele>225.2</ele>
        <time>2022-06-12T06:29:24Z</time>
      </trkpt>
      <trkpt lat="46.50472" lon="5.3307">
        <ele>224.8</ele>
        <time>2022-06-12T06:29:25Z</time>
      </trkpt>
      <trkpt lat="46.50471" lon="5.33056">
        <ele>224.6</ele>
        <time>2022-06-12T06:29:26Z</time>
      </trkpt>
      <trkpt lat="46.50472" lon="5.33004">
        <ele>223.6</ele>
        <time>2022-06-12T06:29:30Z</time>
      </trkpt>
      <trkpt lat="46.50472" lon="5.32977">
        <ele>222.8</ele>
        <time>2022-06-12T06:29:32Z</time>
      </trkpt>
      <trkpt lat="46.50473" lon="5.32963">
        <ele>222.6</ele>
        <time>2022-06-12T06:29:33Z</time>
      </trkpt>
      <trkpt lat="46.50473" lon="5.32936">
        <ele>221.6</ele>
        <time>2022-06-12T06:29:35Z</time>
      </trkpt>
      <trkpt lat="46.50474" lon="5.32894">
        <ele>220.4</ele>
        <time>2022-06-12T06:29:38Z</time>
      </trkpt>
      <trkpt lat="46.50474" lon="5.32865">
        <ele>219.4</ele>
        <time>2022-06-12T06:29:40Z</time>
      </trkpt>
      <trkpt lat="46.50475" lon="5.3285">
        <ele>218.6</ele>
        <time>2022-06-12T06:29:41Z</time>
      </trkpt>
      <trkpt lat="46.50475" lon="5.32821">
        <ele>217.6</ele>
        <time>2022-06-12T06:29:43Z</time>
      </trkpt>
      <trkpt lat="46.50476" lon="5.32793">
        <ele>216.4</ele>
        <time>2022-06-12T06:29:45Z</time>
      </trkpt>
      <trkpt lat="46.50476" lon="5.32753">
        <ele>215</ele>
        <time>2022-06-12T06:29:48Z</time>
      </trkpt>
      <trkpt lat="46.50477" lon="5.32725">
        <ele>214.4</ele>
        <time>2022-06-12T06:29:50Z</time>
      </trkpt>
      <trkpt lat="46.50477" lon="5.32703">
        <ele>214</ele>
        <time>2022-06-12T06:29:52Z</time>
      </trkpt>
      <trkpt lat="46.50478" lon="5.32653">
        <ele>213.4</ele>
        <time>2022-06-12T06:29:56Z</time>
      </trkpt>
      <trkpt lat="46.50478" lon="5.32626">
        <ele>213</ele>
        <time>2022-06-12T06:29:58Z</time>
      </trkpt>
      <trkpt lat="46.50476" lon="5.3257">
        <ele>212</ele>
        <time>2022-06-12T06:30:03Z</time>
      </trkpt>
      <trkpt lat="46.50476" lon="5.32558">
        <ele>211.8</ele>
        <time>2022-06-12T06:30:04Z</time>
      </trkpt>
      <trkpt lat="46.50471" lon="5.32475">
        <ele>211</ele>
        <time>2022-06-12T06:30:11Z</time>
      </trkpt>
      <trkpt lat="46.50469" lon="5.32452">
        <ele>210.6</ele>
        <time>2022-06-12T06:30:13Z</time>
      </trkpt>
      <trkpt lat="46.50459" lon="5.32396">
        <ele>209.6</ele>
        <time>2022-06-12T06:30:18Z</time>
      </trkpt>
      <trkpt lat="46.50454" lon="5.32375">
        <ele>209.2</ele>
        <time>2022-06-12T06:30:20Z</time>
      </trkpt>
      <trkpt lat="46.50437" lon="5.32293">
        <ele>209</ele>
        <time>2022-06-12T06:30:28Z</time>
      </trkpt>
      <trkpt lat="46.50435" lon="5.32283">
        <ele>209</ele>
        <time>2022-06-12T06:30:29Z</time>
      </trkpt>
      <trkpt lat="46.50432" lon="5.32233">
        <ele>209</ele>
        <time>2022-06-12T06:30:34Z</time>
      </trkpt>
      <trkpt lat="46.50433" lon="5.32212">
        <ele>209</ele>
        <time>2022-06-12T06:30:36Z</time>
      </trkpt>
      <trkpt lat="46.50439" lon="5.32196">
        <ele>209</ele>
        <time>2022-06-12T06:30:38Z</time>
      </trkpt>
      <trkpt lat="46.50455" lon="5.3218">
        <ele>208.8</ele>
        <time>2022-06-12T06:30:41Z</time>
      </trkpt>
      <trkpt lat="46.50465" lon="5.32166">
        <ele>208.8</ele>
        <time>2022-06-12T06:30:43Z</time>
      </trkpt>
      <trkpt lat="46.50471" lon="5.32148">
        <ele>208.6</ele>
        <time>2022-06-12T06:30:45Z</time>
      </trkpt>
      <trkpt lat="46.50493" lon="5.32086">
        <ele>208.6</ele>
        <time>2022-06-12T06:30:52Z</time>
      </trkpt>
      <trkpt lat="46.50523" lon="5.3203">
        <ele>208.6</ele>
        <time>2022-06-12T06:30:59Z</time>
      </trkpt>
      <trkpt lat="46.50553" lon="5.31985">
        <ele>208.6</ele>
        <time>2022-06-12T06:31:06Z</time>
      </trkpt>
      <trkpt lat="46.50556" lon="5.31978">
        <ele>208.8</ele>
        <time>2022-06-12T06:31:07Z</time>
      </trkpt>
      <trkpt lat="46.50566" lon="5.3195">
        <ele>209.6</ele>
        <time>2022-06-12T06:31:11Z</time>
      </trkpt>
      <trkpt lat="46.50573" lon="5.31931">
        <ele>210.2</ele>
        <time>2022-06-12T06:31:14Z</time>
      </trkpt>
      <trkpt lat="46.5058" lon="5.31913">
        <ele>211.2</ele>
        <time>2022-06-12T06:31:17Z</time>
      </trkpt>
      <trkpt lat="46.50587" lon="5.31891">
        <ele>212.4</ele>
        <time>2022-06-12T06:31:21Z</time>
      </trkpt>
      <trkpt lat="46.50589" lon="5.31885">
        <ele>212.6</ele>
        <time>2022-06-12T06:31:22Z</time>
      </trkpt>
      <trkpt lat="46.50592" lon="5.31881">
        <ele>212.8</ele>
        <time>2022-06-12T06:31:23Z</time>
      </trkpt>
      <trkpt lat="46.50597" lon="5.31871">
        <ele>213.6</ele>
        <time>2022-06-12T06:31:25Z</time>
      </trkpt>
      <trkpt lat="46.506" lon="5.31866">
        <ele>213.8</ele>
        <time>2022-06-12T06:31:26Z</time>
      </trkpt>
      <trkpt lat="46.50604" lon="5.31855">
        <ele>214.4</ele>
        <time>2022-06-12T06:31:28Z</time>
      </trkpt>
      <trkpt lat="46.50607" lon="5.3185">
        <ele>214.6</ele>
        <time>2022-06-12T06:31:29Z</time>
      </trkpt>
      <trkpt lat="46.50611" lon="5.31837">
        <ele>215</ele>
        <time>2022-06-12T06:31:31Z</time>
      </trkpt>
      <trkpt lat="46.50616" lon="5.31817">
        <ele>215.6</ele>
        <time>2022-06-12T06:31:34Z</time>
      </trkpt>
      <trkpt lat="46.50618" lon="5.31811">
        <ele>215.8</ele>
        <time>2022-06-12T06:31:35Z</time>
      </trkpt>
      <trkpt lat="46.50623" lon="5.31798">
        <ele>216</ele>
        <time>2022-06-12T06:31:37Z</time>
      </trkpt>
      <trkpt lat="46.50626" lon="5.31784">
        <ele>216.4</ele>
        <time>2022-06-12T06:31:39Z</time>
      </trkpt>
      <trkpt lat="46.50632" lon="5.3177">
        <ele>216.8</ele>
        <time>2022-06-12T06:31:41Z</time>
      </trkpt>
      <trkpt lat="46.50634" lon="5.31762">
        <ele>216.8</ele>
        <time>2022-06-12T06:31:42Z</time>
      </trkpt>
      <trkpt lat="46.50646" lon="5.31734">
        <ele>217.2</ele>
        <time>2022-06-12T06:31:46Z</time>
      </trkpt>
      <trkpt lat="46.5065" lon="5.31729">
        <ele>217.2</ele>
        <time>2022-06-12T06:31:47Z</time>
      </trkpt>
      <trkpt lat="46.5066" lon="5.31719">
        <ele>217.2</ele>
        <time>2022-06-12T06:31:49Z</time>
      </trkpt>
      <trkpt lat="46.50665" lon="5.31716">
        <ele>217.2</ele>
        <time>2022-06-12T06:31:50Z</time>
      </trkpt>
      <trkpt lat="46.5067" lon="5.31714">
        <ele>217.4</ele>
        <time>2022-06-12T06:31:51Z</time>
      </trkpt>
      <trkpt lat="46.50694" lon="5.3171">
        <ele>217.6</ele>
        <time>2022-06-12T06:31:55Z</time>
      </trkpt>
      <trkpt lat="46.50752" lon="5.31703">
        <ele>217.6</ele>
        <time>2022-06-12T06:32:04Z</time>
      </trkpt>
      <trkpt lat="46.50772" lon="5.31706">
        <ele>217.4</ele>
        <time>2022-06-12T06:32:07Z</time>
      </trkpt>
      <trkpt lat="46.50784" lon="5.31712">
        <ele>217.4</ele>
        <time>2022-06-12T06:32:09Z</time>
      </trkpt>
      <trkpt lat="46.50823" lon="5.31742">
        <ele>217.4</ele>
        <time>2022-06-12T06:32:16Z</time>
      </trkpt>
      <trkpt lat="46.50829" lon="5.31744">
        <ele>217.4</ele>
        <time>2022-06-12T06:32:17Z</time>
      </trkpt>
      <trkpt lat="46.5084" lon="5.31746">
        <ele>217.4</ele>
        <time>2022-06-12T06:32:19Z</time>
      </trkpt>
      <trkpt lat="46.50846" lon="5.31745">
        <ele>217.6</ele>
        <time>2022-06-12T06:32:20Z</time>
      </trkpt>
      <trkpt lat="46.50851" lon="5.31743">
        <ele>217.6</ele>
        <time>2022-06-12T06:32:21Z</time>
      </trkpt>
      <trkpt lat="46.50865" lon="5.31731">
        <ele>218</ele>
        <time>2022-06-12T06:32:24Z</time>
      </trkpt>
      <trkpt lat="46.50897" lon="5.31699">
        <ele>219.2</ele>
        <time>2022-06-12T06:32:30Z</time>
      </trkpt>
      <trkpt lat="46.50907" lon="5.31688">
        <ele>219.2</ele>
        <time>2022-06-12T06:32:32Z</time>
      </trkpt>
      <trkpt lat="46.50938" lon="5.31655">
        <ele>219</ele>
        <time>2022-06-12T06:32:37Z</time>
      </trkpt>
      <trkpt lat="46.50984" lon="5.31607">
        <ele>218</ele>
        <time>2022-06-12T06:32:44Z</time>
      </trkpt>
      <trkpt lat="46.50996" lon="5.31594">
        <ele>217.8</ele>
        <time>2022-06-12T06:32:46Z</time>
      </trkpt>
      <trkpt lat="46.51018" lon="5.31569">
        <ele>218.2</ele>
        <time>2022-06-12T06:32:50Z</time>
      </trkpt>
      <trkpt lat="46.51028" lon="5.31555">
        <ele>218.4</ele>
        <time>2022-06-12T06:32:52Z</time>
      </trkpt>
      <trkpt lat="46.51036" lon="5.31539">
        <ele>218.6</ele>
        <time>2022-06-12T06:32:54Z</time>
      </trkpt>
      <trkpt lat="46.51039" lon="5.3153">
        <ele>218.8</ele>
        <time>2022-06-12T06:32:55Z</time>
      </trkpt>
      <trkpt lat="46.51053" lon="5.31475">
        <ele>218.6</ele>
        <time>2022-06-12T06:33:00Z</time>
      </trkpt>
      <trkpt lat="46.51069" lon="5.31403">
        <ele>217.2</ele>
        <time>2022-06-12T06:33:06Z</time>
      </trkpt>
      <trkpt lat="46.5107" lon="5.31391">
        <ele>216.8</ele>
        <time>2022-06-12T06:33:07Z</time>
      </trkpt>
      <trkpt lat="46.51072" lon="5.31378">
        <ele>216.6</ele>
        <time>2022-06-12T06:33:08Z</time>
      </trkpt>
      <trkpt lat="46.51071" lon="5.31355">
        <ele>216.2</ele>
        <time>2022-06-12T06:33:10Z</time>
      </trkpt>
      <trkpt lat="46.51071" lon="5.31329">
        <ele>215.8</ele>
        <time>2022-06-12T06:33:12Z</time>
      </trkpt>
      <trkpt lat="46.51074" lon="5.31316">
        <ele>215.4</ele>
        <time>2022-06-12T06:33:13Z</time>
      </trkpt>
      <trkpt lat="46.51078" lon="5.31304">
        <ele>215.2</ele>
        <time>2022-06-12T06:33:14Z</time>
      </trkpt>
      <trkpt lat="46.51091" lon="5.31282">
        <ele>214.4</ele>
        <time>2022-06-12T06:33:16Z</time>
      </trkpt>
      <trkpt lat="46.51114" lon="5.31253">
        <ele>213.2</ele>
        <time>2022-06-12T06:33:19Z</time>
      </trkpt>
      <trkpt lat="46.51121" lon="5.31244">
        <ele>212.8</ele>
        <time>2022-06-12T06:33:20Z</time>
      </trkpt>
      <trkpt lat="46.51127" lon="5.31234">
        <ele>212.6</ele>
        <time>2022-06-12T06:33:21Z</time>
      </trkpt>
      <trkpt lat="46.51142" lon="5.31217">
        <ele>211.8</ele>
        <time>2022-06-12T06:33:23Z</time>
      </trkpt>
      <trkpt lat="46.51172" lon="5.31183">
        <ele>210.6</ele>
        <time>2022-06-12T06:33:27Z</time>
      </trkpt>
      <trkpt lat="46.51213" lon="5.31134">
        <ele>209.6</ele>
        <time>2022-06-12T06:33:33Z</time>
      </trkpt>
      <trkpt lat="46.5122" lon="5.31125">
        <ele>209.4</ele>
        <time>2022-06-12T06:33:34Z</time>
      </trkpt>
      <trkpt lat="46.5125" lon="5.31092">
        <ele>208.8</ele>
        <time>2022-06-12T06:33:38Z</time>
      </trkpt>
      <trkpt lat="46.51258" lon="5.31086">
        <ele>208.4</ele>
        <time>2022-06-12T06:33:39Z</time>
      </trkpt>
      <trkpt lat="46.51268" lon="5.31082">
        <ele>208.4</ele>
        <time>2022-06-12T06:33:40Z</time>
      </trkpt>
      <trkpt lat="46.51295" lon="5.3108">
        <ele>207.4</ele>
        <time>2022-06-12T06:33:43Z</time>
      </trkpt>
      <trkpt lat="46.51304" lon="5.3108">
        <ele>207.4</ele>
        <time>2022-06-12T06:33:44Z</time>
      </trkpt>
      <trkpt lat="46.51361" lon="5.31076">
        <ele>206.8</ele>
        <time>2022-06-12T06:33:51Z</time>
      </trkpt>
      <trkpt lat="46.51369" lon="5.31075">
        <ele>206.8</ele>
        <time>2022-06-12T06:33:52Z</time>
      </trkpt>
      <trkpt lat="46.51429" lon="5.31071">
        <ele>206.8</ele>
        <time>2022-06-12T06:34:00Z</time>
      </trkpt>
      <trkpt lat="46.51489" lon="5.31071">
        <ele>206.6</ele>
        <time>2022-06-12T06:34:08Z</time>
      </trkpt>
      <trkpt lat="46.51496" lon="5.31071">
        <ele>206.6</ele>
        <time>2022-06-12T06:34:09Z</time>
      </trkpt>
      <trkpt lat="46.51551" lon="5.31075">
        <ele>206.8</ele>
        <time>2022-06-12T06:34:17Z</time>
      </trkpt>
      <trkpt lat="46.51591" lon="5.31082">
        <ele>206.6</ele>
        <time>2022-06-12T06:34:23Z</time>
      </trkpt>
      <trkpt lat="46.51632" lon="5.31102">
        <ele>207</ele>
        <time>2022-06-12T06:34:30Z</time>
      </trkpt>
      <trkpt lat="46.51637" lon="5.31105">
        <ele>207.2</ele>
        <time>2022-06-12T06:34:31Z</time>
      </trkpt>
      <trkpt lat="46.51648" lon="5.31105">
        <ele>207.4</ele>
        <time>2022-06-12T06:34:33Z</time>
      </trkpt>
      <trkpt lat="46.51653" lon="5.31104">
        <ele>207.6</ele>
        <time>2022-06-12T06:34:34Z</time>
      </trkpt>
      <trkpt lat="46.51663" lon="5.31104">
        <ele>208.2</ele>
        <time>2022-06-12T06:34:36Z</time>
      </trkpt>
      <trkpt lat="46.51671" lon="5.31109">
        <ele>208.4</ele>
        <time>2022-06-12T06:34:38Z</time>
      </trkpt>
      <trkpt lat="46.51674" lon="5.31114">
        <ele>208.6</ele>
        <time>2022-06-12T06:34:39Z</time>
      </trkpt>
      <trkpt lat="46.51685" lon="5.31134">
        <ele>208.8</ele>
        <time>2022-06-12T06:34:42Z</time>
      </trkpt>
      <trkpt lat="46.51694" lon="5.31148">
        <ele>209</ele>
        <time>2022-06-12T06:34:44Z</time>
      </trkpt>
      <trkpt lat="46.51705" lon="5.3116">
        <ele>209</ele>
        <time>2022-06-12T06:34:46Z</time>
      </trkpt>
      <trkpt lat="46.51711" lon="5.31166">
        <ele>208.8</ele>
        <time>2022-06-12T06:34:47Z</time>
      </trkpt>
      <trkpt lat="46.51725" lon="5.31174">
        <ele>208.6</ele>
        <time>2022-06-12T06:34:49Z</time>
      </trkpt>
      <trkpt lat="46.5174" lon="5.31179">
        <ele>208.4</ele>
        <time>2022-06-12T06:34:51Z</time>
      </trkpt>
      <trkpt lat="46.51775" lon="5.31181">
        <ele>207.6</ele>
        <time>2022-06-12T06:34:55Z</time>
      </trkpt>
      <trkpt lat="46.51784" lon="5.31182">
        <ele>207.4</ele>
        <time>2022-06-12T06:34:56Z</time>
      </trkpt>
      <trkpt lat="46.51812" lon="5.31183">
        <ele>206.2</ele>
        <time>2022-06-12T06:34:59Z</time>
      </trkpt>
      <trkpt lat="46.51831" lon="5.31187">
        <ele>205.4</ele>
        <time>2022-06-12T06:35:01Z</time>
      </trkpt>
      <trkpt lat="46.5184" lon="5.31191">
        <ele>205</ele>
        <time>2022-06-12T06:35:02Z</time>
      </trkpt>
      <trkpt lat="46.51858" lon="5.31203">
        <ele>204.2</ele>
        <time>2022-06-12T06:35:04Z</time>
      </trkpt>
      <trkpt lat="46.51865" lon="5.3121">
        <ele>204</ele>
        <time>2022-06-12T06:35:05Z</time>
      </trkpt>
      <trkpt lat="46.51885" lon="5.31237">
        <ele>202.8</ele>
        <time>2022-06-12T06:35:08Z</time>
      </trkpt>
      <trkpt lat="46.51914" lon="5.31282">
        <ele>201.6</ele>
        <time>2022-06-12T06:35:13Z</time>
      </trkpt>
      <trkpt lat="46.51951" lon="5.31337">
        <ele>201.6</ele>
        <time>2022-06-12T06:35:20Z</time>
      </trkpt>
      <trkpt lat="46.51985" lon="5.31389">
        <ele>201.8</ele>
        <time>2022-06-12T06:35:27Z</time>
      </trkpt>
      <trkpt lat="46.52013" lon="5.31429">
        <ele>202.4</ele>
        <time>2022-06-12T06:35:33Z</time>
      </trkpt>
      <trkpt lat="46.52029" lon="5.31454">
        <ele>202.8</ele>
        <time>2022-06-12T06:35:37Z</time>
      </trkpt>
      <trkpt lat="46.52033" lon="5.3146">
        <ele>202.8</ele>
        <time>2022-06-12T06:35:38Z</time>
      </trkpt>
      <trkpt lat="46.52057" lon="5.31495">
        <ele>203.6</ele>
        <time>2022-06-12T06:35:44Z</time>
      </trkpt>
      <trkpt lat="46.52068" lon="5.31512">
        <ele>203.8</ele>
        <time>2022-06-12T06:35:47Z</time>
      </trkpt>
      <trkpt lat="46.52072" lon="5.31517">
        <ele>203.8</ele>
        <time>2022-06-12T06:35:48Z</time>
      </trkpt>
      <trkpt lat="46.52079" lon="5.31528">
        <ele>204.4</ele>
        <time>2022-06-12T06:35:50Z</time>
      </trkpt>
      <trkpt lat="46.52094" lon="5.31548">
        <ele>204.8</ele>
        <time>2022-06-12T06:35:54Z</time>
      </trkpt>
      <trkpt lat="46.52098" lon="5.31553">
        <ele>205</ele>
        <time>2022-06-12T06:35:55Z</time>
      </trkpt>
      <trkpt lat="46.52116" lon="5.3158">
        <ele>206</ele>
        <time>2022-06-12T06:36:00Z</time>
      </trkpt>
      <trkpt lat="46.52132" lon="5.31599">
        <ele>206.6</ele>
        <time>2022-06-12T06:36:04Z</time>
      </trkpt>
      <trkpt lat="46.52144" lon="5.31615">
        <ele>207</ele>
        <time>2022-06-12T06:36:07Z</time>
      </trkpt>
      <trkpt lat="46.52169" lon="5.31652">
        <ele>207.8</ele>
        <time>2022-06-12T06:36:14Z</time>
      </trkpt>
      <trkpt lat="46.52173" lon="5.31656">
        <ele>208.2</ele>
        <time>2022-06-12T06:36:15Z</time>
      </trkpt>
      <trkpt lat="46.52199" lon="5.3169">
        <ele>209.2</ele>
        <time>2022-06-12T06:36:22Z</time>
      </trkpt>
      <trkpt lat="46.52206" lon="5.317">
        <ele>209.6</ele>
        <time>2022-06-12T06:36:24Z</time>
      </trkpt>
      <trkpt lat="46.52228" lon="5.31737">
        <ele>210.4</ele>
        <time>2022-06-12T06:36:31Z</time>
      </trkpt>
      <trkpt lat="46.52232" lon="5.31742">
        <ele>210.6</ele>
        <time>2022-06-12T06:36:32Z</time>
      </trkpt>
      <trkpt lat="46.52253" lon="5.31773">
        <ele>211.6</ele>
        <time>2022-06-12T06:36:38Z</time>
      </trkpt>
      <trkpt lat="46.52261" lon="5.31783">
        <ele>212</ele>
        <time>2022-06-12T06:36:40Z</time>
      </trkpt>
      <trkpt lat="46.52278" lon="5.31808">
        <ele>212.8</ele>
        <time>2022-06-12T06:36:45Z</time>
      </trkpt>
      <trkpt lat="46.52293" lon="5.31832">
        <ele>213.4</ele>
        <time>2022-06-12T06:36:50Z</time>
      </trkpt>
      <trkpt lat="46.523" lon="5.31841">
        <ele>213.8</ele>
        <time>2022-06-12T06:36:52Z</time>
      </trkpt>
      <trkpt lat="46.52309" lon="5.31855">
        <ele>214.2</ele>
        <time>2022-06-12T06:36:55Z</time>
      </trkpt>
      <trkpt lat="46.52315" lon="5.31864">
        <ele>214.4</ele>
        <time>2022-06-12T06:36:57Z</time>
      </trkpt>
      <trkpt lat="46.52321" lon="5.31874">
        <ele>214.8</ele>
        <time>2022-06-12T06:36:59Z</time>
      </trkpt>
      <trkpt lat="46.52335" lon="5.31892">
        <ele>215.2</ele>
        <time>2022-06-12T06:37:03Z</time>
      </trkpt>
      <trkpt lat="46.52338" lon="5.31897">
        <ele>215.4</ele>
        <time>2022-06-12T06:37:04Z</time>
      </trkpt>
      <trkpt lat="46.52346" lon="5.31908">
        <ele>215.6</ele>
        <time>2022-06-12T06:37:06Z</time>
      </trkpt>
      <trkpt lat="46.52354" lon="5.31919">
        <ele>215.8</ele>
        <time>2022-06-12T06:37:08Z</time>
      </trkpt>
      <trkpt lat="46.52376" lon="5.3195">
        <ele>216.4</ele>
        <time>2022-06-12T06:37:13Z</time>
      </trkpt>
      <trkpt lat="46.52407" lon="5.31993">
        <ele>215.6</ele>
        <time>2022-06-12T06:37:19Z</time>
      </trkpt>
      <trkpt lat="46.52436" lon="5.32032">
        <ele>214.4</ele>
        <time>2022-06-12T06:37:24Z</time>
      </trkpt>
      <trkpt lat="46.52461" lon="5.32066">
        <ele>213.4</ele>
        <time>2022-06-12T06:37:28Z</time>
      </trkpt>
      <trkpt lat="46.52468" lon="5.32075">
        <ele>213.2</ele>
        <time>2022-06-12T06:37:29Z</time>
      </trkpt>
      <trkpt lat="46.52491" lon="5.3211">
        <ele>212</ele>
        <time>2022-06-12T06:37:33Z</time>
      </trkpt>
      <trkpt lat="46.52504" lon="5.32129">
        <ele>211.6</ele>
        <time>2022-06-12T06:37:35Z</time>
      </trkpt>
      <trkpt lat="46.52525" lon="5.32157">
        <ele>210.8</ele>
        <time>2022-06-12T06:37:38Z</time>
      </trkpt>
      <trkpt lat="46.5254" lon="5.32173">
        <ele>210.2</ele>
        <time>2022-06-12T06:37:40Z</time>
      </trkpt>
      <trkpt lat="46.52557" lon="5.32187">
        <ele>209.6</ele>
        <time>2022-06-12T06:37:42Z</time>
      </trkpt>
      <trkpt lat="46.52575" lon="5.32198">
        <ele>209</ele>
        <time>2022-06-12T06:37:44Z</time>
      </trkpt>
      <trkpt lat="46.52585" lon="5.32203">
        <ele>208.8</ele>
        <time>2022-06-12T06:37:45Z</time>
      </trkpt>
      <trkpt lat="46.52615" lon="5.32216">
        <ele>207.6</ele>
        <time>2022-06-12T06:37:48Z</time>
      </trkpt>
      <trkpt lat="46.52634" lon="5.32227">
        <ele>206.6</ele>
        <time>2022-06-12T06:37:50Z</time>
      </trkpt>
      <trkpt lat="46.52653" lon="5.3224">
        <ele>205.4</ele>
        <time>2022-06-12T06:37:52Z</time>
      </trkpt>
      <trkpt lat="46.52671" lon="5.32255">
        <ele>204.2</ele>
        <time>2022-06-12T06:37:54Z</time>
      </trkpt>
      <trkpt lat="46.52679" lon="5.32263">
        <ele>203.6</ele>
        <time>2022-06-12T06:37:55Z</time>
      </trkpt>
      <trkpt lat="46.52695" lon="5.32281">
        <ele>202.8</ele>
        <time>2022-06-12T06:37:57Z</time>
      </trkpt>
      <trkpt lat="46.5271" lon="5.32298">
        <ele>201.6</ele>
        <time>2022-06-12T06:37:59Z</time>
      </trkpt>
      <trkpt lat="46.52717" lon="5.32307">
        <ele>201.4</ele>
        <time>2022-06-12T06:38:00Z</time>
      </trkpt>
      <trkpt lat="46.52758" lon="5.32358">
        <ele>201</ele>
        <time>2022-06-12T06:38:06Z</time>
      </trkpt>
      <trkpt lat="46.52802" lon="5.32408">
        <ele>200.8</ele>
        <time>2022-06-12T06:38:13Z</time>
      </trkpt>
      <trkpt lat="46.52851" lon="5.3246">
        <ele>200.8</ele>
        <time>2022-06-12T06:38:21Z</time>
      </trkpt>
      <trkpt lat="46.52857" lon="5.32467">
        <ele>200.8</ele>
        <time>2022-06-12T06:38:22Z</time>
      </trkpt>
      <trkpt lat="46.52888" lon="5.32499">
        <ele>200.6</ele>
        <time>2022-06-12T06:38:27Z</time>
      </trkpt>
      <trkpt lat="46.52912" lon="5.32522">
        <ele>200.4</ele>
        <time>2022-06-12T06:38:31Z</time>
      </trkpt>
      <trkpt lat="46.52957" lon="5.32566">
        <ele>200.6</ele>
        <time>2022-06-12T06:38:39Z</time>
      </trkpt>
      <trkpt lat="46.52962" lon="5.32572">
        <ele>200.6</ele>
        <time>2022-06-12T06:38:40Z</time>
      </trkpt>
      <trkpt lat="46.52991" lon="5.32602">
        <ele>201</ele>
        <time>2022-06-12T06:38:46Z</time>
      </trkpt>
      <trkpt lat="46.53006" lon="5.32617">
        <ele>201.8</ele>
        <time>2022-06-12T06:38:50Z</time>
      </trkpt>
      <trkpt lat="46.53012" lon="5.32625">
        <ele>202</ele>
        <time>2022-06-12T06:38:52Z</time>
      </trkpt>
      <trkpt lat="46.53022" lon="5.32636">
        <ele>202.8</ele>
        <time>2022-06-12T06:38:55Z</time>
      </trkpt>
      <trkpt lat="46.53025" lon="5.32639">
        <ele>203</ele>
        <time>2022-06-12T06:38:56Z</time>
      </trkpt>
      <trkpt lat="46.53032" lon="5.32646">
        <ele>203.4</ele>
        <time>2022-06-12T06:38:58Z</time>
      </trkpt>
      <trkpt lat="46.53038" lon="5.32653">
        <ele>204</ele>
        <time>2022-06-12T06:39:00Z</time>
      </trkpt>
      <trkpt lat="46.53046" lon="5.32662">
        <ele>205.2</ele>
        <time>2022-06-12T06:39:03Z</time>
      </trkpt>
      <trkpt lat="46.53059" lon="5.32675">
        <ele>205.8</ele>
        <time>2022-06-12T06:39:07Z</time>
      </trkpt>
      <trkpt lat="46.53064" lon="5.32681">
        <ele>206.4</ele>
        <time>2022-06-12T06:39:09Z</time>
      </trkpt>
      <trkpt lat="46.53078" lon="5.32698">
        <ele>207.4</ele>
        <time>2022-06-12T06:39:14Z</time>
      </trkpt>
      <trkpt lat="46.53081" lon="5.32701">
        <ele>207.6</ele>
        <time>2022-06-12T06:39:15Z</time>
      </trkpt>
      <trkpt lat="46.53096" lon="5.32718">
        <ele>208.4</ele>
        <time>2022-06-12T06:39:20Z</time>
      </trkpt>
      <trkpt lat="46.53101" lon="5.32724">
        <ele>209.2</ele>
        <time>2022-06-12T06:39:22Z</time>
      </trkpt>
      <trkpt lat="46.53107" lon="5.3273">
        <ele>209.4</ele>
        <time>2022-06-12T06:39:24Z</time>
      </trkpt>
      <trkpt lat="46.5312" lon="5.32745">
        <ele>210.6</ele>
        <time>2022-06-12T06:39:29Z</time>
      </trkpt>
      <trkpt lat="46.53126" lon="5.32751">
        <ele>211.2</ele>
        <time>2022-06-12T06:39:31Z</time>
      </trkpt>
      <trkpt lat="46.53137" lon="5.32765">
        <ele>211.6</ele>
        <time>2022-06-12T06:39:35Z</time>
      </trkpt>
      <trkpt lat="46.53139" lon="5.32768">
        <ele>211.8</ele>
        <time>2022-06-12T06:39:36Z</time>
      </trkpt>
      <trkpt lat="46.53149" lon="5.32782">
        <ele>212.8</ele>
        <time>2022-06-12T06:39:40Z</time>
      </trkpt>
      <trkpt lat="46.53152" lon="5.32785">
        <ele>212.8</ele>
        <time>2022-06-12T06:39:41Z</time>
      </trkpt>
      <trkpt lat="46.53164" lon="5.32804">
        <ele>213.8</ele>
        <time>2022-06-12T06:39:46Z</time>
      </trkpt>
      <trkpt lat="46.53173" lon="5.3282">
        <ele>215</ele>
        <time>2022-06-12T06:39:50Z</time>
      </trkpt>
      <trkpt lat="46.53186" lon="5.32845">
        <ele>216.2</ele>
        <time>2022-06-12T06:39:56Z</time>
      </trkpt>
      <trkpt lat="46.53195" lon="5.32862">
        <ele>217.2</ele>
        <time>2022-06-12T06:40:00Z</time>
      </trkpt>
      <trkpt lat="46.53197" lon="5.32867">
        <ele>217.6</ele>
        <time>2022-06-12T06:40:01Z</time>
      </trkpt>
      <trkpt lat="46.53209" lon="5.32889">
        <ele>218.6</ele>
        <time>2022-06-12T06:40:06Z</time>
      </trkpt>
      <trkpt lat="46.53225" lon="5.32919">
        <ele>219.8</ele>
        <time>2022-06-12T06:40:13Z</time>
      </trkpt>
      <trkpt lat="46.53239" lon="5.32948">
        <ele>220.8</ele>
        <time>2022-06-12T06:40:19Z</time>
      </trkpt>
      <trkpt lat="46.53242" lon="5.32953">
        <ele>220.8</ele>
        <time>2022-06-12T06:40:20Z</time>
      </trkpt>
      <trkpt lat="46.53258" lon="5.32985">
        <ele>222</ele>
        <time>2022-06-12T06:40:27Z</time>
      </trkpt>
      <trkpt lat="46.53268" lon="5.33004">
        <ele>222.6</ele>
        <time>2022-06-12T06:40:31Z</time>
      </trkpt>
      <trkpt lat="46.53281" lon="5.33029">
        <ele>223</ele>
        <time>2022-06-12T06:40:36Z</time>
      </trkpt>
      <trkpt lat="46.53297" lon="5.33055">
        <ele>223.8</ele>
        <time>2022-06-12T06:40:41Z</time>
      </trkpt>
      <trkpt lat="46.53312" lon="5.33076">
        <ele>224.2</ele>
        <time>2022-06-12T06:40:45Z</time>
      </trkpt>
      <trkpt lat="46.53328" lon="5.33097">
        <ele>224.6</ele>
        <time>2022-06-12T06:40:49Z</time>
      </trkpt>
      <trkpt lat="46.53354" lon="5.33133">
        <ele>225</ele>
        <time>2022-06-12T06:40:55Z</time>
      </trkpt>
      <trkpt lat="46.53386" lon="5.33176">
        <ele>224.8</ele>
        <time>2022-06-12T06:41:02Z</time>
      </trkpt>
      <trkpt lat="46.53427" lon="5.33234">
        <ele>224.2</ele>
        <time>2022-06-12T06:41:11Z</time>
      </trkpt>
      <trkpt lat="46.53436" lon="5.33247">
        <ele>224.2</ele>
        <time>2022-06-12T06:41:13Z</time>
      </trkpt>
      <trkpt lat="46.53477" lon="5.33305">
        <ele>224.2</ele>
        <time>2022-06-12T06:41:22Z</time>
      </trkpt>
      <trkpt lat="46.53519" lon="5.33363">
        <ele>224.2</ele>
        <time>2022-06-12T06:41:31Z</time>
      </trkpt>
      <trkpt lat="46.53524" lon="5.3337">
        <ele>224.2</ele>
        <time>2022-06-12T06:41:32Z</time>
      </trkpt>
      <trkpt lat="46.53544" lon="5.33398">
        <ele>223.8</ele>
        <time>2022-06-12T06:41:36Z</time>
      </trkpt>
      <trkpt lat="46.53565" lon="5.33428">
        <ele>223.6</ele>
        <time>2022-06-12T06:41:40Z</time>
      </trkpt>
      <trkpt lat="46.53581" lon="5.3345">
        <ele>223.2</ele>
        <time>2022-06-12T06:41:43Z</time>
      </trkpt>
      <trkpt lat="46.53604" lon="5.33482">
        <ele>222.2</ele>
        <time>2022-06-12T06:41:47Z</time>
      </trkpt>
      <trkpt lat="46.53623" lon="5.33507">
        <ele>221.2</ele>
        <time>2022-06-12T06:41:51Z</time>
      </trkpt>
      <trkpt lat="46.53626" lon="5.33512">
        <ele>221</ele>
        <time>2022-06-12T06:41:52Z</time>
      </trkpt>
      <trkpt lat="46.53633" lon="5.33523">
        <ele>220.6</ele>
        <time>2022-06-12T06:41:56Z</time>
      </trkpt>
      <trkpt lat="46.53643" lon="5.33518">
        <ele>220</ele>
        <time>2022-06-12T06:41:59Z</time>
      </trkpt>
      <trkpt lat="46.53668" lon="5.33494">
        <ele>220</ele>
        <time>2022-06-12T06:42:05Z</time>
      </trkpt>
      <trkpt lat="46.53697" lon="5.33471">
        <ele>221.2</ele>
        <time>2022-06-12T06:42:11Z</time>
      </trkpt>
      <trkpt lat="46.53709" lon="5.3347">
        <ele>221.4</ele>
        <time>2022-06-12T06:42:13Z</time>
      </trkpt>
      <trkpt lat="46.53715" lon="5.33473">
        <ele>221.4</ele>
        <time>2022-06-12T06:42:14Z</time>
      </trkpt>
      <trkpt lat="46.53755" lon="5.33494">
        <ele>221.2</ele>
        <time>2022-06-12T06:42:20Z</time>
      </trkpt>
      <trkpt lat="46.53797" lon="5.33524">
        <ele>220</ele>
        <time>2022-06-12T06:42:26Z</time>
      </trkpt>
      <trkpt lat="46.53804" lon="5.33529">
        <ele>219.8</ele>
        <time>2022-06-12T06:42:27Z</time>
      </trkpt>
      <trkpt lat="46.5384" lon="5.33549">
        <ele>219</ele>
        <time>2022-06-12T06:42:32Z</time>
      </trkpt>
      <trkpt lat="46.53862" lon="5.33558">
        <ele>218.4</ele>
        <time>2022-06-12T06:42:35Z</time>
      </trkpt>
      <trkpt lat="46.53886" lon="5.3356">
        <ele>217.8</ele>
        <time>2022-06-12T06:42:38Z</time>
      </trkpt>
      <trkpt lat="46.53905" lon="5.33561">
        <ele>217.8</ele>
        <time>2022-06-12T06:42:40Z</time>
      </trkpt>
      <trkpt lat="46.53952" lon="5.33566">
        <ele>216.6</ele>
        <time>2022-06-12T06:42:45Z</time>
      </trkpt>
      <trkpt lat="46.53984" lon="5.33567">
        <ele>215.2</ele>
        <time>2022-06-12T06:42:48Z</time>
      </trkpt>
      <trkpt lat="46.54005" lon="5.3357">
        <ele>214</ele>
        <time>2022-06-12T06:42:50Z</time>
      </trkpt>
      <trkpt lat="46.54014" lon="5.33573">
        <ele>213.6</ele>
        <time>2022-06-12T06:42:51Z</time>
      </trkpt>
      <trkpt lat="46.54037" lon="5.33584">
        <ele>212.8</ele>
        <time>2022-06-12T06:42:53Z</time>
      </trkpt>
      <trkpt lat="46.54058" lon="5.33597">
        <ele>211</ele>
        <time>2022-06-12T06:42:55Z</time>
      </trkpt>
      <trkpt lat="46.54078" lon="5.33609">
        <ele>209.2</ele>
        <time>2022-06-12T06:42:57Z</time>
      </trkpt>
      <trkpt lat="46.54095" lon="5.3362">
        <ele>207.6</ele>
        <time>2022-06-12T06:42:59Z</time>
      </trkpt>
      <trkpt lat="46.54113" lon="5.3363">
        <ele>206.8</ele>
        <time>2022-06-12T06:43:01Z</time>
      </trkpt>
      <trkpt lat="46.54136" lon="5.33641">
        <ele>206.6</ele>
        <time>2022-06-12T06:43:04Z</time>
      </trkpt>
      <trkpt lat="46.54151" lon="5.33645">
        <ele>206.6</ele>
        <time>2022-06-12T06:43:06Z</time>
      </trkpt>
      <trkpt lat="46.54185" lon="5.3365">
        <ele>207.4</ele>
        <time>2022-06-12T06:43:11Z</time>
      </trkpt>
      <trkpt lat="46.54197" lon="5.33651">
        <ele>207.8</ele>
        <time>2022-06-12T06:43:13Z</time>
      </trkpt>
      <trkpt lat="46.54213" lon="5.33651">
        <ele>208.8</ele>
        <time>2022-06-12T06:43:16Z</time>
      </trkpt>
      <trkpt lat="46.54219" lon="5.33652">
        <ele>209</ele>
        <time>2022-06-12T06:43:17Z</time>
      </trkpt>
      <trkpt lat="46.54235" lon="5.33653">
        <ele>210</ele>
        <time>2022-06-12T06:43:20Z</time>
      </trkpt>
      <trkpt lat="46.54258" lon="5.33655">
        <ele>210.8</ele>
        <time>2022-06-12T06:43:24Z</time>
      </trkpt>
      <trkpt lat="46.54305" lon="5.33657">
        <ele>211</ele>
        <time>2022-06-12T06:43:31Z</time>
      </trkpt>
      <trkpt lat="46.54345" lon="5.33661">
        <ele>210.6</ele>
        <time>2022-06-12T06:43:36Z</time>
      </trkpt>
      <trkpt lat="46.54385" lon="5.33675">
        <ele>209.4</ele>
        <time>2022-06-12T06:43:41Z</time>
      </trkpt>
      <trkpt lat="46.544" lon="5.33682">
        <ele>209</ele>
        <time>2022-06-12T06:43:43Z</time>
      </trkpt>
      <trkpt lat="46.54425" lon="5.33693">
        <ele>208.8</ele>
        <time>2022-06-12T06:43:47Z</time>
      </trkpt>
      <trkpt lat="46.54455" lon="5.33706">
        <ele>209.4</ele>
        <time>2022-06-12T06:43:53Z</time>
      </trkpt>
      <trkpt lat="46.54464" lon="5.3371">
        <ele>210.2</ele>
        <time>2022-06-12T06:43:55Z</time>
      </trkpt>
      <trkpt lat="46.54481" lon="5.33718">
        <ele>210.8</ele>
        <time>2022-06-12T06:43:59Z</time>
      </trkpt>
      <trkpt lat="46.5449" lon="5.33722">
        <ele>211.4</ele>
        <time>2022-06-12T06:44:01Z</time>
      </trkpt>
      <trkpt lat="46.54502" lon="5.33729">
        <ele>212.4</ele>
        <time>2022-06-12T06:44:04Z</time>
      </trkpt>
      <trkpt lat="46.54513" lon="5.33735">
        <ele>213.2</ele>
        <time>2022-06-12T06:44:07Z</time>
      </trkpt>
      <trkpt lat="46.54521" lon="5.33739">
        <ele>213.8</ele>
        <time>2022-06-12T06:44:09Z</time>
      </trkpt>
      <trkpt lat="46.54536" lon="5.33746">
        <ele>214.8</ele>
        <time>2022-06-12T06:44:13Z</time>
      </trkpt>
      <trkpt lat="46.54544" lon="5.33751">
        <ele>215.4</ele>
        <time>2022-06-12T06:44:15Z</time>
      </trkpt>
      <trkpt lat="46.54552" lon="5.33755">
        <ele>216</ele>
        <time>2022-06-12T06:44:17Z</time>
      </trkpt>
      <trkpt lat="46.5457" lon="5.33764">
        <ele>217</ele>
        <time>2022-06-12T06:44:22Z</time>
      </trkpt>
      <trkpt lat="46.54582" lon="5.33769">
        <ele>218</ele>
        <time>2022-06-12T06:44:25Z</time>
      </trkpt>
      <trkpt lat="46.54586" lon="5.3377">
        <ele>218</ele>
        <time>2022-06-12T06:44:26Z</time>
      </trkpt>
      <trkpt lat="46.54606" lon="5.33776">
        <ele>219.4</ele>
        <time>2022-06-12T06:44:31Z</time>
      </trkpt>
      <trkpt lat="46.54615" lon="5.33778">
        <ele>219.6</ele>
        <time>2022-06-12T06:44:33Z</time>
      </trkpt>
      <trkpt lat="46.54648" lon="5.33786">
        <ele>220.4</ele>
        <time>2022-06-12T06:44:39Z</time>
      </trkpt>
      <trkpt lat="46.54685" lon="5.33789">
        <ele>220.6</ele>
        <time>2022-06-12T06:44:44Z</time>
      </trkpt>
      <trkpt lat="46.54726" lon="5.33782">
        <ele>220</ele>
        <time>2022-06-12T06:44:49Z</time>
      </trkpt>
      <trkpt lat="46.54753" lon="5.33778">
        <ele>219</ele>
        <time>2022-06-12T06:44:52Z</time>
      </trkpt>
      <trkpt lat="46.54771" lon="5.33778">
        <ele>218.4</ele>
        <time>2022-06-12T06:44:54Z</time>
      </trkpt>
      <trkpt lat="46.54779" lon="5.33778">
        <ele>217.8</ele>
        <time>2022-06-12T06:44:55Z</time>
      </trkpt>
      <trkpt lat="46.54805" lon="5.3378">
        <ele>216.8</ele>
        <time>2022-06-12T06:44:58Z</time>
      </trkpt>
      <trkpt lat="46.54841" lon="5.33781">
        <ele>215.6</ele>
        <time>2022-06-12T06:45:02Z</time>
      </trkpt>
      <trkpt lat="46.5485" lon="5.33781">
        <ele>215.4</ele>
        <time>2022-06-12T06:45:03Z</time>
      </trkpt>
      <trkpt lat="46.54884" lon="5.33774">
        <ele>214.6</ele>
        <time>2022-06-12T06:45:07Z</time>
      </trkpt>
      <trkpt lat="46.54901" lon="5.33772">
        <ele>214</ele>
        <time>2022-06-12T06:45:09Z</time>
      </trkpt>
      <trkpt lat="46.54935" lon="5.33774">
        <ele>213.4</ele>
        <time>2022-06-12T06:45:13Z</time>
      </trkpt>
      <trkpt lat="46.54952" lon="5.33778">
        <ele>213.4</ele>
        <time>2022-06-12T06:45:15Z</time>
      </trkpt>
      <trkpt lat="46.54968" lon="5.33781">
        <ele>213</ele>
        <time>2022-06-12T06:45:17Z</time>
      </trkpt>
      <trkpt lat="46.55012" lon="5.33793">
        <ele>212.8</ele>
        <time>2022-06-12T06:45:23Z</time>
      </trkpt>
      <trkpt lat="46.55051" lon="5.33813">
        <ele>213</ele>
        <time>2022-06-12T06:45:29Z</time>
      </trkpt>
      <trkpt lat="46.55082" lon="5.3384">
        <ele>213.8</ele>
        <time>2022-06-12T06:45:35Z</time>
      </trkpt>
      <trkpt lat="46.55108" lon="5.33872">
        <ele>214.6</ele>
        <time>2022-06-12T06:45:41Z</time>
      </trkpt>
      <trkpt lat="46.55115" lon="5.33882">
        <ele>214.8</ele>
        <time>2022-06-12T06:45:43Z</time>
      </trkpt>
      <trkpt lat="46.5513" lon="5.33904">
        <ele>215.4</ele>
        <time>2022-06-12T06:45:47Z</time>
      </trkpt>
      <trkpt lat="46.5514" lon="5.33921">
        <ele>216</ele>
        <time>2022-06-12T06:45:50Z</time>
      </trkpt>
      <trkpt lat="46.55157" lon="5.33952">
        <ele>216.8</ele>
        <time>2022-06-12T06:45:56Z</time>
      </trkpt>
      <trkpt lat="46.55159" lon="5.33957">
        <ele>217</ele>
        <time>2022-06-12T06:45:57Z</time>
      </trkpt>
      <trkpt lat="46.55172" lon="5.33984">
        <ele>218.2</ele>
        <time>2022-06-12T06:46:02Z</time>
      </trkpt>
      <trkpt lat="46.55174" lon="5.33989">
        <ele>218.2</ele>
        <time>2022-06-12T06:46:03Z</time>
      </trkpt>
      <trkpt lat="46.5518" lon="5.34005">
        <ele>219.2</ele>
        <time>2022-06-12T06:46:06Z</time>
      </trkpt>
      <trkpt lat="46.55184" lon="5.34029">
        <ele>220.4</ele>
        <time>2022-06-12T06:46:10Z</time>
      </trkpt>
      <trkpt lat="46.55189" lon="5.34044">
        <ele>221.4</ele>
        <time>2022-06-12T06:46:13Z</time>
      </trkpt>
      <trkpt lat="46.55192" lon="5.34055">
        <ele>222</ele>
        <time>2022-06-12T06:46:15Z</time>
      </trkpt>
      <trkpt lat="46.55199" lon="5.34073">
        <ele>222.4</ele>
        <time>2022-06-12T06:46:18Z</time>
      </trkpt>
      <trkpt lat="46.55202" lon="5.34079">
        <ele>222.6</ele>
        <time>2022-06-12T06:46:19Z</time>
      </trkpt>
      <trkpt lat="46.55207" lon="5.3409">
        <ele>222.8</ele>
        <time>2022-06-12T06:46:21Z</time>
      </trkpt>
      <trkpt lat="46.55213" lon="5.34103">
        <ele>223.2</ele>
        <time>2022-06-12T06:46:23Z</time>
      </trkpt>
      <trkpt lat="46.55216" lon="5.34109">
        <ele>223.4</ele>
        <time>2022-06-12T06:46:24Z</time>
      </trkpt>
      <trkpt lat="46.5522" lon="5.34116">
        <ele>223.6</ele>
        <time>2022-06-12T06:46:25Z</time>
      </trkpt>
      <trkpt lat="46.55228" lon="5.34137">
        <ele>223.8</ele>
        <time>2022-06-12T06:46:28Z</time>
      </trkpt>
      <trkpt lat="46.55231" lon="5.34153">
        <ele>224</ele>
        <time>2022-06-12T06:46:30Z</time>
      </trkpt>
      <trkpt lat="46.55231" lon="5.3417">
        <ele>224</ele>
        <time>2022-06-12T06:46:32Z</time>
      </trkpt>
      <trkpt lat="46.55234" lon="5.34196">
        <ele>224.2</ele>
        <time>2022-06-12T06:46:35Z</time>
      </trkpt>
      <trkpt lat="46.55236" lon="5.34215">
        <ele>224.2</ele>
        <time>2022-06-12T06:46:37Z</time>
      </trkpt>
      <trkpt lat="46.5524" lon="5.34234">
        <ele>224.2</ele>
        <time>2022-06-12T06:46:39Z</time>
      </trkpt>
      <trkpt lat="46.55243" lon="5.34242">
        <ele>224</ele>
        <time>2022-06-12T06:46:40Z</time>
      </trkpt>
      <trkpt lat="46.55246" lon="5.34249">
        <ele>224</ele>
        <time>2022-06-12T06:46:41Z</time>
      </trkpt>
      <trkpt lat="46.55256" lon="5.34262">
        <ele>223.8</ele>
        <time>2022-06-12T06:46:43Z</time>
      </trkpt>
      <trkpt lat="46.55279" lon="5.34285">
        <ele>223.2</ele>
        <time>2022-06-12T06:46:47Z</time>
      </trkpt>
      <trkpt lat="46.55291" lon="5.34298">
        <ele>223</ele>
        <time>2022-06-12T06:46:49Z</time>
      </trkpt>
      <trkpt lat="46.55305" lon="5.34312">
        <ele>222.6</ele>
        <time>2022-06-12T06:46:51Z</time>
      </trkpt>
      <trkpt lat="46.55312" lon="5.34319">
        <ele>222.2</ele>
        <time>2022-06-12T06:46:52Z</time>
      </trkpt>
      <trkpt lat="46.55328" lon="5.34334">
        <ele>222</ele>
        <time>2022-06-12T06:46:54Z</time>
      </trkpt>
      <trkpt lat="46.55341" lon="5.34348">
        <ele>221.6</ele>
        <time>2022-06-12T06:46:56Z</time>
      </trkpt>
      <trkpt lat="46.55347" lon="5.34356">
        <ele>221.2</ele>
        <time>2022-06-12T06:46:57Z</time>
      </trkpt>
      <trkpt lat="46.5538" lon="5.34392">
        <ele>220.2</ele>
        <time>2022-06-12T06:47:02Z</time>
      </trkpt>
      <trkpt lat="46.55427" lon="5.34441">
        <ele>219.4</ele>
        <time>2022-06-12T06:47:09Z</time>
      </trkpt>
      <trkpt lat="46.55433" lon="5.34448">
        <ele>219.2</ele>
        <time>2022-06-12T06:47:10Z</time>
      </trkpt>
      <trkpt lat="46.5544" lon="5.34454">
        <ele>218.8</ele>
        <time>2022-06-12T06:47:11Z</time>
      </trkpt>
      <trkpt lat="46.5549" lon="5.34504">
        <ele>218</ele>
        <time>2022-06-12T06:47:19Z</time>
      </trkpt>
      <trkpt lat="46.55502" lon="5.34515">
        <ele>218</ele>
        <time>2022-06-12T06:47:21Z</time>
      </trkpt>
      <trkpt lat="46.55541" lon="5.34542">
        <ele>218</ele>
        <time>2022-06-12T06:47:27Z</time>
      </trkpt>
      <trkpt lat="46.55593" lon="5.34561">
        <ele>213.8</ele>
        <time>2022-06-12T06:47:34Z</time>
      </trkpt>
      <trkpt lat="46.55635" lon="5.34575">
        <ele>217.2</ele>
        <time>2022-06-12T06:47:39Z</time>
      </trkpt>
      <trkpt lat="46.55645" lon="5.34577">
        <ele>217</ele>
        <time>2022-06-12T06:47:40Z</time>
      </trkpt>
      <trkpt lat="46.55674" lon="5.34576">
        <ele>215.8</ele>
        <time>2022-06-12T06:47:43Z</time>
      </trkpt>
      <trkpt lat="46.55705" lon="5.34577">
        <ele>214.2</ele>
        <time>2022-06-12T06:47:46Z</time>
      </trkpt>
      <trkpt lat="46.55726" lon="5.34581">
        <ele>212.8</ele>
        <time>2022-06-12T06:47:48Z</time>
      </trkpt>
      <trkpt lat="46.55746" lon="5.34585">
        <ele>211.8</ele>
        <time>2022-06-12T06:47:50Z</time>
      </trkpt>
      <trkpt lat="46.55777" lon="5.34593">
        <ele>210.2</ele>
        <time>2022-06-12T06:47:53Z</time>
      </trkpt>
      <trkpt lat="46.55797" lon="5.34597">
        <ele>209</ele>
        <time>2022-06-12T06:47:55Z</time>
      </trkpt>
      <trkpt lat="46.55825" lon="5.34603">
        <ele>207.8</ele>
        <time>2022-06-12T06:47:58Z</time>
      </trkpt>
      <trkpt lat="46.55842" lon="5.34607">
        <ele>207.2</ele>
        <time>2022-06-12T06:48:00Z</time>
      </trkpt>
      <trkpt lat="46.55859" lon="5.34611">
        <ele>206.6</ele>
        <time>2022-06-12T06:48:02Z</time>
      </trkpt>
      <trkpt lat="46.55901" lon="5.34622">
        <ele>206.4</ele>
        <time>2022-06-12T06:48:07Z</time>
      </trkpt>
      <trkpt lat="46.55959" lon="5.34637">
        <ele>206.2</ele>
        <time>2022-06-12T06:48:14Z</time>
      </trkpt>
      <trkpt lat="46.55975" lon="5.3464">
        <ele>205.6</ele>
        <time>2022-06-12T06:48:16Z</time>
      </trkpt>
      <trkpt lat="46.55982" lon="5.34642">
        <ele>205.6</ele>
        <time>2022-06-12T06:48:17Z</time>
      </trkpt>
      <trkpt lat="46.56032" lon="5.34654">
        <ele>205.4</ele>
        <time>2022-06-12T06:48:24Z</time>
      </trkpt>
      <trkpt lat="46.56088" lon="5.34668">
        <ele>205.8</ele>
        <time>2022-06-12T06:48:32Z</time>
      </trkpt>
      <trkpt lat="46.56101" lon="5.34672">
        <ele>205.8</ele>
        <time>2022-06-12T06:48:34Z</time>
      </trkpt>
      <trkpt lat="46.56131" lon="5.34677">
        <ele>205.8</ele>
        <time>2022-06-12T06:48:39Z</time>
      </trkpt>
      <trkpt lat="46.56158" lon="5.3468">
        <ele>206.2</ele>
        <time>2022-06-12T06:48:44Z</time>
      </trkpt>
      <trkpt lat="46.56168" lon="5.34678">
        <ele>206.8</ele>
        <time>2022-06-12T06:48:46Z</time>
      </trkpt>
      <trkpt lat="46.56191" lon="5.34672">
        <ele>207.8</ele>
        <time>2022-06-12T06:48:51Z</time>
      </trkpt>
      <trkpt lat="46.56215" lon="5.34664">
        <ele>208.8</ele>
        <time>2022-06-12T06:48:56Z</time>
      </trkpt>
      <trkpt lat="46.56219" lon="5.34663">
        <ele>209.2</ele>
        <time>2022-06-12T06:48:57Z</time>
      </trkpt>
      <trkpt lat="46.56248" lon="5.34655">
        <ele>210.2</ele>
        <time>2022-06-12T06:49:03Z</time>
      </trkpt>
      <trkpt lat="46.56271" lon="5.3465">
        <ele>211.2</ele>
        <time>2022-06-12T06:49:08Z</time>
      </trkpt>
      <trkpt lat="46.56285" lon="5.34648">
        <ele>211.6</ele>
        <time>2022-06-12T06:49:11Z</time>
      </trkpt>
      <trkpt lat="46.56313" lon="5.34646">
        <ele>212.8</ele>
        <time>2022-06-12T06:49:17Z</time>
      </trkpt>
      <trkpt lat="46.56317" lon="5.34646">
        <ele>213</ele>
        <time>2022-06-12T06:49:18Z</time>
      </trkpt>
      <trkpt lat="46.56336" lon="5.34653">
        <ele>213.8</ele>
        <time>2022-06-12T06:49:22Z</time>
      </trkpt>
      <trkpt lat="46.56346" lon="5.34657">
        <ele>214.2</ele>
        <time>2022-06-12T06:49:24Z</time>
      </trkpt>
      <trkpt lat="46.56373" lon="5.3467">
        <ele>214.8</ele>
        <time>2022-06-12T06:49:29Z</time>
      </trkpt>
      <trkpt lat="46.56404" lon="5.34677">
        <ele>214.6</ele>
        <time>2022-06-12T06:49:34Z</time>
      </trkpt>
      <trkpt lat="46.56439" lon="5.34694">
        <ele>214</ele>
        <time>2022-06-12T06:49:39Z</time>
      </trkpt>
      <trkpt lat="46.56483" lon="5.34719">
        <ele>213</ele>
        <time>2022-06-12T06:49:45Z</time>
      </trkpt>
      <trkpt lat="46.56491" lon="5.34724">
        <ele>212.8</ele>
        <time>2022-06-12T06:49:46Z</time>
      </trkpt>
      <trkpt lat="46.56524" lon="5.34742">
        <ele>211.6</ele>
        <time>2022-06-12T06:49:50Z</time>
      </trkpt>
      <trkpt lat="46.56532" lon="5.34747">
        <ele>211.4</ele>
        <time>2022-06-12T06:49:51Z</time>
      </trkpt>
      <trkpt lat="46.56568" lon="5.34766">
        <ele>210.2</ele>
        <time>2022-06-12T06:49:55Z</time>
      </trkpt>
      <trkpt lat="46.56577" lon="5.3477">
        <ele>210</ele>
        <time>2022-06-12T06:49:56Z</time>
      </trkpt>
      <trkpt lat="46.56588" lon="5.34772">
        <ele>209.4</ele>
        <time>2022-06-12T06:49:57Z</time>
      </trkpt>
      <trkpt lat="46.56598" lon="5.3477">
        <ele>209.2</ele>
        <time>2022-06-12T06:49:58Z</time>
      </trkpt>
      <trkpt lat="46.56608" lon="5.34766">
        <ele>208.6</ele>
        <time>2022-06-12T06:49:59Z</time>
      </trkpt>
      <trkpt lat="46.56622" lon="5.34746">
        <ele>207.4</ele>
        <time>2022-06-12T06:50:01Z</time>
      </trkpt>
      <trkpt lat="46.56633" lon="5.34719">
        <ele>206.2</ele>
        <time>2022-06-12T06:50:03Z</time>
      </trkpt>
      <trkpt lat="46.5664" lon="5.34708">
        <ele>205.6</ele>
        <time>2022-06-12T06:50:04Z</time>
      </trkpt>
      <trkpt lat="46.56647" lon="5.34698">
        <ele>205.4</ele>
        <time>2022-06-12T06:50:05Z</time>
      </trkpt>
      <trkpt lat="46.56656" lon="5.34692">
        <ele>205</ele>
        <time>2022-06-12T06:50:06Z</time>
      </trkpt>
      <trkpt lat="46.56665" lon="5.34689">
        <ele>204.8</ele>
        <time>2022-06-12T06:50:07Z</time>
      </trkpt>
      <trkpt lat="46.56683" lon="5.34683">
        <ele>203.8</ele>
        <time>2022-06-12T06:50:09Z</time>
      </trkpt>
      <trkpt lat="46.56726" lon="5.34667">
        <ele>202.8</ele>
        <time>2022-06-12T06:50:14Z</time>
      </trkpt>
      <trkpt lat="46.56749" lon="5.34658">
        <ele>202.2</ele>
        <time>2022-06-12T06:50:17Z</time>
      </trkpt>
      <trkpt lat="46.56757" lon="5.34659">
        <ele>202.4</ele>
        <time>2022-06-12T06:50:18Z</time>
      </trkpt>
      <trkpt lat="46.56764" lon="5.34664">
        <ele>202.2</ele>
        <time>2022-06-12T06:50:19Z</time>
      </trkpt>
      <trkpt lat="46.56774" lon="5.34681">
        <ele>202</ele>
        <time>2022-06-12T06:50:21Z</time>
      </trkpt>
      <trkpt lat="46.56779" lon="5.34702">
        <ele>201.8</ele>
        <time>2022-06-12T06:50:23Z</time>
      </trkpt>
      <trkpt lat="46.56786" lon="5.34732">
        <ele>201.8</ele>
        <time>2022-06-12T06:50:26Z</time>
      </trkpt>
      <trkpt lat="46.56799" lon="5.34794">
        <ele>201.6</ele>
        <time>2022-06-12T06:50:32Z</time>
      </trkpt>
      <trkpt lat="46.56814" lon="5.34876">
        <ele>201.4</ele>
        <time>2022-06-12T06:50:40Z</time>
      </trkpt>
      <trkpt lat="46.5682" lon="5.34904">
        <ele>201.6</ele>
        <time>2022-06-12T06:50:43Z</time>
      </trkpt>
      <trkpt lat="46.56827" lon="5.34947">
        <ele>202</ele>
        <time>2022-06-12T06:50:48Z</time>
      </trkpt>
      <trkpt lat="46.56834" lon="5.34978">
        <ele>202.6</ele>
        <time>2022-06-12T06:50:52Z</time>
      </trkpt>
      <trkpt lat="46.56839" lon="5.34991">
        <ele>203</ele>
        <time>2022-06-12T06:50:54Z</time>
      </trkpt>
      <trkpt lat="46.56844" lon="5.35002">
        <ele>203.4</ele>
        <time>2022-06-12T06:50:56Z</time>
      </trkpt>
      <trkpt lat="46.56853" lon="5.35019">
        <ele>204.2</ele>
        <time>2022-06-12T06:50:59Z</time>
      </trkpt>
      <trkpt lat="46.56856" lon="5.35025">
        <ele>204.4</ele>
        <time>2022-06-12T06:51:00Z</time>
      </trkpt>
      <trkpt lat="46.56863" lon="5.35042">
        <ele>205.2</ele>
        <time>2022-06-12T06:51:03Z</time>
      </trkpt>
      <trkpt lat="46.5687" lon="5.35059">
        <ele>206.2</ele>
        <time>2022-06-12T06:51:06Z</time>
      </trkpt>
      <trkpt lat="46.56873" lon="5.35065">
        <ele>206.4</ele>
        <time>2022-06-12T06:51:07Z</time>
      </trkpt>
      <trkpt lat="46.56876" lon="5.3507">
        <ele>206.6</ele>
        <time>2022-06-12T06:51:08Z</time>
      </trkpt>
      <trkpt lat="46.56883" lon="5.35086">
        <ele>207.4</ele>
        <time>2022-06-12T06:51:11Z</time>
      </trkpt>
      <trkpt lat="46.56887" lon="5.35097">
        <ele>207.8</ele>
        <time>2022-06-12T06:51:13Z</time>
      </trkpt>
      <trkpt lat="46.56889" lon="5.35102">
        <ele>208.2</ele>
        <time>2022-06-12T06:51:14Z</time>
      </trkpt>
      <trkpt lat="46.5689" lon="5.35107">
        <ele>208.8</ele>
        <time>2022-06-12T06:51:15Z</time>
      </trkpt>
      <trkpt lat="46.56895" lon="5.35122">
        <ele>209.8</ele>
        <time>2022-06-12T06:51:18Z</time>
      </trkpt>
      <trkpt lat="46.56902" lon="5.35139">
        <ele>210.8</ele>
        <time>2022-06-12T06:51:22Z</time>
      </trkpt>
      <trkpt lat="46.56903" lon="5.35144">
        <ele>211</ele>
        <time>2022-06-12T06:51:23Z</time>
      </trkpt>
      <trkpt lat="46.56916" lon="5.35162">
        <ele>211.8</ele>
        <time>2022-06-12T06:51:27Z</time>
      </trkpt>
      <trkpt lat="46.56927" lon="5.3517">
        <ele>212.2</ele>
        <time>2022-06-12T06:51:29Z</time>
      </trkpt>
      <trkpt lat="46.56945" lon="5.35183">
        <ele>212.4</ele>
        <time>2022-06-12T06:51:32Z</time>
      </trkpt>
      <trkpt lat="46.5695" lon="5.35188">
        <ele>212.4</ele>
        <time>2022-06-12T06:51:33Z</time>
      </trkpt>
      <trkpt lat="46.56961" lon="5.35203">
        <ele>212.4</ele>
        <time>2022-06-12T06:51:35Z</time>
      </trkpt>
      <trkpt lat="46.56967" lon="5.35212">
        <ele>212.4</ele>
        <time>2022-06-12T06:51:36Z</time>
      </trkpt>
      <trkpt lat="46.5697" lon="5.35224">
        <ele>212.2</ele>
        <time>2022-06-12T06:51:37Z</time>
      </trkpt>
      <trkpt lat="46.56974" lon="5.35248">
        <ele>211.8</ele>
        <time>2022-06-12T06:51:39Z</time>
      </trkpt>
      <trkpt lat="46.56982" lon="5.35273">
        <ele>211</ele>
        <time>2022-06-12T06:51:41Z</time>
      </trkpt>
      <trkpt lat="46.56994" lon="5.3531">
        <ele>209.8</ele>
        <time>2022-06-12T06:51:44Z</time>
      </trkpt>
      <trkpt lat="46.57002" lon="5.35333">
        <ele>208.4</ele>
        <time>2022-06-12T06:51:46Z</time>
      </trkpt>
      <trkpt lat="46.57023" lon="5.35398">
        <ele>207.4</ele>
        <time>2022-06-12T06:51:52Z</time>
      </trkpt>
      <trkpt lat="46.5703" lon="5.3542">
        <ele>207.2</ele>
        <time>2022-06-12T06:51:54Z</time>
      </trkpt>
      <trkpt lat="46.57038" lon="5.35476">
        <ele>207</ele>
        <time>2022-06-12T06:51:59Z</time>
      </trkpt>
      <trkpt lat="46.57045" lon="5.35565">
        <ele>206.6</ele>
        <time>2022-06-12T06:52:07Z</time>
      </trkpt>
      <trkpt lat="46.57049" lon="5.356">
        <ele>206.6</ele>
        <time>2022-06-12T06:52:10Z</time>
      </trkpt>
      <trkpt lat="46.57052" lon="5.35611">
        <ele>206.4</ele>
        <time>2022-06-12T06:52:11Z</time>
      </trkpt>
      <trkpt lat="46.57055" lon="5.35622">
        <ele>206.4</ele>
        <time>2022-06-12T06:52:12Z</time>
      </trkpt>
      <trkpt lat="46.57066" lon="5.3564">
        <ele>206</ele>
        <time>2022-06-12T06:52:14Z</time>
      </trkpt>
      <trkpt lat="46.57072" lon="5.35647">
        <ele>206</ele>
        <time>2022-06-12T06:52:15Z</time>
      </trkpt>
      <trkpt lat="46.57096" lon="5.35675">
        <ele>205.8</ele>
        <time>2022-06-12T06:52:19Z</time>
      </trkpt>
      <trkpt lat="46.57133" lon="5.35725">
        <ele>205.6</ele>
        <time>2022-06-12T06:52:26Z</time>
      </trkpt>
      <trkpt lat="46.5716" lon="5.35744">
        <ele>205.6</ele>
        <time>2022-06-12T06:52:30Z</time>
      </trkpt>
      <trkpt lat="46.57199" lon="5.35768">
        <ele>205.6</ele>
        <time>2022-06-12T06:52:36Z</time>
      </trkpt>
      <trkpt lat="46.57211" lon="5.35776">
        <ele>205.4</ele>
        <time>2022-06-12T06:52:38Z</time>
      </trkpt>
      <trkpt lat="46.57264" lon="5.35809">
        <ele>205.8</ele>
        <time>2022-06-12T06:52:47Z</time>
      </trkpt>
      <trkpt lat="46.5727" lon="5.35813">
        <ele>205.8</ele>
        <time>2022-06-12T06:52:48Z</time>
      </trkpt>
      <trkpt lat="46.57312" lon="5.35836">
        <ele>206.4</ele>
        <time>2022-06-12T06:52:55Z</time>
      </trkpt>
      <trkpt lat="46.57337" lon="5.35839">
        <ele>206.4</ele>
        <time>2022-06-12T06:52:59Z</time>
      </trkpt>
      <trkpt lat="46.5735" lon="5.35836">
        <ele>206.4</ele>
        <time>2022-06-12T06:53:01Z</time>
      </trkpt>
      <trkpt lat="46.57361" lon="5.35828">
        <ele>206.4</ele>
        <time>2022-06-12T06:53:03Z</time>
      </trkpt>
      <trkpt lat="46.57366" lon="5.35822">
        <ele>206.6</ele>
        <time>2022-06-12T06:53:04Z</time>
      </trkpt>
      <trkpt lat="46.5737" lon="5.35816">
        <ele>206.8</ele>
        <time>2022-06-12T06:53:05Z</time>
      </trkpt>
      <trkpt lat="46.57391" lon="5.35779">
        <ele>207.6</ele>
        <time>2022-06-12T06:53:11Z</time>
      </trkpt>
      <trkpt lat="46.57394" lon="5.35773">
        <ele>208</ele>
        <time>2022-06-12T06:53:12Z</time>
      </trkpt>
      <trkpt lat="46.574" lon="5.35761">
        <ele>208.4</ele>
        <time>2022-06-12T06:53:14Z</time>
      </trkpt>
      <trkpt lat="46.57409" lon="5.3575">
        <ele>208.8</ele>
        <time>2022-06-12T06:53:16Z</time>
      </trkpt>
      <trkpt lat="46.57421" lon="5.3574">
        <ele>209</ele>
        <time>2022-06-12T06:53:18Z</time>
      </trkpt>
      <trkpt lat="46.57442" lon="5.35727">
        <ele>209</ele>
        <time>2022-06-12T06:53:21Z</time>
      </trkpt>
      <trkpt lat="46.57484" lon="5.35701">
        <ele>207.8</ele>
        <time>2022-06-12T06:53:26Z</time>
      </trkpt>
      <trkpt lat="46.57493" lon="5.35695">
        <ele>207.4</ele>
        <time>2022-06-12T06:53:27Z</time>
      </trkpt>
      <trkpt lat="46.57511" lon="5.35684">
        <ele>206.4</ele>
        <time>2022-06-12T06:53:29Z</time>
      </trkpt>
      <trkpt lat="46.57536" lon="5.35663">
        <ele>205</ele>
        <time>2022-06-12T06:53:32Z</time>
      </trkpt>
      <trkpt lat="46.57551" lon="5.35644">
        <ele>204</ele>
        <time>2022-06-12T06:53:34Z</time>
      </trkpt>
      <trkpt lat="46.57564" lon="5.35624">
        <ele>203.2</ele>
        <time>2022-06-12T06:53:36Z</time>
      </trkpt>
      <trkpt lat="46.57571" lon="5.35614">
        <ele>202.8</ele>
        <time>2022-06-12T06:53:37Z</time>
      </trkpt>
      <trkpt lat="46.57586" lon="5.35596">
        <ele>202.2</ele>
        <time>2022-06-12T06:53:39Z</time>
      </trkpt>
      <trkpt lat="46.57594" lon="5.35589">
        <ele>201.8</ele>
        <time>2022-06-12T06:53:40Z</time>
      </trkpt>
      <trkpt lat="46.57602" lon="5.35583">
        <ele>201.6</ele>
        <time>2022-06-12T06:53:41Z</time>
      </trkpt>
      <trkpt lat="46.57625" lon="5.35562">
        <ele>200.6</ele>
        <time>2022-06-12T06:53:44Z</time>
      </trkpt>
      <trkpt lat="46.57639" lon="5.35547">
        <ele>200</ele>
        <time>2022-06-12T06:53:46Z</time>
      </trkpt>
      <trkpt lat="46.57659" lon="5.35528">
        <ele>199.6</ele>
        <time>2022-06-12T06:53:49Z</time>
      </trkpt>
      <trkpt lat="46.57667" lon="5.35523">
        <ele>199.6</ele>
        <time>2022-06-12T06:53:50Z</time>
      </trkpt>
      <trkpt lat="46.577" lon="5.35501">
        <ele>199.8</ele>
        <time>2022-06-12T06:53:55Z</time>
      </trkpt>
      <trkpt lat="46.57728" lon="5.35483">
        <ele>200.2</ele>
        <time>2022-06-12T06:54:00Z</time>
      </trkpt>
      <trkpt lat="46.57753" lon="5.35465">
        <ele>201.8</ele>
        <time>2022-06-12T06:54:06Z</time>
      </trkpt>
      <trkpt lat="46.57757" lon="5.35463">
        <ele>202.2</ele>
        <time>2022-06-12T06:54:07Z</time>
      </trkpt>
      <trkpt lat="46.57768" lon="5.35455">
        <ele>202.8</ele>
        <time>2022-06-12T06:54:10Z</time>
      </trkpt>
      <trkpt lat="46.57779" lon="5.35447">
        <ele>203.8</ele>
        <time>2022-06-12T06:54:13Z</time>
      </trkpt>
      <trkpt lat="46.57783" lon="5.35445">
        <ele>204.2</ele>
        <time>2022-06-12T06:54:14Z</time>
      </trkpt>
      <trkpt lat="46.57794" lon="5.35437">
        <ele>205.2</ele>
        <time>2022-06-12T06:54:17Z</time>
      </trkpt>
      <trkpt lat="46.57804" lon="5.35431">
        <ele>205.8</ele>
        <time>2022-06-12T06:54:20Z</time>
      </trkpt>
      <trkpt lat="46.57808" lon="5.35429">
        <ele>206.4</ele>
        <time>2022-06-12T06:54:21Z</time>
      </trkpt>
      <trkpt lat="46.57819" lon="5.3543">
        <ele>207.2</ele>
        <time>2022-06-12T06:54:24Z</time>
      </trkpt>
      <trkpt lat="46.57824" lon="5.3544">
        <ele>207.4</ele>
        <time>2022-06-12T06:54:26Z</time>
      </trkpt>
      <trkpt lat="46.57825" lon="5.35446">
        <ele>207.6</ele>
        <time>2022-06-12T06:54:27Z</time>
      </trkpt>
      <trkpt lat="46.57828" lon="5.35474">
        <ele>208.2</ele>
        <time>2022-06-12T06:54:31Z</time>
      </trkpt>
      <trkpt lat="46.57831" lon="5.35489">
        <ele>208.4</ele>
        <time>2022-06-12T06:54:33Z</time>
      </trkpt>
      <trkpt lat="46.57833" lon="5.35497">
        <ele>208.4</ele>
        <time>2022-06-12T06:54:34Z</time>
      </trkpt>
      <trkpt lat="46.57841" lon="5.35523">
        <ele>208.8</ele>
        <time>2022-06-12T06:54:37Z</time>
      </trkpt>
      <trkpt lat="46.57865" lon="5.35581">
        <ele>207.8</ele>
        <time>2022-06-12T06:54:43Z</time>
      </trkpt>
      <trkpt lat="46.57869" lon="5.35591">
        <ele>207.4</ele>
        <time>2022-06-12T06:54:44Z</time>
      </trkpt>
      <trkpt lat="46.57877" lon="5.35626">
        <ele>207</ele>
        <time>2022-06-12T06:54:47Z</time>
      </trkpt>
      <trkpt lat="46.57879" lon="5.35647">
        <ele>206.4</ele>
        <time>2022-06-12T06:54:49Z</time>
      </trkpt>
      <trkpt lat="46.57883" lon="5.35675">
        <ele>206.4</ele>
        <time>2022-06-12T06:54:52Z</time>
      </trkpt>
      <trkpt lat="46.57887" lon="5.35691">
        <ele>206.4</ele>
        <time>2022-06-12T06:54:54Z</time>
      </trkpt>
      <trkpt lat="46.57894" lon="5.35707">
        <ele>207</ele>
        <time>2022-06-12T06:54:56Z</time>
      </trkpt>
      <trkpt lat="46.57898" lon="5.35714">
        <ele>207</ele>
        <time>2022-06-12T06:54:57Z</time>
      </trkpt>
      <trkpt lat="46.57927" lon="5.35776">
        <ele>207.4</ele>
        <time>2022-06-12T06:55:05Z</time>
      </trkpt>
      <trkpt lat="46.57934" lon="5.35795">
        <ele>207.2</ele>
        <time>2022-06-12T06:55:07Z</time>
      </trkpt>
      <trkpt lat="46.57937" lon="5.35816">
        <ele>207.2</ele>
        <time>2022-06-12T06:55:09Z</time>
      </trkpt>
      <trkpt lat="46.57936" lon="5.35838">
        <ele>207</ele>
        <time>2022-06-12T06:55:11Z</time>
      </trkpt>
      <trkpt lat="46.57934" lon="5.35849">
        <ele>206.8</ele>
        <time>2022-06-12T06:55:12Z</time>
      </trkpt>
      <trkpt lat="46.57913" lon="5.3593">
        <ele>206.2</ele>
        <time>2022-06-12T06:55:20Z</time>
      </trkpt>
      <trkpt lat="46.57911" lon="5.35941">
        <ele>206</ele>
        <time>2022-06-12T06:55:21Z</time>
      </trkpt>
      <trkpt lat="46.5791" lon="5.35965">
        <ele>205.6</ele>
        <time>2022-06-12T06:55:23Z</time>
      </trkpt>
      <trkpt lat="46.57913" lon="5.35977">
        <ele>205.8</ele>
        <time>2022-06-12T06:55:24Z</time>
      </trkpt>
      <trkpt lat="46.57918" lon="5.35987">
        <ele>205.6</ele>
        <time>2022-06-12T06:55:25Z</time>
      </trkpt>
      <trkpt lat="46.57925" lon="5.35995">
        <ele>205.4</ele>
        <time>2022-06-12T06:55:26Z</time>
      </trkpt>
      <trkpt lat="46.5794" lon="5.36006">
        <ele>204.4</ele>
        <time>2022-06-12T06:55:28Z</time>
      </trkpt>
      <trkpt lat="46.5796" lon="5.36024">
        <ele>203.6</ele>
        <time>2022-06-12T06:55:31Z</time>
      </trkpt>
      <trkpt lat="46.57965" lon="5.36031">
        <ele>203.4</ele>
        <time>2022-06-12T06:55:32Z</time>
      </trkpt>
      <trkpt lat="46.57981" lon="5.36053">
        <ele>203.2</ele>
        <time>2022-06-12T06:55:35Z</time>
      </trkpt>
      <trkpt lat="46.57998" lon="5.36086">
        <ele>203.6</ele>
        <time>2022-06-12T06:55:39Z</time>
      </trkpt>
      <trkpt lat="46.58014" lon="5.36118">
        <ele>204</ele>
        <time>2022-06-12T06:55:43Z</time>
      </trkpt>
      <trkpt lat="46.58017" lon="5.36126">
        <ele>204.2</ele>
        <time>2022-06-12T06:55:44Z</time>
      </trkpt>
      <trkpt lat="46.58022" lon="5.36144">
        <ele>204.4</ele>
        <time>2022-06-12T06:55:46Z</time>
      </trkpt>
      <trkpt lat="46.58024" lon="5.36154">
        <ele>204.4</ele>
        <time>2022-06-12T06:55:47Z</time>
      </trkpt>
      <trkpt lat="46.58024" lon="5.36163">
        <ele>204.6</ele>
        <time>2022-06-12T06:55:48Z</time>
      </trkpt>
      <trkpt lat="46.58024" lon="5.3618">
        <ele>204.8</ele>
        <time>2022-06-12T06:55:50Z</time>
      </trkpt>
      <trkpt lat="46.58023" lon="5.36189">
        <ele>205</ele>
        <time>2022-06-12T06:55:51Z</time>
      </trkpt>
      <trkpt lat="46.58022" lon="5.36199">
        <ele>205</ele>
        <time>2022-06-12T06:55:52Z</time>
      </trkpt>
      <trkpt lat="46.58021" lon="5.36218">
        <ele>205.2</ele>
        <time>2022-06-12T06:55:54Z</time>
      </trkpt>
      <trkpt lat="46.58021" lon="5.36247">
        <ele>205.4</ele>
        <time>2022-06-12T06:55:57Z</time>
      </trkpt>
      <trkpt lat="46.58021" lon="5.36267">
        <ele>205.6</ele>
        <time>2022-06-12T06:55:59Z</time>
      </trkpt>
      <trkpt lat="46.58027" lon="5.36325">
        <ele>206</ele>
        <time>2022-06-12T06:56:05Z</time>
      </trkpt>
      <trkpt lat="46.58029" lon="5.36334">
        <ele>206</ele>
        <time>2022-06-12T06:56:06Z</time>
      </trkpt>
      <trkpt lat="46.58044" lon="5.36367">
        <ele>206</ele>
        <time>2022-06-12T06:56:10Z</time>
      </trkpt>
      <trkpt lat="46.58049" lon="5.36373">
        <ele>206</ele>
        <time>2022-06-12T06:56:11Z</time>
      </trkpt>
      <trkpt lat="46.58077" lon="5.36413">
        <ele>206</ele>
        <time>2022-06-12T06:56:17Z</time>
      </trkpt>
      <trkpt lat="46.58098" lon="5.36451">
        <ele>206.4</ele>
        <time>2022-06-12T06:56:22Z</time>
      </trkpt>
      <trkpt lat="46.58103" lon="5.36458">
        <ele>206.4</ele>
        <time>2022-06-12T06:56:23Z</time>
      </trkpt>
      <trkpt lat="46.58122" lon="5.36506">
        <ele>206.8</ele>
        <time>2022-06-12T06:56:29Z</time>
      </trkpt>
      <trkpt lat="46.58126" lon="5.36524">
        <ele>207</ele>
        <time>2022-06-12T06:56:31Z</time>
      </trkpt>
      <trkpt lat="46.58127" lon="5.36549">
        <ele>207</ele>
        <time>2022-06-12T06:56:34Z</time>
      </trkpt>
      <trkpt lat="46.58126" lon="5.36574">
        <ele>207.4</ele>
        <time>2022-06-12T06:56:37Z</time>
      </trkpt>
      <trkpt lat="46.58126" lon="5.36593">
        <ele>207.6</ele>
        <time>2022-06-12T06:56:39Z</time>
      </trkpt>
      <trkpt lat="46.58129" lon="5.3661">
        <ele>207.6</ele>
        <time>2022-06-12T06:56:41Z</time>
      </trkpt>
      <trkpt lat="46.58134" lon="5.36627">
        <ele>207.6</ele>
        <time>2022-06-12T06:56:43Z</time>
      </trkpt>
      <trkpt lat="46.58164" lon="5.367">
        <ele>207.4</ele>
        <time>2022-06-12T06:56:52Z</time>
      </trkpt>
      <trkpt lat="46.58186" lon="5.36751">
        <ele>207.4</ele>
        <time>2022-06-12T06:56:58Z</time>
      </trkpt>
      <trkpt lat="46.58215" lon="5.36825">
        <ele>207.2</ele>
        <time>2022-06-12T06:57:07Z</time>
      </trkpt>
      <trkpt lat="46.58218" lon="5.36832">
        <ele>207.2</ele>
        <time>2022-06-12T06:57:08Z</time>
      </trkpt>
      <trkpt lat="46.58241" lon="5.36891">
        <ele>208</ele>
        <time>2022-06-12T06:57:16Z</time>
      </trkpt>
      <trkpt lat="46.58255" lon="5.36926">
        <ele>208.6</ele>
        <time>2022-06-12T06:57:21Z</time>
      </trkpt>
      <trkpt lat="46.58269" lon="5.3696">
        <ele>209</ele>
        <time>2022-06-12T06:57:26Z</time>
      </trkpt>
      <trkpt lat="46.58291" lon="5.36987">
        <ele>209.4</ele>
        <time>2022-06-12T06:57:31Z</time>
      </trkpt>
      <trkpt lat="46.58323" lon="5.37004">
        <ele>209.8</ele>
        <time>2022-06-12T06:57:37Z</time>
      </trkpt>
      <trkpt lat="46.58327" lon="5.37007">
        <ele>209.8</ele>
        <time>2022-06-12T06:57:38Z</time>
      </trkpt>
      <trkpt lat="46.58367" lon="5.37026">
        <ele>211</ele>
        <time>2022-06-12T06:57:46Z</time>
      </trkpt>
      <trkpt lat="46.58377" lon="5.3703">
        <ele>211.2</ele>
        <time>2022-06-12T06:57:48Z</time>
      </trkpt>
      <trkpt lat="46.58402" lon="5.3704">
        <ele>212.2</ele>
        <time>2022-06-12T06:57:53Z</time>
      </trkpt>
      <trkpt lat="46.58421" lon="5.37049">
        <ele>212.8</ele>
        <time>2022-06-12T06:57:57Z</time>
      </trkpt>
      <trkpt lat="46.58426" lon="5.37051">
        <ele>213.2</ele>
        <time>2022-06-12T06:57:58Z</time>
      </trkpt>
      <trkpt lat="46.58449" lon="5.37061">
        <ele>214.4</ele>
        <time>2022-06-12T06:58:03Z</time>
      </trkpt>
      <trkpt lat="46.5847" lon="5.37073">
        <ele>215.4</ele>
        <time>2022-06-12T06:58:08Z</time>
      </trkpt>
      <trkpt lat="46.58474" lon="5.37077">
        <ele>215.4</ele>
        <time>2022-06-12T06:58:09Z</time>
      </trkpt>
      <trkpt lat="46.585" lon="5.37099">
        <ele>216.8</ele>
        <time>2022-06-12T06:58:16Z</time>
      </trkpt>
      <trkpt lat="46.58508" lon="5.37106">
        <ele>217.4</ele>
        <time>2022-06-12T06:58:20Z</time>
      </trkpt>
      <trkpt lat="46.58509" lon="5.37106">
        <ele>217.6</ele>
        <time>2022-06-12T06:58:24Z</time>
      </trkpt>
      <trkpt lat="46.58512" lon="5.37112">
        <ele>217.4</ele>
        <time>2022-06-12T06:59:05Z</time>
      </trkpt>
      <trkpt lat="46.58518" lon="5.37119">
        <ele>217.4</ele>
        <time>2022-06-12T06:59:07Z</time>
      </trkpt>
      <trkpt lat="46.58531" lon="5.37137">
        <ele>217.2</ele>
        <time>2022-06-12T06:59:10Z</time>
      </trkpt>
      <trkpt lat="46.58536" lon="5.37144">
        <ele>217.2</ele>
        <time>2022-06-12T06:59:11Z</time>
      </trkpt>
      <trkpt lat="46.58558" lon="5.37186">
        <ele>216.6</ele>
        <time>2022-06-12T06:59:16Z</time>
      </trkpt>
      <trkpt lat="46.58581" lon="5.37248">
        <ele>216</ele>
        <time>2022-06-12T06:59:23Z</time>
      </trkpt>
      <trkpt lat="46.58598" lon="5.37312">
        <ele>216.2</ele>
        <time>2022-06-12T06:59:30Z</time>
      </trkpt>
      <trkpt lat="46.58608" lon="5.37357">
        <ele>216.4</ele>
        <time>2022-06-12T06:59:35Z</time>
      </trkpt>
      <trkpt lat="46.58616" lon="5.37394">
        <ele>216.4</ele>
        <time>2022-06-12T06:59:39Z</time>
      </trkpt>
      <trkpt lat="46.58632" lon="5.37449">
        <ele>216.4</ele>
        <time>2022-06-12T06:59:45Z</time>
      </trkpt>
      <trkpt lat="46.58656" lon="5.37499">
        <ele>216.4</ele>
        <time>2022-06-12T06:59:51Z</time>
      </trkpt>
      <trkpt lat="46.58688" lon="5.37545">
        <ele>216.2</ele>
        <time>2022-06-12T06:59:58Z</time>
      </trkpt>
      <trkpt lat="46.58719" lon="5.37584">
        <ele>217</ele>
        <time>2022-06-12T07:00:05Z</time>
      </trkpt>
      <trkpt lat="46.58744" lon="5.37615">
        <ele>217.6</ele>
        <time>2022-06-12T07:00:11Z</time>
      </trkpt>
      <trkpt lat="46.58749" lon="5.37621">
        <ele>217.8</ele>
        <time>2022-06-12T07:00:12Z</time>
      </trkpt>
      <trkpt lat="46.58753" lon="5.37627">
        <ele>218.2</ele>
        <time>2022-06-12T07:00:13Z</time>
      </trkpt>
      <trkpt lat="46.58777" lon="5.37663">
        <ele>219.4</ele>
        <time>2022-06-12T07:00:19Z</time>
      </trkpt>
      <trkpt lat="46.58803" lon="5.37714">
        <ele>220.2</ele>
        <time>2022-06-12T07:00:26Z</time>
      </trkpt>
      <trkpt lat="46.58814" lon="5.37737">
        <ele>220.4</ele>
        <time>2022-06-12T07:00:29Z</time>
      </trkpt>
      <trkpt lat="46.58818" lon="5.37744">
        <ele>220.4</ele>
        <time>2022-06-12T07:00:30Z</time>
      </trkpt>
      <trkpt lat="46.58836" lon="5.37783">
        <ele>220.8</ele>
        <time>2022-06-12T07:00:35Z</time>
      </trkpt>
      <trkpt lat="46.5887" lon="5.37841">
        <ele>221.2</ele>
        <time>2022-06-12T07:00:43Z</time>
      </trkpt>
      <trkpt lat="46.58908" lon="5.3788">
        <ele>221.2</ele>
        <time>2022-06-12T07:00:50Z</time>
      </trkpt>
      <trkpt lat="46.58945" lon="5.37906">
        <ele>221.2</ele>
        <time>2022-06-12T07:00:56Z</time>
      </trkpt>
      <trkpt lat="46.58955" lon="5.3792">
        <ele>221.2</ele>
        <time>2022-06-12T07:00:58Z</time>
      </trkpt>
      <trkpt lat="46.58974" lon="5.37963">
        <ele>221</ele>
        <time>2022-06-12T07:01:03Z</time>
      </trkpt>
      <trkpt lat="46.59" lon="5.38036">
        <ele>220.6</ele>
        <time>2022-06-12T07:01:11Z</time>
      </trkpt>
      <trkpt lat="46.59026" lon="5.38108">
        <ele>220.2</ele>
        <time>2022-06-12T07:01:19Z</time>
      </trkpt>
      <trkpt lat="46.59029" lon="5.38117">
        <ele>220.2</ele>
        <time>2022-06-12T07:01:20Z</time>
      </trkpt>
      <trkpt lat="46.59054" lon="5.38187">
        <ele>220</ele>
        <time>2022-06-12T07:01:28Z</time>
      </trkpt>
      <trkpt lat="46.59058" lon="5.38196">
        <ele>220</ele>
        <time>2022-06-12T07:01:29Z</time>
      </trkpt>
      <trkpt lat="46.59082" lon="5.38265">
        <ele>219.6</ele>
        <time>2022-06-12T07:01:37Z</time>
      </trkpt>
      <trkpt lat="46.59085" lon="5.38274">
        <ele>219.6</ele>
        <time>2022-06-12T07:01:38Z</time>
      </trkpt>
      <trkpt lat="46.59107" lon="5.38344">
        <ele>219.4</ele>
        <time>2022-06-12T07:01:46Z</time>
      </trkpt>
      <trkpt lat="46.59131" lon="5.38415">
        <ele>219</ele>
        <time>2022-06-12T07:01:54Z</time>
      </trkpt>
      <trkpt lat="46.59137" lon="5.38433">
        <ele>219</ele>
        <time>2022-06-12T07:01:56Z</time>
      </trkpt>
      <trkpt lat="46.59158" lon="5.38479">
        <ele>218.8</ele>
        <time>2022-06-12T07:02:02Z</time>
      </trkpt>
      <trkpt lat="46.59183" lon="5.38515">
        <ele>219.8</ele>
        <time>2022-06-12T07:02:08Z</time>
      </trkpt>
      <trkpt lat="46.59221" lon="5.38554">
        <ele>220.8</ele>
        <time>2022-06-12T07:02:16Z</time>
      </trkpt>
      <trkpt lat="46.59247" lon="5.38583">
        <ele>221.2</ele>
        <time>2022-06-12T07:02:21Z</time>
      </trkpt>
      <trkpt lat="46.59283" lon="5.38623">
        <ele>221.4</ele>
        <time>2022-06-12T07:02:27Z</time>
      </trkpt>
      <trkpt lat="46.5933" lon="5.38673">
        <ele>221.2</ele>
        <time>2022-06-12T07:02:35Z</time>
      </trkpt>
      <trkpt lat="46.5934" lon="5.38685">
        <ele>221.2</ele>
        <time>2022-06-12T07:02:37Z</time>
      </trkpt>
      <trkpt lat="46.59371" lon="5.38718">
        <ele>221.2</ele>
        <time>2022-06-12T07:02:43Z</time>
      </trkpt>
      <trkpt lat="46.59388" lon="5.38736">
        <ele>221.2</ele>
        <time>2022-06-12T07:02:46Z</time>
      </trkpt>
      <trkpt lat="46.59428" lon="5.3878">
        <ele>221.6</ele>
        <time>2022-06-12T07:02:54Z</time>
      </trkpt>
      <trkpt lat="46.59437" lon="5.38794">
        <ele>221.8</ele>
        <time>2022-06-12T07:02:56Z</time>
      </trkpt>
      <trkpt lat="46.59443" lon="5.38811">
        <ele>221.8</ele>
        <time>2022-06-12T07:02:58Z</time>
      </trkpt>
      <trkpt lat="46.59448" lon="5.38847">
        <ele>222.2</ele>
        <time>2022-06-12T07:03:02Z</time>
      </trkpt>
      <trkpt lat="46.59449" lon="5.38856">
        <ele>222.2</ele>
        <time>2022-06-12T07:03:03Z</time>
      </trkpt>
      <trkpt lat="46.5945" lon="5.38884">
        <ele>222.4</ele>
        <time>2022-06-12T07:03:06Z</time>
      </trkpt>
      <trkpt lat="46.59456" lon="5.38911">
        <ele>222.4</ele>
        <time>2022-06-12T07:03:09Z</time>
      </trkpt>
      <trkpt lat="46.59459" lon="5.3892">
        <ele>222.2</ele>
        <time>2022-06-12T07:03:10Z</time>
      </trkpt>
      <trkpt lat="46.59472" lon="5.38955">
        <ele>222</ele>
        <time>2022-06-12T07:03:14Z</time>
      </trkpt>
      <trkpt lat="46.59481" lon="5.39003">
        <ele>221.8</ele>
        <time>2022-06-12T07:03:19Z</time>
      </trkpt>
      <trkpt lat="46.59491" lon="5.39082">
        <ele>221.4</ele>
        <time>2022-06-12T07:03:27Z</time>
      </trkpt>
      <trkpt lat="46.59494" lon="5.39111">
        <ele>221.6</ele>
        <time>2022-06-12T07:03:30Z</time>
      </trkpt>
      <trkpt lat="46.59505" lon="5.39183">
        <ele>222</ele>
        <time>2022-06-12T07:03:38Z</time>
      </trkpt>
      <trkpt lat="46.59513" lon="5.39197">
        <ele>222.2</ele>
        <time>2022-06-12T07:03:40Z</time>
      </trkpt>
      <trkpt lat="46.59518" lon="5.39203">
        <ele>222.4</ele>
        <time>2022-06-12T07:03:41Z</time>
      </trkpt>
      <trkpt lat="46.59524" lon="5.39208">
        <ele>222.4</ele>
        <time>2022-06-12T07:03:42Z</time>
      </trkpt>
      <trkpt lat="46.59537" lon="5.39212">
        <ele>222.6</ele>
        <time>2022-06-12T07:03:44Z</time>
      </trkpt>
      <trkpt lat="46.59569" lon="5.3921">
        <ele>223</ele>
        <time>2022-06-12T07:03:49Z</time>
      </trkpt>
      <trkpt lat="46.59576" lon="5.39207">
        <ele>223</ele>
        <time>2022-06-12T07:03:50Z</time>
      </trkpt>
      <trkpt lat="46.59613" lon="5.3919">
        <ele>223.6</ele>
        <time>2022-06-12T07:03:56Z</time>
      </trkpt>
      <trkpt lat="46.59644" lon="5.39189">
        <ele>223.8</ele>
        <time>2022-06-12T07:04:01Z</time>
      </trkpt>
      <trkpt lat="46.59675" lon="5.39194">
        <ele>224</ele>
        <time>2022-06-12T07:04:06Z</time>
      </trkpt>
      <trkpt lat="46.59687" lon="5.39196">
        <ele>224.2</ele>
        <time>2022-06-12T07:04:08Z</time>
      </trkpt>
      <trkpt lat="46.59692" lon="5.39198">
        <ele>224.2</ele>
        <time>2022-06-12T07:04:09Z</time>
      </trkpt>
      <trkpt lat="46.59721" lon="5.39207">
        <ele>224.2</ele>
        <time>2022-06-12T07:04:14Z</time>
      </trkpt>
      <trkpt lat="46.59726" lon="5.39211">
        <ele>224.4</ele>
        <time>2022-06-12T07:04:15Z</time>
      </trkpt>
      <trkpt lat="46.59729" lon="5.39216">
        <ele>224.4</ele>
        <time>2022-06-12T07:04:16Z</time>
      </trkpt>
      <trkpt lat="46.59737" lon="5.39224">
        <ele>224.2</ele>
        <time>2022-06-12T07:04:18Z</time>
      </trkpt>
      <trkpt lat="46.59747" lon="5.39222">
        <ele>224.2</ele>
        <time>2022-06-12T07:04:20Z</time>
      </trkpt>
      <trkpt lat="46.59753" lon="5.39218">
        <ele>224.2</ele>
        <time>2022-06-12T07:04:21Z</time>
      </trkpt>
      <trkpt lat="46.59769" lon="5.39205">
        <ele>224</ele>
        <time>2022-06-12T07:04:24Z</time>
      </trkpt>
      <trkpt lat="46.5979" lon="5.39197">
        <ele>223.8</ele>
        <time>2022-06-12T07:04:27Z</time>
      </trkpt>
      <trkpt lat="46.59803" lon="5.39193">
        <ele>223.4</ele>
        <time>2022-06-12T07:04:29Z</time>
      </trkpt>
      <trkpt lat="46.59824" lon="5.39193">
        <ele>223.4</ele>
        <time>2022-06-12T07:04:32Z</time>
      </trkpt>
      <trkpt lat="46.59877" lon="5.39198">
        <ele>223.4</ele>
        <time>2022-06-12T07:04:40Z</time>
      </trkpt>
      <trkpt lat="46.59918" lon="5.39186">
        <ele>223</ele>
        <time>2022-06-12T07:04:46Z</time>
      </trkpt>
      <trkpt lat="46.59925" lon="5.39186">
        <ele>223</ele>
        <time>2022-06-12T07:04:47Z</time>
      </trkpt>
      <trkpt lat="46.59964" lon="5.39185">
        <ele>222.4</ele>
        <time>2022-06-12T07:04:52Z</time>
      </trkpt>
      <trkpt lat="46.59972" lon="5.39186">
        <ele>221.8</ele>
        <time>2022-06-12T07:04:53Z</time>
      </trkpt>
      <trkpt lat="46.5998" lon="5.39187">
        <ele>221.6</ele>
        <time>2022-06-12T07:04:54Z</time>
      </trkpt>
      <trkpt lat="46.59995" lon="5.39193">
        <ele>221.2</ele>
        <time>2022-06-12T07:04:56Z</time>
      </trkpt>
      <trkpt lat="46.60009" lon="5.39201">
        <ele>220.8</ele>
        <time>2022-06-12T07:04:58Z</time>
      </trkpt>
      <trkpt lat="46.60023" lon="5.39213">
        <ele>220.6</ele>
        <time>2022-06-12T07:05:00Z</time>
      </trkpt>
      <trkpt lat="46.60034" lon="5.3923">
        <ele>220.2</ele>
        <time>2022-06-12T07:05:02Z</time>
      </trkpt>
      <trkpt lat="46.60044" lon="5.39251">
        <ele>219.8</ele>
        <time>2022-06-12T07:05:04Z</time>
      </trkpt>
      <trkpt lat="46.6005" lon="5.39276">
        <ele>219.4</ele>
        <time>2022-06-12T07:05:06Z</time>
      </trkpt>
      <trkpt lat="46.60052" lon="5.3929">
        <ele>219.2</ele>
        <time>2022-06-12T07:05:07Z</time>
      </trkpt>
      <trkpt lat="46.60052" lon="5.39304">
        <ele>218.6</ele>
        <time>2022-06-12T07:05:08Z</time>
      </trkpt>
      <trkpt lat="46.60051" lon="5.39347">
        <ele>217.2</ele>
        <time>2022-06-12T07:05:11Z</time>
      </trkpt>
      <trkpt lat="46.60044" lon="5.39386">
        <ele>215.6</ele>
        <time>2022-06-12T07:05:14Z</time>
      </trkpt>
      <trkpt lat="46.60037" lon="5.39422">
        <ele>214.8</ele>
        <time>2022-06-12T07:05:17Z</time>
      </trkpt>
      <trkpt lat="46.60034" lon="5.39444">
        <ele>214.6</ele>
        <time>2022-06-12T07:05:19Z</time>
      </trkpt>
      <trkpt lat="46.60034" lon="5.39465">
        <ele>214.4</ele>
        <time>2022-06-12T07:05:21Z</time>
      </trkpt>
      <trkpt lat="46.60035" lon="5.39476">
        <ele>214.4</ele>
        <time>2022-06-12T07:05:22Z</time>
      </trkpt>
      <trkpt lat="46.60039" lon="5.39497">
        <ele>214.4</ele>
        <time>2022-06-12T07:05:24Z</time>
      </trkpt>
      <trkpt lat="46.60042" lon="5.39507">
        <ele>214.4</ele>
        <time>2022-06-12T07:05:25Z</time>
      </trkpt>
      <trkpt lat="46.60047" lon="5.39517">
        <ele>214.4</ele>
        <time>2022-06-12T07:05:26Z</time>
      </trkpt>
      <trkpt lat="46.60062" lon="5.39549">
        <ele>214.2</ele>
        <time>2022-06-12T07:05:29Z</time>
      </trkpt>
      <trkpt lat="46.60077" lon="5.39582">
        <ele>213.6</ele>
        <time>2022-06-12T07:05:32Z</time>
      </trkpt>
      <trkpt lat="46.60082" lon="5.39594">
        <ele>213.2</ele>
        <time>2022-06-12T07:05:33Z</time>
      </trkpt>
      <trkpt lat="46.60085" lon="5.39607">
        <ele>212.8</ele>
        <time>2022-06-12T07:05:34Z</time>
      </trkpt>
      <trkpt lat="46.60087" lon="5.3962">
        <ele>212.4</ele>
        <time>2022-06-12T07:05:35Z</time>
      </trkpt>
      <trkpt lat="46.60087" lon="5.39648">
        <ele>211.8</ele>
        <time>2022-06-12T07:05:37Z</time>
      </trkpt>
      <trkpt lat="46.60082" lon="5.39675">
        <ele>211</ele>
        <time>2022-06-12T07:05:39Z</time>
      </trkpt>
      <trkpt lat="46.60077" lon="5.39688">
        <ele>210.8</ele>
        <time>2022-06-12T07:05:40Z</time>
      </trkpt>
      <trkpt lat="46.60066" lon="5.39711">
        <ele>209.8</ele>
        <time>2022-06-12T07:05:42Z</time>
      </trkpt>
      <trkpt lat="46.60062" lon="5.39736">
        <ele>208.4</ele>
        <time>2022-06-12T07:05:44Z</time>
      </trkpt>
      <trkpt lat="46.60066" lon="5.39762">
        <ele>207.4</ele>
        <time>2022-06-12T07:05:46Z</time>
      </trkpt>
      <trkpt lat="46.6007" lon="5.39774">
        <ele>207</ele>
        <time>2022-06-12T07:05:47Z</time>
      </trkpt>
      <trkpt lat="46.60084" lon="5.39808">
        <ele>206.2</ele>
        <time>2022-06-12T07:05:50Z</time>
      </trkpt>
      <trkpt lat="46.6009" lon="5.39817">
        <ele>205.8</ele>
        <time>2022-06-12T07:05:51Z</time>
      </trkpt>
      <trkpt lat="46.60096" lon="5.39826">
        <ele>205.8</ele>
        <time>2022-06-12T07:05:52Z</time>
      </trkpt>
      <trkpt lat="46.60132" lon="5.39859">
        <ele>205.2</ele>
        <time>2022-06-12T07:05:57Z</time>
      </trkpt>
      <trkpt lat="46.60158" lon="5.39883">
        <ele>205</ele>
        <time>2022-06-12T07:06:01Z</time>
      </trkpt>
      <trkpt lat="46.60164" lon="5.39889">
        <ele>205</ele>
        <time>2022-06-12T07:06:02Z</time>
      </trkpt>
      <trkpt lat="46.60169" lon="5.39897">
        <ele>205</ele>
        <time>2022-06-12T07:06:03Z</time>
      </trkpt>
      <trkpt lat="46.60174" lon="5.39905">
        <ele>205</ele>
        <time>2022-06-12T07:06:04Z</time>
      </trkpt>
      <trkpt lat="46.60181" lon="5.39924">
        <ele>205.2</ele>
        <time>2022-06-12T07:06:06Z</time>
      </trkpt>
      <trkpt lat="46.60183" lon="5.39933">
        <ele>205.2</ele>
        <time>2022-06-12T07:06:07Z</time>
      </trkpt>
      <trkpt lat="46.60186" lon="5.3997">
        <ele>205.8</ele>
        <time>2022-06-12T07:06:11Z</time>
      </trkpt>
      <trkpt lat="46.60186" lon="5.39979">
        <ele>206.2</ele>
        <time>2022-06-12T07:06:12Z</time>
      </trkpt>
      <trkpt lat="46.60186" lon="5.39988">
        <ele>206.2</ele>
        <time>2022-06-12T07:06:13Z</time>
      </trkpt>
      <trkpt lat="46.60187" lon="5.4003">
        <ele>206.8</ele>
        <time>2022-06-12T07:06:18Z</time>
      </trkpt>
      <trkpt lat="46.60188" lon="5.40054">
        <ele>207.4</ele>
        <time>2022-06-12T07:06:21Z</time>
      </trkpt>
      <trkpt lat="46.6019" lon="5.40097">
        <ele>207.8</ele>
        <time>2022-06-12T07:06:26Z</time>
      </trkpt>
      <trkpt lat="46.6019" lon="5.40119">
        <ele>208</ele>
        <time>2022-06-12T07:06:29Z</time>
      </trkpt>
      <trkpt lat="46.60187" lon="5.40134">
        <ele>208.4</ele>
        <time>2022-06-12T07:06:31Z</time>
      </trkpt>
      <trkpt lat="46.60186" lon="5.40142">
        <ele>208.6</ele>
        <time>2022-06-12T07:06:32Z</time>
      </trkpt>
      <trkpt lat="46.60175" lon="5.40195">
        <ele>209.4</ele>
        <time>2022-06-12T07:06:38Z</time>
      </trkpt>
      <trkpt lat="46.60174" lon="5.40203">
        <ele>209.6</ele>
        <time>2022-06-12T07:06:39Z</time>
      </trkpt>
      <trkpt lat="46.60175" lon="5.40225">
        <ele>209.8</ele>
        <time>2022-06-12T07:06:41Z</time>
      </trkpt>
      <trkpt lat="46.60177" lon="5.40234">
        <ele>209.8</ele>
        <time>2022-06-12T07:06:42Z</time>
      </trkpt>
      <trkpt lat="46.60179" lon="5.40244">
        <ele>209.8</ele>
        <time>2022-06-12T07:06:43Z</time>
      </trkpt>
      <trkpt lat="46.60193" lon="5.40278">
        <ele>209.8</ele>
        <time>2022-06-12T07:06:47Z</time>
      </trkpt>
      <trkpt lat="46.60213" lon="5.40335">
        <ele>209.4</ele>
        <time>2022-06-12T07:06:54Z</time>
      </trkpt>
      <trkpt lat="46.60217" lon="5.40351">
        <ele>209.8</ele>
        <time>2022-06-12T07:06:56Z</time>
      </trkpt>
      <trkpt lat="46.60219" lon="5.40369">
        <ele>210</ele>
        <time>2022-06-12T07:06:58Z</time>
      </trkpt>
      <trkpt lat="46.60219" lon="5.40379">
        <ele>210</ele>
        <time>2022-06-12T07:06:59Z</time>
      </trkpt>
      <trkpt lat="46.6022" lon="5.40423">
        <ele>210.2</ele>
        <time>2022-06-12T07:07:03Z</time>
      </trkpt>
      <trkpt lat="46.60219" lon="5.40486">
        <ele>209.2</ele>
        <time>2022-06-12T07:07:08Z</time>
      </trkpt>
      <trkpt lat="46.60223" lon="5.4051">
        <ele>208</ele>
        <time>2022-06-12T07:07:10Z</time>
      </trkpt>
      <trkpt lat="46.60231" lon="5.40546">
        <ele>207</ele>
        <time>2022-06-12T07:07:13Z</time>
      </trkpt>
      <trkpt lat="46.60233" lon="5.40558">
        <ele>206.6</ele>
        <time>2022-06-12T07:07:14Z</time>
      </trkpt>
      <trkpt lat="46.60235" lon="5.40583">
        <ele>206.2</ele>
        <time>2022-06-12T07:07:16Z</time>
      </trkpt>
      <trkpt lat="46.60234" lon="5.40595">
        <ele>205.8</ele>
        <time>2022-06-12T07:07:17Z</time>
      </trkpt>
      <trkpt lat="46.60232" lon="5.40606">
        <ele>205.6</ele>
        <time>2022-06-12T07:07:18Z</time>
      </trkpt>
      <trkpt lat="46.60225" lon="5.40628">
        <ele>205</ele>
        <time>2022-06-12T07:07:20Z</time>
      </trkpt>
      <trkpt lat="46.60194" lon="5.40681">
        <ele>204.6</ele>
        <time>2022-06-12T07:07:26Z</time>
      </trkpt>
      <trkpt lat="46.60181" lon="5.40707">
        <ele>204.6</ele>
        <time>2022-06-12T07:07:29Z</time>
      </trkpt>
      <trkpt lat="46.60177" lon="5.40717">
        <ele>204.6</ele>
        <time>2022-06-12T07:07:30Z</time>
      </trkpt>
      <trkpt lat="46.60174" lon="5.40727">
        <ele>204.4</ele>
        <time>2022-06-12T07:07:31Z</time>
      </trkpt>
      <trkpt lat="46.60172" lon="5.40749">
        <ele>204</ele>
        <time>2022-06-12T07:07:33Z</time>
      </trkpt>
      <trkpt lat="46.60172" lon="5.40771">
        <ele>203.8</ele>
        <time>2022-06-12T07:07:35Z</time>
      </trkpt>
      <trkpt lat="46.60176" lon="5.40792">
        <ele>203.8</ele>
        <time>2022-06-12T07:07:37Z</time>
      </trkpt>
      <trkpt lat="46.60184" lon="5.4081">
        <ele>203.8</ele>
        <time>2022-06-12T07:07:39Z</time>
      </trkpt>
      <trkpt lat="46.60206" lon="5.40836">
        <ele>203.6</ele>
        <time>2022-06-12T07:07:43Z</time>
      </trkpt>
      <trkpt lat="46.60253" lon="5.40874">
        <ele>204</ele>
        <time>2022-06-12T07:07:51Z</time>
      </trkpt>
      <trkpt lat="46.60287" lon="5.40904">
        <ele>205.4</ele>
        <time>2022-06-12T07:07:58Z</time>
      </trkpt>
      <trkpt lat="46.60292" lon="5.40908">
        <ele>205.6</ele>
        <time>2022-06-12T07:07:59Z</time>
      </trkpt>
      <trkpt lat="46.60307" lon="5.40928">
        <ele>206.8</ele>
        <time>2022-06-12T07:08:03Z</time>
      </trkpt>
      <trkpt lat="46.6031" lon="5.40934">
        <ele>206.8</ele>
        <time>2022-06-12T07:08:04Z</time>
      </trkpt>
      <trkpt lat="46.60329" lon="5.40971">
        <ele>207.8</ele>
        <time>2022-06-12T07:08:11Z</time>
      </trkpt>
      <trkpt lat="46.60332" lon="5.40975">
        <ele>208.2</ele>
        <time>2022-06-12T07:08:12Z</time>
      </trkpt>
      <trkpt lat="46.60338" lon="5.40983">
        <ele>209.2</ele>
        <time>2022-06-12T07:08:14Z</time>
      </trkpt>
      <trkpt lat="46.60348" lon="5.40993">
        <ele>210.2</ele>
        <time>2022-06-12T07:08:17Z</time>
      </trkpt>
      <trkpt lat="46.60351" lon="5.40996">
        <ele>210.4</ele>
        <time>2022-06-12T07:08:18Z</time>
      </trkpt>
      <trkpt lat="46.60362" lon="5.41005">
        <ele>211.6</ele>
        <time>2022-06-12T07:08:21Z</time>
      </trkpt>
      <trkpt lat="46.60373" lon="5.41012">
        <ele>212.6</ele>
        <time>2022-06-12T07:08:24Z</time>
      </trkpt>
      <trkpt lat="46.60392" lon="5.41028">
        <ele>213.8</ele>
        <time>2022-06-12T07:08:29Z</time>
      </trkpt>
      <trkpt lat="46.60399" lon="5.41036">
        <ele>214.2</ele>
        <time>2022-06-12T07:08:31Z</time>
      </trkpt>
      <trkpt lat="46.60406" lon="5.41045">
        <ele>214.6</ele>
        <time>2022-06-12T07:08:33Z</time>
      </trkpt>
      <trkpt lat="46.60409" lon="5.4105">
        <ele>214.8</ele>
        <time>2022-06-12T07:08:34Z</time>
      </trkpt>
      <trkpt lat="46.60411" lon="5.41056">
        <ele>215</ele>
        <time>2022-06-12T07:08:35Z</time>
      </trkpt>
      <trkpt lat="46.60415" lon="5.41068">
        <ele>215.2</ele>
        <time>2022-06-12T07:08:37Z</time>
      </trkpt>
      <trkpt lat="46.60428" lon="5.41102">
        <ele>216</ele>
        <time>2022-06-12T07:08:42Z</time>
      </trkpt>
      <trkpt lat="46.60432" lon="5.41109">
        <ele>216.2</ele>
        <time>2022-06-12T07:08:43Z</time>
      </trkpt>
      <trkpt lat="46.60441" lon="5.41121">
        <ele>216.4</ele>
        <time>2022-06-12T07:08:45Z</time>
      </trkpt>
      <trkpt lat="46.60452" lon="5.4113">
        <ele>216.2</ele>
        <time>2022-06-12T07:08:47Z</time>
      </trkpt>
      <trkpt lat="46.60465" lon="5.41136">
        <ele>215.8</ele>
        <time>2022-06-12T07:08:49Z</time>
      </trkpt>
      <trkpt lat="46.60479" lon="5.41139">
        <ele>215.8</ele>
        <time>2022-06-12T07:08:51Z</time>
      </trkpt>
      <trkpt lat="46.60516" lon="5.41141">
        <ele>215.2</ele>
        <time>2022-06-12T07:08:56Z</time>
      </trkpt>
      <trkpt lat="46.60531" lon="5.41142">
        <ele>214.8</ele>
        <time>2022-06-12T07:08:58Z</time>
      </trkpt>
      <trkpt lat="46.60571" lon="5.41146">
        <ele>213.8</ele>
        <time>2022-06-12T07:09:03Z</time>
      </trkpt>
      <trkpt lat="46.60617" lon="5.4116">
        <ele>212.6</ele>
        <time>2022-06-12T07:09:09Z</time>
      </trkpt>
      <trkpt lat="46.60625" lon="5.41162">
        <ele>212.4</ele>
        <time>2022-06-12T07:09:10Z</time>
      </trkpt>
      <trkpt lat="46.60649" lon="5.4117">
        <ele>211.6</ele>
        <time>2022-06-12T07:09:13Z</time>
      </trkpt>
      <trkpt lat="46.60672" lon="5.41178">
        <ele>210.4</ele>
        <time>2022-06-12T07:09:16Z</time>
      </trkpt>
      <trkpt lat="46.6068" lon="5.41182">
        <ele>210.2</ele>
        <time>2022-06-12T07:09:17Z</time>
      </trkpt>
      <trkpt lat="46.60694" lon="5.41191">
        <ele>210</ele>
        <time>2022-06-12T07:09:19Z</time>
      </trkpt>
      <trkpt lat="46.60706" lon="5.41204">
        <ele>209.8</ele>
        <time>2022-06-12T07:09:21Z</time>
      </trkpt>
      <trkpt lat="46.60729" lon="5.41233">
        <ele>209.4</ele>
        <time>2022-06-12T07:09:25Z</time>
      </trkpt>
      <trkpt lat="46.60754" lon="5.41264">
        <ele>209.4</ele>
        <time>2022-06-12T07:09:30Z</time>
      </trkpt>
      <trkpt lat="46.60794" lon="5.41306">
        <ele>209.6</ele>
        <time>2022-06-12T07:09:37Z</time>
      </trkpt>
      <trkpt lat="46.60815" lon="5.41325">
        <ele>209.4</ele>
        <time>2022-06-12T07:09:40Z</time>
      </trkpt>
      <trkpt lat="46.6083" lon="5.41333">
        <ele>209</ele>
        <time>2022-06-12T07:09:42Z</time>
      </trkpt>
      <trkpt lat="46.60838" lon="5.41335">
        <ele>208.2</ele>
        <time>2022-06-12T07:09:43Z</time>
      </trkpt>
      <trkpt lat="46.60844" lon="5.41334">
        <ele>208</ele>
        <time>2022-06-12T07:09:44Z</time>
      </trkpt>
      <trkpt lat="46.60849" lon="5.41333">
        <ele>207.4</ele>
        <time>2022-06-12T07:09:45Z</time>
      </trkpt>
      <trkpt lat="46.60854" lon="5.4133">
        <ele>207.2</ele>
        <time>2022-06-12T07:09:46Z</time>
      </trkpt>
      <trkpt lat="46.6086" lon="5.41326">
        <ele>206.8</ele>
        <time>2022-06-12T07:09:47Z</time>
      </trkpt>
      <trkpt lat="46.60871" lon="5.41315">
        <ele>206.2</ele>
        <time>2022-06-12T07:09:49Z</time>
      </trkpt>
      <trkpt lat="46.60876" lon="5.41308">
        <ele>206</ele>
        <time>2022-06-12T07:09:50Z</time>
      </trkpt>
      <trkpt lat="46.60899" lon="5.41278">
        <ele>205</ele>
        <time>2022-06-12T07:09:54Z</time>
      </trkpt>
      <trkpt lat="46.60947" lon="5.41222">
        <ele>204.4</ele>
        <time>2022-06-12T07:10:02Z</time>
      </trkpt>
      <trkpt lat="46.60953" lon="5.41215">
        <ele>204.2</ele>
        <time>2022-06-12T07:10:03Z</time>
      </trkpt>
      <trkpt lat="46.60978" lon="5.4119">
        <ele>204</ele>
        <time>2022-06-12T07:10:07Z</time>
      </trkpt>
      <trkpt lat="46.61012" lon="5.41161">
        <ele>203.6</ele>
        <time>2022-06-12T07:10:12Z</time>
      </trkpt>
      <trkpt lat="46.61025" lon="5.41153">
        <ele>203.6</ele>
        <time>2022-06-12T07:10:14Z</time>
      </trkpt>
      <trkpt lat="46.61039" lon="5.41151">
        <ele>203.4</ele>
        <time>2022-06-12T07:10:16Z</time>
      </trkpt>
      <trkpt lat="46.61051" lon="5.41155">
        <ele>203.2</ele>
        <time>2022-06-12T07:10:18Z</time>
      </trkpt>
      <trkpt lat="46.61055" lon="5.41162">
        <ele>203</ele>
        <time>2022-06-12T07:10:19Z</time>
      </trkpt>
      <trkpt lat="46.61058" lon="5.41173">
        <ele>203</ele>
        <time>2022-06-12T07:10:20Z</time>
      </trkpt>
      <trkpt lat="46.61062" lon="5.41194">
        <ele>202.8</ele>
        <time>2022-06-12T07:10:22Z</time>
      </trkpt>
      <trkpt lat="46.61078" lon="5.41244">
        <ele>202.8</ele>
        <time>2022-06-12T07:10:27Z</time>
      </trkpt>
      <trkpt lat="46.61104" lon="5.41295">
        <ele>202.8</ele>
        <time>2022-06-12T07:10:33Z</time>
      </trkpt>
      <trkpt lat="46.61108" lon="5.41305">
        <ele>203</ele>
        <time>2022-06-12T07:10:34Z</time>
      </trkpt>
      <trkpt lat="46.61111" lon="5.41315">
        <ele>203</ele>
        <time>2022-06-12T07:10:35Z</time>
      </trkpt>
      <trkpt lat="46.61117" lon="5.41345">
        <ele>203</ele>
        <time>2022-06-12T07:10:38Z</time>
      </trkpt>
      <trkpt lat="46.61125" lon="5.41427">
        <ele>202.6</ele>
        <time>2022-06-12T07:10:46Z</time>
      </trkpt>
      <trkpt lat="46.61138" lon="5.41474">
        <ele>202.6</ele>
        <time>2022-06-12T07:10:51Z</time>
      </trkpt>
      <trkpt lat="46.61162" lon="5.41523">
        <ele>202.8</ele>
        <time>2022-06-12T07:10:57Z</time>
      </trkpt>
      <trkpt lat="46.61201" lon="5.41584">
        <ele>203</ele>
        <time>2022-06-12T07:11:05Z</time>
      </trkpt>
      <trkpt lat="46.61205" lon="5.41592">
        <ele>203</ele>
        <time>2022-06-12T07:11:06Z</time>
      </trkpt>
      <trkpt lat="46.61239" lon="5.41657">
        <ele>203.2</ele>
        <time>2022-06-12T07:11:14Z</time>
      </trkpt>
      <trkpt lat="46.61243" lon="5.41666">
        <ele>203.2</ele>
        <time>2022-06-12T07:11:15Z</time>
      </trkpt>
      <trkpt lat="46.61277" lon="5.41727">
        <ele>202.8</ele>
        <time>2022-06-12T07:11:23Z</time>
      </trkpt>
      <trkpt lat="46.6132" lon="5.41787">
        <ele>202.8</ele>
        <time>2022-06-12T07:11:32Z</time>
      </trkpt>
      <trkpt lat="46.61363" lon="5.41846">
        <ele>203</ele>
        <time>2022-06-12T07:11:41Z</time>
      </trkpt>
      <trkpt lat="46.61399" lon="5.41885">
        <ele>203.4</ele>
        <time>2022-06-12T07:11:48Z</time>
      </trkpt>
      <trkpt lat="46.61403" lon="5.41891">
        <ele>203.2</ele>
        <time>2022-06-12T07:11:49Z</time>
      </trkpt>
      <trkpt lat="46.61426" lon="5.41937">
        <ele>203.6</ele>
        <time>2022-06-12T07:11:55Z</time>
      </trkpt>
      <trkpt lat="46.61459" lon="5.4201">
        <ele>203.4</ele>
        <time>2022-06-12T07:12:04Z</time>
      </trkpt>
      <trkpt lat="46.61475" lon="5.42042">
        <ele>203.4</ele>
        <time>2022-06-12T07:12:08Z</time>
      </trkpt>
      <trkpt lat="46.61484" lon="5.42055">
        <ele>203.4</ele>
        <time>2022-06-12T07:12:10Z</time>
      </trkpt>
      <trkpt lat="46.615" lon="5.42074">
        <ele>203.6</ele>
        <time>2022-06-12T07:12:13Z</time>
      </trkpt>
      <trkpt lat="46.61512" lon="5.42098">
        <ele>203.6</ele>
        <time>2022-06-12T07:12:16Z</time>
      </trkpt>
      <trkpt lat="46.61535" lon="5.42168">
        <ele>203.8</ele>
        <time>2022-06-12T07:12:24Z</time>
      </trkpt>
      <trkpt lat="46.61555" lon="5.42251">
        <ele>203.4</ele>
        <time>2022-06-12T07:12:33Z</time>
      </trkpt>
      <trkpt lat="46.61557" lon="5.4226">
        <ele>203.4</ele>
        <time>2022-06-12T07:12:34Z</time>
      </trkpt>
      <trkpt lat="46.61567" lon="5.42338">
        <ele>203.4</ele>
        <time>2022-06-12T07:12:42Z</time>
      </trkpt>
      <trkpt lat="46.61568" lon="5.42357">
        <ele>203.4</ele>
        <time>2022-06-12T07:12:44Z</time>
      </trkpt>
      <trkpt lat="46.61579" lon="5.42424">
        <ele>203.8</ele>
        <time>2022-06-12T07:12:51Z</time>
      </trkpt>
      <trkpt lat="46.61603" lon="5.42488">
        <ele>204</ele>
        <time>2022-06-12T07:12:59Z</time>
      </trkpt>
      <trkpt lat="46.6161" lon="5.42502">
        <ele>204.2</ele>
        <time>2022-06-12T07:13:01Z</time>
      </trkpt>
      <trkpt lat="46.61614" lon="5.42508">
        <ele>204.4</ele>
        <time>2022-06-12T07:13:02Z</time>
      </trkpt>
      <trkpt lat="46.61618" lon="5.42513">
        <ele>204.6</ele>
        <time>2022-06-12T07:13:03Z</time>
      </trkpt>
      <trkpt lat="46.61623" lon="5.42518">
        <ele>204.6</ele>
        <time>2022-06-12T07:13:04Z</time>
      </trkpt>
      <trkpt lat="46.61647" lon="5.42536">
        <ele>205.6</ele>
        <time>2022-06-12T07:13:09Z</time>
      </trkpt>
      <trkpt lat="46.61657" lon="5.42543">
        <ele>206.2</ele>
        <time>2022-06-12T07:13:11Z</time>
      </trkpt>
      <trkpt lat="46.61665" lon="5.4255">
        <ele>206.6</ele>
        <time>2022-06-12T07:13:13Z</time>
      </trkpt>
      <trkpt lat="46.61687" lon="5.42568">
        <ele>207.6</ele>
        <time>2022-06-12T07:13:18Z</time>
      </trkpt>
      <trkpt lat="46.61691" lon="5.42572">
        <ele>207.8</ele>
        <time>2022-06-12T07:13:19Z</time>
      </trkpt>
      <trkpt lat="46.61702" lon="5.42584">
        <ele>209</ele>
        <time>2022-06-12T07:13:22Z</time>
      </trkpt>
      <trkpt lat="46.61719" lon="5.42601">
        <ele>210</ele>
        <time>2022-06-12T07:13:26Z</time>
      </trkpt>
      <trkpt lat="46.61723" lon="5.42605">
        <ele>210.2</ele>
        <time>2022-06-12T07:13:27Z</time>
      </trkpt>
      <trkpt lat="46.61727" lon="5.42611">
        <ele>210.2</ele>
        <time>2022-06-12T07:13:28Z</time>
      </trkpt>
      <trkpt lat="46.61735" lon="5.42628">
        <ele>210.8</ele>
        <time>2022-06-12T07:13:31Z</time>
      </trkpt>
      <trkpt lat="46.61738" lon="5.42641">
        <ele>211</ele>
        <time>2022-06-12T07:13:33Z</time>
      </trkpt>
      <trkpt lat="46.61739" lon="5.42647">
        <ele>211.2</ele>
        <time>2022-06-12T07:13:34Z</time>
      </trkpt>
      <trkpt lat="46.61738" lon="5.42654">
        <ele>211.2</ele>
        <time>2022-06-12T07:13:35Z</time>
      </trkpt>
      <trkpt lat="46.61735" lon="5.42658">
        <ele>211.2</ele>
        <time>2022-06-12T07:13:36Z</time>
      </trkpt>
      <trkpt lat="46.61726" lon="5.42661">
        <ele>211.4</ele>
        <time>2022-06-12T07:13:38Z</time>
      </trkpt>
      <trkpt lat="46.61699" lon="5.42661">
        <ele>211.4</ele>
        <time>2022-06-12T07:13:42Z</time>
      </trkpt>
      <trkpt lat="46.61684" lon="5.42665">
        <ele>211.2</ele>
        <time>2022-06-12T07:13:44Z</time>
      </trkpt>
      <trkpt lat="46.6167" lon="5.42676">
        <ele>210.4</ele>
        <time>2022-06-12T07:13:46Z</time>
      </trkpt>
      <trkpt lat="46.61656" lon="5.42689">
        <ele>210</ele>
        <time>2022-06-12T07:13:48Z</time>
      </trkpt>
      <trkpt lat="46.61626" lon="5.42714">
        <ele>209</ele>
        <time>2022-06-12T07:13:52Z</time>
      </trkpt>
      <trkpt lat="46.61618" lon="5.4272">
        <ele>208.2</ele>
        <time>2022-06-12T07:13:53Z</time>
      </trkpt>
      <trkpt lat="46.61586" lon="5.42747">
        <ele>207.2</ele>
        <time>2022-06-12T07:13:57Z</time>
      </trkpt>
      <trkpt lat="46.61571" lon="5.42761">
        <ele>206.4</ele>
        <time>2022-06-12T07:13:59Z</time>
      </trkpt>
      <trkpt lat="46.61564" lon="5.42768">
        <ele>206.2</ele>
        <time>2022-06-12T07:14:00Z</time>
      </trkpt>
      <trkpt lat="46.61512" lon="5.42807">
        <ele>205.2</ele>
        <time>2022-06-12T07:14:07Z</time>
      </trkpt>
      <trkpt lat="46.61498" lon="5.42817">
        <ele>205</ele>
        <time>2022-06-12T07:14:09Z</time>
      </trkpt>
      <trkpt lat="46.61466" lon="5.42845">
        <ele>205</ele>
        <time>2022-06-12T07:14:14Z</time>
      </trkpt>
      <trkpt lat="46.61424" lon="5.42887">
        <ele>205</ele>
        <time>2022-06-12T07:14:21Z</time>
      </trkpt>
      <trkpt lat="46.6139" lon="5.42937">
        <ele>205</ele>
        <time>2022-06-12T07:14:28Z</time>
      </trkpt>
      <trkpt lat="46.61364" lon="5.42971">
        <ele>205.6</ele>
        <time>2022-06-12T07:14:34Z</time>
      </trkpt>
      <trkpt lat="46.61356" lon="5.4298">
        <ele>205.8</ele>
        <time>2022-06-12T07:14:36Z</time>
      </trkpt>
      <trkpt lat="46.61352" lon="5.42984">
        <ele>206.2</ele>
        <time>2022-06-12T07:14:37Z</time>
      </trkpt>
      <trkpt lat="46.61345" lon="5.42994">
        <ele>206.6</ele>
        <time>2022-06-12T07:14:39Z</time>
      </trkpt>
      <trkpt lat="46.61342" lon="5.42999">
        <ele>206.6</ele>
        <time>2022-06-12T07:14:40Z</time>
      </trkpt>
      <trkpt lat="46.61336" lon="5.4301">
        <ele>207.2</ele>
        <time>2022-06-12T07:14:42Z</time>
      </trkpt>
      <trkpt lat="46.61333" lon="5.43023">
        <ele>208.2</ele>
        <time>2022-06-12T07:14:44Z</time>
      </trkpt>
      <trkpt lat="46.61336" lon="5.43036">
        <ele>208.6</ele>
        <time>2022-06-12T07:14:46Z</time>
      </trkpt>
      <trkpt lat="46.61339" lon="5.43043">
        <ele>208.6</ele>
        <time>2022-06-12T07:14:47Z</time>
      </trkpt>
      <trkpt lat="46.61348" lon="5.4306">
        <ele>209</ele>
        <time>2022-06-12T07:14:50Z</time>
      </trkpt>
      <trkpt lat="46.6136" lon="5.43077">
        <ele>209.8</ele>
        <time>2022-06-12T07:14:53Z</time>
      </trkpt>
      <trkpt lat="46.61365" lon="5.43082">
        <ele>210</ele>
        <time>2022-06-12T07:14:54Z</time>
      </trkpt>
      <trkpt lat="46.61387" lon="5.43105">
        <ele>210.2</ele>
        <time>2022-06-12T07:14:58Z</time>
      </trkpt>
      <trkpt lat="46.61392" lon="5.43112">
        <ele>210.2</ele>
        <time>2022-06-12T07:14:59Z</time>
      </trkpt>
      <trkpt lat="46.6141" lon="5.43146">
        <ele>210</ele>
        <time>2022-06-12T07:15:03Z</time>
      </trkpt>
      <trkpt lat="46.61424" lon="5.43185">
        <ele>209.2</ele>
        <time>2022-06-12T07:15:07Z</time>
      </trkpt>
      <trkpt lat="46.61425" lon="5.43196">
        <ele>209.2</ele>
        <time>2022-06-12T07:15:08Z</time>
      </trkpt>
      <trkpt lat="46.61425" lon="5.43207">
        <ele>208.8</ele>
        <time>2022-06-12T07:15:09Z</time>
      </trkpt>
      <trkpt lat="46.61422" lon="5.43217">
        <ele>208.8</ele>
        <time>2022-06-12T07:15:10Z</time>
      </trkpt>
      <trkpt lat="46.61419" lon="5.43226">
        <ele>208.6</ele>
        <time>2022-06-12T07:15:11Z</time>
      </trkpt>
      <trkpt lat="46.61399" lon="5.43257">
        <ele>208.2</ele>
        <time>2022-06-12T07:15:15Z</time>
      </trkpt>
      <trkpt lat="46.61371" lon="5.43312">
        <ele>208.2</ele>
        <time>2022-06-12T07:15:22Z</time>
      </trkpt>
      <trkpt lat="46.61356" lon="5.43355">
        <ele>208.2</ele>
        <time>2022-06-12T07:15:27Z</time>
      </trkpt>
      <trkpt lat="46.61353" lon="5.43374">
        <ele>208</ele>
        <time>2022-06-12T07:15:29Z</time>
      </trkpt>
      <trkpt lat="46.61352" lon="5.43393">
        <ele>208</ele>
        <time>2022-06-12T07:15:31Z</time>
      </trkpt>
      <trkpt lat="46.61356" lon="5.43458">
        <ele>208.4</ele>
        <time>2022-06-12T07:15:38Z</time>
      </trkpt>
      <trkpt lat="46.61354" lon="5.43535">
        <ele>208.8</ele>
        <time>2022-06-12T07:15:46Z</time>
      </trkpt>
      <trkpt lat="46.61353" lon="5.43555">
        <ele>209</ele>
        <time>2022-06-12T07:15:48Z</time>
      </trkpt>
      <trkpt lat="46.61349" lon="5.43613">
        <ele>209</ele>
        <time>2022-06-12T07:15:54Z</time>
      </trkpt>
      <trkpt lat="46.6135" lon="5.4369">
        <ele>209.2</ele>
        <time>2022-06-12T07:16:02Z</time>
      </trkpt>
      <trkpt lat="46.61353" lon="5.43774">
        <ele>209.8</ele>
        <time>2022-06-12T07:16:11Z</time>
      </trkpt>
      <trkpt lat="46.61353" lon="5.43783">
        <ele>210</ele>
        <time>2022-06-12T07:16:12Z</time>
      </trkpt>
      <trkpt lat="46.61361" lon="5.43835">
        <ele>210.6</ele>
        <time>2022-06-12T07:16:18Z</time>
      </trkpt>
      <trkpt lat="46.61371" lon="5.43875">
        <ele>211</ele>
        <time>2022-06-12T07:16:23Z</time>
      </trkpt>
      <trkpt lat="46.61374" lon="5.43891">
        <ele>211.4</ele>
        <time>2022-06-12T07:16:25Z</time>
      </trkpt>
      <trkpt lat="46.6138" lon="5.43931">
        <ele>212.4</ele>
        <time>2022-06-12T07:16:30Z</time>
      </trkpt>
      <trkpt lat="46.61381" lon="5.43939">
        <ele>212.4</ele>
        <time>2022-06-12T07:16:31Z</time>
      </trkpt>
      <trkpt lat="46.61383" lon="5.43957">
        <ele>212.6</ele>
        <time>2022-06-12T07:16:33Z</time>
      </trkpt>
      <trkpt lat="46.61389" lon="5.44006">
        <ele>213</ele>
        <time>2022-06-12T07:16:38Z</time>
      </trkpt>
      <trkpt lat="46.61386" lon="5.44067">
        <ele>213</ele>
        <time>2022-06-12T07:16:44Z</time>
      </trkpt>
      <trkpt lat="46.61377" lon="5.44117">
        <ele>212.6</ele>
        <time>2022-06-12T07:16:49Z</time>
      </trkpt>
      <trkpt lat="46.61372" lon="5.44134">
        <ele>212.4</ele>
        <time>2022-06-12T07:16:51Z</time>
      </trkpt>
      <trkpt lat="46.61361" lon="5.44158">
        <ele>212.4</ele>
        <time>2022-06-12T07:16:54Z</time>
      </trkpt>
      <trkpt lat="46.61332" lon="5.44223">
        <ele>212.8</ele>
        <time>2022-06-12T07:17:02Z</time>
      </trkpt>
      <trkpt lat="46.61323" lon="5.44272">
        <ele>212.8</ele>
        <time>2022-06-12T07:17:07Z</time>
      </trkpt>
      <trkpt lat="46.61313" lon="5.44357">
        <ele>212.6</ele>
        <time>2022-06-12T07:17:16Z</time>
      </trkpt>
      <trkpt lat="46.61303" lon="5.44417">
        <ele>213.4</ele>
        <time>2022-06-12T07:17:23Z</time>
      </trkpt>
      <trkpt lat="46.613" lon="5.44433">
        <ele>213.6</ele>
        <time>2022-06-12T07:17:25Z</time>
      </trkpt>
      <trkpt lat="46.61281" lon="5.44515">
        <ele>214.2</ele>
        <time>2022-06-12T07:17:35Z</time>
      </trkpt>
      <trkpt lat="46.61278" lon="5.4453">
        <ele>214.4</ele>
        <time>2022-06-12T07:17:37Z</time>
      </trkpt>
      <trkpt lat="46.61275" lon="5.44544">
        <ele>214.4</ele>
        <time>2022-06-12T07:17:39Z</time>
      </trkpt>
      <trkpt lat="46.61269" lon="5.4457">
        <ele>215</ele>
        <time>2022-06-12T07:17:43Z</time>
      </trkpt>
      <trkpt lat="46.61267" lon="5.44577">
        <ele>215.4</ele>
        <time>2022-06-12T07:17:44Z</time>
      </trkpt>
      <trkpt lat="46.61259" lon="5.4461">
        <ele>216.6</ele>
        <time>2022-06-12T07:17:49Z</time>
      </trkpt>
      <trkpt lat="46.61256" lon="5.44623">
        <ele>217</ele>
        <time>2022-06-12T07:17:51Z</time>
      </trkpt>
      <trkpt lat="46.6125" lon="5.44655">
        <ele>218</ele>
        <time>2022-06-12T07:17:56Z</time>
      </trkpt>
      <trkpt lat="46.61246" lon="5.4468">
        <ele>219</ele>
        <time>2022-06-12T07:18:00Z</time>
      </trkpt>
      <trkpt lat="46.61241" lon="5.44717">
        <ele>220.2</ele>
        <time>2022-06-12T07:18:06Z</time>
      </trkpt>
      <trkpt lat="46.61239" lon="5.44735">
        <ele>221</ele>
        <time>2022-06-12T07:18:09Z</time>
      </trkpt>
      <trkpt lat="46.61239" lon="5.4474">
        <ele>221.4</ele>
        <time>2022-06-12T07:18:10Z</time>
      </trkpt>
      <trkpt lat="46.61237" lon="5.44765">
        <ele>222.4</ele>
        <time>2022-06-12T07:18:14Z</time>
      </trkpt>
      <trkpt lat="46.61235" lon="5.44783">
        <ele>223</ele>
        <time>2022-06-12T07:18:17Z</time>
      </trkpt>
      <trkpt lat="46.6123" lon="5.44804">
        <ele>223.6</ele>
        <time>2022-06-12T07:18:20Z</time>
      </trkpt>
      <trkpt lat="46.61222" lon="5.44826">
        <ele>224.2</ele>
        <time>2022-06-12T07:18:23Z</time>
      </trkpt>
      <trkpt lat="46.61214" lon="5.44845">
        <ele>224.6</ele>
        <time>2022-06-12T07:18:26Z</time>
      </trkpt>
      <trkpt lat="46.61202" lon="5.4487">
        <ele>225</ele>
        <time>2022-06-12T07:18:30Z</time>
      </trkpt>
      <trkpt lat="46.61194" lon="5.44881">
        <ele>225.4</ele>
        <time>2022-06-12T07:18:32Z</time>
      </trkpt>
      <trkpt lat="46.61177" lon="5.44899">
        <ele>225.6</ele>
        <time>2022-06-12T07:18:36Z</time>
      </trkpt>
      <trkpt lat="46.61167" lon="5.44907">
        <ele>225.8</ele>
        <time>2022-06-12T07:18:38Z</time>
      </trkpt>
      <trkpt lat="46.6114" lon="5.44932">
        <ele>226.2</ele>
        <time>2022-06-12T07:18:44Z</time>
      </trkpt>
      <trkpt lat="46.61127" lon="5.44948">
        <ele>226.2</ele>
        <time>2022-06-12T07:18:47Z</time>
      </trkpt>
      <trkpt lat="46.6112" lon="5.4496">
        <ele>226.4</ele>
        <time>2022-06-12T07:18:49Z</time>
      </trkpt>
      <trkpt lat="46.61115" lon="5.44974">
        <ele>226.8</ele>
        <time>2022-06-12T07:18:51Z</time>
      </trkpt>
      <trkpt lat="46.6111" lon="5.44989">
        <ele>226.8</ele>
        <time>2022-06-12T07:18:53Z</time>
      </trkpt>
      <trkpt lat="46.61107" lon="5.45005">
        <ele>227</ele>
        <time>2022-06-12T07:18:55Z</time>
      </trkpt>
      <trkpt lat="46.611" lon="5.45078">
        <ele>227.8</ele>
        <time>2022-06-12T07:19:04Z</time>
      </trkpt>
      <trkpt lat="46.611" lon="5.45086">
        <ele>227.8</ele>
        <time>2022-06-12T07:19:05Z</time>
      </trkpt>
      <trkpt lat="46.6109" lon="5.45165">
        <ele>229</ele>
        <time>2022-06-12T07:19:15Z</time>
      </trkpt>
      <trkpt lat="46.61076" lon="5.45231">
        <ele>229.2</ele>
        <time>2022-06-12T07:19:23Z</time>
      </trkpt>
      <trkpt lat="46.61056" lon="5.45305">
        <ele>229.2</ele>
        <time>2022-06-12T07:19:32Z</time>
      </trkpt>
      <trkpt lat="46.61051" lon="5.45329">
        <ele>229.6</ele>
        <time>2022-06-12T07:19:35Z</time>
      </trkpt>
      <trkpt lat="46.61047" lon="5.45362">
        <ele>229.8</ele>
        <time>2022-06-12T07:19:39Z</time>
      </trkpt>
      <trkpt lat="46.61045" lon="5.45387">
        <ele>230.2</ele>
        <time>2022-06-12T07:19:42Z</time>
      </trkpt>
      <trkpt lat="46.6104" lon="5.45429">
        <ele>230.2</ele>
        <time>2022-06-12T07:19:47Z</time>
      </trkpt>
      <trkpt lat="46.61037" lon="5.45497">
        <ele>231</ele>
        <time>2022-06-12T07:19:55Z</time>
      </trkpt>
      <trkpt lat="46.61036" lon="5.45525">
        <ele>231.2</ele>
        <time>2022-06-12T07:19:58Z</time>
      </trkpt>
      <trkpt lat="46.61033" lon="5.45553">
        <ele>231.4</ele>
        <time>2022-06-12T07:20:01Z</time>
      </trkpt>
      <trkpt lat="46.61017" lon="5.45633">
        <ele>231.6</ele>
        <time>2022-06-12T07:20:10Z</time>
      </trkpt>
      <trkpt lat="46.61015" lon="5.45641">
        <ele>231.6</ele>
        <time>2022-06-12T07:20:11Z</time>
      </trkpt>
      <trkpt lat="46.60997" lon="5.4572">
        <ele>232</ele>
        <time>2022-06-12T07:20:20Z</time>
      </trkpt>
      <trkpt lat="46.60994" lon="5.45729">
        <ele>232</ele>
        <time>2022-06-12T07:20:21Z</time>
      </trkpt>
      <trkpt lat="46.6099" lon="5.45746">
        <ele>232.2</ele>
        <time>2022-06-12T07:20:23Z</time>
      </trkpt>
      <trkpt lat="46.60967" lon="5.45826">
        <ele>232.4</ele>
        <time>2022-06-12T07:20:32Z</time>
      </trkpt>
      <trkpt lat="46.60949" lon="5.45899">
        <ele>232</ele>
        <time>2022-06-12T07:20:40Z</time>
      </trkpt>
      <trkpt lat="46.60938" lon="5.45982">
        <ele>231.8</ele>
        <time>2022-06-12T07:20:48Z</time>
      </trkpt>
      <trkpt lat="46.60935" lon="5.46002">
        <ele>231.6</ele>
        <time>2022-06-12T07:20:50Z</time>
      </trkpt>
      <trkpt lat="46.60932" lon="5.46012">
        <ele>231.6</ele>
        <time>2022-06-12T07:20:51Z</time>
      </trkpt>
      <trkpt lat="46.60925" lon="5.46031">
        <ele>231.4</ele>
        <time>2022-06-12T07:20:53Z</time>
      </trkpt>
      <trkpt lat="46.6092" lon="5.4604">
        <ele>231.4</ele>
        <time>2022-06-12T07:20:54Z</time>
      </trkpt>
      <trkpt lat="46.60894" lon="5.4608">
        <ele>231</ele>
        <time>2022-06-12T07:20:59Z</time>
      </trkpt>
      <trkpt lat="46.60884" lon="5.46096">
        <ele>230.8</ele>
        <time>2022-06-12T07:21:01Z</time>
      </trkpt>
      <trkpt lat="46.60855" lon="5.46137">
        <ele>230</ele>
        <time>2022-06-12T07:21:06Z</time>
      </trkpt>
      <trkpt lat="46.60836" lon="5.46163">
        <ele>229.2</ele>
        <time>2022-06-12T07:21:09Z</time>
      </trkpt>
      <trkpt lat="46.60822" lon="5.46179">
        <ele>228.8</ele>
        <time>2022-06-12T07:21:11Z</time>
      </trkpt>
      <trkpt lat="46.608" lon="5.46201">
        <ele>227.8</ele>
        <time>2022-06-12T07:21:14Z</time>
      </trkpt>
      <trkpt lat="46.60793" lon="5.46208">
        <ele>227.4</ele>
        <time>2022-06-12T07:21:15Z</time>
      </trkpt>
      <trkpt lat="46.6077" lon="5.46232">
        <ele>226.2</ele>
        <time>2022-06-12T07:21:18Z</time>
      </trkpt>
      <trkpt lat="46.60741" lon="5.46267">
        <ele>224.8</ele>
        <time>2022-06-12T07:21:22Z</time>
      </trkpt>
      <trkpt lat="46.60703" lon="5.46312">
        <ele>223</ele>
        <time>2022-06-12T07:21:27Z</time>
      </trkpt>
      <trkpt lat="46.60695" lon="5.4632">
        <ele>222.6</ele>
        <time>2022-06-12T07:21:28Z</time>
      </trkpt>
      <trkpt lat="46.60677" lon="5.46336">
        <ele>222</ele>
        <time>2022-06-12T07:21:30Z</time>
      </trkpt>
      <trkpt lat="46.6066" lon="5.46353">
        <ele>220.8</ele>
        <time>2022-06-12T07:21:32Z</time>
      </trkpt>
      <trkpt lat="46.60652" lon="5.46362">
        <ele>220.6</ele>
        <time>2022-06-12T07:21:33Z</time>
      </trkpt>
      <trkpt lat="46.60645" lon="5.46373">
        <ele>220.2</ele>
        <time>2022-06-12T07:21:34Z</time>
      </trkpt>
      <trkpt lat="46.60632" lon="5.46395">
        <ele>219.6</ele>
        <time>2022-06-12T07:21:36Z</time>
      </trkpt>
      <trkpt lat="46.60626" lon="5.46406">
        <ele>219.4</ele>
        <time>2022-06-12T07:21:37Z</time>
      </trkpt>
      <trkpt lat="46.60609" lon="5.46441">
        <ele>218.6</ele>
        <time>2022-06-12T07:21:40Z</time>
      </trkpt>
      <trkpt lat="46.60603" lon="5.46452">
        <ele>218.4</ele>
        <time>2022-06-12T07:21:41Z</time>
      </trkpt>
      <trkpt lat="46.60596" lon="5.46462">
        <ele>218</ele>
        <time>2022-06-12T07:21:42Z</time>
      </trkpt>
      <trkpt lat="46.60589" lon="5.4647">
        <ele>217.8</ele>
        <time>2022-06-12T07:21:43Z</time>
      </trkpt>
      <trkpt lat="46.60573" lon="5.46483">
        <ele>217.6</ele>
        <time>2022-06-12T07:21:45Z</time>
      </trkpt>
      <trkpt lat="46.60548" lon="5.46496">
        <ele>217.2</ele>
        <time>2022-06-12T07:21:48Z</time>
      </trkpt>
      <trkpt lat="46.60533" lon="5.46504">
        <ele>217.2</ele>
        <time>2022-06-12T07:21:50Z</time>
      </trkpt>
      <trkpt lat="46.60507" lon="5.46532">
        <ele>216.8</ele>
        <time>2022-06-12T07:21:54Z</time>
      </trkpt>
      <trkpt lat="46.60484" lon="5.46576">
        <ele>216.8</ele>
        <time>2022-06-12T07:21:59Z</time>
      </trkpt>
      <trkpt lat="46.60456" lon="5.46631">
        <ele>216.6</ele>
        <time>2022-06-12T07:22:06Z</time>
      </trkpt>
      <trkpt lat="46.60443" lon="5.46647">
        <ele>216.8</ele>
        <time>2022-06-12T07:22:09Z</time>
      </trkpt>
      <trkpt lat="46.6044" lon="5.4665">
        <ele>216.8</ele>
        <time>2022-06-12T07:22:10Z</time>
      </trkpt>
      <trkpt lat="46.60435" lon="5.46654">
        <ele>217</ele>
        <time>2022-06-12T07:22:13Z</time>
      </trkpt>
      <trkpt lat="46.60435" lon="5.46654">
        <ele>217.2</ele>
        <time>2022-06-12T07:22:14Z</time>
      </trkpt>
      <trkpt lat="46.60432" lon="5.46651">
        <ele>217.2</ele>
        <time>2022-06-12T07:22:29Z</time>
      </trkpt>
      <trkpt lat="46.60427" lon="5.46655">
        <ele>217.2</ele>
        <time>2022-06-12T07:22:31Z</time>
      </trkpt>
      <trkpt lat="46.60424" lon="5.46666">
        <ele>217.2</ele>
        <time>2022-06-12T07:22:33Z</time>
      </trkpt>
      <trkpt lat="46.60423" lon="5.46682">
        <ele>217.2</ele>
        <time>2022-06-12T07:22:35Z</time>
      </trkpt>
      <trkpt lat="46.60421" lon="5.4673">
        <ele>217.2</ele>
        <time>2022-06-12T07:22:40Z</time>
      </trkpt>
      <trkpt lat="46.60418" lon="5.4679">
        <ele>217.4</ele>
        <time>2022-06-12T07:22:46Z</time>
      </trkpt>
      <trkpt lat="46.60416" lon="5.46799">
        <ele>217.4</ele>
        <time>2022-06-12T07:22:47Z</time>
      </trkpt>
      <trkpt lat="46.60409" lon="5.46827">
        <ele>217.8</ele>
        <time>2022-06-12T07:22:50Z</time>
      </trkpt>
      <trkpt lat="46.60407" lon="5.46836">
        <ele>217.8</ele>
        <time>2022-06-12T07:22:51Z</time>
      </trkpt>
      <trkpt lat="46.60393" lon="5.46896">
        <ele>218.6</ele>
        <time>2022-06-12T07:22:58Z</time>
      </trkpt>
      <trkpt lat="46.60388" lon="5.46913">
        <ele>218.8</ele>
        <time>2022-06-12T07:23:00Z</time>
      </trkpt>
      <trkpt lat="46.60369" lon="5.46977">
        <ele>219.6</ele>
        <time>2022-06-12T07:23:08Z</time>
      </trkpt>
      <trkpt lat="46.60355" lon="5.47032">
        <ele>220.6</ele>
        <time>2022-06-12T07:23:15Z</time>
      </trkpt>
      <trkpt lat="46.60352" lon="5.47048">
        <ele>220.8</ele>
        <time>2022-06-12T07:23:17Z</time>
      </trkpt>
      <trkpt lat="46.60345" lon="5.47087">
        <ele>221.6</ele>
        <time>2022-06-12T07:23:22Z</time>
      </trkpt>
      <trkpt lat="46.60343" lon="5.47102">
        <ele>221.8</ele>
        <time>2022-06-12T07:23:24Z</time>
      </trkpt>
      <trkpt lat="46.60332" lon="5.47164">
        <ele>222.8</ele>
        <time>2022-06-12T07:23:32Z</time>
      </trkpt>
      <trkpt lat="46.6033" lon="5.47178">
        <ele>223.2</ele>
        <time>2022-06-12T07:23:34Z</time>
      </trkpt>
      <trkpt lat="46.60325" lon="5.47209">
        <ele>224</ele>
        <time>2022-06-12T07:23:38Z</time>
      </trkpt>
      <trkpt lat="46.60321" lon="5.47232">
        <ele>224.2</ele>
        <time>2022-06-12T07:23:41Z</time>
      </trkpt>
      <trkpt lat="46.60312" lon="5.47268">
        <ele>225.2</ele>
        <time>2022-06-12T07:23:46Z</time>
      </trkpt>
      <trkpt lat="46.60302" lon="5.47304">
        <ele>226</ele>
        <time>2022-06-12T07:23:51Z</time>
      </trkpt>
      <trkpt lat="46.60296" lon="5.47324">
        <ele>226.4</ele>
        <time>2022-06-12T07:23:54Z</time>
      </trkpt>
      <trkpt lat="46.60289" lon="5.47352">
        <ele>227.4</ele>
        <time>2022-06-12T07:23:58Z</time>
      </trkpt>
      <trkpt lat="46.60288" lon="5.47359">
        <ele>227.6</ele>
        <time>2022-06-12T07:23:59Z</time>
      </trkpt>
      <trkpt lat="46.60286" lon="5.47367">
        <ele>227.8</ele>
        <time>2022-06-12T07:24:00Z</time>
      </trkpt>
      <trkpt lat="46.60285" lon="5.47382">
        <ele>228</ele>
        <time>2022-06-12T07:24:02Z</time>
      </trkpt>
      <trkpt lat="46.60287" lon="5.47399">
        <ele>228.2</ele>
        <time>2022-06-12T07:24:04Z</time>
      </trkpt>
      <trkpt lat="46.60288" lon="5.47425">
        <ele>228.4</ele>
        <time>2022-06-12T07:24:07Z</time>
      </trkpt>
      <trkpt lat="46.60289" lon="5.47444">
        <ele>228.6</ele>
        <time>2022-06-12T07:24:09Z</time>
      </trkpt>
      <trkpt lat="46.60288" lon="5.475">
        <ele>229.4</ele>
        <time>2022-06-12T07:24:16Z</time>
      </trkpt>
      <trkpt lat="46.60288" lon="5.47508">
        <ele>229.6</ele>
        <time>2022-06-12T07:24:17Z</time>
      </trkpt>
      <trkpt lat="46.60285" lon="5.4755">
        <ele>230.6</ele>
        <time>2022-06-12T07:24:22Z</time>
      </trkpt>
      <trkpt lat="46.60284" lon="5.47558">
        <ele>230.8</ele>
        <time>2022-06-12T07:24:23Z</time>
      </trkpt>
      <trkpt lat="46.60274" lon="5.47593">
        <ele>231.6</ele>
        <time>2022-06-12T07:24:27Z</time>
      </trkpt>
      <trkpt lat="46.6027" lon="5.47601">
        <ele>231.6</ele>
        <time>2022-06-12T07:24:28Z</time>
      </trkpt>
      <trkpt lat="46.60265" lon="5.47608">
        <ele>231.6</ele>
        <time>2022-06-12T07:24:29Z</time>
      </trkpt>
      <trkpt lat="46.60253" lon="5.47619">
        <ele>231.8</ele>
        <time>2022-06-12T07:24:31Z</time>
      </trkpt>
      <trkpt lat="46.6024" lon="5.47624">
        <ele>231.8</ele>
        <time>2022-06-12T07:24:33Z</time>
      </trkpt>
      <trkpt lat="46.60226" lon="5.47626">
        <ele>231.8</ele>
        <time>2022-06-12T07:24:35Z</time>
      </trkpt>
      <trkpt lat="46.60192" lon="5.47634">
        <ele>231.8</ele>
        <time>2022-06-12T07:24:40Z</time>
      </trkpt>
      <trkpt lat="46.60172" lon="5.47645">
        <ele>231.8</ele>
        <time>2022-06-12T07:24:43Z</time>
      </trkpt>
      <trkpt lat="46.60138" lon="5.47676">
        <ele>232</ele>
        <time>2022-06-12T07:24:49Z</time>
      </trkpt>
      <trkpt lat="46.60102" lon="5.47717">
        <ele>232.2</ele>
        <time>2022-06-12T07:24:56Z</time>
      </trkpt>
      <trkpt lat="46.60083" lon="5.47748">
        <ele>232.8</ele>
        <time>2022-06-12T07:25:01Z</time>
      </trkpt>
      <trkpt lat="46.60079" lon="5.47753">
        <ele>232.8</ele>
        <time>2022-06-12T07:25:02Z</time>
      </trkpt>
      <trkpt lat="46.60073" lon="5.47765">
        <ele>233.4</ele>
        <time>2022-06-12T07:25:04Z</time>
      </trkpt>
      <trkpt lat="46.60068" lon="5.47779">
        <ele>234</ele>
        <time>2022-06-12T07:25:06Z</time>
      </trkpt>
      <trkpt lat="46.60066" lon="5.47786">
        <ele>234.4</ele>
        <time>2022-06-12T07:25:07Z</time>
      </trkpt>
      <trkpt lat="46.60063" lon="5.478">
        <ele>234.6</ele>
        <time>2022-06-12T07:25:09Z</time>
      </trkpt>
      <trkpt lat="46.60061" lon="5.47821">
        <ele>235</ele>
        <time>2022-06-12T07:25:12Z</time>
      </trkpt>
      <trkpt lat="46.60061" lon="5.47828">
        <ele>235.2</ele>
        <time>2022-06-12T07:25:13Z</time>
      </trkpt>
      <trkpt lat="46.60061" lon="5.47841">
        <ele>236</ele>
        <time>2022-06-12T07:25:15Z</time>
      </trkpt>
      <trkpt lat="46.60061" lon="5.47848">
        <ele>236.2</ele>
        <time>2022-06-12T07:25:16Z</time>
      </trkpt>
      <trkpt lat="46.6006" lon="5.47855">
        <ele>236.8</ele>
        <time>2022-06-12T07:25:17Z</time>
      </trkpt>
      <trkpt lat="46.60058" lon="5.47862">
        <ele>237</ele>
        <time>2022-06-12T07:25:18Z</time>
      </trkpt>
      <trkpt lat="46.60057" lon="5.47869">
        <ele>237.4</ele>
        <time>2022-06-12T07:25:19Z</time>
      </trkpt>
      <trkpt lat="46.60051" lon="5.47882">
        <ele>238</ele>
        <time>2022-06-12T07:25:21Z</time>
      </trkpt>
      <trkpt lat="46.60044" lon="5.47894">
        <ele>238.2</ele>
        <time>2022-06-12T07:25:23Z</time>
      </trkpt>
      <trkpt lat="46.60032" lon="5.47905">
        <ele>238.2</ele>
        <time>2022-06-12T07:25:25Z</time>
      </trkpt>
      <trkpt lat="46.60014" lon="5.47926">
        <ele>238.2</ele>
        <time>2022-06-12T07:25:28Z</time>
      </trkpt>
      <trkpt lat="46.60009" lon="5.47935">
        <ele>237.8</ele>
        <time>2022-06-12T07:25:29Z</time>
      </trkpt>
      <trkpt lat="46.60006" lon="5.47944">
        <ele>237.6</ele>
        <time>2022-06-12T07:25:30Z</time>
      </trkpt>
      <trkpt lat="46.60001" lon="5.47963">
        <ele>237.4</ele>
        <time>2022-06-12T07:25:32Z</time>
      </trkpt>
      <trkpt lat="46.60001" lon="5.4798">
        <ele>237.2</ele>
        <time>2022-06-12T07:25:34Z</time>
      </trkpt>
      <trkpt lat="46.60002" lon="5.47988">
        <ele>237.2</ele>
        <time>2022-06-12T07:25:35Z</time>
      </trkpt>
      <trkpt lat="46.60009" lon="5.48019">
        <ele>237.4</ele>
        <time>2022-06-12T07:25:40Z</time>
      </trkpt>
      <trkpt lat="46.60012" lon="5.48026">
        <ele>237.6</ele>
        <time>2022-06-12T07:25:41Z</time>
      </trkpt>
      <trkpt lat="46.60018" lon="5.48039">
        <ele>237.8</ele>
        <time>2022-06-12T07:25:43Z</time>
      </trkpt>
      <trkpt lat="46.60024" lon="5.48051">
        <ele>238.2</ele>
        <time>2022-06-12T07:25:45Z</time>
      </trkpt>
      <trkpt lat="46.60025" lon="5.48058">
        <ele>238.4</ele>
        <time>2022-06-12T07:25:46Z</time>
      </trkpt>
      <trkpt lat="46.60028" lon="5.48084">
        <ele>238.8</ele>
        <time>2022-06-12T07:25:49Z</time>
      </trkpt>
      <trkpt lat="46.60026" lon="5.48105">
        <ele>239</ele>
        <time>2022-06-12T07:25:51Z</time>
      </trkpt>
      <trkpt lat="46.6003" lon="5.48156">
        <ele>239</ele>
        <time>2022-06-12T07:25:55Z</time>
      </trkpt>
      <trkpt lat="46.60033" lon="5.48185">
        <ele>238.2</ele>
        <time>2022-06-12T07:25:57Z</time>
      </trkpt>
      <trkpt lat="46.60031" lon="5.48215">
        <ele>237.4</ele>
        <time>2022-06-12T07:25:59Z</time>
      </trkpt>
      <trkpt lat="46.60025" lon="5.48245">
        <ele>236.2</ele>
        <time>2022-06-12T07:26:01Z</time>
      </trkpt>
      <trkpt lat="46.60021" lon="5.48259">
        <ele>235.2</ele>
        <time>2022-06-12T07:26:02Z</time>
      </trkpt>
      <trkpt lat="46.60016" lon="5.48274">
        <ele>235</ele>
        <time>2022-06-12T07:26:03Z</time>
      </trkpt>
      <trkpt lat="46.60008" lon="5.48302">
        <ele>233.6</ele>
        <time>2022-06-12T07:26:05Z</time>
      </trkpt>
      <trkpt lat="46.6" lon="5.4833">
        <ele>232.4</ele>
        <time>2022-06-12T07:26:07Z</time>
      </trkpt>
      <trkpt lat="46.59992" lon="5.48357">
        <ele>232</ele>
        <time>2022-06-12T07:26:09Z</time>
      </trkpt>
      <trkpt lat="46.59973" lon="5.48421">
        <ele>231.2</ele>
        <time>2022-06-12T07:26:14Z</time>
      </trkpt>
      <trkpt lat="46.59969" lon="5.48433">
        <ele>231</ele>
        <time>2022-06-12T07:26:15Z</time>
      </trkpt>
      <trkpt lat="46.59948" lon="5.48501">
        <ele>230.4</ele>
        <time>2022-06-12T07:26:21Z</time>
      </trkpt>
      <trkpt lat="46.59934" lon="5.48567">
        <ele>230.6</ele>
        <time>2022-06-12T07:26:27Z</time>
      </trkpt>
      <trkpt lat="46.59928" lon="5.48633">
        <ele>230.8</ele>
        <time>2022-06-12T07:26:33Z</time>
      </trkpt>
      <trkpt lat="46.59926" lon="5.48695">
        <ele>231</ele>
        <time>2022-06-12T07:26:39Z</time>
      </trkpt>
      <trkpt lat="46.59922" lon="5.48741">
        <ele>231.6</ele>
        <time>2022-06-12T07:26:44Z</time>
      </trkpt>
      <trkpt lat="46.59921" lon="5.48769">
        <ele>231.8</ele>
        <time>2022-06-12T07:26:47Z</time>
      </trkpt>
      <trkpt lat="46.59918" lon="5.48789">
        <ele>231.8</ele>
        <time>2022-06-12T07:26:49Z</time>
      </trkpt>
      <trkpt lat="46.59898" lon="5.48852">
        <ele>232</ele>
        <time>2022-06-12T07:26:56Z</time>
      </trkpt>
      <trkpt lat="46.59884" lon="5.48897">
        <ele>232.2</ele>
        <time>2022-06-12T07:27:01Z</time>
      </trkpt>
      <trkpt lat="46.59882" lon="5.48907">
        <ele>232.4</ele>
        <time>2022-06-12T07:27:02Z</time>
      </trkpt>
      <trkpt lat="46.59873" lon="5.48969">
        <ele>233.2</ele>
        <time>2022-06-12T07:27:09Z</time>
      </trkpt>
      <trkpt lat="46.59872" lon="5.48977">
        <ele>233.4</ele>
        <time>2022-06-12T07:27:10Z</time>
      </trkpt>
      <trkpt lat="46.59868" lon="5.49002">
        <ele>233.8</ele>
        <time>2022-06-12T07:27:13Z</time>
      </trkpt>
      <trkpt lat="46.59868" lon="5.49026">
        <ele>234.2</ele>
        <time>2022-06-12T07:27:16Z</time>
      </trkpt>
      <trkpt lat="46.59869" lon="5.49051">
        <ele>234.8</ele>
        <time>2022-06-12T07:27:19Z</time>
      </trkpt>
      <trkpt lat="46.59871" lon="5.49068">
        <ele>235.2</ele>
        <time>2022-06-12T07:27:21Z</time>
      </trkpt>
      <trkpt lat="46.59878" lon="5.49114">
        <ele>235.8</ele>
        <time>2022-06-12T07:27:26Z</time>
      </trkpt>
      <trkpt lat="46.59888" lon="5.49183">
        <ele>235.8</ele>
        <time>2022-06-12T07:27:33Z</time>
      </trkpt>
      <trkpt lat="46.59899" lon="5.49232">
        <ele>235.6</ele>
        <time>2022-06-12T07:27:38Z</time>
      </trkpt>
      <trkpt lat="46.599" lon="5.49242">
        <ele>235.6</ele>
        <time>2022-06-12T07:27:39Z</time>
      </trkpt>
      <trkpt lat="46.599" lon="5.49252">
        <ele>235.6</ele>
        <time>2022-06-12T07:27:40Z</time>
      </trkpt>
      <trkpt lat="46.59897" lon="5.4929">
        <ele>235.4</ele>
        <time>2022-06-12T07:27:44Z</time>
      </trkpt>
      <trkpt lat="46.59897" lon="5.49309">
        <ele>235.4</ele>
        <time>2022-06-12T07:27:46Z</time>
      </trkpt>
      <trkpt lat="46.59898" lon="5.49317">
        <ele>235.4</ele>
        <time>2022-06-12T07:27:47Z</time>
      </trkpt>
      <trkpt lat="46.59901" lon="5.49335">
        <ele>235.4</ele>
        <time>2022-06-12T07:27:49Z</time>
      </trkpt>
      <trkpt lat="46.59918" lon="5.49396">
        <ele>236.2</ele>
        <time>2022-06-12T07:27:56Z</time>
      </trkpt>
      <trkpt lat="46.59923" lon="5.49425">
        <ele>236.2</ele>
        <time>2022-06-12T07:27:59Z</time>
      </trkpt>
      <trkpt lat="46.59923" lon="5.49454">
        <ele>236.2</ele>
        <time>2022-06-12T07:28:02Z</time>
      </trkpt>
      <trkpt lat="46.59923" lon="5.49508">
        <ele>236.6</ele>
        <time>2022-06-12T07:28:08Z</time>
      </trkpt>
      <trkpt lat="46.59925" lon="5.49516">
        <ele>236.6</ele>
        <time>2022-06-12T07:28:09Z</time>
      </trkpt>
      <trkpt lat="46.59931" lon="5.49538">
        <ele>237</ele>
        <time>2022-06-12T07:28:12Z</time>
      </trkpt>
      <trkpt lat="46.59933" lon="5.49546">
        <ele>237.2</ele>
        <time>2022-06-12T07:28:13Z</time>
      </trkpt>
      <trkpt lat="46.59943" lon="5.49582">
        <ele>238.2</ele>
        <time>2022-06-12T07:28:18Z</time>
      </trkpt>
      <trkpt lat="46.59944" lon="5.4959">
        <ele>238.4</ele>
        <time>2022-06-12T07:28:19Z</time>
      </trkpt>
      <trkpt lat="46.59947" lon="5.49624">
        <ele>239.2</ele>
        <time>2022-06-12T07:28:23Z</time>
      </trkpt>
      <trkpt lat="46.59948" lon="5.49641">
        <ele>239.6</ele>
        <time>2022-06-12T07:28:25Z</time>
      </trkpt>
      <trkpt lat="46.59947" lon="5.49708">
        <ele>240.4</ele>
        <time>2022-06-12T07:28:33Z</time>
      </trkpt>
      <trkpt lat="46.59944" lon="5.49757">
        <ele>240.8</ele>
        <time>2022-06-12T07:28:39Z</time>
      </trkpt>
      <trkpt lat="46.59938" lon="5.49797">
        <ele>241.4</ele>
        <time>2022-06-12T07:28:44Z</time>
      </trkpt>
      <trkpt lat="46.59935" lon="5.49818">
        <ele>241.8</ele>
        <time>2022-06-12T07:28:47Z</time>
      </trkpt>
      <trkpt lat="46.59933" lon="5.49826">
        <ele>241.8</ele>
        <time>2022-06-12T07:28:48Z</time>
      </trkpt>
      <trkpt lat="46.59926" lon="5.49861">
        <ele>242.2</ele>
        <time>2022-06-12T07:28:53Z</time>
      </trkpt>
      <trkpt lat="46.59925" lon="5.49869">
        <ele>242.8</ele>
        <time>2022-06-12T07:28:54Z</time>
      </trkpt>
      <trkpt lat="46.59921" lon="5.49912">
        <ele>243.6</ele>
        <time>2022-06-12T07:29:00Z</time>
      </trkpt>
      <trkpt lat="46.5992" lon="5.49919">
        <ele>243.8</ele>
        <time>2022-06-12T07:29:01Z</time>
      </trkpt>
      <trkpt lat="46.5992" lon="5.49969">
        <ele>245</ele>
        <time>2022-06-12T07:29:08Z</time>
      </trkpt>
      <trkpt lat="46.59919" lon="5.49982">
        <ele>245</ele>
        <time>2022-06-12T07:29:10Z</time>
      </trkpt>
      <trkpt lat="46.59914" lon="5.50008">
        <ele>246</ele>
        <time>2022-06-12T07:29:14Z</time>
      </trkpt>
      <trkpt lat="46.59912" lon="5.50013">
        <ele>246.2</ele>
        <time>2022-06-12T07:29:15Z</time>
      </trkpt>
      <trkpt lat="46.59909" lon="5.50019">
        <ele>246.4</ele>
        <time>2022-06-12T07:29:16Z</time>
      </trkpt>
      <trkpt lat="46.599" lon="5.50036">
        <ele>247</ele>
        <time>2022-06-12T07:29:19Z</time>
      </trkpt>
      <trkpt lat="46.59882" lon="5.50073">
        <ele>247.8</ele>
        <time>2022-06-12T07:29:25Z</time>
      </trkpt>
      <trkpt lat="46.59875" lon="5.50089">
        <ele>248</ele>
        <time>2022-06-12T07:29:28Z</time>
      </trkpt>
      <trkpt lat="46.5987" lon="5.50098">
        <ele>248.4</ele>
        <time>2022-06-12T07:29:30Z</time>
      </trkpt>
      <trkpt lat="46.59861" lon="5.50115">
        <ele>249.2</ele>
        <time>2022-06-12T07:29:34Z</time>
      </trkpt>
      <trkpt lat="46.59855" lon="5.50122">
        <ele>250</ele>
        <time>2022-06-12T07:29:36Z</time>
      </trkpt>
      <trkpt lat="46.59849" lon="5.50128">
        <ele>250.6</ele>
        <time>2022-06-12T07:29:38Z</time>
      </trkpt>
      <trkpt lat="46.59841" lon="5.50138">
        <ele>251.4</ele>
        <time>2022-06-12T07:29:41Z</time>
      </trkpt>
      <trkpt lat="46.59838" lon="5.50141">
        <ele>251.6</ele>
        <time>2022-06-12T07:29:42Z</time>
      </trkpt>
      <trkpt lat="46.59832" lon="5.50152">
        <ele>252.6</ele>
        <time>2022-06-12T07:29:45Z</time>
      </trkpt>
      <trkpt lat="46.5983" lon="5.50155">
        <ele>253</ele>
        <time>2022-06-12T07:29:46Z</time>
      </trkpt>
      <trkpt lat="46.59817" lon="5.50169">
        <ele>254</ele>
        <time>2022-06-12T07:29:50Z</time>
      </trkpt>
      <trkpt lat="46.5981" lon="5.50177">
        <ele>254.4</ele>
        <time>2022-06-12T07:29:52Z</time>
      </trkpt>
      <trkpt lat="46.59791" lon="5.50194">
        <ele>255.2</ele>
        <time>2022-06-12T07:29:57Z</time>
      </trkpt>
      <trkpt lat="46.59784" lon="5.50201">
        <ele>255.2</ele>
        <time>2022-06-12T07:29:59Z</time>
      </trkpt>
      <trkpt lat="46.5978" lon="5.50205">
        <ele>255.4</ele>
        <time>2022-06-12T07:30:00Z</time>
      </trkpt>
      <trkpt lat="46.59776" lon="5.50208">
        <ele>255.4</ele>
        <time>2022-06-12T07:30:01Z</time>
      </trkpt>
      <trkpt lat="46.59757" lon="5.50215">
        <ele>256</ele>
        <time>2022-06-12T07:30:05Z</time>
      </trkpt>
      <trkpt lat="46.59752" lon="5.50216">
        <ele>256.2</ele>
        <time>2022-06-12T07:30:06Z</time>
      </trkpt>
      <trkpt lat="46.59721" lon="5.50228">
        <ele>256.4</ele>
        <time>2022-06-12T07:30:12Z</time>
      </trkpt>
      <trkpt lat="46.59689" lon="5.50246">
        <ele>256.4</ele>
        <time>2022-06-12T07:30:19Z</time>
      </trkpt>
      <trkpt lat="46.59683" lon="5.50254">
        <ele>256.8</ele>
        <time>2022-06-12T07:30:21Z</time>
      </trkpt>
      <trkpt lat="46.5968" lon="5.50266">
        <ele>257.4</ele>
        <time>2022-06-12T07:30:23Z</time>
      </trkpt>
      <trkpt lat="46.59681" lon="5.50278">
        <ele>257.4</ele>
        <time>2022-06-12T07:30:25Z</time>
      </trkpt>
      <trkpt lat="46.59684" lon="5.50289">
        <ele>257.6</ele>
        <time>2022-06-12T07:30:27Z</time>
      </trkpt>
      <trkpt lat="46.59687" lon="5.50293">
        <ele>258</ele>
        <time>2022-06-12T07:30:28Z</time>
      </trkpt>
      <trkpt lat="46.59693" lon="5.503">
        <ele>258.2</ele>
        <time>2022-06-12T07:30:30Z</time>
      </trkpt>
      <trkpt lat="46.59696" lon="5.50302">
        <ele>258.4</ele>
        <time>2022-06-12T07:30:31Z</time>
      </trkpt>
      <trkpt lat="46.59708" lon="5.50301">
        <ele>259.4</ele>
        <time>2022-06-12T07:30:34Z</time>
      </trkpt>
      <trkpt lat="46.59712" lon="5.50299">
        <ele>260</ele>
        <time>2022-06-12T07:30:35Z</time>
      </trkpt>
      <trkpt lat="46.59723" lon="5.50292">
        <ele>260.6</ele>
        <time>2022-06-12T07:30:38Z</time>
      </trkpt>
      <trkpt lat="46.5974" lon="5.5028">
        <ele>261.6</ele>
        <time>2022-06-12T07:30:43Z</time>
      </trkpt>
      <trkpt lat="46.59747" lon="5.50275">
        <ele>262</ele>
        <time>2022-06-12T07:30:45Z</time>
      </trkpt>
      <trkpt lat="46.59755" lon="5.50268">
        <ele>262.6</ele>
        <time>2022-06-12T07:30:48Z</time>
      </trkpt>
      <trkpt lat="46.59759" lon="5.50266">
        <ele>263.2</ele>
        <time>2022-06-12T07:30:49Z</time>
      </trkpt>
      <trkpt lat="46.59769" lon="5.50258">
        <ele>263.8</ele>
        <time>2022-06-12T07:30:52Z</time>
      </trkpt>
      <trkpt lat="46.59784" lon="5.50248">
        <ele>265.2</ele>
        <time>2022-06-12T07:30:56Z</time>
      </trkpt>
      <trkpt lat="46.59801" lon="5.50236">
        <ele>266</ele>
        <time>2022-06-12T07:31:01Z</time>
      </trkpt>
      <trkpt lat="46.59808" lon="5.50231">
        <ele>266.8</ele>
        <time>2022-06-12T07:31:03Z</time>
      </trkpt>
      <trkpt lat="46.59815" lon="5.50226">
        <ele>267.2</ele>
        <time>2022-06-12T07:31:05Z</time>
      </trkpt>
      <trkpt lat="46.59829" lon="5.50218">
        <ele>268.4</ele>
        <time>2022-06-12T07:31:09Z</time>
      </trkpt>
      <trkpt lat="46.59847" lon="5.50208">
        <ele>269.4</ele>
        <time>2022-06-12T07:31:14Z</time>
      </trkpt>
      <trkpt lat="46.59865" lon="5.502">
        <ele>270.6</ele>
        <time>2022-06-12T07:31:19Z</time>
      </trkpt>
      <trkpt lat="46.59876" lon="5.50196">
        <ele>271.2</ele>
        <time>2022-06-12T07:31:22Z</time>
      </trkpt>
      <trkpt lat="46.59884" lon="5.50194">
        <ele>271.6</ele>
        <time>2022-06-12T07:31:24Z</time>
      </trkpt>
      <trkpt lat="46.59908" lon="5.50189">
        <ele>273</ele>
        <time>2022-06-12T07:31:30Z</time>
      </trkpt>
      <trkpt lat="46.59915" lon="5.50189">
        <ele>273.6</ele>
        <time>2022-06-12T07:31:32Z</time>
      </trkpt>
      <trkpt lat="46.59926" lon="5.50187">
        <ele>274.2</ele>
        <time>2022-06-12T07:31:35Z</time>
      </trkpt>
      <trkpt lat="46.59947" lon="5.50185">
        <ele>275.4</ele>
        <time>2022-06-12T07:31:40Z</time>
      </trkpt>
      <trkpt lat="46.59963" lon="5.50194">
        <ele>276.2</ele>
        <time>2022-06-12T07:31:44Z</time>
      </trkpt>
      <trkpt lat="46.59966" lon="5.50197">
        <ele>276.8</ele>
        <time>2022-06-12T07:31:45Z</time>
      </trkpt>
      <trkpt lat="46.59969" lon="5.50202">
        <ele>276.8</ele>
        <time>2022-06-12T07:31:46Z</time>
      </trkpt>
      <trkpt lat="46.59972" lon="5.50214">
        <ele>277</ele>
        <time>2022-06-12T07:31:48Z</time>
      </trkpt>
      <trkpt lat="46.59976" lon="5.50232">
        <ele>277.6</ele>
        <time>2022-06-12T07:31:51Z</time>
      </trkpt>
      <trkpt lat="46.5998" lon="5.50241">
        <ele>278.2</ele>
        <time>2022-06-12T07:31:53Z</time>
      </trkpt>
      <trkpt lat="46.59983" lon="5.50245">
        <ele>278.4</ele>
        <time>2022-06-12T07:31:54Z</time>
      </trkpt>
      <trkpt lat="46.59985" lon="5.50249">
        <ele>278.8</ele>
        <time>2022-06-12T07:31:55Z</time>
      </trkpt>
      <trkpt lat="46.59994" lon="5.50259">
        <ele>279.8</ele>
        <time>2022-06-12T07:31:58Z</time>
      </trkpt>
      <trkpt lat="46.60002" lon="5.50269">
        <ele>280.8</ele>
        <time>2022-06-12T07:32:01Z</time>
      </trkpt>
      <trkpt lat="46.60004" lon="5.50272">
        <ele>280.8</ele>
        <time>2022-06-12T07:32:02Z</time>
      </trkpt>
      <trkpt lat="46.60017" lon="5.50281">
        <ele>282</ele>
        <time>2022-06-12T07:32:06Z</time>
      </trkpt>
      <trkpt lat="46.6002" lon="5.50282">
        <ele>282.2</ele>
        <time>2022-06-12T07:32:07Z</time>
      </trkpt>
      <trkpt lat="46.60035" lon="5.50288">
        <ele>283.2</ele>
        <time>2022-06-12T07:32:12Z</time>
      </trkpt>
      <trkpt lat="46.60038" lon="5.50289">
        <ele>283.4</ele>
        <time>2022-06-12T07:32:13Z</time>
      </trkpt>
      <trkpt lat="46.6005" lon="5.50288">
        <ele>284.6</ele>
        <time>2022-06-12T07:32:17Z</time>
      </trkpt>
      <trkpt lat="46.60061" lon="5.50288">
        <ele>285.4</ele>
        <time>2022-06-12T07:32:20Z</time>
      </trkpt>
      <trkpt lat="46.60069" lon="5.50288">
        <ele>285.8</ele>
        <time>2022-06-12T07:32:22Z</time>
      </trkpt>
      <trkpt lat="46.60093" lon="5.50293">
        <ele>287</ele>
        <time>2022-06-12T07:32:27Z</time>
      </trkpt>
      <trkpt lat="46.60116" lon="5.50306">
        <ele>288</ele>
        <time>2022-06-12T07:32:33Z</time>
      </trkpt>
      <trkpt lat="46.6012" lon="5.50308">
        <ele>288.4</ele>
        <time>2022-06-12T07:32:34Z</time>
      </trkpt>
      <trkpt lat="46.60135" lon="5.50318">
        <ele>289.2</ele>
        <time>2022-06-12T07:32:38Z</time>
      </trkpt>
      <trkpt lat="46.60148" lon="5.50325">
        <ele>290</ele>
        <time>2022-06-12T07:32:41Z</time>
      </trkpt>
      <trkpt lat="46.60156" lon="5.5033">
        <ele>290.4</ele>
        <time>2022-06-12T07:32:43Z</time>
      </trkpt>
      <trkpt lat="46.60172" lon="5.5034">
        <ele>291.4</ele>
        <time>2022-06-12T07:32:47Z</time>
      </trkpt>
      <trkpt lat="46.60179" lon="5.50344">
        <ele>292</ele>
        <time>2022-06-12T07:32:49Z</time>
      </trkpt>
      <trkpt lat="46.60187" lon="5.50348">
        <ele>292.4</ele>
        <time>2022-06-12T07:32:51Z</time>
      </trkpt>
      <trkpt lat="46.60206" lon="5.50356">
        <ele>293.4</ele>
        <time>2022-06-12T07:32:56Z</time>
      </trkpt>
      <trkpt lat="46.60213" lon="5.50358">
        <ele>293.8</ele>
        <time>2022-06-12T07:32:58Z</time>
      </trkpt>
      <trkpt lat="46.60221" lon="5.5036">
        <ele>294.4</ele>
        <time>2022-06-12T07:33:00Z</time>
      </trkpt>
      <trkpt lat="46.60242" lon="5.50361">
        <ele>295.6</ele>
        <time>2022-06-12T07:33:05Z</time>
      </trkpt>
      <trkpt lat="46.60251" lon="5.50361">
        <ele>296.2</ele>
        <time>2022-06-12T07:33:07Z</time>
      </trkpt>
      <trkpt lat="46.60264" lon="5.50362">
        <ele>296.6</ele>
        <time>2022-06-12T07:33:10Z</time>
      </trkpt>
      <trkpt lat="46.60272" lon="5.50365">
        <ele>297.4</ele>
        <time>2022-06-12T07:33:12Z</time>
      </trkpt>
      <trkpt lat="46.60275" lon="5.50367">
        <ele>297.8</ele>
        <time>2022-06-12T07:33:13Z</time>
      </trkpt>
      <trkpt lat="46.60279" lon="5.50369">
        <ele>297.8</ele>
        <time>2022-06-12T07:33:14Z</time>
      </trkpt>
      <trkpt lat="46.60296" lon="5.50385">
        <ele>299</ele>
        <time>2022-06-12T07:33:19Z</time>
      </trkpt>
      <trkpt lat="46.60302" lon="5.50392">
        <ele>299.6</ele>
        <time>2022-06-12T07:33:21Z</time>
      </trkpt>
      <trkpt lat="46.60308" lon="5.50399">
        <ele>300</ele>
        <time>2022-06-12T07:33:23Z</time>
      </trkpt>
      <trkpt lat="46.60324" lon="5.50417">
        <ele>301.2</ele>
        <time>2022-06-12T07:33:28Z</time>
      </trkpt>
      <trkpt lat="46.60337" lon="5.5043">
        <ele>302.2</ele>
        <time>2022-06-12T07:33:32Z</time>
      </trkpt>
      <trkpt lat="46.60343" lon="5.50438">
        <ele>302.6</ele>
        <time>2022-06-12T07:33:34Z</time>
      </trkpt>
      <trkpt lat="46.60346" lon="5.50442">
        <ele>302.8</ele>
        <time>2022-06-12T07:33:35Z</time>
      </trkpt>
      <trkpt lat="46.6035" lon="5.50453">
        <ele>303</ele>
        <time>2022-06-12T07:33:37Z</time>
      </trkpt>
      <trkpt lat="46.60352" lon="5.50458">
        <ele>303</ele>
        <time>2022-06-12T07:33:38Z</time>
      </trkpt>
      <trkpt lat="46.60353" lon="5.50464">
        <ele>303.4</ele>
        <time>2022-06-12T07:33:39Z</time>
      </trkpt>
      <trkpt lat="46.60361" lon="5.50489">
        <ele>304.2</ele>
        <time>2022-06-12T07:33:43Z</time>
      </trkpt>
      <trkpt lat="46.60367" lon="5.50506">
        <ele>304.8</ele>
        <time>2022-06-12T07:33:46Z</time>
      </trkpt>
      <trkpt lat="46.60375" lon="5.50522">
        <ele>305.4</ele>
        <time>2022-06-12T07:33:49Z</time>
      </trkpt>
      <trkpt lat="46.60389" lon="5.50546">
        <ele>306.2</ele>
        <time>2022-06-12T07:33:54Z</time>
      </trkpt>
      <trkpt lat="46.60392" lon="5.5055">
        <ele>306.6</ele>
        <time>2022-06-12T07:33:55Z</time>
      </trkpt>
      <trkpt lat="46.60395" lon="5.50554">
        <ele>306.8</ele>
        <time>2022-06-12T07:33:56Z</time>
      </trkpt>
      <trkpt lat="46.60407" lon="5.50569">
        <ele>307.8</ele>
        <time>2022-06-12T07:34:00Z</time>
      </trkpt>
      <trkpt lat="46.6042" lon="5.50581">
        <ele>309</ele>
        <time>2022-06-12T07:34:04Z</time>
      </trkpt>
      <trkpt lat="46.60431" lon="5.5059">
        <ele>310.2</ele>
        <time>2022-06-12T07:34:07Z</time>
      </trkpt>
      <trkpt lat="46.60442" lon="5.50599">
        <ele>310.8</ele>
        <time>2022-06-12T07:34:10Z</time>
      </trkpt>
      <trkpt lat="46.60446" lon="5.50602">
        <ele>311.2</ele>
        <time>2022-06-12T07:34:11Z</time>
      </trkpt>
      <trkpt lat="46.60464" lon="5.50615">
        <ele>312.4</ele>
        <time>2022-06-12T07:34:16Z</time>
      </trkpt>
      <trkpt lat="46.60474" lon="5.50623">
        <ele>312.8</ele>
        <time>2022-06-12T07:34:19Z</time>
      </trkpt>
      <trkpt lat="46.6048" lon="5.50628">
        <ele>313.6</ele>
        <time>2022-06-12T07:34:21Z</time>
      </trkpt>
      <trkpt lat="46.60501" lon="5.50639">
        <ele>314.8</ele>
        <time>2022-06-12T07:34:27Z</time>
      </trkpt>
      <trkpt lat="46.60505" lon="5.50641">
        <ele>315</ele>
        <time>2022-06-12T07:34:28Z</time>
      </trkpt>
      <trkpt lat="46.6052" lon="5.50647">
        <ele>316</ele>
        <time>2022-06-12T07:34:32Z</time>
      </trkpt>
      <trkpt lat="46.60541" lon="5.50652">
        <ele>317.2</ele>
        <time>2022-06-12T07:34:37Z</time>
      </trkpt>
      <trkpt lat="46.60561" lon="5.50654">
        <ele>318.2</ele>
        <time>2022-06-12T07:34:42Z</time>
      </trkpt>
      <trkpt lat="46.60569" lon="5.50652">
        <ele>318.6</ele>
        <time>2022-06-12T07:34:44Z</time>
      </trkpt>
      <trkpt lat="46.60573" lon="5.50651">
        <ele>318.6</ele>
        <time>2022-06-12T07:34:45Z</time>
      </trkpt>
      <trkpt lat="46.6059" lon="5.50646">
        <ele>319.6</ele>
        <time>2022-06-12T07:34:49Z</time>
      </trkpt>
      <trkpt lat="46.60606" lon="5.50642">
        <ele>320.2</ele>
        <time>2022-06-12T07:34:53Z</time>
      </trkpt>
      <trkpt lat="46.6061" lon="5.50641">
        <ele>320.4</ele>
        <time>2022-06-12T07:34:54Z</time>
      </trkpt>
      <trkpt lat="46.60614" lon="5.50641">
        <ele>320.8</ele>
        <time>2022-06-12T07:34:55Z</time>
      </trkpt>
      <trkpt lat="46.6063" lon="5.50642">
        <ele>321.8</ele>
        <time>2022-06-12T07:34:59Z</time>
      </trkpt>
      <trkpt lat="46.60646" lon="5.50643">
        <ele>322.6</ele>
        <time>2022-06-12T07:35:03Z</time>
      </trkpt>
      <trkpt lat="46.6065" lon="5.50644">
        <ele>322.8</ele>
        <time>2022-06-12T07:35:04Z</time>
      </trkpt>
      <trkpt lat="46.6067" lon="5.50648">
        <ele>324</ele>
        <time>2022-06-12T07:35:09Z</time>
      </trkpt>
      <trkpt lat="46.60685" lon="5.5065">
        <ele>325</ele>
        <time>2022-06-12T07:35:13Z</time>
      </trkpt>
      <trkpt lat="46.60697" lon="5.50651">
        <ele>325.8</ele>
        <time>2022-06-12T07:35:16Z</time>
      </trkpt>
      <trkpt lat="46.60701" lon="5.50651">
        <ele>326</ele>
        <time>2022-06-12T07:35:17Z</time>
      </trkpt>
      <trkpt lat="46.60727" lon="5.50649">
        <ele>327.4</ele>
        <time>2022-06-12T07:35:23Z</time>
      </trkpt>
      <trkpt lat="46.6074" lon="5.50648">
        <ele>328</ele>
        <time>2022-06-12T07:35:26Z</time>
      </trkpt>
      <trkpt lat="46.60748" lon="5.50647">
        <ele>328.6</ele>
        <time>2022-06-12T07:35:28Z</time>
      </trkpt>
      <trkpt lat="46.60765" lon="5.50647">
        <ele>329.6</ele>
        <time>2022-06-12T07:35:32Z</time>
      </trkpt>
      <trkpt lat="46.6077" lon="5.50648">
        <ele>329.8</ele>
        <time>2022-06-12T07:35:33Z</time>
      </trkpt>
      <trkpt lat="46.60774" lon="5.5065">
        <ele>330</ele>
        <time>2022-06-12T07:35:34Z</time>
      </trkpt>
      <trkpt lat="46.6079" lon="5.50658">
        <ele>331</ele>
        <time>2022-06-12T07:35:38Z</time>
      </trkpt>
      <trkpt lat="46.608" lon="5.50667">
        <ele>331.8</ele>
        <time>2022-06-12T07:35:41Z</time>
      </trkpt>
      <trkpt lat="46.60804" lon="5.50671">
        <ele>332.2</ele>
        <time>2022-06-12T07:35:42Z</time>
      </trkpt>
      <trkpt lat="46.60816" lon="5.50685">
        <ele>333.4</ele>
        <time>2022-06-12T07:35:46Z</time>
      </trkpt>
      <trkpt lat="46.60821" lon="5.50695">
        <ele>334</ele>
        <time>2022-06-12T07:35:48Z</time>
      </trkpt>
      <trkpt lat="46.60821" lon="5.50707">
        <ele>334.8</ele>
        <time>2022-06-12T07:35:50Z</time>
      </trkpt>
      <trkpt lat="46.60819" lon="5.50711">
        <ele>335.2</ele>
        <time>2022-06-12T07:35:51Z</time>
      </trkpt>
      <trkpt lat="46.60815" lon="5.50714">
        <ele>335.4</ele>
        <time>2022-06-12T07:35:52Z</time>
      </trkpt>
      <trkpt lat="46.60808" lon="5.50715">
        <ele>335.8</ele>
        <time>2022-06-12T07:35:54Z</time>
      </trkpt>
      <trkpt lat="46.6079" lon="5.50714">
        <ele>337</ele>
        <time>2022-06-12T07:35:58Z</time>
      </trkpt>
      <trkpt lat="46.60778" lon="5.50713">
        <ele>338</ele>
        <time>2022-06-12T07:36:01Z</time>
      </trkpt>
      <trkpt lat="46.60774" lon="5.50713">
        <ele>338</ele>
        <time>2022-06-12T07:36:02Z</time>
      </trkpt>
      <trkpt lat="46.60753" lon="5.50712">
        <ele>339.2</ele>
        <time>2022-06-12T07:36:07Z</time>
      </trkpt>
      <trkpt lat="46.60741" lon="5.50713">
        <ele>339.6</ele>
        <time>2022-06-12T07:36:10Z</time>
      </trkpt>
      <trkpt lat="46.60733" lon="5.50715">
        <ele>340.2</ele>
        <time>2022-06-12T07:36:12Z</time>
      </trkpt>
      <trkpt lat="46.60713" lon="5.50723">
        <ele>341.2</ele>
        <time>2022-06-12T07:36:17Z</time>
      </trkpt>
      <trkpt lat="46.6071" lon="5.50725">
        <ele>341.2</ele>
        <time>2022-06-12T07:36:18Z</time>
      </trkpt>
      <trkpt lat="46.60693" lon="5.50733">
        <ele>342.4</ele>
        <time>2022-06-12T07:36:22Z</time>
      </trkpt>
      <trkpt lat="46.60669" lon="5.50747">
        <ele>343.4</ele>
        <time>2022-06-12T07:36:28Z</time>
      </trkpt>
      <trkpt lat="46.60645" lon="5.5076">
        <ele>344.6</ele>
        <time>2022-06-12T07:36:34Z</time>
      </trkpt>
      <trkpt lat="46.60632" lon="5.50764">
        <ele>345</ele>
        <time>2022-06-12T07:36:37Z</time>
      </trkpt>
      <trkpt lat="46.60615" lon="5.50767">
        <ele>345.6</ele>
        <time>2022-06-12T07:36:41Z</time>
      </trkpt>
      <trkpt lat="46.60599" lon="5.50768">
        <ele>346.4</ele>
        <time>2022-06-12T07:36:45Z</time>
      </trkpt>
      <trkpt lat="46.60594" lon="5.50768">
        <ele>346.8</ele>
        <time>2022-06-12T07:36:46Z</time>
      </trkpt>
      <trkpt lat="46.60574" lon="5.5077">
        <ele>347.8</ele>
        <time>2022-06-12T07:36:51Z</time>
      </trkpt>
      <trkpt lat="46.60552" lon="5.50772">
        <ele>348.8</ele>
        <time>2022-06-12T07:36:56Z</time>
      </trkpt>
      <trkpt lat="46.60526" lon="5.50773">
        <ele>350</ele>
        <time>2022-06-12T07:37:02Z</time>
      </trkpt>
      <trkpt lat="46.60504" lon="5.50773">
        <ele>350.6</ele>
        <time>2022-06-12T07:37:07Z</time>
      </trkpt>
      <trkpt lat="46.605" lon="5.50772">
        <ele>351</ele>
        <time>2022-06-12T07:37:08Z</time>
      </trkpt>
      <trkpt lat="46.60482" lon="5.50769">
        <ele>352</ele>
        <time>2022-06-12T07:37:12Z</time>
      </trkpt>
      <trkpt lat="46.60478" lon="5.50769">
        <ele>352.4</ele>
        <time>2022-06-12T07:37:13Z</time>
      </trkpt>
      <trkpt lat="46.6046" lon="5.50765">
        <ele>352.8</ele>
        <time>2022-06-12T07:37:17Z</time>
      </trkpt>
      <trkpt lat="46.60447" lon="5.50763">
        <ele>353.6</ele>
        <time>2022-06-12T07:37:20Z</time>
      </trkpt>
      <trkpt lat="46.60424" lon="5.50758">
        <ele>354.6</ele>
        <time>2022-06-12T07:37:25Z</time>
      </trkpt>
      <trkpt lat="46.60415" lon="5.50755">
        <ele>355</ele>
        <time>2022-06-12T07:37:27Z</time>
      </trkpt>
      <trkpt lat="46.60397" lon="5.50749">
        <ele>355.6</ele>
        <time>2022-06-12T07:37:31Z</time>
      </trkpt>
      <trkpt lat="46.60369" lon="5.50737">
        <ele>356.8</ele>
        <time>2022-06-12T07:37:37Z</time>
      </trkpt>
      <trkpt lat="46.60349" lon="5.50731">
        <ele>357.8</ele>
        <time>2022-06-12T07:37:41Z</time>
      </trkpt>
      <trkpt lat="46.60329" lon="5.50727">
        <ele>358.8</ele>
        <time>2022-06-12T07:37:45Z</time>
      </trkpt>
      <trkpt lat="46.60313" lon="5.50725">
        <ele>360.2</ele>
        <time>2022-06-12T07:37:48Z</time>
      </trkpt>
      <trkpt lat="46.60299" lon="5.50725">
        <ele>360.8</ele>
        <time>2022-06-12T07:37:51Z</time>
      </trkpt>
      <trkpt lat="46.60294" lon="5.50725">
        <ele>361.2</ele>
        <time>2022-06-12T07:37:52Z</time>
      </trkpt>
      <trkpt lat="46.60276" lon="5.50726">
        <ele>362.4</ele>
        <time>2022-06-12T07:37:56Z</time>
      </trkpt>
      <trkpt lat="46.60263" lon="5.50727">
        <ele>363.2</ele>
        <time>2022-06-12T07:37:59Z</time>
      </trkpt>
      <trkpt lat="46.60259" lon="5.50727">
        <ele>363.4</ele>
        <time>2022-06-12T07:38:00Z</time>
      </trkpt>
      <trkpt lat="46.60242" lon="5.50727">
        <ele>364.4</ele>
        <time>2022-06-12T07:38:04Z</time>
      </trkpt>
      <trkpt lat="46.60238" lon="5.50726">
        <ele>364.4</ele>
        <time>2022-06-12T07:38:05Z</time>
      </trkpt>
      <trkpt lat="46.60222" lon="5.50723">
        <ele>365.4</ele>
        <time>2022-06-12T07:38:09Z</time>
      </trkpt>
      <trkpt lat="46.60212" lon="5.50719">
        <ele>365.8</ele>
        <time>2022-06-12T07:38:11Z</time>
      </trkpt>
      <trkpt lat="46.60198" lon="5.50713">
        <ele>366.6</ele>
        <time>2022-06-12T07:38:14Z</time>
      </trkpt>
      <trkpt lat="46.60191" lon="5.50709">
        <ele>367.2</ele>
        <time>2022-06-12T07:38:16Z</time>
      </trkpt>
      <trkpt lat="46.60183" lon="5.50705">
        <ele>367.6</ele>
        <time>2022-06-12T07:38:18Z</time>
      </trkpt>
      <trkpt lat="46.60176" lon="5.50701">
        <ele>368</ele>
        <time>2022-06-12T07:38:20Z</time>
      </trkpt>
      <trkpt lat="46.60172" lon="5.50699">
        <ele>368.2</ele>
        <time>2022-06-12T07:38:21Z</time>
      </trkpt>
      <trkpt lat="46.60151" lon="5.50689">
        <ele>369.2</ele>
        <time>2022-06-12T07:38:26Z</time>
      </trkpt>
      <trkpt lat="46.60132" lon="5.5068">
        <ele>370.2</ele>
        <time>2022-06-12T07:38:30Z</time>
      </trkpt>
      <trkpt lat="46.60128" lon="5.50675">
        <ele>370.6</ele>
        <time>2022-06-12T07:38:31Z</time>
      </trkpt>
      <trkpt lat="46.60117" lon="5.50665">
        <ele>371.2</ele>
        <time>2022-06-12T07:38:34Z</time>
      </trkpt>
      <trkpt lat="46.60109" lon="5.50657">
        <ele>371.6</ele>
        <time>2022-06-12T07:38:36Z</time>
      </trkpt>
      <trkpt lat="46.60089" lon="5.50639">
        <ele>372.4</ele>
        <time>2022-06-12T07:38:41Z</time>
      </trkpt>
      <trkpt lat="46.60073" lon="5.50624">
        <ele>373.2</ele>
        <time>2022-06-12T07:38:45Z</time>
      </trkpt>
      <trkpt lat="46.60066" lon="5.50617">
        <ele>373.6</ele>
        <time>2022-06-12T07:38:47Z</time>
      </trkpt>
      <trkpt lat="46.60051" lon="5.50602">
        <ele>374.8</ele>
        <time>2022-06-12T07:38:51Z</time>
      </trkpt>
      <trkpt lat="46.60036" lon="5.50586">
        <ele>375.2</ele>
        <time>2022-06-12T07:38:55Z</time>
      </trkpt>
      <trkpt lat="46.60026" lon="5.50575">
        <ele>375.8</ele>
        <time>2022-06-12T07:38:58Z</time>
      </trkpt>
      <trkpt lat="46.59999" lon="5.50552">
        <ele>376.8</ele>
        <time>2022-06-12T07:39:05Z</time>
      </trkpt>
      <trkpt lat="46.59973" lon="5.5054">
        <ele>378</ele>
        <time>2022-06-12T07:39:11Z</time>
      </trkpt>
      <trkpt lat="46.59964" lon="5.50538">
        <ele>378.4</ele>
        <time>2022-06-12T07:39:13Z</time>
      </trkpt>
      <trkpt lat="46.5995" lon="5.50538">
        <ele>379</ele>
        <time>2022-06-12T07:39:16Z</time>
      </trkpt>
      <trkpt lat="46.59945" lon="5.50539">
        <ele>379.2</ele>
        <time>2022-06-12T07:39:17Z</time>
      </trkpt>
      <trkpt lat="46.59937" lon="5.50544">
        <ele>379.6</ele>
        <time>2022-06-12T07:39:19Z</time>
      </trkpt>
      <trkpt lat="46.59931" lon="5.50555">
        <ele>380</ele>
        <time>2022-06-12T07:39:21Z</time>
      </trkpt>
      <trkpt lat="46.59929" lon="5.50561">
        <ele>380</ele>
        <time>2022-06-12T07:39:22Z</time>
      </trkpt>
      <trkpt lat="46.59929" lon="5.50568">
        <ele>380.2</ele>
        <time>2022-06-12T07:39:23Z</time>
      </trkpt>
      <trkpt lat="46.59931" lon="5.5058">
        <ele>380.6</ele>
        <time>2022-06-12T07:39:25Z</time>
      </trkpt>
      <trkpt lat="46.59938" lon="5.50586">
        <ele>381</ele>
        <time>2022-06-12T07:39:27Z</time>
      </trkpt>
      <trkpt lat="46.59943" lon="5.50586">
        <ele>381.4</ele>
        <time>2022-06-12T07:39:28Z</time>
      </trkpt>
      <trkpt lat="46.59948" lon="5.50585">
        <ele>381.4</ele>
        <time>2022-06-12T07:39:29Z</time>
      </trkpt>
      <trkpt lat="46.59966" lon="5.50578">
        <ele>382.6</ele>
        <time>2022-06-12T07:39:33Z</time>
      </trkpt>
      <trkpt lat="46.59971" lon="5.50578">
        <ele>382.8</ele>
        <time>2022-06-12T07:39:34Z</time>
      </trkpt>
      <trkpt lat="46.59975" lon="5.50578">
        <ele>383</ele>
        <time>2022-06-12T07:39:35Z</time>
      </trkpt>
      <trkpt lat="46.59984" lon="5.5058">
        <ele>383.6</ele>
        <time>2022-06-12T07:39:37Z</time>
      </trkpt>
      <trkpt lat="46.59988" lon="5.50583">
        <ele>383.6</ele>
        <time>2022-06-12T07:39:38Z</time>
      </trkpt>
      <trkpt lat="46.59992" lon="5.50586">
        <ele>384</ele>
        <time>2022-06-12T07:39:39Z</time>
      </trkpt>
      <trkpt lat="46.60002" lon="5.50597">
        <ele>384.8</ele>
        <time>2022-06-12T07:39:42Z</time>
      </trkpt>
      <trkpt lat="46.60006" lon="5.50601">
        <ele>385</ele>
        <time>2022-06-12T07:39:43Z</time>
      </trkpt>
      <trkpt lat="46.60021" lon="5.50615">
        <ele>386</ele>
        <time>2022-06-12T07:39:47Z</time>
      </trkpt>
      <trkpt lat="46.60027" lon="5.50623">
        <ele>386.2</ele>
        <time>2022-06-12T07:39:49Z</time>
      </trkpt>
      <trkpt lat="46.6003" lon="5.50627">
        <ele>386.4</ele>
        <time>2022-06-12T07:39:50Z</time>
      </trkpt>
      <trkpt lat="46.60032" lon="5.50633">
        <ele>386.6</ele>
        <time>2022-06-12T07:39:51Z</time>
      </trkpt>
      <trkpt lat="46.60031" lon="5.50645">
        <ele>387</ele>
        <time>2022-06-12T07:39:53Z</time>
      </trkpt>
      <trkpt lat="46.60024" lon="5.50649">
        <ele>387.6</ele>
        <time>2022-06-12T07:39:55Z</time>
      </trkpt>
      <trkpt lat="46.6002" lon="5.50647">
        <ele>387.8</ele>
        <time>2022-06-12T07:39:56Z</time>
      </trkpt>
      <trkpt lat="46.60014" lon="5.50639">
        <ele>388.4</ele>
        <time>2022-06-12T07:39:58Z</time>
      </trkpt>
      <trkpt lat="46.60004" lon="5.50625">
        <ele>389.2</ele>
        <time>2022-06-12T07:40:01Z</time>
      </trkpt>
      <trkpt lat="46.59997" lon="5.50617">
        <ele>389.6</ele>
        <time>2022-06-12T07:40:03Z</time>
      </trkpt>
      <trkpt lat="46.59993" lon="5.50614">
        <ele>389.6</ele>
        <time>2022-06-12T07:40:04Z</time>
      </trkpt>
      <trkpt lat="46.59976" lon="5.50605">
        <ele>390.4</ele>
        <time>2022-06-12T07:40:08Z</time>
      </trkpt>
      <trkpt lat="46.59971" lon="5.50604">
        <ele>390.6</ele>
        <time>2022-06-12T07:40:09Z</time>
      </trkpt>
      <trkpt lat="46.59967" lon="5.50605">
        <ele>390.8</ele>
        <time>2022-06-12T07:40:10Z</time>
      </trkpt>
      <trkpt lat="46.59958" lon="5.5061">
        <ele>391</ele>
        <time>2022-06-12T07:40:12Z</time>
      </trkpt>
      <trkpt lat="46.59955" lon="5.50614">
        <ele>391.2</ele>
        <time>2022-06-12T07:40:13Z</time>
      </trkpt>
      <trkpt lat="46.59952" lon="5.50619">
        <ele>391.6</ele>
        <time>2022-06-12T07:40:14Z</time>
      </trkpt>
      <trkpt lat="46.59949" lon="5.5063">
        <ele>392</ele>
        <time>2022-06-12T07:40:16Z</time>
      </trkpt>
      <trkpt lat="46.59948" lon="5.50636">
        <ele>392</ele>
        <time>2022-06-12T07:40:17Z</time>
      </trkpt>
      <trkpt lat="46.59944" lon="5.5066">
        <ele>392.8</ele>
        <time>2022-06-12T07:40:21Z</time>
      </trkpt>
      <trkpt lat="46.5994" lon="5.50685">
        <ele>393.8</ele>
        <time>2022-06-12T07:40:25Z</time>
      </trkpt>
      <trkpt lat="46.59938" lon="5.50691">
        <ele>394</ele>
        <time>2022-06-12T07:40:26Z</time>
      </trkpt>
      <trkpt lat="46.59931" lon="5.50715">
        <ele>395</ele>
        <time>2022-06-12T07:40:30Z</time>
      </trkpt>
      <trkpt lat="46.59926" lon="5.50726">
        <ele>395.6</ele>
        <time>2022-06-12T07:40:32Z</time>
      </trkpt>
      <trkpt lat="46.59919" lon="5.50742">
        <ele>396.2</ele>
        <time>2022-06-12T07:40:35Z</time>
      </trkpt>
      <trkpt lat="46.59908" lon="5.50763">
        <ele>397.2</ele>
        <time>2022-06-12T07:40:39Z</time>
      </trkpt>
      <trkpt lat="46.59905" lon="5.50767">
        <ele>397.6</ele>
        <time>2022-06-12T07:40:40Z</time>
      </trkpt>
      <trkpt lat="46.59898" lon="5.50783">
        <ele>398.4</ele>
        <time>2022-06-12T07:40:43Z</time>
      </trkpt>
      <trkpt lat="46.59895" lon="5.50792">
        <ele>399</ele>
        <time>2022-06-12T07:40:45Z</time>
      </trkpt>
      <trkpt lat="46.59891" lon="5.50803">
        <ele>399.6</ele>
        <time>2022-06-12T07:40:47Z</time>
      </trkpt>
      <trkpt lat="46.59882" lon="5.50829">
        <ele>400.8</ele>
        <time>2022-06-12T07:40:52Z</time>
      </trkpt>
      <trkpt lat="46.59881" lon="5.50835">
        <ele>400.8</ele>
        <time>2022-06-12T07:40:53Z</time>
      </trkpt>
      <trkpt lat="46.59881" lon="5.50858">
        <ele>401.8</ele>
        <time>2022-06-12T07:40:57Z</time>
      </trkpt>
      <trkpt lat="46.59883" lon="5.50868">
        <ele>402.2</ele>
        <time>2022-06-12T07:40:59Z</time>
      </trkpt>
      <trkpt lat="46.59892" lon="5.50887">
        <ele>403.2</ele>
        <time>2022-06-12T07:41:03Z</time>
      </trkpt>
      <trkpt lat="46.59894" lon="5.50891">
        <ele>403.6</ele>
        <time>2022-06-12T07:41:04Z</time>
      </trkpt>
      <trkpt lat="46.59906" lon="5.50906">
        <ele>404.4</ele>
        <time>2022-06-12T07:41:08Z</time>
      </trkpt>
      <trkpt lat="46.59917" lon="5.50924">
        <ele>405.4</ele>
        <time>2022-06-12T07:41:12Z</time>
      </trkpt>
      <trkpt lat="46.59922" lon="5.50941">
        <ele>406.4</ele>
        <time>2022-06-12T07:41:15Z</time>
      </trkpt>
      <trkpt lat="46.59922" lon="5.50947">
        <ele>406.6</ele>
        <time>2022-06-12T07:41:16Z</time>
      </trkpt>
      <trkpt lat="46.59922" lon="5.50953">
        <ele>407</ele>
        <time>2022-06-12T07:41:17Z</time>
      </trkpt>
      <trkpt lat="46.5992" lon="5.50964">
        <ele>407.4</ele>
        <time>2022-06-12T07:41:19Z</time>
      </trkpt>
      <trkpt lat="46.59919" lon="5.50969">
        <ele>407.6</ele>
        <time>2022-06-12T07:41:20Z</time>
      </trkpt>
      <trkpt lat="46.59917" lon="5.50979">
        <ele>408</ele>
        <time>2022-06-12T07:41:22Z</time>
      </trkpt>
      <trkpt lat="46.59911" lon="5.50994">
        <ele>408.4</ele>
        <time>2022-06-12T07:41:25Z</time>
      </trkpt>
      <trkpt lat="46.59904" lon="5.51008">
        <ele>409.2</ele>
        <time>2022-06-12T07:41:28Z</time>
      </trkpt>
      <trkpt lat="46.59901" lon="5.51012">
        <ele>409.6</ele>
        <time>2022-06-12T07:41:29Z</time>
      </trkpt>
      <trkpt lat="46.5989" lon="5.5102">
        <ele>410.6</ele>
        <time>2022-06-12T07:41:32Z</time>
      </trkpt>
      <trkpt lat="46.59872" lon="5.51031">
        <ele>411.8</ele>
        <time>2022-06-12T07:41:37Z</time>
      </trkpt>
      <trkpt lat="46.59865" lon="5.51035">
        <ele>412.2</ele>
        <time>2022-06-12T07:41:39Z</time>
      </trkpt>
      <trkpt lat="46.59858" lon="5.5104">
        <ele>412.8</ele>
        <time>2022-06-12T07:41:41Z</time>
      </trkpt>
      <trkpt lat="46.59855" lon="5.51043">
        <ele>412.8</ele>
        <time>2022-06-12T07:41:42Z</time>
      </trkpt>
      <trkpt lat="46.59839" lon="5.51048">
        <ele>414.2</ele>
        <time>2022-06-12T07:41:46Z</time>
      </trkpt>
      <trkpt lat="46.59835" lon="5.51049">
        <ele>414.4</ele>
        <time>2022-06-12T07:41:47Z</time>
      </trkpt>
      <trkpt lat="46.59813" lon="5.51054">
        <ele>415.6</ele>
        <time>2022-06-12T07:41:52Z</time>
      </trkpt>
      <trkpt lat="46.59809" lon="5.51055">
        <ele>415.8</ele>
        <time>2022-06-12T07:41:53Z</time>
      </trkpt>
      <trkpt lat="46.59801" lon="5.51058">
        <ele>416.2</ele>
        <time>2022-06-12T07:41:55Z</time>
      </trkpt>
      <trkpt lat="46.59797" lon="5.51058">
        <ele>416.4</ele>
        <time>2022-06-12T07:41:56Z</time>
      </trkpt>
      <trkpt lat="46.59793" lon="5.51059">
        <ele>416.6</ele>
        <time>2022-06-12T07:41:57Z</time>
      </trkpt>
      <trkpt lat="46.59782" lon="5.51058">
        <ele>417.6</ele>
        <time>2022-06-12T07:42:00Z</time>
      </trkpt>
      <trkpt lat="46.59778" lon="5.51057">
        <ele>417.6</ele>
        <time>2022-06-12T07:42:01Z</time>
      </trkpt>
      <trkpt lat="46.59765" lon="5.51051">
        <ele>418.8</ele>
        <time>2022-06-12T07:42:05Z</time>
      </trkpt>
      <trkpt lat="46.59759" lon="5.51047">
        <ele>419.6</ele>
        <time>2022-06-12T07:42:07Z</time>
      </trkpt>
      <trkpt lat="46.59748" lon="5.51044">
        <ele>419.6</ele>
        <time>2022-06-12T07:42:09Z</time>
      </trkpt>
      <trkpt lat="46.59738" lon="5.51037">
        <ele>420.4</ele>
        <time>2022-06-12T07:42:12Z</time>
      </trkpt>
      <trkpt lat="46.59734" lon="5.51035">
        <ele>420.8</ele>
        <time>2022-06-12T07:42:13Z</time>
      </trkpt>
      <trkpt lat="46.59719" lon="5.51024">
        <ele>422</ele>
        <time>2022-06-12T07:42:18Z</time>
      </trkpt>
      <trkpt lat="46.59713" lon="5.51022">
        <ele>422.6</ele>
        <time>2022-06-12T07:42:20Z</time>
      </trkpt>
      <trkpt lat="46.59705" lon="5.51021">
        <ele>423.2</ele>
        <time>2022-06-12T07:42:22Z</time>
      </trkpt>
      <trkpt lat="46.59684" lon="5.51018">
        <ele>424.2</ele>
        <time>2022-06-12T07:42:27Z</time>
      </trkpt>
      <trkpt lat="46.59666" lon="5.51014">
        <ele>425.4</ele>
        <time>2022-06-12T07:42:32Z</time>
      </trkpt>
      <trkpt lat="46.59661" lon="5.51013">
        <ele>425.6</ele>
        <time>2022-06-12T07:42:33Z</time>
      </trkpt>
      <trkpt lat="46.59652" lon="5.51011">
        <ele>426.4</ele>
        <time>2022-06-12T07:42:35Z</time>
      </trkpt>
      <trkpt lat="46.5963" lon="5.51004">
        <ele>427.2</ele>
        <time>2022-06-12T07:42:39Z</time>
      </trkpt>
      <trkpt lat="46.5962" lon="5.51002">
        <ele>427.8</ele>
        <time>2022-06-12T07:42:41Z</time>
      </trkpt>
      <trkpt lat="46.59602" lon="5.50995">
        <ele>428.6</ele>
        <time>2022-06-12T07:42:46Z</time>
      </trkpt>
      <trkpt lat="46.59589" lon="5.5099">
        <ele>429.6</ele>
        <time>2022-06-12T07:42:50Z</time>
      </trkpt>
      <trkpt lat="46.59579" lon="5.50988">
        <ele>430.4</ele>
        <time>2022-06-12T07:42:53Z</time>
      </trkpt>
      <trkpt lat="46.59576" lon="5.50988">
        <ele>430.6</ele>
        <time>2022-06-12T07:42:54Z</time>
      </trkpt>
      <trkpt lat="46.5956" lon="5.50986">
        <ele>431.6</ele>
        <time>2022-06-12T07:42:58Z</time>
      </trkpt>
      <trkpt lat="46.59537" lon="5.50982">
        <ele>432.8</ele>
        <time>2022-06-12T07:43:03Z</time>
      </trkpt>
      <trkpt lat="46.59534" lon="5.50982">
        <ele>433</ele>
        <time>2022-06-12T07:43:04Z</time>
      </trkpt>
      <trkpt lat="46.59521" lon="5.50982">
        <ele>434</ele>
        <time>2022-06-12T07:43:07Z</time>
      </trkpt>
      <trkpt lat="46.595" lon="5.50984">
        <ele>435</ele>
        <time>2022-06-12T07:43:12Z</time>
      </trkpt>
      <trkpt lat="46.5948" lon="5.50987">
        <ele>436</ele>
        <time>2022-06-12T07:43:17Z</time>
      </trkpt>
      <trkpt lat="46.59469" lon="5.50991">
        <ele>436.6</ele>
        <time>2022-06-12T07:43:20Z</time>
      </trkpt>
      <trkpt lat="46.59458" lon="5.50999">
        <ele>437.2</ele>
        <time>2022-06-12T07:43:23Z</time>
      </trkpt>
      <trkpt lat="46.59442" lon="5.51015">
        <ele>438.2</ele>
        <time>2022-06-12T07:43:28Z</time>
      </trkpt>
      <trkpt lat="46.59439" lon="5.51019">
        <ele>438.4</ele>
        <time>2022-06-12T07:43:29Z</time>
      </trkpt>
      <trkpt lat="46.5943" lon="5.51039">
        <ele>439.4</ele>
        <time>2022-06-12T07:43:33Z</time>
      </trkpt>
      <trkpt lat="46.59428" lon="5.51045">
        <ele>439.6</ele>
        <time>2022-06-12T07:43:34Z</time>
      </trkpt>
      <trkpt lat="46.59421" lon="5.51074">
        <ele>440.4</ele>
        <time>2022-06-12T07:43:39Z</time>
      </trkpt>
      <trkpt lat="46.59417" lon="5.51092">
        <ele>441</ele>
        <time>2022-06-12T07:43:42Z</time>
      </trkpt>
      <trkpt lat="46.59414" lon="5.51108">
        <ele>441.6</ele>
        <time>2022-06-12T07:43:45Z</time>
      </trkpt>
      <trkpt lat="46.59414" lon="5.51114">
        <ele>441.6</ele>
        <time>2022-06-12T07:43:46Z</time>
      </trkpt>
      <trkpt lat="46.59415" lon="5.51137">
        <ele>442.6</ele>
        <time>2022-06-12T07:43:50Z</time>
      </trkpt>
      <trkpt lat="46.59416" lon="5.51144">
        <ele>442.8</ele>
        <time>2022-06-12T07:43:51Z</time>
      </trkpt>
      <trkpt lat="46.59423" lon="5.51173">
        <ele>444</ele>
        <time>2022-06-12T07:43:56Z</time>
      </trkpt>
      <trkpt lat="46.59424" lon="5.51179">
        <ele>444</ele>
        <time>2022-06-12T07:43:57Z</time>
      </trkpt>
      <trkpt lat="46.59426" lon="5.51185">
        <ele>444.4</ele>
        <time>2022-06-12T07:43:58Z</time>
      </trkpt>
      <trkpt lat="46.59427" lon="5.51191">
        <ele>444.8</ele>
        <time>2022-06-12T07:43:59Z</time>
      </trkpt>
      <trkpt lat="46.59427" lon="5.51204">
        <ele>445</ele>
        <time>2022-06-12T07:44:01Z</time>
      </trkpt>
      <trkpt lat="46.59426" lon="5.51215">
        <ele>445.4</ele>
        <time>2022-06-12T07:44:03Z</time>
      </trkpt>
      <trkpt lat="46.59423" lon="5.51238">
        <ele>446.2</ele>
        <time>2022-06-12T07:44:07Z</time>
      </trkpt>
      <trkpt lat="46.59421" lon="5.51255">
        <ele>447</ele>
        <time>2022-06-12T07:44:10Z</time>
      </trkpt>
      <trkpt lat="46.59423" lon="5.51267">
        <ele>447.6</ele>
        <time>2022-06-12T07:44:12Z</time>
      </trkpt>
      <trkpt lat="46.59427" lon="5.51277">
        <ele>448</ele>
        <time>2022-06-12T07:44:14Z</time>
      </trkpt>
      <trkpt lat="46.59433" lon="5.51287">
        <ele>448.4</ele>
        <time>2022-06-12T07:44:16Z</time>
      </trkpt>
      <trkpt lat="46.59439" lon="5.51297">
        <ele>448.8</ele>
        <time>2022-06-12T07:44:18Z</time>
      </trkpt>
      <trkpt lat="46.59447" lon="5.51306">
        <ele>449.4</ele>
        <time>2022-06-12T07:44:20Z</time>
      </trkpt>
      <trkpt lat="46.5945" lon="5.51312">
        <ele>450</ele>
        <time>2022-06-12T07:44:21Z</time>
      </trkpt>
      <trkpt lat="46.59461" lon="5.51328">
        <ele>450.6</ele>
        <time>2022-06-12T07:44:24Z</time>
      </trkpt>
      <trkpt lat="46.59477" lon="5.51353">
        <ele>451.4</ele>
        <time>2022-06-12T07:44:29Z</time>
      </trkpt>
      <trkpt lat="46.5948" lon="5.51357">
        <ele>451.6</ele>
        <time>2022-06-12T07:44:30Z</time>
      </trkpt>
      <trkpt lat="46.59484" lon="5.51361">
        <ele>451.8</ele>
        <time>2022-06-12T07:44:31Z</time>
      </trkpt>
      <trkpt lat="46.59498" lon="5.51373">
        <ele>452.2</ele>
        <time>2022-06-12T07:44:34Z</time>
      </trkpt>
      <trkpt lat="46.59504" lon="5.51376">
        <ele>452.4</ele>
        <time>2022-06-12T07:44:35Z</time>
      </trkpt>
      <trkpt lat="46.59538" lon="5.51389">
        <ele>452.6</ele>
        <time>2022-06-12T07:44:40Z</time>
      </trkpt>
      <trkpt lat="46.59581" lon="5.51396">
        <ele>451.8</ele>
        <time>2022-06-12T07:44:45Z</time>
      </trkpt>
      <trkpt lat="46.5959" lon="5.51397">
        <ele>451.8</ele>
        <time>2022-06-12T07:44:46Z</time>
      </trkpt>
      <trkpt lat="46.59607" lon="5.51405">
        <ele>451.4</ele>
        <time>2022-06-12T07:44:48Z</time>
      </trkpt>
      <trkpt lat="46.5964" lon="5.51433">
        <ele>450.8</ele>
        <time>2022-06-12T07:44:53Z</time>
      </trkpt>
      <trkpt lat="46.59675" lon="5.51453">
        <ele>451.6</ele>
        <time>2022-06-12T07:44:59Z</time>
      </trkpt>
      <trkpt lat="46.5968" lon="5.51456">
        <ele>451.8</ele>
        <time>2022-06-12T07:45:00Z</time>
      </trkpt>
      <trkpt lat="46.59685" lon="5.51459">
        <ele>452.2</ele>
        <time>2022-06-12T07:45:01Z</time>
      </trkpt>
      <trkpt lat="46.597" lon="5.51465">
        <ele>452.8</ele>
        <time>2022-06-12T07:45:04Z</time>
      </trkpt>
      <trkpt lat="46.59727" lon="5.51477">
        <ele>454</ele>
        <time>2022-06-12T07:45:09Z</time>
      </trkpt>
      <trkpt lat="46.59746" lon="5.51484">
        <ele>455</ele>
        <time>2022-06-12T07:45:12Z</time>
      </trkpt>
      <trkpt lat="46.59752" lon="5.51486">
        <ele>455.2</ele>
        <time>2022-06-12T07:45:13Z</time>
      </trkpt>
      <trkpt lat="46.59759" lon="5.51486">
        <ele>455.4</ele>
        <time>2022-06-12T07:45:14Z</time>
      </trkpt>
      <trkpt lat="46.59772" lon="5.51481">
        <ele>455.6</ele>
        <time>2022-06-12T07:45:16Z</time>
      </trkpt>
      <trkpt lat="46.59807" lon="5.51452">
        <ele>456</ele>
        <time>2022-06-12T07:45:22Z</time>
      </trkpt>
      <trkpt lat="46.59826" lon="5.51442">
        <ele>456</ele>
        <time>2022-06-12T07:45:26Z</time>
      </trkpt>
      <trkpt lat="46.59841" lon="5.51435">
        <ele>456.4</ele>
        <time>2022-06-12T07:45:29Z</time>
      </trkpt>
      <trkpt lat="46.59855" lon="5.51428">
        <ele>457.4</ele>
        <time>2022-06-12T07:45:32Z</time>
      </trkpt>
      <trkpt lat="46.59873" lon="5.5142">
        <ele>458.4</ele>
        <time>2022-06-12T07:45:36Z</time>
      </trkpt>
      <trkpt lat="46.59877" lon="5.51417">
        <ele>458.6</ele>
        <time>2022-06-12T07:45:37Z</time>
      </trkpt>
      <trkpt lat="46.5988" lon="5.51415">
        <ele>459</ele>
        <time>2022-06-12T07:45:38Z</time>
      </trkpt>
      <trkpt lat="46.59884" lon="5.51413">
        <ele>459.6</ele>
        <time>2022-06-12T07:45:39Z</time>
      </trkpt>
      <trkpt lat="46.59888" lon="5.51412">
        <ele>459.6</ele>
        <time>2022-06-12T07:45:40Z</time>
      </trkpt>
      <trkpt lat="46.59904" lon="5.51409">
        <ele>460.2</ele>
        <time>2022-06-12T07:45:43Z</time>
      </trkpt>
      <trkpt lat="46.59935" lon="5.51413">
        <ele>460.6</ele>
        <time>2022-06-12T07:45:48Z</time>
      </trkpt>
      <trkpt lat="46.59941" lon="5.51417">
        <ele>460.6</ele>
        <time>2022-06-12T07:45:49Z</time>
      </trkpt>
      <trkpt lat="46.59947" lon="5.51422">
        <ele>460.2</ele>
        <time>2022-06-12T07:45:50Z</time>
      </trkpt>
      <trkpt lat="46.59958" lon="5.51439">
        <ele>459.6</ele>
        <time>2022-06-12T07:45:52Z</time>
      </trkpt>
      <trkpt lat="46.59964" lon="5.51458">
        <ele>458.8</ele>
        <time>2022-06-12T07:45:54Z</time>
      </trkpt>
      <trkpt lat="46.59966" lon="5.51468">
        <ele>458.4</ele>
        <time>2022-06-12T07:45:55Z</time>
      </trkpt>
      <trkpt lat="46.59974" lon="5.51527">
        <ele>458.2</ele>
        <time>2022-06-12T07:46:01Z</time>
      </trkpt>
      <trkpt lat="46.59975" lon="5.51536">
        <ele>458.2</ele>
        <time>2022-06-12T07:46:02Z</time>
      </trkpt>
      <trkpt lat="46.59975" lon="5.51568">
        <ele>458.2</ele>
        <time>2022-06-12T07:46:06Z</time>
      </trkpt>
      <trkpt lat="46.59974" lon="5.51575">
        <ele>458.4</ele>
        <time>2022-06-12T07:46:07Z</time>
      </trkpt>
      <trkpt lat="46.5997" lon="5.51602">
        <ele>459.6</ele>
        <time>2022-06-12T07:46:11Z</time>
      </trkpt>
      <trkpt lat="46.59961" lon="5.51627">
        <ele>460.8</ele>
        <time>2022-06-12T07:46:16Z</time>
      </trkpt>
      <trkpt lat="46.59949" lon="5.51647">
        <ele>462</ele>
        <time>2022-06-12T07:46:21Z</time>
      </trkpt>
      <trkpt lat="46.5994" lon="5.51662">
        <ele>463</ele>
        <time>2022-06-12T07:46:25Z</time>
      </trkpt>
      <trkpt lat="46.59933" lon="5.51672">
        <ele>464.2</ele>
        <time>2022-06-12T07:46:28Z</time>
      </trkpt>
      <trkpt lat="46.59925" lon="5.51687">
        <ele>465.2</ele>
        <time>2022-06-12T07:46:32Z</time>
      </trkpt>
      <trkpt lat="46.59918" lon="5.51703">
        <ele>466</ele>
        <time>2022-06-12T07:46:36Z</time>
      </trkpt>
      <trkpt lat="46.59917" lon="5.51708">
        <ele>466.6</ele>
        <time>2022-06-12T07:46:37Z</time>
      </trkpt>
      <trkpt lat="46.59914" lon="5.51723">
        <ele>467</ele>
        <time>2022-06-12T07:46:40Z</time>
      </trkpt>
      <trkpt lat="46.5991" lon="5.51738">
        <ele>467.6</ele>
        <time>2022-06-12T07:46:43Z</time>
      </trkpt>
      <trkpt lat="46.59901" lon="5.51776">
        <ele>468.6</ele>
        <time>2022-06-12T07:46:50Z</time>
      </trkpt>
      <trkpt lat="46.5989" lon="5.51797">
        <ele>469.8</ele>
        <time>2022-06-12T07:46:55Z</time>
      </trkpt>
      <trkpt lat="46.59885" lon="5.51804">
        <ele>470</ele>
        <time>2022-06-12T07:46:57Z</time>
      </trkpt>
      <trkpt lat="46.59876" lon="5.51815">
        <ele>470.8</ele>
        <time>2022-06-12T07:47:00Z</time>
      </trkpt>
      <trkpt lat="46.59857" lon="5.51838">
        <ele>471.8</ele>
        <time>2022-06-12T07:47:06Z</time>
      </trkpt>
      <trkpt lat="46.59847" lon="5.51848">
        <ele>472.2</ele>
        <time>2022-06-12T07:47:09Z</time>
      </trkpt>
      <trkpt lat="46.59829" lon="5.51864">
        <ele>473</ele>
        <time>2022-06-12T07:47:14Z</time>
      </trkpt>
      <trkpt lat="46.59826" lon="5.51867">
        <ele>473.2</ele>
        <time>2022-06-12T07:47:15Z</time>
      </trkpt>
      <trkpt lat="46.59804" lon="5.51881">
        <ele>474.2</ele>
        <time>2022-06-12T07:47:21Z</time>
      </trkpt>
      <trkpt lat="46.598" lon="5.51883">
        <ele>474.2</ele>
        <time>2022-06-12T07:47:22Z</time>
      </trkpt>
      <trkpt lat="46.59782" lon="5.51892">
        <ele>475.2</ele>
        <time>2022-06-12T07:47:27Z</time>
      </trkpt>
      <trkpt lat="46.59771" lon="5.51898">
        <ele>475.8</ele>
        <time>2022-06-12T07:47:30Z</time>
      </trkpt>
      <trkpt lat="46.59764" lon="5.51901">
        <ele>476.4</ele>
        <time>2022-06-12T07:47:32Z</time>
      </trkpt>
      <trkpt lat="46.59734" lon="5.51915">
        <ele>477.4</ele>
        <time>2022-06-12T07:47:39Z</time>
      </trkpt>
      <trkpt lat="46.59725" lon="5.5192">
        <ele>477.6</ele>
        <time>2022-06-12T07:47:41Z</time>
      </trkpt>
      <trkpt lat="46.5971" lon="5.51925">
        <ele>477.6</ele>
        <time>2022-06-12T07:47:44Z</time>
      </trkpt>
      <trkpt lat="46.597" lon="5.51924">
        <ele>478</ele>
        <time>2022-06-12T07:47:46Z</time>
      </trkpt>
      <trkpt lat="46.5969" lon="5.51918">
        <ele>478</ele>
        <time>2022-06-12T07:47:48Z</time>
      </trkpt>
      <trkpt lat="46.59685" lon="5.51916">
        <ele>478.2</ele>
        <time>2022-06-12T07:47:49Z</time>
      </trkpt>
      <trkpt lat="46.5968" lon="5.51915">
        <ele>478.2</ele>
        <time>2022-06-12T07:47:50Z</time>
      </trkpt>
      <trkpt lat="46.59675" lon="5.51916">
        <ele>478.4</ele>
        <time>2022-06-12T07:47:51Z</time>
      </trkpt>
      <trkpt lat="46.59671" lon="5.51918">
        <ele>478.4</ele>
        <time>2022-06-12T07:47:52Z</time>
      </trkpt>
      <trkpt lat="46.59667" lon="5.51922">
        <ele>478.4</ele>
        <time>2022-06-12T07:47:53Z</time>
      </trkpt>
      <trkpt lat="46.59662" lon="5.51933">
        <ele>478.6</ele>
        <time>2022-06-12T07:47:55Z</time>
      </trkpt>
      <trkpt lat="46.59661" lon="5.51939">
        <ele>478.8</ele>
        <time>2022-06-12T07:47:56Z</time>
      </trkpt>
      <trkpt lat="46.5966" lon="5.51946">
        <ele>479</ele>
        <time>2022-06-12T07:47:57Z</time>
      </trkpt>
      <trkpt lat="46.59662" lon="5.51958">
        <ele>479.4</ele>
        <time>2022-06-12T07:47:59Z</time>
      </trkpt>
      <trkpt lat="46.59663" lon="5.51963">
        <ele>479.6</ele>
        <time>2022-06-12T07:48:00Z</time>
      </trkpt>
      <trkpt lat="46.59667" lon="5.51967">
        <ele>479.8</ele>
        <time>2022-06-12T07:48:01Z</time>
      </trkpt>
      <trkpt lat="46.59676" lon="5.51969">
        <ele>479.8</ele>
        <time>2022-06-12T07:48:03Z</time>
      </trkpt>
      <trkpt lat="46.59705" lon="5.51965">
        <ele>480.4</ele>
        <time>2022-06-12T07:48:09Z</time>
      </trkpt>
      <trkpt lat="46.59712" lon="5.51965">
        <ele>480.6</ele>
        <time>2022-06-12T07:48:10Z</time>
      </trkpt>
      <trkpt lat="46.59737" lon="5.51963">
        <ele>481.6</ele>
        <time>2022-06-12T07:48:15Z</time>
      </trkpt>
      <trkpt lat="46.59742" lon="5.51962">
        <ele>481.8</ele>
        <time>2022-06-12T07:48:16Z</time>
      </trkpt>
      <trkpt lat="46.59766" lon="5.5196">
        <ele>483</ele>
        <time>2022-06-12T07:48:21Z</time>
      </trkpt>
      <trkpt lat="46.59781" lon="5.51959">
        <ele>483.4</ele>
        <time>2022-06-12T07:48:24Z</time>
      </trkpt>
      <trkpt lat="46.5979" lon="5.51958">
        <ele>483.8</ele>
        <time>2022-06-12T07:48:26Z</time>
      </trkpt>
      <trkpt lat="46.59794" lon="5.51958">
        <ele>484</ele>
        <time>2022-06-12T07:48:27Z</time>
      </trkpt>
      <trkpt lat="46.59818" lon="5.51957">
        <ele>485</ele>
        <time>2022-06-12T07:48:32Z</time>
      </trkpt>
      <trkpt lat="46.59823" lon="5.51957">
        <ele>485.2</ele>
        <time>2022-06-12T07:48:33Z</time>
      </trkpt>
      <trkpt lat="46.59851" lon="5.51956">
        <ele>486.2</ele>
        <time>2022-06-12T07:48:39Z</time>
      </trkpt>
      <trkpt lat="46.59856" lon="5.51955">
        <ele>486.4</ele>
        <time>2022-06-12T07:48:40Z</time>
      </trkpt>
      <trkpt lat="46.59889" lon="5.51957">
        <ele>487.2</ele>
        <time>2022-06-12T07:48:47Z</time>
      </trkpt>
      <trkpt lat="46.59921" lon="5.5196">
        <ele>488.4</ele>
        <time>2022-06-12T07:48:54Z</time>
      </trkpt>
      <trkpt lat="46.59932" lon="5.51962">
        <ele>488.6</ele>
        <time>2022-06-12T07:48:56Z</time>
      </trkpt>
      <trkpt lat="46.59961" lon="5.51968">
        <ele>489</ele>
        <time>2022-06-12T07:49:01Z</time>
      </trkpt>
      <trkpt lat="46.60005" lon="5.51981">
        <ele>488.6</ele>
        <time>2022-06-12T07:49:08Z</time>
      </trkpt>
      <trkpt lat="46.60048" lon="5.51994">
        <ele>488.6</ele>
        <time>2022-06-12T07:49:15Z</time>
      </trkpt>
      <trkpt lat="46.60086" lon="5.52004">
        <ele>488.2</ele>
        <time>2022-06-12T07:49:21Z</time>
      </trkpt>
      <trkpt lat="46.60131" lon="5.52011">
        <ele>487.6</ele>
        <time>2022-06-12T07:49:27Z</time>
      </trkpt>
      <trkpt lat="46.60139" lon="5.52012">
        <ele>487.4</ele>
        <time>2022-06-12T07:49:28Z</time>
      </trkpt>
      <trkpt lat="46.60147" lon="5.52013">
        <ele>486.8</ele>
        <time>2022-06-12T07:49:29Z</time>
      </trkpt>
      <trkpt lat="46.60173" lon="5.52013">
        <ele>485.8</ele>
        <time>2022-06-12T07:49:32Z</time>
      </trkpt>
      <trkpt lat="46.60182" lon="5.52012">
        <ele>485.4</ele>
        <time>2022-06-12T07:49:33Z</time>
      </trkpt>
      <trkpt lat="46.6021" lon="5.52013">
        <ele>484.4</ele>
        <time>2022-06-12T07:49:36Z</time>
      </trkpt>
      <trkpt lat="46.6022" lon="5.52015">
        <ele>484.2</ele>
        <time>2022-06-12T07:49:37Z</time>
      </trkpt>
      <trkpt lat="46.60247" lon="5.52022">
        <ele>483</ele>
        <time>2022-06-12T07:49:40Z</time>
      </trkpt>
      <trkpt lat="46.60264" lon="5.52027">
        <ele>482.2</ele>
        <time>2022-06-12T07:49:42Z</time>
      </trkpt>
      <trkpt lat="46.60272" lon="5.52031">
        <ele>482</ele>
        <time>2022-06-12T07:49:43Z</time>
      </trkpt>
      <trkpt lat="46.60317" lon="5.52053">
        <ele>481.4</ele>
        <time>2022-06-12T07:49:49Z</time>
      </trkpt>
      <trkpt lat="46.60348" lon="5.52069">
        <ele>481.2</ele>
        <time>2022-06-12T07:49:53Z</time>
      </trkpt>
      <trkpt lat="46.60356" lon="5.52073">
        <ele>481</ele>
        <time>2022-06-12T07:49:54Z</time>
      </trkpt>
      <trkpt lat="46.60363" lon="5.52076">
        <ele>480.8</ele>
        <time>2022-06-12T07:49:55Z</time>
      </trkpt>
      <trkpt lat="46.60377" lon="5.52084">
        <ele>480.4</ele>
        <time>2022-06-12T07:49:57Z</time>
      </trkpt>
      <trkpt lat="46.60383" lon="5.52103">
        <ele>480</ele>
        <time>2022-06-12T07:49:59Z</time>
      </trkpt>
      <trkpt lat="46.60382" lon="5.52115">
        <ele>479.6</ele>
        <time>2022-06-12T07:50:00Z</time>
      </trkpt>
      <trkpt lat="46.60377" lon="5.52125">
        <ele>479.2</ele>
        <time>2022-06-12T07:50:01Z</time>
      </trkpt>
      <trkpt lat="46.6036" lon="5.52138">
        <ele>478.6</ele>
        <time>2022-06-12T07:50:03Z</time>
      </trkpt>
      <trkpt lat="46.60351" lon="5.52143">
        <ele>478.2</ele>
        <time>2022-06-12T07:50:04Z</time>
      </trkpt>
      <trkpt lat="46.60321" lon="5.52154">
        <ele>477.4</ele>
        <time>2022-06-12T07:50:07Z</time>
      </trkpt>
      <trkpt lat="46.6031" lon="5.52156">
        <ele>476.8</ele>
        <time>2022-06-12T07:50:08Z</time>
      </trkpt>
      <trkpt lat="46.60288" lon="5.52162">
        <ele>475.6</ele>
        <time>2022-06-12T07:50:10Z</time>
      </trkpt>
      <trkpt lat="46.60264" lon="5.52169">
        <ele>474.4</ele>
        <time>2022-06-12T07:50:12Z</time>
      </trkpt>
      <trkpt lat="46.60253" lon="5.52175">
        <ele>473.6</ele>
        <time>2022-06-12T07:50:13Z</time>
      </trkpt>
      <trkpt lat="46.60242" lon="5.52185">
        <ele>473</ele>
        <time>2022-06-12T07:50:14Z</time>
      </trkpt>
      <trkpt lat="46.60233" lon="5.52197">
        <ele>472.2</ele>
        <time>2022-06-12T07:50:15Z</time>
      </trkpt>
      <trkpt lat="46.60227" lon="5.52212">
        <ele>471.6</ele>
        <time>2022-06-12T07:50:16Z</time>
      </trkpt>
      <trkpt lat="46.60223" lon="5.52227">
        <ele>471</ele>
        <time>2022-06-12T07:50:17Z</time>
      </trkpt>
      <trkpt lat="46.60221" lon="5.52243">
        <ele>470</ele>
        <time>2022-06-12T07:50:18Z</time>
      </trkpt>
      <trkpt lat="46.60221" lon="5.5226">
        <ele>469.6</ele>
        <time>2022-06-12T07:50:19Z</time>
      </trkpt>
      <trkpt lat="46.60221" lon="5.52276">
        <ele>468.6</ele>
        <time>2022-06-12T07:50:20Z</time>
      </trkpt>
      <trkpt lat="46.60222" lon="5.52308">
        <ele>467.4</ele>
        <time>2022-06-12T07:50:22Z</time>
      </trkpt>
      <trkpt lat="46.60221" lon="5.52337">
        <ele>466.4</ele>
        <time>2022-06-12T07:50:24Z</time>
      </trkpt>
      <trkpt lat="46.6022" lon="5.52351">
        <ele>466</ele>
        <time>2022-06-12T07:50:25Z</time>
      </trkpt>
      <trkpt lat="46.60217" lon="5.52419">
        <ele>465.2</ele>
        <time>2022-06-12T07:50:30Z</time>
      </trkpt>
      <trkpt lat="46.60208" lon="5.52479">
        <ele>465.2</ele>
        <time>2022-06-12T07:50:35Z</time>
      </trkpt>
      <trkpt lat="46.60195" lon="5.52526">
        <ele>465.6</ele>
        <time>2022-06-12T07:50:40Z</time>
      </trkpt>
      <trkpt lat="46.60186" lon="5.52554">
        <ele>467.2</ele>
        <time>2022-06-12T07:50:44Z</time>
      </trkpt>
      <trkpt lat="46.60181" lon="5.52569">
        <ele>467.6</ele>
        <time>2022-06-12T07:50:46Z</time>
      </trkpt>
      <trkpt lat="46.60178" lon="5.52581">
        <ele>468.4</ele>
        <time>2022-06-12T07:50:48Z</time>
      </trkpt>
      <trkpt lat="46.60173" lon="5.52598">
        <ele>469.4</ele>
        <time>2022-06-12T07:50:51Z</time>
      </trkpt>
      <trkpt lat="46.60171" lon="5.52608">
        <ele>470</ele>
        <time>2022-06-12T07:50:53Z</time>
      </trkpt>
      <trkpt lat="46.60167" lon="5.5262">
        <ele>470.6</ele>
        <time>2022-06-12T07:50:55Z</time>
      </trkpt>
      <trkpt lat="46.60164" lon="5.52634">
        <ele>471.8</ele>
        <time>2022-06-12T07:50:58Z</time>
      </trkpt>
      <trkpt lat="46.60162" lon="5.52644">
        <ele>472</ele>
        <time>2022-06-12T07:51:00Z</time>
      </trkpt>
      <trkpt lat="46.60161" lon="5.52658">
        <ele>472.8</ele>
        <time>2022-06-12T07:51:03Z</time>
      </trkpt>
      <trkpt lat="46.6016" lon="5.52679">
        <ele>474</ele>
        <time>2022-06-12T07:51:07Z</time>
      </trkpt>
      <trkpt lat="46.60159" lon="5.52695">
        <ele>475.2</ele>
        <time>2022-06-12T07:51:10Z</time>
      </trkpt>
      <trkpt lat="46.60155" lon="5.52717">
        <ele>476.4</ele>
        <time>2022-06-12T07:51:14Z</time>
      </trkpt>
      <trkpt lat="46.60141" lon="5.52749">
        <ele>477.2</ele>
        <time>2022-06-12T07:51:21Z</time>
      </trkpt>
      <trkpt lat="46.60137" lon="5.52756">
        <ele>477.4</ele>
        <time>2022-06-12T07:51:23Z</time>
      </trkpt>
      <trkpt lat="46.60126" lon="5.52768">
        <ele>478.6</ele>
        <time>2022-06-12T07:51:27Z</time>
      </trkpt>
      <trkpt lat="46.60114" lon="5.52777">
        <ele>479.8</ele>
        <time>2022-06-12T07:51:31Z</time>
      </trkpt>
      <trkpt lat="46.60102" lon="5.52786">
        <ele>480.8</ele>
        <time>2022-06-12T07:51:35Z</time>
      </trkpt>
      <trkpt lat="46.60099" lon="5.52788">
        <ele>480.8</ele>
        <time>2022-06-12T07:51:36Z</time>
      </trkpt>
      <trkpt lat="46.6009" lon="5.52793">
        <ele>481.8</ele>
        <time>2022-06-12T07:51:39Z</time>
      </trkpt>
      <trkpt lat="46.60075" lon="5.528">
        <ele>483.2</ele>
        <time>2022-06-12T07:51:44Z</time>
      </trkpt>
      <trkpt lat="46.60071" lon="5.52802">
        <ele>483.2</ele>
        <time>2022-06-12T07:51:45Z</time>
      </trkpt>
      <trkpt lat="46.60051" lon="5.52812">
        <ele>484.2</ele>
        <time>2022-06-12T07:51:51Z</time>
      </trkpt>
      <trkpt lat="46.60038" lon="5.52819">
        <ele>485</ele>
        <time>2022-06-12T07:51:55Z</time>
      </trkpt>
      <trkpt lat="46.60035" lon="5.5282">
        <ele>485.2</ele>
        <time>2022-06-12T07:51:56Z</time>
      </trkpt>
      <trkpt lat="46.60014" lon="5.5283">
        <ele>486.2</ele>
        <time>2022-06-12T07:52:02Z</time>
      </trkpt>
      <trkpt lat="46.60001" lon="5.52836">
        <ele>487.2</ele>
        <time>2022-06-12T07:52:06Z</time>
      </trkpt>
      <trkpt lat="46.59993" lon="5.52839">
        <ele>487.4</ele>
        <time>2022-06-12T07:52:08Z</time>
      </trkpt>
      <trkpt lat="46.59977" lon="5.52844">
        <ele>488.4</ele>
        <time>2022-06-12T07:52:13Z</time>
      </trkpt>
      <trkpt lat="46.59962" lon="5.52847">
        <ele>489.6</ele>
        <time>2022-06-12T07:52:17Z</time>
      </trkpt>
      <trkpt lat="46.59956" lon="5.52849">
        <ele>490</ele>
        <time>2022-06-12T07:52:19Z</time>
      </trkpt>
      <trkpt lat="46.59943" lon="5.52852">
        <ele>490.6</ele>
        <time>2022-06-12T07:52:23Z</time>
      </trkpt>
      <trkpt lat="46.59939" lon="5.52853">
        <ele>491</ele>
        <time>2022-06-12T07:52:24Z</time>
      </trkpt>
      <trkpt lat="46.5993" lon="5.52857">
        <ele>491.6</ele>
        <time>2022-06-12T07:52:27Z</time>
      </trkpt>
      <trkpt lat="46.59918" lon="5.52865">
        <ele>492.8</ele>
        <time>2022-06-12T07:52:31Z</time>
      </trkpt>
      <trkpt lat="46.59909" lon="5.52873">
        <ele>493.8</ele>
        <time>2022-06-12T07:52:34Z</time>
      </trkpt>
      <trkpt lat="46.59896" lon="5.52891">
        <ele>494.8</ele>
        <time>2022-06-12T07:52:39Z</time>
      </trkpt>
      <trkpt lat="46.59887" lon="5.52907">
        <ele>495.6</ele>
        <time>2022-06-12T07:52:43Z</time>
      </trkpt>
      <trkpt lat="46.59885" lon="5.52912">
        <ele>496</ele>
        <time>2022-06-12T07:52:44Z</time>
      </trkpt>
      <trkpt lat="46.59879" lon="5.52936">
        <ele>497</ele>
        <time>2022-06-12T07:52:49Z</time>
      </trkpt>
      <trkpt lat="46.59879" lon="5.52942">
        <ele>497.2</ele>
        <time>2022-06-12T07:52:50Z</time>
      </trkpt>
      <trkpt lat="46.59878" lon="5.52978">
        <ele>498.2</ele>
        <time>2022-06-12T07:52:56Z</time>
      </trkpt>
      <trkpt lat="46.59878" lon="5.52985">
        <ele>498.2</ele>
        <time>2022-06-12T07:52:57Z</time>
      </trkpt>
      <trkpt lat="46.59877" lon="5.52993">
        <ele>498.2</ele>
        <time>2022-06-12T07:52:58Z</time>
      </trkpt>
      <trkpt lat="46.59873" lon="5.53009">
        <ele>498.2</ele>
        <time>2022-06-12T07:53:00Z</time>
      </trkpt>
      <trkpt lat="46.59869" lon="5.53016">
        <ele>498.2</ele>
        <time>2022-06-12T07:53:01Z</time>
      </trkpt>
      <trkpt lat="46.59864" lon="5.53023">
        <ele>498</ele>
        <time>2022-06-12T07:53:02Z</time>
      </trkpt>
      <trkpt lat="46.59853" lon="5.53032">
        <ele>497.8</ele>
        <time>2022-06-12T07:53:04Z</time>
      </trkpt>
      <trkpt lat="46.59826" lon="5.53045">
        <ele>497</ele>
        <time>2022-06-12T07:53:08Z</time>
      </trkpt>
      <trkpt lat="46.59819" lon="5.53048">
        <ele>497</ele>
        <time>2022-06-12T07:53:09Z</time>
      </trkpt>
      <trkpt lat="46.59779" lon="5.53076">
        <ele>496.6</ele>
        <time>2022-06-12T07:53:15Z</time>
      </trkpt>
      <trkpt lat="46.5974" lon="5.53108">
        <ele>496.4</ele>
        <time>2022-06-12T07:53:21Z</time>
      </trkpt>
      <trkpt lat="46.59702" lon="5.53124">
        <ele>496.4</ele>
        <time>2022-06-12T07:53:27Z</time>
      </trkpt>
      <trkpt lat="46.59674" lon="5.53132">
        <ele>496.8</ele>
        <time>2022-06-12T07:53:32Z</time>
      </trkpt>
      <trkpt lat="46.59667" lon="5.53135">
        <ele>497.2</ele>
        <time>2022-06-12T07:53:33Z</time>
      </trkpt>
      <trkpt lat="46.59647" lon="5.53145">
        <ele>498.2</ele>
        <time>2022-06-12T07:53:37Z</time>
      </trkpt>
      <trkpt lat="46.5964" lon="5.53148">
        <ele>498.4</ele>
        <time>2022-06-12T07:53:38Z</time>
      </trkpt>
      <trkpt lat="46.59617" lon="5.53162">
        <ele>499</ele>
        <time>2022-06-12T07:53:42Z</time>
      </trkpt>
      <trkpt lat="46.59613" lon="5.53164">
        <ele>499.2</ele>
        <time>2022-06-12T07:53:43Z</time>
      </trkpt>
      <trkpt lat="46.59561" lon="5.53188">
        <ele>499.6</ele>
        <time>2022-06-12T07:53:51Z</time>
      </trkpt>
      <trkpt lat="46.59523" lon="5.53208">
        <ele>498.8</ele>
        <time>2022-06-12T07:53:56Z</time>
      </trkpt>
      <trkpt lat="46.59501" lon="5.53216">
        <ele>498</ele>
        <time>2022-06-12T07:53:59Z</time>
      </trkpt>
      <trkpt lat="46.59485" lon="5.53218">
        <ele>497.8</ele>
        <time>2022-06-12T07:54:01Z</time>
      </trkpt>
      <trkpt lat="46.5945" lon="5.53222">
        <ele>497.4</ele>
        <time>2022-06-12T07:54:06Z</time>
      </trkpt>
      <trkpt lat="46.59407" lon="5.53229">
        <ele>497.8</ele>
        <time>2022-06-12T07:54:13Z</time>
      </trkpt>
      <trkpt lat="46.59386" lon="5.53237">
        <ele>497.6</ele>
        <time>2022-06-12T07:54:16Z</time>
      </trkpt>
      <trkpt lat="46.59373" lon="5.53245">
        <ele>497.2</ele>
        <time>2022-06-12T07:54:18Z</time>
      </trkpt>
      <trkpt lat="46.59364" lon="5.53251">
        <ele>497</ele>
        <time>2022-06-12T07:54:19Z</time>
      </trkpt>
      <trkpt lat="46.59351" lon="5.53266">
        <ele>496.6</ele>
        <time>2022-06-12T07:54:21Z</time>
      </trkpt>
      <trkpt lat="46.5934" lon="5.53285">
        <ele>495.8</ele>
        <time>2022-06-12T07:54:23Z</time>
      </trkpt>
      <trkpt lat="46.59323" lon="5.53314">
        <ele>495</ele>
        <time>2022-06-12T07:54:26Z</time>
      </trkpt>
      <trkpt lat="46.59317" lon="5.53323">
        <ele>494.8</ele>
        <time>2022-06-12T07:54:27Z</time>
      </trkpt>
      <trkpt lat="46.59291" lon="5.53353">
        <ele>493.8</ele>
        <time>2022-06-12T07:54:31Z</time>
      </trkpt>
      <trkpt lat="46.59284" lon="5.53359">
        <ele>493.6</ele>
        <time>2022-06-12T07:54:32Z</time>
      </trkpt>
      <trkpt lat="46.5925" lon="5.53389">
        <ele>492.6</ele>
        <time>2022-06-12T07:54:37Z</time>
      </trkpt>
      <trkpt lat="46.59237" lon="5.53402">
        <ele>492.2</ele>
        <time>2022-06-12T07:54:39Z</time>
      </trkpt>
      <trkpt lat="46.59222" lon="5.53413">
        <ele>492.2</ele>
        <time>2022-06-12T07:54:41Z</time>
      </trkpt>
      <trkpt lat="46.59207" lon="5.53419">
        <ele>492</ele>
        <time>2022-06-12T07:54:43Z</time>
      </trkpt>
      <trkpt lat="46.59191" lon="5.5342">
        <ele>491.4</ele>
        <time>2022-06-12T07:54:45Z</time>
      </trkpt>
      <trkpt lat="46.59176" lon="5.53417">
        <ele>491.2</ele>
        <time>2022-06-12T07:54:47Z</time>
      </trkpt>
      <trkpt lat="46.59153" lon="5.53406">
        <ele>490.8</ele>
        <time>2022-06-12T07:54:50Z</time>
      </trkpt>
      <trkpt lat="46.59145" lon="5.534">
        <ele>490.8</ele>
        <time>2022-06-12T07:54:51Z</time>
      </trkpt>
      <trkpt lat="46.59116" lon="5.53375">
        <ele>490</ele>
        <time>2022-06-12T07:54:55Z</time>
      </trkpt>
      <trkpt lat="46.59092" lon="5.53356">
        <ele>489</ele>
        <time>2022-06-12T07:54:58Z</time>
      </trkpt>
      <trkpt lat="46.59084" lon="5.5335">
        <ele>489</ele>
        <time>2022-06-12T07:54:59Z</time>
      </trkpt>
      <trkpt lat="46.59059" lon="5.5333">
        <ele>488</ele>
        <time>2022-06-12T07:55:02Z</time>
      </trkpt>
      <trkpt lat="46.59036" lon="5.53308">
        <ele>487.2</ele>
        <time>2022-06-12T07:55:05Z</time>
      </trkpt>
      <trkpt lat="46.59022" lon="5.53292">
        <ele>486.6</ele>
        <time>2022-06-12T07:55:07Z</time>
      </trkpt>
      <trkpt lat="46.58996" lon="5.53262">
        <ele>486</ele>
        <time>2022-06-12T07:55:11Z</time>
      </trkpt>
      <trkpt lat="46.58959" lon="5.53221">
        <ele>485.8</ele>
        <time>2022-06-12T07:55:17Z</time>
      </trkpt>
      <trkpt lat="46.58927" lon="5.53187">
        <ele>486.6</ele>
        <time>2022-06-12T07:55:23Z</time>
      </trkpt>
      <trkpt lat="46.58909" lon="5.53167">
        <ele>487.8</ele>
        <time>2022-06-12T07:55:27Z</time>
      </trkpt>
      <trkpt lat="46.58904" lon="5.53163">
        <ele>488</ele>
        <time>2022-06-12T07:55:28Z</time>
      </trkpt>
      <trkpt lat="46.58895" lon="5.53155">
        <ele>488.4</ele>
        <time>2022-06-12T07:55:30Z</time>
      </trkpt>
      <trkpt lat="46.58878" lon="5.53141">
        <ele>488.8</ele>
        <time>2022-06-12T07:55:34Z</time>
      </trkpt>
      <trkpt lat="46.5887" lon="5.53132">
        <ele>489.2</ele>
        <time>2022-06-12T07:55:36Z</time>
      </trkpt>
      <trkpt lat="46.58866" lon="5.53128">
        <ele>489.6</ele>
        <time>2022-06-12T07:55:37Z</time>
      </trkpt>
      <trkpt lat="46.58857" lon="5.53121">
        <ele>489.8</ele>
        <time>2022-06-12T07:55:39Z</time>
      </trkpt>
      <trkpt lat="46.58843" lon="5.53113">
        <ele>490.4</ele>
        <time>2022-06-12T07:55:42Z</time>
      </trkpt>
      <trkpt lat="46.58835" lon="5.53108">
        <ele>491</ele>
        <time>2022-06-12T07:55:44Z</time>
      </trkpt>
      <trkpt lat="46.58814" lon="5.53101">
        <ele>492.2</ele>
        <time>2022-06-12T07:55:49Z</time>
      </trkpt>
      <trkpt lat="46.5881" lon="5.531">
        <ele>492.4</ele>
        <time>2022-06-12T07:55:50Z</time>
      </trkpt>
      <trkpt lat="46.58805" lon="5.53099">
        <ele>492.8</ele>
        <time>2022-06-12T07:55:51Z</time>
      </trkpt>
      <trkpt lat="46.5879" lon="5.53098">
        <ele>493.4</ele>
        <time>2022-06-12T07:55:54Z</time>
      </trkpt>
      <trkpt lat="46.58772" lon="5.53096">
        <ele>493.6</ele>
        <time>2022-06-12T07:55:57Z</time>
      </trkpt>
      <trkpt lat="46.58721" lon="5.53093">
        <ele>493.4</ele>
        <time>2022-06-12T07:56:05Z</time>
      </trkpt>
      <trkpt lat="46.58681" lon="5.53077">
        <ele>493</ele>
        <time>2022-06-12T07:56:11Z</time>
      </trkpt>
      <trkpt lat="46.58632" lon="5.53045">
        <ele>492.6</ele>
        <time>2022-06-12T07:56:19Z</time>
      </trkpt>
      <trkpt lat="46.58626" lon="5.53042">
        <ele>492.6</ele>
        <time>2022-06-12T07:56:20Z</time>
      </trkpt>
      <trkpt lat="46.58587" lon="5.53014">
        <ele>493</ele>
        <time>2022-06-12T07:56:27Z</time>
      </trkpt>
      <trkpt lat="46.58582" lon="5.5301">
        <ele>493</ele>
        <time>2022-06-12T07:56:28Z</time>
      </trkpt>
      <trkpt lat="46.58573" lon="5.53004">
        <ele>493.2</ele>
        <time>2022-06-12T07:56:30Z</time>
      </trkpt>
      <trkpt lat="46.58558" lon="5.52997">
        <ele>494</ele>
        <time>2022-06-12T07:56:33Z</time>
      </trkpt>
      <trkpt lat="46.58547" lon="5.52994">
        <ele>494.2</ele>
        <time>2022-06-12T07:56:35Z</time>
      </trkpt>
      <trkpt lat="46.58514" lon="5.52983">
        <ele>495.4</ele>
        <time>2022-06-12T07:56:42Z</time>
      </trkpt>
      <trkpt lat="46.58501" lon="5.52979">
        <ele>496.4</ele>
        <time>2022-06-12T07:56:45Z</time>
      </trkpt>
      <trkpt lat="46.58482" lon="5.52975">
        <ele>497.6</ele>
        <time>2022-06-12T07:56:49Z</time>
      </trkpt>
      <trkpt lat="46.58456" lon="5.5297">
        <ele>498.6</ele>
        <time>2022-06-12T07:56:54Z</time>
      </trkpt>
      <trkpt lat="46.5845" lon="5.52968">
        <ele>498.6</ele>
        <time>2022-06-12T07:56:55Z</time>
      </trkpt>
      <trkpt lat="46.58411" lon="5.52957">
        <ele>499</ele>
        <time>2022-06-12T07:57:02Z</time>
      </trkpt>
      <trkpt lat="46.58371" lon="5.52951">
        <ele>499</ele>
        <time>2022-06-12T07:57:09Z</time>
      </trkpt>
      <trkpt lat="46.5836" lon="5.52953">
        <ele>499</ele>
        <time>2022-06-12T07:57:11Z</time>
      </trkpt>
      <trkpt lat="46.58346" lon="5.52959">
        <ele>499.2</ele>
        <time>2022-06-12T07:57:14Z</time>
      </trkpt>
      <trkpt lat="46.58333" lon="5.52966">
        <ele>499.6</ele>
        <time>2022-06-12T07:57:17Z</time>
      </trkpt>
      <trkpt lat="46.58314" lon="5.52976">
        <ele>500.8</ele>
        <time>2022-06-12T07:57:21Z</time>
      </trkpt>
      <trkpt lat="46.58309" lon="5.52977">
        <ele>501</ele>
        <time>2022-06-12T07:57:22Z</time>
      </trkpt>
      <trkpt lat="46.58294" lon="5.5298">
        <ele>501.4</ele>
        <time>2022-06-12T07:57:25Z</time>
      </trkpt>
      <trkpt lat="46.58278" lon="5.52979">
        <ele>501.8</ele>
        <time>2022-06-12T07:57:28Z</time>
      </trkpt>
      <trkpt lat="46.58242" lon="5.52971">
        <ele>502.6</ele>
        <time>2022-06-12T07:57:34Z</time>
      </trkpt>
      <trkpt lat="46.58202" lon="5.52962">
        <ele>502.6</ele>
        <time>2022-06-12T07:57:40Z</time>
      </trkpt>
      <trkpt lat="46.5816" lon="5.52959">
        <ele>502</ele>
        <time>2022-06-12T07:57:46Z</time>
      </trkpt>
      <trkpt lat="46.58128" lon="5.52949">
        <ele>501.8</ele>
        <time>2022-06-12T07:57:51Z</time>
      </trkpt>
      <trkpt lat="46.5808" lon="5.52917">
        <ele>501.8</ele>
        <time>2022-06-12T07:57:59Z</time>
      </trkpt>
      <trkpt lat="46.58044" lon="5.5289">
        <ele>501.6</ele>
        <time>2022-06-12T07:58:05Z</time>
      </trkpt>
      <trkpt lat="46.57995" lon="5.52854">
        <ele>501</ele>
        <time>2022-06-12T07:58:13Z</time>
      </trkpt>
      <trkpt lat="46.57984" lon="5.52845">
        <ele>500.8</ele>
        <time>2022-06-12T07:58:15Z</time>
      </trkpt>
      <trkpt lat="46.57978" lon="5.5284">
        <ele>500.8</ele>
        <time>2022-06-12T07:58:16Z</time>
      </trkpt>
      <trkpt lat="46.5794" lon="5.52813">
        <ele>500.4</ele>
        <time>2022-06-12T07:58:22Z</time>
      </trkpt>
      <trkpt lat="46.57892" lon="5.52781">
        <ele>500.2</ele>
        <time>2022-06-12T07:58:30Z</time>
      </trkpt>
      <trkpt lat="46.57867" lon="5.52761">
        <ele>500.2</ele>
        <time>2022-06-12T07:58:34Z</time>
      </trkpt>
      <trkpt lat="46.57852" lon="5.52754">
        <ele>500</ele>
        <time>2022-06-12T07:58:36Z</time>
      </trkpt>
      <trkpt lat="46.57814" lon="5.52745">
        <ele>499.8</ele>
        <time>2022-06-12T07:58:41Z</time>
      </trkpt>
      <trkpt lat="46.57806" lon="5.52743">
        <ele>499.8</ele>
        <time>2022-06-12T07:58:42Z</time>
      </trkpt>
      <trkpt lat="46.57753" lon="5.52719">
        <ele>500.4</ele>
        <time>2022-06-12T07:58:50Z</time>
      </trkpt>
      <trkpt lat="46.57747" lon="5.52716">
        <ele>500.6</ele>
        <time>2022-06-12T07:58:51Z</time>
      </trkpt>
      <trkpt lat="46.57716" lon="5.52702">
        <ele>501</ele>
        <time>2022-06-12T07:58:56Z</time>
      </trkpt>
      <trkpt lat="46.5771" lon="5.52701">
        <ele>501</ele>
        <time>2022-06-12T07:58:57Z</time>
      </trkpt>
      <trkpt lat="46.57676" lon="5.52703">
        <ele>501</ele>
        <time>2022-06-12T07:59:02Z</time>
      </trkpt>
      <trkpt lat="46.57663" lon="5.52707">
        <ele>501.2</ele>
        <time>2022-06-12T07:59:04Z</time>
      </trkpt>
      <trkpt lat="46.57638" lon="5.52709">
        <ele>501.2</ele>
        <time>2022-06-12T07:59:08Z</time>
      </trkpt>
      <trkpt lat="46.57586" lon="5.52696">
        <ele>501.4</ele>
        <time>2022-06-12T07:59:16Z</time>
      </trkpt>
      <trkpt lat="46.57532" lon="5.5267">
        <ele>501</ele>
        <time>2022-06-12T07:59:24Z</time>
      </trkpt>
      <trkpt lat="46.57477" lon="5.52627">
        <ele>500.4</ele>
        <time>2022-06-12T07:59:32Z</time>
      </trkpt>
      <trkpt lat="46.57433" lon="5.52594">
        <ele>499.4</ele>
        <time>2022-06-12T07:59:38Z</time>
      </trkpt>
      <trkpt lat="46.57417" lon="5.52583">
        <ele>499</ele>
        <time>2022-06-12T07:59:40Z</time>
      </trkpt>
      <trkpt lat="46.57401" lon="5.52573">
        <ele>498.4</ele>
        <time>2022-06-12T07:59:42Z</time>
      </trkpt>
      <trkpt lat="46.57367" lon="5.52553">
        <ele>497.4</ele>
        <time>2022-06-12T07:59:46Z</time>
      </trkpt>
      <trkpt lat="46.57359" lon="5.52549">
        <ele>497.2</ele>
        <time>2022-06-12T07:59:47Z</time>
      </trkpt>
      <trkpt lat="46.57331" lon="5.52538">
        <ele>496</ele>
        <time>2022-06-12T07:59:50Z</time>
      </trkpt>
      <trkpt lat="46.57322" lon="5.52533">
        <ele>495.8</ele>
        <time>2022-06-12T07:59:51Z</time>
      </trkpt>
      <trkpt lat="46.57295" lon="5.52516">
        <ele>494.8</ele>
        <time>2022-06-12T07:59:54Z</time>
      </trkpt>
      <trkpt lat="46.57276" lon="5.52504">
        <ele>493.8</ele>
        <time>2022-06-12T07:59:56Z</time>
      </trkpt>
      <trkpt lat="46.57265" lon="5.52499">
        <ele>493.6</ele>
        <time>2022-06-12T07:59:57Z</time>
      </trkpt>
      <trkpt lat="46.57254" lon="5.52495">
        <ele>492.8</ele>
        <time>2022-06-12T07:59:58Z</time>
      </trkpt>
      <trkpt lat="46.57244" lon="5.52492">
        <ele>492.2</ele>
        <time>2022-06-12T07:59:59Z</time>
      </trkpt>
      <trkpt lat="46.57233" lon="5.52492">
        <ele>491.8</ele>
        <time>2022-06-12T08:00:00Z</time>
      </trkpt>
      <trkpt lat="46.57222" lon="5.52495">
        <ele>491</ele>
        <time>2022-06-12T08:00:01Z</time>
      </trkpt>
      <trkpt lat="46.572" lon="5.52505">
        <ele>490.2</ele>
        <time>2022-06-12T08:00:03Z</time>
      </trkpt>
      <trkpt lat="46.57188" lon="5.52511">
        <ele>489.8</ele>
        <time>2022-06-12T08:00:04Z</time>
      </trkpt>
      <trkpt lat="46.57166" lon="5.52522">
        <ele>488.2</ele>
        <time>2022-06-12T08:00:06Z</time>
      </trkpt>
      <trkpt lat="46.57143" lon="5.52534">
        <ele>486.8</ele>
        <time>2022-06-12T08:00:08Z</time>
      </trkpt>
      <trkpt lat="46.5712" lon="5.52546">
        <ele>485.6</ele>
        <time>2022-06-12T08:00:10Z</time>
      </trkpt>
      <trkpt lat="46.57097" lon="5.52557">
        <ele>484.4</ele>
        <time>2022-06-12T08:00:12Z</time>
      </trkpt>
      <trkpt lat="46.57086" lon="5.52563">
        <ele>483.2</ele>
        <time>2022-06-12T08:00:13Z</time>
      </trkpt>
      <trkpt lat="46.57063" lon="5.52575">
        <ele>481.4</ele>
        <time>2022-06-12T08:00:15Z</time>
      </trkpt>
      <trkpt lat="46.57041" lon="5.52584">
        <ele>480.2</ele>
        <time>2022-06-12T08:00:17Z</time>
      </trkpt>
      <trkpt lat="46.5703" lon="5.52584">
        <ele>479.8</ele>
        <time>2022-06-12T08:00:18Z</time>
      </trkpt>
      <trkpt lat="46.5702" lon="5.52581">
        <ele>478.6</ele>
        <time>2022-06-12T08:00:19Z</time>
      </trkpt>
      <trkpt lat="46.57" lon="5.52573">
        <ele>477.6</ele>
        <time>2022-06-12T08:00:21Z</time>
      </trkpt>
      <trkpt lat="46.56989" lon="5.52572">
        <ele>477.2</ele>
        <time>2022-06-12T08:00:22Z</time>
      </trkpt>
      <trkpt lat="46.56979" lon="5.52572">
        <ele>477</ele>
        <time>2022-06-12T08:00:23Z</time>
      </trkpt>
      <trkpt lat="46.5697" lon="5.52575">
        <ele>476.8</ele>
        <time>2022-06-12T08:00:24Z</time>
      </trkpt>
      <trkpt lat="46.56929" lon="5.52591">
        <ele>476.4</ele>
        <time>2022-06-12T08:00:29Z</time>
      </trkpt>
      <trkpt lat="46.56885" lon="5.5261">
        <ele>477</ele>
        <time>2022-06-12T08:00:35Z</time>
      </trkpt>
      <trkpt lat="46.56843" lon="5.52616">
        <ele>477.6</ele>
        <time>2022-06-12T08:00:40Z</time>
      </trkpt>
      <trkpt lat="46.56803" lon="5.52616">
        <ele>477.6</ele>
        <time>2022-06-12T08:00:45Z</time>
      </trkpt>
      <trkpt lat="46.56796" lon="5.52617">
        <ele>477.6</ele>
        <time>2022-06-12T08:00:46Z</time>
      </trkpt>
      <trkpt lat="46.56749" lon="5.52629">
        <ele>477.4</ele>
        <time>2022-06-12T08:00:52Z</time>
      </trkpt>
      <trkpt lat="46.56691" lon="5.52639">
        <ele>476.4</ele>
        <time>2022-06-12T08:00:59Z</time>
      </trkpt>
      <trkpt lat="46.56683" lon="5.52641">
        <ele>476.4</ele>
        <time>2022-06-12T08:01:00Z</time>
      </trkpt>
      <trkpt lat="46.56674" lon="5.52644">
        <ele>476</ele>
        <time>2022-06-12T08:01:01Z</time>
      </trkpt>
      <trkpt lat="46.56643" lon="5.52663">
        <ele>475.4</ele>
        <time>2022-06-12T08:01:05Z</time>
      </trkpt>
      <trkpt lat="46.56629" lon="5.52676">
        <ele>475</ele>
        <time>2022-06-12T08:01:07Z</time>
      </trkpt>
      <trkpt lat="46.56596" lon="5.5271">
        <ele>474.6</ele>
        <time>2022-06-12T08:01:12Z</time>
      </trkpt>
      <trkpt lat="46.56553" lon="5.52751">
        <ele>473.8</ele>
        <time>2022-06-12T08:01:18Z</time>
      </trkpt>
      <trkpt lat="46.56522" lon="5.52778">
        <ele>473</ele>
        <time>2022-06-12T08:01:22Z</time>
      </trkpt>
      <trkpt lat="46.56516" lon="5.52783">
        <ele>472.6</ele>
        <time>2022-06-12T08:01:23Z</time>
      </trkpt>
      <trkpt lat="46.56473" lon="5.52816">
        <ele>471.8</ele>
        <time>2022-06-12T08:01:29Z</time>
      </trkpt>
      <trkpt lat="46.56452" lon="5.52829">
        <ele>471.8</ele>
        <time>2022-06-12T08:01:32Z</time>
      </trkpt>
      <trkpt lat="46.56437" lon="5.52832">
        <ele>471.8</ele>
        <time>2022-06-12T08:01:34Z</time>
      </trkpt>
      <trkpt lat="46.56376" lon="5.5283">
        <ele>471.6</ele>
        <time>2022-06-12T08:01:42Z</time>
      </trkpt>
      <trkpt lat="46.56321" lon="5.52829">
        <ele>471.6</ele>
        <time>2022-06-12T08:01:50Z</time>
      </trkpt>
      <trkpt lat="46.563" lon="5.52829">
        <ele>472</ele>
        <time>2022-06-12T08:01:53Z</time>
      </trkpt>
      <trkpt lat="46.56245" lon="5.52828">
        <ele>472</ele>
        <time>2022-06-12T08:02:01Z</time>
      </trkpt>
      <trkpt lat="46.56186" lon="5.52828">
        <ele>473</ele>
        <time>2022-06-12T08:02:10Z</time>
      </trkpt>
      <trkpt lat="46.56136" lon="5.52826">
        <ele>473.4</ele>
        <time>2022-06-12T08:02:18Z</time>
      </trkpt>
      <trkpt lat="46.56088" lon="5.52826">
        <ele>474.6</ele>
        <time>2022-06-12T08:02:26Z</time>
      </trkpt>
      <trkpt lat="46.56076" lon="5.52826">
        <ele>474.8</ele>
        <time>2022-06-12T08:02:28Z</time>
      </trkpt>
      <trkpt lat="46.56021" lon="5.52826">
        <ele>475.2</ele>
        <time>2022-06-12T08:02:37Z</time>
      </trkpt>
      <trkpt lat="46.56008" lon="5.52826">
        <ele>475.2</ele>
        <time>2022-06-12T08:02:39Z</time>
      </trkpt>
      <trkpt lat="46.55949" lon="5.52826">
        <ele>474.8</ele>
        <time>2022-06-12T08:02:47Z</time>
      </trkpt>
      <trkpt lat="46.55942" lon="5.52826">
        <ele>474.6</ele>
        <time>2022-06-12T08:02:48Z</time>
      </trkpt>
      <trkpt lat="46.55882" lon="5.52826">
        <ele>474.4</ele>
        <time>2022-06-12T08:02:57Z</time>
      </trkpt>
      <trkpt lat="46.55841" lon="5.52825">
        <ele>475</ele>
        <time>2022-06-12T08:03:04Z</time>
      </trkpt>
      <trkpt lat="46.55805" lon="5.52825">
        <ele>475.6</ele>
        <time>2022-06-12T08:03:10Z</time>
      </trkpt>
      <trkpt lat="46.55752" lon="5.52825">
        <ele>476.6</ele>
        <time>2022-06-12T08:03:18Z</time>
      </trkpt>
      <trkpt lat="46.55698" lon="5.52823">
        <ele>476.4</ele>
        <time>2022-06-12T08:03:26Z</time>
      </trkpt>
      <trkpt lat="46.55692" lon="5.52823">
        <ele>476.4</ele>
        <time>2022-06-12T08:03:27Z</time>
      </trkpt>
      <trkpt lat="46.5565" lon="5.52822">
        <ele>476.6</ele>
        <time>2022-06-12T08:03:34Z</time>
      </trkpt>
      <trkpt lat="46.55644" lon="5.52822">
        <ele>476.8</ele>
        <time>2022-06-12T08:03:35Z</time>
      </trkpt>
      <trkpt lat="46.55607" lon="5.52816">
        <ele>477</ele>
        <time>2022-06-12T08:03:41Z</time>
      </trkpt>
      <trkpt lat="46.55584" lon="5.52801">
        <ele>477.2</ele>
        <time>2022-06-12T08:03:45Z</time>
      </trkpt>
      <trkpt lat="46.55579" lon="5.52796">
        <ele>477.2</ele>
        <time>2022-06-12T08:03:46Z</time>
      </trkpt>
      <trkpt lat="46.55552" lon="5.52767">
        <ele>477.4</ele>
        <time>2022-06-12T08:03:52Z</time>
      </trkpt>
      <trkpt lat="46.55541" lon="5.52761">
        <ele>477.6</ele>
        <time>2022-06-12T08:03:54Z</time>
      </trkpt>
      <trkpt lat="46.55528" lon="5.52756">
        <ele>478</ele>
        <time>2022-06-12T08:03:56Z</time>
      </trkpt>
      <trkpt lat="46.55522" lon="5.52754">
        <ele>478.2</ele>
        <time>2022-06-12T08:03:57Z</time>
      </trkpt>
      <trkpt lat="46.5548" lon="5.52753">
        <ele>479</ele>
        <time>2022-06-12T08:04:04Z</time>
      </trkpt>
      <trkpt lat="46.55474" lon="5.52753">
        <ele>479</ele>
        <time>2022-06-12T08:04:05Z</time>
      </trkpt>
      <trkpt lat="46.55463" lon="5.52755">
        <ele>479.2</ele>
        <time>2022-06-12T08:04:07Z</time>
      </trkpt>
      <trkpt lat="46.55445" lon="5.5276">
        <ele>479.4</ele>
        <time>2022-06-12T08:04:10Z</time>
      </trkpt>
      <trkpt lat="46.55404" lon="5.5276">
        <ele>479.2</ele>
        <time>2022-06-12T08:04:16Z</time>
      </trkpt>
      <trkpt lat="46.55348" lon="5.52744">
        <ele>477.8</ele>
        <time>2022-06-12T08:04:23Z</time>
      </trkpt>
      <trkpt lat="46.553" lon="5.52725">
        <ele>476.8</ele>
        <time>2022-06-12T08:04:29Z</time>
      </trkpt>
      <trkpt lat="46.55286" lon="5.52718">
        <ele>476.6</ele>
        <time>2022-06-12T08:04:31Z</time>
      </trkpt>
      <trkpt lat="46.55237" lon="5.52694">
        <ele>476.4</ele>
        <time>2022-06-12T08:04:38Z</time>
      </trkpt>
      <trkpt lat="46.55182" lon="5.52667">
        <ele>476.6</ele>
        <time>2022-06-12T08:04:47Z</time>
      </trkpt>
      <trkpt lat="46.55137" lon="5.52635">
        <ele>476.8</ele>
        <time>2022-06-12T08:04:55Z</time>
      </trkpt>
      <trkpt lat="46.5511" lon="5.52619">
        <ele>477</ele>
        <time>2022-06-12T08:05:00Z</time>
      </trkpt>
      <trkpt lat="46.55105" lon="5.52617">
        <ele>477</ele>
        <time>2022-06-12T08:05:01Z</time>
      </trkpt>
      <trkpt lat="46.55101" lon="5.52618">
        <ele>477</ele>
        <time>2022-06-12T08:05:02Z</time>
      </trkpt>
      <trkpt lat="46.55096" lon="5.52622">
        <ele>477</ele>
        <time>2022-06-12T08:05:03Z</time>
      </trkpt>
      <trkpt lat="46.55094" lon="5.52629">
        <ele>477</ele>
        <time>2022-06-12T08:05:04Z</time>
      </trkpt>
      <trkpt lat="46.55086" lon="5.52653">
        <ele>477.2</ele>
        <time>2022-06-12T08:05:07Z</time>
      </trkpt>
      <trkpt lat="46.55057" lon="5.52728">
        <ele>477</ele>
        <time>2022-06-12T08:05:15Z</time>
      </trkpt>
      <trkpt lat="46.55053" lon="5.52738">
        <ele>477</ele>
        <time>2022-06-12T08:05:16Z</time>
      </trkpt>
      <trkpt lat="46.55021" lon="5.52798">
        <ele>477.4</ele>
        <time>2022-06-12T08:05:24Z</time>
      </trkpt>
      <trkpt lat="46.54982" lon="5.52851">
        <ele>477.6</ele>
        <time>2022-06-12T08:05:32Z</time>
      </trkpt>
      <trkpt lat="46.5496" lon="5.52899">
        <ele>477.6</ele>
        <time>2022-06-12T08:05:38Z</time>
      </trkpt>
      <trkpt lat="46.54947" lon="5.52956">
        <ele>478.2</ele>
        <time>2022-06-12T08:05:45Z</time>
      </trkpt>
      <trkpt lat="46.54936" lon="5.52999">
        <ele>478.8</ele>
        <time>2022-06-12T08:05:51Z</time>
      </trkpt>
      <trkpt lat="46.54931" lon="5.53012">
        <ele>479.2</ele>
        <time>2022-06-12T08:05:53Z</time>
      </trkpt>
      <trkpt lat="46.54921" lon="5.53035">
        <ele>479.8</ele>
        <time>2022-06-12T08:05:57Z</time>
      </trkpt>
      <trkpt lat="46.54918" lon="5.53042">
        <ele>480</ele>
        <time>2022-06-12T08:05:58Z</time>
      </trkpt>
      <trkpt lat="46.54904" lon="5.5307">
        <ele>481</ele>
        <time>2022-06-12T08:06:03Z</time>
      </trkpt>
      <trkpt lat="46.549" lon="5.5308">
        <ele>481.6</ele>
        <time>2022-06-12T08:06:05Z</time>
      </trkpt>
      <trkpt lat="46.54889" lon="5.53101">
        <ele>482.4</ele>
        <time>2022-06-12T08:06:09Z</time>
      </trkpt>
      <trkpt lat="46.54878" lon="5.53121">
        <ele>483.2</ele>
        <time>2022-06-12T08:06:13Z</time>
      </trkpt>
      <trkpt lat="46.54875" lon="5.53126">
        <ele>483.4</ele>
        <time>2022-06-12T08:06:14Z</time>
      </trkpt>
      <trkpt lat="46.54868" lon="5.53134">
        <ele>484</ele>
        <time>2022-06-12T08:06:16Z</time>
      </trkpt>
      <trkpt lat="46.5486" lon="5.53141">
        <ele>484.4</ele>
        <time>2022-06-12T08:06:18Z</time>
      </trkpt>
      <trkpt lat="46.54852" lon="5.53147">
        <ele>485</ele>
        <time>2022-06-12T08:06:20Z</time>
      </trkpt>
      <trkpt lat="46.54839" lon="5.53155">
        <ele>485.4</ele>
        <time>2022-06-12T08:06:23Z</time>
      </trkpt>
      <trkpt lat="46.54817" lon="5.53165">
        <ele>486.2</ele>
        <time>2022-06-12T08:06:28Z</time>
      </trkpt>
      <trkpt lat="46.54807" lon="5.53164">
        <ele>486.4</ele>
        <time>2022-06-12T08:06:30Z</time>
      </trkpt>
      <trkpt lat="46.54798" lon="5.5316">
        <ele>486.4</ele>
        <time>2022-06-12T08:06:32Z</time>
      </trkpt>
      <trkpt lat="46.54784" lon="5.53149">
        <ele>487</ele>
        <time>2022-06-12T08:06:35Z</time>
      </trkpt>
      <trkpt lat="46.5477" lon="5.53146">
        <ele>487.4</ele>
        <time>2022-06-12T08:06:38Z</time>
      </trkpt>
      <trkpt lat="46.54747" lon="5.53142">
        <ele>487.4</ele>
        <time>2022-06-12T08:06:42Z</time>
      </trkpt>
      <trkpt lat="46.54729" lon="5.53137">
        <ele>487.4</ele>
        <time>2022-06-12T08:06:45Z</time>
      </trkpt>
      <trkpt lat="46.54697" lon="5.53122">
        <ele>487.4</ele>
        <time>2022-06-12T08:06:50Z</time>
      </trkpt>
      <trkpt lat="46.54644" lon="5.53091">
        <ele>487</ele>
        <time>2022-06-12T08:06:58Z</time>
      </trkpt>
      <trkpt lat="46.54632" lon="5.53084">
        <ele>486.8</ele>
        <time>2022-06-12T08:07:00Z</time>
      </trkpt>
      <trkpt lat="46.54578" lon="5.53052">
        <ele>486.6</ele>
        <time>2022-06-12T08:07:09Z</time>
      </trkpt>
      <trkpt lat="46.54571" lon="5.53048">
        <ele>486.6</ele>
        <time>2022-06-12T08:07:10Z</time>
      </trkpt>
      <trkpt lat="46.54551" lon="5.53033">
        <ele>487.2</ele>
        <time>2022-06-12T08:07:14Z</time>
      </trkpt>
      <trkpt lat="46.54541" lon="5.53021">
        <ele>487.4</ele>
        <time>2022-06-12T08:07:16Z</time>
      </trkpt>
      <trkpt lat="46.54512" lon="5.52979">
        <ele>488.2</ele>
        <time>2022-06-12T08:07:23Z</time>
      </trkpt>
      <trkpt lat="46.54498" lon="5.52967">
        <ele>488.8</ele>
        <time>2022-06-12T08:07:26Z</time>
      </trkpt>
      <trkpt lat="46.54495" lon="5.52965">
        <ele>489.2</ele>
        <time>2022-06-12T08:07:27Z</time>
      </trkpt>
      <trkpt lat="46.54489" lon="5.52962">
        <ele>489.2</ele>
        <time>2022-06-12T08:07:28Z</time>
      </trkpt>
      <trkpt lat="46.54474" lon="5.52956">
        <ele>490</ele>
        <time>2022-06-12T08:07:31Z</time>
      </trkpt>
      <trkpt lat="46.54449" lon="5.52945">
        <ele>490.4</ele>
        <time>2022-06-12T08:07:35Z</time>
      </trkpt>
      <trkpt lat="46.54416" lon="5.52931">
        <ele>490</ele>
        <time>2022-06-12T08:07:40Z</time>
      </trkpt>
      <trkpt lat="46.5436" lon="5.52915">
        <ele>489.4</ele>
        <time>2022-06-12T08:07:48Z</time>
      </trkpt>
      <trkpt lat="46.54313" lon="5.52908">
        <ele>488.6</ele>
        <time>2022-06-12T08:07:54Z</time>
      </trkpt>
      <trkpt lat="46.54294" lon="5.52906">
        <ele>487.6</ele>
        <time>2022-06-12T08:07:56Z</time>
      </trkpt>
      <trkpt lat="46.54267" lon="5.52908">
        <ele>486.4</ele>
        <time>2022-06-12T08:07:59Z</time>
      </trkpt>
      <trkpt lat="46.5424" lon="5.52917">
        <ele>486.2</ele>
        <time>2022-06-12T08:08:02Z</time>
      </trkpt>
      <trkpt lat="46.54232" lon="5.52924">
        <ele>486</ele>
        <time>2022-06-12T08:08:03Z</time>
      </trkpt>
      <trkpt lat="46.54224" lon="5.52933">
        <ele>485.6</ele>
        <time>2022-06-12T08:08:04Z</time>
      </trkpt>
      <trkpt lat="46.54218" lon="5.52944">
        <ele>485</ele>
        <time>2022-06-12T08:08:05Z</time>
      </trkpt>
      <trkpt lat="46.54214" lon="5.52956">
        <ele>484</ele>
        <time>2022-06-12T08:08:06Z</time>
      </trkpt>
      <trkpt lat="46.54212" lon="5.52969">
        <ele>483.6</ele>
        <time>2022-06-12T08:08:07Z</time>
      </trkpt>
      <trkpt lat="46.5421" lon="5.52982">
        <ele>483</ele>
        <time>2022-06-12T08:08:08Z</time>
      </trkpt>
      <trkpt lat="46.5421" lon="5.52994">
        <ele>482.8</ele>
        <time>2022-06-12T08:08:09Z</time>
      </trkpt>
      <trkpt lat="46.54207" lon="5.5304">
        <ele>482.6</ele>
        <time>2022-06-12T08:08:13Z</time>
      </trkpt>
      <trkpt lat="46.54206" lon="5.53061">
        <ele>482.6</ele>
        <time>2022-06-12T08:08:15Z</time>
      </trkpt>
      <trkpt lat="46.54201" lon="5.53103">
        <ele>484</ele>
        <time>2022-06-12T08:08:20Z</time>
      </trkpt>
      <trkpt lat="46.54199" lon="5.53111">
        <ele>484.2</ele>
        <time>2022-06-12T08:08:21Z</time>
      </trkpt>
      <trkpt lat="46.54193" lon="5.53132">
        <ele>485.2</ele>
        <time>2022-06-12T08:08:24Z</time>
      </trkpt>
      <trkpt lat="46.54186" lon="5.53152">
        <ele>486.2</ele>
        <time>2022-06-12T08:08:27Z</time>
      </trkpt>
      <trkpt lat="46.54183" lon="5.53159">
        <ele>486.4</ele>
        <time>2022-06-12T08:08:28Z</time>
      </trkpt>
      <trkpt lat="46.54177" lon="5.53179">
        <ele>487.2</ele>
        <time>2022-06-12T08:08:31Z</time>
      </trkpt>
      <trkpt lat="46.54175" lon="5.53186">
        <ele>487.4</ele>
        <time>2022-06-12T08:08:32Z</time>
      </trkpt>
      <trkpt lat="46.54167" lon="5.53204">
        <ele>488.4</ele>
        <time>2022-06-12T08:08:35Z</time>
      </trkpt>
      <trkpt lat="46.54164" lon="5.53211">
        <ele>488.6</ele>
        <time>2022-06-12T08:08:36Z</time>
      </trkpt>
      <trkpt lat="46.54151" lon="5.53237">
        <ele>489.4</ele>
        <time>2022-06-12T08:08:40Z</time>
      </trkpt>
      <trkpt lat="46.54143" lon="5.53257">
        <ele>490.4</ele>
        <time>2022-06-12T08:08:43Z</time>
      </trkpt>
      <trkpt lat="46.54124" lon="5.53317">
        <ele>491.2</ele>
        <time>2022-06-12T08:08:52Z</time>
      </trkpt>
      <trkpt lat="46.54121" lon="5.53323">
        <ele>491.4</ele>
        <time>2022-06-12T08:08:53Z</time>
      </trkpt>
      <trkpt lat="46.54112" lon="5.5333">
        <ele>492</ele>
        <time>2022-06-12T08:08:55Z</time>
      </trkpt>
      <trkpt lat="46.54103" lon="5.53332">
        <ele>492.4</ele>
        <time>2022-06-12T08:08:57Z</time>
      </trkpt>
      <trkpt lat="46.54098" lon="5.53332">
        <ele>492.4</ele>
        <time>2022-06-12T08:08:58Z</time>
      </trkpt>
      <trkpt lat="46.54092" lon="5.53331">
        <ele>492.6</ele>
        <time>2022-06-12T08:08:59Z</time>
      </trkpt>
      <trkpt lat="46.54062" lon="5.53327">
        <ele>493</ele>
        <time>2022-06-12T08:09:04Z</time>
      </trkpt>
      <trkpt lat="46.54042" lon="5.53329">
        <ele>493</ele>
        <time>2022-06-12T08:09:07Z</time>
      </trkpt>
      <trkpt lat="46.5403" lon="5.53332">
        <ele>493</ele>
        <time>2022-06-12T08:09:09Z</time>
      </trkpt>
      <trkpt lat="46.54004" lon="5.53349">
        <ele>493.6</ele>
        <time>2022-06-12T08:09:14Z</time>
      </trkpt>
      <trkpt lat="46.53985" lon="5.53371">
        <ele>494.4</ele>
        <time>2022-06-12T08:09:19Z</time>
      </trkpt>
      <trkpt lat="46.53982" lon="5.53376">
        <ele>494.4</ele>
        <time>2022-06-12T08:09:20Z</time>
      </trkpt>
      <trkpt lat="46.53976" lon="5.53387">
        <ele>494.8</ele>
        <time>2022-06-12T08:09:22Z</time>
      </trkpt>
      <trkpt lat="46.53965" lon="5.53407">
        <ele>495.8</ele>
        <time>2022-06-12T08:09:26Z</time>
      </trkpt>
      <trkpt lat="46.53953" lon="5.53428">
        <ele>496.2</ele>
        <time>2022-06-12T08:09:30Z</time>
      </trkpt>
      <trkpt lat="46.53944" lon="5.53436">
        <ele>496.6</ele>
        <time>2022-06-12T08:09:32Z</time>
      </trkpt>
      <trkpt lat="46.53939" lon="5.5344">
        <ele>496.8</ele>
        <time>2022-06-12T08:09:33Z</time>
      </trkpt>
      <trkpt lat="46.53914" lon="5.53453">
        <ele>497.4</ele>
        <time>2022-06-12T08:09:38Z</time>
      </trkpt>
      <trkpt lat="46.53885" lon="5.53465">
        <ele>497.6</ele>
        <time>2022-06-12T08:09:43Z</time>
      </trkpt>
      <trkpt lat="46.53878" lon="5.53465">
        <ele>497.6</ele>
        <time>2022-06-12T08:09:44Z</time>
      </trkpt>
      <trkpt lat="46.53839" lon="5.53459">
        <ele>496.8</ele>
        <time>2022-06-12T08:09:49Z</time>
      </trkpt>
      <trkpt lat="46.53798" lon="5.53454">
        <ele>495.4</ele>
        <time>2022-06-12T08:09:54Z</time>
      </trkpt>
      <trkpt lat="46.53782" lon="5.53454">
        <ele>495.2</ele>
        <time>2022-06-12T08:09:56Z</time>
      </trkpt>
      <trkpt lat="46.53738" lon="5.53457">
        <ele>494.8</ele>
        <time>2022-06-12T08:10:02Z</time>
      </trkpt>
      <trkpt lat="46.53686" lon="5.53459">
        <ele>494.6</ele>
        <time>2022-06-12T08:10:09Z</time>
      </trkpt>
      <trkpt lat="46.53678" lon="5.53461">
        <ele>494.6</ele>
        <time>2022-06-12T08:10:10Z</time>
      </trkpt>
      <trkpt lat="46.5365" lon="5.53471">
        <ele>494.8</ele>
        <time>2022-06-12T08:10:14Z</time>
      </trkpt>
      <trkpt lat="46.53604" lon="5.53475">
        <ele>494.8</ele>
        <time>2022-06-12T08:10:20Z</time>
      </trkpt>
      <trkpt lat="46.53568" lon="5.53466">
        <ele>494.2</ele>
        <time>2022-06-12T08:10:24Z</time>
      </trkpt>
      <trkpt lat="46.5353" lon="5.53453">
        <ele>492.8</ele>
        <time>2022-06-12T08:10:28Z</time>
      </trkpt>
      <trkpt lat="46.53512" lon="5.53447">
        <ele>491.6</ele>
        <time>2022-06-12T08:10:30Z</time>
      </trkpt>
      <trkpt lat="46.53503" lon="5.53444">
        <ele>491.4</ele>
        <time>2022-06-12T08:10:31Z</time>
      </trkpt>
      <trkpt lat="46.53467" lon="5.53437">
        <ele>490.6</ele>
        <time>2022-06-12T08:10:35Z</time>
      </trkpt>
      <trkpt lat="46.53458" lon="5.53438">
        <ele>490.6</ele>
        <time>2022-06-12T08:10:36Z</time>
      </trkpt>
      <trkpt lat="46.53427" lon="5.53447">
        <ele>490.2</ele>
        <time>2022-06-12T08:10:40Z</time>
      </trkpt>
      <trkpt lat="46.53392" lon="5.5345">
        <ele>490.6</ele>
        <time>2022-06-12T08:10:45Z</time>
      </trkpt>
      <trkpt lat="46.53346" lon="5.5344">
        <ele>491.4</ele>
        <time>2022-06-12T08:10:52Z</time>
      </trkpt>
      <trkpt lat="46.53339" lon="5.53438">
        <ele>491.6</ele>
        <time>2022-06-12T08:10:53Z</time>
      </trkpt>
      <trkpt lat="46.53287" lon="5.53424">
        <ele>492.2</ele>
        <time>2022-06-12T08:11:00Z</time>
      </trkpt>
      <trkpt lat="46.53233" lon="5.53411">
        <ele>491.8</ele>
        <time>2022-06-12T08:11:07Z</time>
      </trkpt>
      <trkpt lat="46.53226" lon="5.5341">
        <ele>491.8</ele>
        <time>2022-06-12T08:11:08Z</time>
      </trkpt>
      <trkpt lat="46.53193" lon="5.53411">
        <ele>491.8</ele>
        <time>2022-06-12T08:11:13Z</time>
      </trkpt>
      <trkpt lat="46.5314" lon="5.53417">
        <ele>491.8</ele>
        <time>2022-06-12T08:11:20Z</time>
      </trkpt>
      <trkpt lat="46.53093" lon="5.53424">
        <ele>491.4</ele>
        <time>2022-06-12T08:11:26Z</time>
      </trkpt>
      <trkpt lat="46.5304" lon="5.53435">
        <ele>490.6</ele>
        <time>2022-06-12T08:11:33Z</time>
      </trkpt>
      <trkpt lat="46.5299" lon="5.53445">
        <ele>490.8</ele>
        <time>2022-06-12T08:11:40Z</time>
      </trkpt>
      <trkpt lat="46.52947" lon="5.53438">
        <ele>491.2</ele>
        <time>2022-06-12T08:11:46Z</time>
      </trkpt>
      <trkpt lat="46.52915" lon="5.53432">
        <ele>490.4</ele>
        <time>2022-06-12T08:11:50Z</time>
      </trkpt>
      <trkpt lat="46.52885" lon="5.53427">
        <ele>490.2</ele>
        <time>2022-06-12T08:11:54Z</time>
      </trkpt>
      <trkpt lat="46.52836" lon="5.53418">
        <ele>490.4</ele>
        <time>2022-06-12T08:12:01Z</time>
      </trkpt>
      <trkpt lat="46.52791" lon="5.53404">
        <ele>490.2</ele>
        <time>2022-06-12T08:12:07Z</time>
      </trkpt>
      <trkpt lat="46.52756" lon="5.5339">
        <ele>489.2</ele>
        <time>2022-06-12T08:12:11Z</time>
      </trkpt>
      <trkpt lat="46.5273" lon="5.53378">
        <ele>488.6</ele>
        <time>2022-06-12T08:12:14Z</time>
      </trkpt>
      <trkpt lat="46.52712" lon="5.53369">
        <ele>488</ele>
        <time>2022-06-12T08:12:16Z</time>
      </trkpt>
      <trkpt lat="46.52703" lon="5.53364">
        <ele>488</ele>
        <time>2022-06-12T08:12:17Z</time>
      </trkpt>
      <trkpt lat="46.52689" lon="5.53349">
        <ele>487.2</ele>
        <time>2022-06-12T08:12:19Z</time>
      </trkpt>
      <trkpt lat="46.52683" lon="5.5334">
        <ele>486.8</ele>
        <time>2022-06-12T08:12:20Z</time>
      </trkpt>
      <trkpt lat="46.52667" lon="5.5331">
        <ele>486.4</ele>
        <time>2022-06-12T08:12:23Z</time>
      </trkpt>
      <trkpt lat="46.52634" lon="5.53258">
        <ele>486.2</ele>
        <time>2022-06-12T08:12:29Z</time>
      </trkpt>
      <trkpt lat="46.52601" lon="5.53224">
        <ele>485.8</ele>
        <time>2022-06-12T08:12:34Z</time>
      </trkpt>
      <trkpt lat="46.52586" lon="5.53213">
        <ele>485.4</ele>
        <time>2022-06-12T08:12:36Z</time>
      </trkpt>
      <trkpt lat="46.5257" lon="5.53209">
        <ele>485</ele>
        <time>2022-06-12T08:12:38Z</time>
      </trkpt>
      <trkpt lat="46.52563" lon="5.53208">
        <ele>484.8</ele>
        <time>2022-06-12T08:12:39Z</time>
      </trkpt>
      <trkpt lat="46.52553" lon="5.53208">
        <ele>484.6</ele>
        <time>2022-06-12T08:12:40Z</time>
      </trkpt>
      <trkpt lat="46.52528" lon="5.53211">
        <ele>484.2</ele>
        <time>2022-06-12T08:12:43Z</time>
      </trkpt>
      <trkpt lat="46.52495" lon="5.53211">
        <ele>483.6</ele>
        <time>2022-06-12T08:12:47Z</time>
      </trkpt>
      <trkpt lat="46.5248" lon="5.53209">
        <ele>483</ele>
        <time>2022-06-12T08:12:49Z</time>
      </trkpt>
      <trkpt lat="46.52465" lon="5.53207">
        <ele>482.4</ele>
        <time>2022-06-12T08:12:51Z</time>
      </trkpt>
      <trkpt lat="46.52442" lon="5.53202">
        <ele>482</ele>
        <time>2022-06-12T08:12:54Z</time>
      </trkpt>
      <trkpt lat="46.5241" lon="5.53191">
        <ele>481.2</ele>
        <time>2022-06-12T08:12:58Z</time>
      </trkpt>
      <trkpt lat="46.52401" lon="5.53189">
        <ele>481</ele>
        <time>2022-06-12T08:12:59Z</time>
      </trkpt>
      <trkpt lat="46.52392" lon="5.53188">
        <ele>480.6</ele>
        <time>2022-06-12T08:13:00Z</time>
      </trkpt>
      <trkpt lat="46.52374" lon="5.53188">
        <ele>479.8</ele>
        <time>2022-06-12T08:13:02Z</time>
      </trkpt>
      <trkpt lat="46.52353" lon="5.53189">
        <ele>479</ele>
        <time>2022-06-12T08:13:04Z</time>
      </trkpt>
      <trkpt lat="46.52343" lon="5.53189">
        <ele>478.4</ele>
        <time>2022-06-12T08:13:05Z</time>
      </trkpt>
      <trkpt lat="46.52322" lon="5.53186">
        <ele>477.2</ele>
        <time>2022-06-12T08:13:07Z</time>
      </trkpt>
      <trkpt lat="46.52302" lon="5.53183">
        <ele>475.8</ele>
        <time>2022-06-12T08:13:09Z</time>
      </trkpt>
      <trkpt lat="46.52292" lon="5.5318">
        <ele>474.6</ele>
        <time>2022-06-12T08:13:10Z</time>
      </trkpt>
      <trkpt lat="46.52273" lon="5.53171">
        <ele>473.6</ele>
        <time>2022-06-12T08:13:12Z</time>
      </trkpt>
      <trkpt lat="46.52264" lon="5.53165">
        <ele>473.2</ele>
        <time>2022-06-12T08:13:13Z</time>
      </trkpt>
      <trkpt lat="46.52255" lon="5.5316">
        <ele>472</ele>
        <time>2022-06-12T08:13:14Z</time>
      </trkpt>
      <trkpt lat="46.5223" lon="5.53142">
        <ele>470.6</ele>
        <time>2022-06-12T08:13:17Z</time>
      </trkpt>
      <trkpt lat="46.52206" lon="5.53126">
        <ele>470.2</ele>
        <time>2022-06-12T08:13:20Z</time>
      </trkpt>
      <trkpt lat="46.52182" lon="5.53114">
        <ele>469.8</ele>
        <time>2022-06-12T08:13:23Z</time>
      </trkpt>
      <trkpt lat="46.52174" lon="5.53112">
        <ele>469.8</ele>
        <time>2022-06-12T08:13:24Z</time>
      </trkpt>
      <trkpt lat="46.52166" lon="5.53111">
        <ele>469.6</ele>
        <time>2022-06-12T08:13:25Z</time>
      </trkpt>
      <trkpt lat="46.52158" lon="5.53112">
        <ele>469.6</ele>
        <time>2022-06-12T08:13:26Z</time>
      </trkpt>
      <trkpt lat="46.52142" lon="5.53115">
        <ele>469.6</ele>
        <time>2022-06-12T08:13:28Z</time>
      </trkpt>
      <trkpt lat="46.52088" lon="5.5313">
        <ele>469.6</ele>
        <time>2022-06-12T08:13:35Z</time>
      </trkpt>
      <trkpt lat="46.52058" lon="5.53133">
        <ele>469.6</ele>
        <time>2022-06-12T08:13:39Z</time>
      </trkpt>
      <trkpt lat="46.52051" lon="5.53135">
        <ele>469.6</ele>
        <time>2022-06-12T08:13:40Z</time>
      </trkpt>
      <trkpt lat="46.51996" lon="5.53149">
        <ele>469.2</ele>
        <time>2022-06-12T08:13:47Z</time>
      </trkpt>
      <trkpt lat="46.5198" lon="5.53152">
        <ele>469.2</ele>
        <time>2022-06-12T08:13:49Z</time>
      </trkpt>
      <trkpt lat="46.51931" lon="5.53162">
        <ele>468.6</ele>
        <time>2022-06-12T08:13:55Z</time>
      </trkpt>
      <trkpt lat="46.5189" lon="5.53171">
        <ele>468</ele>
        <time>2022-06-12T08:14:00Z</time>
      </trkpt>
      <trkpt lat="46.51848" lon="5.53182">
        <ele>467.6</ele>
        <time>2022-06-12T08:14:05Z</time>
      </trkpt>
      <trkpt lat="46.51832" lon="5.53187">
        <ele>467.2</ele>
        <time>2022-06-12T08:14:07Z</time>
      </trkpt>
      <trkpt lat="46.51776" lon="5.53203">
        <ele>466.8</ele>
        <time>2022-06-12T08:14:14Z</time>
      </trkpt>
      <trkpt lat="46.51759" lon="5.53208">
        <ele>466.8</ele>
        <time>2022-06-12T08:14:16Z</time>
      </trkpt>
      <trkpt lat="46.5172" lon="5.5322">
        <ele>466.6</ele>
        <time>2022-06-12T08:14:21Z</time>
      </trkpt>
      <trkpt lat="46.51663" lon="5.53238">
        <ele>465.8</ele>
        <time>2022-06-12T08:14:28Z</time>
      </trkpt>
      <trkpt lat="46.51647" lon="5.53243">
        <ele>465.6</ele>
        <time>2022-06-12T08:14:30Z</time>
      </trkpt>
      <trkpt lat="46.5163" lon="5.53247">
        <ele>465.4</ele>
        <time>2022-06-12T08:14:32Z</time>
      </trkpt>
      <trkpt lat="46.51575" lon="5.53265">
        <ele>464.8</ele>
        <time>2022-06-12T08:14:39Z</time>
      </trkpt>
      <trkpt lat="46.51567" lon="5.53267">
        <ele>464.8</ele>
        <time>2022-06-12T08:14:40Z</time>
      </trkpt>
      <trkpt lat="46.51511" lon="5.53285">
        <ele>465</ele>
        <time>2022-06-12T08:14:48Z</time>
      </trkpt>
      <trkpt lat="46.51504" lon="5.53287">
        <ele>465.2</ele>
        <time>2022-06-12T08:14:49Z</time>
      </trkpt>
      <trkpt lat="46.51452" lon="5.53303">
        <ele>466</ele>
        <time>2022-06-12T08:14:57Z</time>
      </trkpt>
      <trkpt lat="46.51401" lon="5.53319">
        <ele>466</ele>
        <time>2022-06-12T08:15:05Z</time>
      </trkpt>
      <trkpt lat="46.51343" lon="5.53336">
        <ele>465.8</ele>
        <time>2022-06-12T08:15:14Z</time>
      </trkpt>
      <trkpt lat="46.51331" lon="5.5334">
        <ele>466</ele>
        <time>2022-06-12T08:15:16Z</time>
      </trkpt>
      <trkpt lat="46.51276" lon="5.53358">
        <ele>466.4</ele>
        <time>2022-06-12T08:15:25Z</time>
      </trkpt>
      <trkpt lat="46.5127" lon="5.5336">
        <ele>466.4</ele>
        <time>2022-06-12T08:15:26Z</time>
      </trkpt>
      <trkpt lat="46.51264" lon="5.53362">
        <ele>466.4</ele>
        <time>2022-06-12T08:15:27Z</time>
      </trkpt>
      <trkpt lat="46.51217" lon="5.53376">
        <ele>466.6</ele>
        <time>2022-06-12T08:15:34Z</time>
      </trkpt>
      <trkpt lat="46.51164" lon="5.53393">
        <ele>466</ele>
        <time>2022-06-12T08:15:41Z</time>
      </trkpt>
      <trkpt lat="46.51148" lon="5.53398">
        <ele>465.6</ele>
        <time>2022-06-12T08:15:43Z</time>
      </trkpt>
      <trkpt lat="46.51133" lon="5.53403">
        <ele>465.4</ele>
        <time>2022-06-12T08:15:45Z</time>
      </trkpt>
      <trkpt lat="46.51073" lon="5.53422">
        <ele>464.8</ele>
        <time>2022-06-12T08:15:53Z</time>
      </trkpt>
      <trkpt lat="46.51021" lon="5.53438">
        <ele>465</ele>
        <time>2022-06-12T08:16:01Z</time>
      </trkpt>
      <trkpt lat="46.50986" lon="5.53449">
        <ele>465.8</ele>
        <time>2022-06-12T08:16:07Z</time>
      </trkpt>
      <trkpt lat="46.50946" lon="5.53461">
        <ele>466.6</ele>
        <time>2022-06-12T08:16:14Z</time>
      </trkpt>
      <trkpt lat="46.5093" lon="5.53465">
        <ele>467</ele>
        <time>2022-06-12T08:16:17Z</time>
      </trkpt>
      <trkpt lat="46.50908" lon="5.53471">
        <ele>467.8</ele>
        <time>2022-06-12T08:16:21Z</time>
      </trkpt>
      <trkpt lat="46.50881" lon="5.5348">
        <ele>468.4</ele>
        <time>2022-06-12T08:16:26Z</time>
      </trkpt>
      <trkpt lat="46.50865" lon="5.53484">
        <ele>469</ele>
        <time>2022-06-12T08:16:29Z</time>
      </trkpt>
      <trkpt lat="46.50848" lon="5.53488">
        <ele>469.6</ele>
        <time>2022-06-12T08:16:32Z</time>
      </trkpt>
      <trkpt lat="46.50837" lon="5.53488">
        <ele>470</ele>
        <time>2022-06-12T08:16:34Z</time>
      </trkpt>
      <trkpt lat="46.50782" lon="5.53491">
        <ele>470.2</ele>
        <time>2022-06-12T08:16:43Z</time>
      </trkpt>
      <trkpt lat="46.50724" lon="5.53494">
        <ele>470</ele>
        <time>2022-06-12T08:16:52Z</time>
      </trkpt>
      <trkpt lat="46.50666" lon="5.53498">
        <ele>470</ele>
        <time>2022-06-12T08:17:01Z</time>
      </trkpt>
      <trkpt lat="46.50659" lon="5.53499">
        <ele>470</ele>
        <time>2022-06-12T08:17:02Z</time>
      </trkpt>
      <trkpt lat="46.50603" lon="5.53511">
        <ele>469.8</ele>
        <time>2022-06-12T08:17:10Z</time>
      </trkpt>
      <trkpt lat="46.50544" lon="5.53526">
        <ele>469.6</ele>
        <time>2022-06-12T08:17:18Z</time>
      </trkpt>
      <trkpt lat="46.5053" lon="5.53529">
        <ele>469.6</ele>
        <time>2022-06-12T08:17:20Z</time>
      </trkpt>
      <trkpt lat="46.50479" lon="5.53533">
        <ele>469.2</ele>
        <time>2022-06-12T08:17:27Z</time>
      </trkpt>
      <trkpt lat="46.50436" lon="5.53518">
        <ele>469.2</ele>
        <time>2022-06-12T08:17:33Z</time>
      </trkpt>
      <trkpt lat="46.50381" lon="5.53501">
        <ele>469.4</ele>
        <time>2022-06-12T08:17:41Z</time>
      </trkpt>
      <trkpt lat="46.50374" lon="5.535">
        <ele>469.4</ele>
        <time>2022-06-12T08:17:42Z</time>
      </trkpt>
      <trkpt lat="46.50319" lon="5.53498">
        <ele>469.4</ele>
        <time>2022-06-12T08:17:50Z</time>
      </trkpt>
      <trkpt lat="46.50312" lon="5.53497">
        <ele>469.4</ele>
        <time>2022-06-12T08:17:51Z</time>
      </trkpt>
      <trkpt lat="46.50251" lon="5.53493">
        <ele>469.4</ele>
        <time>2022-06-12T08:18:00Z</time>
      </trkpt>
      <trkpt lat="46.50233" lon="5.5349">
        <ele>469.4</ele>
        <time>2022-06-12T08:18:03Z</time>
      </trkpt>
      <trkpt lat="46.50208" lon="5.53484">
        <ele>469.4</ele>
        <time>2022-06-12T08:18:07Z</time>
      </trkpt>
      <trkpt lat="46.50189" lon="5.53479">
        <ele>469.4</ele>
        <time>2022-06-12T08:18:10Z</time>
      </trkpt>
      <trkpt lat="46.5017" lon="5.5347">
        <ele>469.6</ele>
        <time>2022-06-12T08:18:13Z</time>
      </trkpt>
      <trkpt lat="46.50119" lon="5.53441">
        <ele>470.6</ele>
        <time>2022-06-12T08:18:22Z</time>
      </trkpt>
      <trkpt lat="46.50109" lon="5.53435">
        <ele>471</ele>
        <time>2022-06-12T08:18:24Z</time>
      </trkpt>
      <trkpt lat="46.50082" lon="5.53421">
        <ele>472.2</ele>
        <time>2022-06-12T08:18:29Z</time>
      </trkpt>
      <trkpt lat="46.50076" lon="5.53419">
        <ele>472.4</ele>
        <time>2022-06-12T08:18:30Z</time>
      </trkpt>
      <trkpt lat="46.50051" lon="5.53403">
        <ele>473.2</ele>
        <time>2022-06-12T08:18:35Z</time>
      </trkpt>
      <trkpt lat="46.50029" lon="5.53392">
        <ele>473.6</ele>
        <time>2022-06-12T08:18:39Z</time>
      </trkpt>
      <trkpt lat="46.50007" lon="5.53381">
        <ele>474</ele>
        <time>2022-06-12T08:18:43Z</time>
      </trkpt>
      <trkpt lat="46.49996" lon="5.53375">
        <ele>474.4</ele>
        <time>2022-06-12T08:18:45Z</time>
      </trkpt>
      <trkpt lat="46.49973" lon="5.53355">
        <ele>475</ele>
        <time>2022-06-12T08:18:50Z</time>
      </trkpt>
      <trkpt lat="46.49958" lon="5.53343">
        <ele>475.6</ele>
        <time>2022-06-12T08:18:53Z</time>
      </trkpt>
      <trkpt lat="46.49941" lon="5.53326">
        <ele>476.2</ele>
        <time>2022-06-12T08:18:57Z</time>
      </trkpt>
      <trkpt lat="46.49926" lon="5.53306">
        <ele>476.8</ele>
        <time>2022-06-12T08:19:01Z</time>
      </trkpt>
      <trkpt lat="46.49908" lon="5.53287">
        <ele>477.2</ele>
        <time>2022-06-12T08:19:05Z</time>
      </trkpt>
      <trkpt lat="46.49894" lon="5.53275">
        <ele>477.8</ele>
        <time>2022-06-12T08:19:08Z</time>
      </trkpt>
      <trkpt lat="46.49889" lon="5.53272">
        <ele>478</ele>
        <time>2022-06-12T08:19:09Z</time>
      </trkpt>
      <trkpt lat="46.49868" lon="5.53261">
        <ele>478.4</ele>
        <time>2022-06-12T08:19:13Z</time>
      </trkpt>
      <trkpt lat="46.49857" lon="5.53255">
        <ele>478.4</ele>
        <time>2022-06-12T08:19:15Z</time>
      </trkpt>
      <trkpt lat="46.49815" lon="5.53235">
        <ele>478.2</ele>
        <time>2022-06-12T08:19:22Z</time>
      </trkpt>
      <trkpt lat="46.49769" lon="5.53222">
        <ele>478.2</ele>
        <time>2022-06-12T08:19:29Z</time>
      </trkpt>
      <trkpt lat="46.49717" lon="5.53206">
        <ele>478.4</ele>
        <time>2022-06-12T08:19:37Z</time>
      </trkpt>
      <trkpt lat="46.49663" lon="5.53182">
        <ele>479</ele>
        <time>2022-06-12T08:19:46Z</time>
      </trkpt>
      <trkpt lat="46.49645" lon="5.53177">
        <ele>479.6</ele>
        <time>2022-06-12T08:19:49Z</time>
      </trkpt>
      <trkpt lat="46.49622" lon="5.5317">
        <ele>480.2</ele>
        <time>2022-06-12T08:19:53Z</time>
      </trkpt>
      <trkpt lat="46.49604" lon="5.53165">
        <ele>480.6</ele>
        <time>2022-06-12T08:19:56Z</time>
      </trkpt>
      <trkpt lat="46.49578" lon="5.53159">
        <ele>480.8</ele>
        <time>2022-06-12T08:20:00Z</time>
      </trkpt>
      <trkpt lat="46.49542" lon="5.53153">
        <ele>480.6</ele>
        <time>2022-06-12T08:20:05Z</time>
      </trkpt>
      <trkpt lat="46.49485" lon="5.53139">
        <ele>480.2</ele>
        <time>2022-06-12T08:20:13Z</time>
      </trkpt>
      <trkpt lat="46.49478" lon="5.53138">
        <ele>480.2</ele>
        <time>2022-06-12T08:20:14Z</time>
      </trkpt>
      <trkpt lat="46.49424" lon="5.53124">
        <ele>480.2</ele>
        <time>2022-06-12T08:20:22Z</time>
      </trkpt>
      <trkpt lat="46.49387" lon="5.53104">
        <ele>480.6</ele>
        <time>2022-06-12T08:20:28Z</time>
      </trkpt>
      <trkpt lat="46.49334" lon="5.53074">
        <ele>480.6</ele>
        <time>2022-06-12T08:20:36Z</time>
      </trkpt>
      <trkpt lat="46.49321" lon="5.53065">
        <ele>480.6</ele>
        <time>2022-06-12T08:20:38Z</time>
      </trkpt>
      <trkpt lat="46.49273" lon="5.53028">
        <ele>481</ele>
        <time>2022-06-12T08:20:46Z</time>
      </trkpt>
      <trkpt lat="46.49227" lon="5.52992">
        <ele>481.6</ele>
        <time>2022-06-12T08:20:54Z</time>
      </trkpt>
      <trkpt lat="46.49215" lon="5.52984">
        <ele>481.8</ele>
        <time>2022-06-12T08:20:56Z</time>
      </trkpt>
      <trkpt lat="46.49161" lon="5.52943">
        <ele>482.2</ele>
        <time>2022-06-12T08:21:05Z</time>
      </trkpt>
      <trkpt lat="46.49149" lon="5.52932">
        <ele>482.4</ele>
        <time>2022-06-12T08:21:07Z</time>
      </trkpt>
      <trkpt lat="46.49109" lon="5.52895">
        <ele>482</ele>
        <time>2022-06-12T08:21:13Z</time>
      </trkpt>
      <trkpt lat="46.49062" lon="5.52852">
        <ele>481.6</ele>
        <time>2022-06-12T08:21:20Z</time>
      </trkpt>
      <trkpt lat="46.49036" lon="5.52827">
        <ele>481.6</ele>
        <time>2022-06-12T08:21:24Z</time>
      </trkpt>
      <trkpt lat="46.48989" lon="5.52783">
        <ele>481.6</ele>
        <time>2022-06-12T08:21:31Z</time>
      </trkpt>
      <trkpt lat="46.48969" lon="5.52766">
        <ele>481.2</ele>
        <time>2022-06-12T08:21:34Z</time>
      </trkpt>
      <trkpt lat="46.48919" lon="5.52723">
        <ele>480.8</ele>
        <time>2022-06-12T08:21:41Z</time>
      </trkpt>
      <trkpt lat="46.48889" lon="5.52699">
        <ele>480.4</ele>
        <time>2022-06-12T08:21:45Z</time>
      </trkpt>
      <trkpt lat="46.48859" lon="5.52668">
        <ele>479.4</ele>
        <time>2022-06-12T08:21:49Z</time>
      </trkpt>
      <trkpt lat="46.48852" lon="5.5266">
        <ele>479</ele>
        <time>2022-06-12T08:21:50Z</time>
      </trkpt>
      <trkpt lat="46.48819" lon="5.52625">
        <ele>478.8</ele>
        <time>2022-06-12T08:21:55Z</time>
      </trkpt>
      <trkpt lat="46.48784" lon="5.52594">
        <ele>479</ele>
        <time>2022-06-12T08:22:01Z</time>
      </trkpt>
      <trkpt lat="46.48751" lon="5.52569">
        <ele>480.2</ele>
        <time>2022-06-12T08:22:07Z</time>
      </trkpt>
      <trkpt lat="46.48739" lon="5.5256">
        <ele>480.8</ele>
        <time>2022-06-12T08:22:09Z</time>
      </trkpt>
      <trkpt lat="46.48717" lon="5.52545">
        <ele>481.4</ele>
        <time>2022-06-12T08:22:13Z</time>
      </trkpt>
      <trkpt lat="46.48698" lon="5.52535">
        <ele>481.8</ele>
        <time>2022-06-12T08:22:16Z</time>
      </trkpt>
      <trkpt lat="46.4866" lon="5.52525">
        <ele>482</ele>
        <time>2022-06-12T08:22:21Z</time>
      </trkpt>
      <trkpt lat="46.486" lon="5.52512">
        <ele>481.2</ele>
        <time>2022-06-12T08:22:29Z</time>
      </trkpt>
      <trkpt lat="46.48542" lon="5.52485">
        <ele>481.2</ele>
        <time>2022-06-12T08:22:37Z</time>
      </trkpt>
      <trkpt lat="46.48485" lon="5.52466">
        <ele>481</ele>
        <time>2022-06-12T08:22:45Z</time>
      </trkpt>
      <trkpt lat="46.48472" lon="5.52461">
        <ele>481.2</ele>
        <time>2022-06-12T08:22:47Z</time>
      </trkpt>
      <trkpt lat="46.48441" lon="5.52449">
        <ele>482</ele>
        <time>2022-06-12T08:22:52Z</time>
      </trkpt>
      <trkpt lat="46.48436" lon="5.52446">
        <ele>482.2</ele>
        <time>2022-06-12T08:22:53Z</time>
      </trkpt>
      <trkpt lat="46.4843" lon="5.52443">
        <ele>482.4</ele>
        <time>2022-06-12T08:22:54Z</time>
      </trkpt>
      <trkpt lat="46.48402" lon="5.52434">
        <ele>483.4</ele>
        <time>2022-06-12T08:22:59Z</time>
      </trkpt>
      <trkpt lat="46.48396" lon="5.52432">
        <ele>483.6</ele>
        <time>2022-06-12T08:23:00Z</time>
      </trkpt>
      <trkpt lat="46.48372" lon="5.52424">
        <ele>484</ele>
        <time>2022-06-12T08:23:04Z</time>
      </trkpt>
      <trkpt lat="46.48327" lon="5.52412">
        <ele>484.2</ele>
        <time>2022-06-12T08:23:11Z</time>
      </trkpt>
      <trkpt lat="46.48281" lon="5.52398">
        <ele>484.2</ele>
        <time>2022-06-12T08:23:18Z</time>
      </trkpt>
      <trkpt lat="46.48241" lon="5.52388">
        <ele>484</ele>
        <time>2022-06-12T08:23:24Z</time>
      </trkpt>
      <trkpt lat="46.48221" lon="5.52383">
        <ele>484</ele>
        <time>2022-06-12T08:23:27Z</time>
      </trkpt>
      <trkpt lat="46.48186" lon="5.52366">
        <ele>484.6</ele>
        <time>2022-06-12T08:23:33Z</time>
      </trkpt>
      <trkpt lat="46.4818" lon="5.52362">
        <ele>484.6</ele>
        <time>2022-06-12T08:23:34Z</time>
      </trkpt>
      <trkpt lat="46.48135" lon="5.52337">
        <ele>485.4</ele>
        <time>2022-06-12T08:23:42Z</time>
      </trkpt>
      <trkpt lat="46.48096" lon="5.52329">
        <ele>485.4</ele>
        <time>2022-06-12T08:23:48Z</time>
      </trkpt>
      <trkpt lat="46.48073" lon="5.52323">
        <ele>484.8</ele>
        <time>2022-06-12T08:23:51Z</time>
      </trkpt>
      <trkpt lat="46.48058" lon="5.52311">
        <ele>484.4</ele>
        <time>2022-06-12T08:23:53Z</time>
      </trkpt>
      <trkpt lat="46.4805" lon="5.52305">
        <ele>484.2</ele>
        <time>2022-06-12T08:23:54Z</time>
      </trkpt>
      <trkpt lat="46.48016" lon="5.52278">
        <ele>482.8</ele>
        <time>2022-06-12T08:23:58Z</time>
      </trkpt>
      <trkpt lat="46.48007" lon="5.52272">
        <ele>482.6</ele>
        <time>2022-06-12T08:23:59Z</time>
      </trkpt>
      <trkpt lat="46.47991" lon="5.5226">
        <ele>481.4</ele>
        <time>2022-06-12T08:24:01Z</time>
      </trkpt>
      <trkpt lat="46.47965" lon="5.52246">
        <ele>480.6</ele>
        <time>2022-06-12T08:24:04Z</time>
      </trkpt>
      <trkpt lat="46.47957" lon="5.52243">
        <ele>480.2</ele>
        <time>2022-06-12T08:24:05Z</time>
      </trkpt>
      <trkpt lat="46.47931" lon="5.52237">
        <ele>480</ele>
        <time>2022-06-12T08:24:08Z</time>
      </trkpt>
      <trkpt lat="46.47923" lon="5.52237">
        <ele>480</ele>
        <time>2022-06-12T08:24:09Z</time>
      </trkpt>
      <trkpt lat="46.47916" lon="5.52239">
        <ele>480</ele>
        <time>2022-06-12T08:24:10Z</time>
      </trkpt>
      <trkpt lat="46.47894" lon="5.5225">
        <ele>480.2</ele>
        <time>2022-06-12T08:24:13Z</time>
      </trkpt>
      <trkpt lat="46.47857" lon="5.52277">
        <ele>480.6</ele>
        <time>2022-06-12T08:24:19Z</time>
      </trkpt>
      <trkpt lat="46.47847" lon="5.5229">
        <ele>480.6</ele>
        <time>2022-06-12T08:24:21Z</time>
      </trkpt>
      <trkpt lat="46.47843" lon="5.52297">
        <ele>480.8</ele>
        <time>2022-06-12T08:24:22Z</time>
      </trkpt>
      <trkpt lat="46.47819" lon="5.5235">
        <ele>481</ele>
        <time>2022-06-12T08:24:28Z</time>
      </trkpt>
      <trkpt lat="46.47815" lon="5.52359">
        <ele>481.2</ele>
        <time>2022-06-12T08:24:29Z</time>
      </trkpt>
      <trkpt lat="46.47807" lon="5.52379">
        <ele>481.4</ele>
        <time>2022-06-12T08:24:31Z</time>
      </trkpt>
      <trkpt lat="46.47787" lon="5.52426">
        <ele>481.4</ele>
        <time>2022-06-12T08:24:36Z</time>
      </trkpt>
      <trkpt lat="46.47764" lon="5.52483">
        <ele>481.2</ele>
        <time>2022-06-12T08:24:42Z</time>
      </trkpt>
      <trkpt lat="46.47754" lon="5.52497">
        <ele>481.2</ele>
        <time>2022-06-12T08:24:44Z</time>
      </trkpt>
      <trkpt lat="46.47742" lon="5.52507">
        <ele>481.2</ele>
        <time>2022-06-12T08:24:46Z</time>
      </trkpt>
      <trkpt lat="46.47712" lon="5.52522">
        <ele>481</ele>
        <time>2022-06-12T08:24:51Z</time>
      </trkpt>
      <trkpt lat="46.47661" lon="5.52545">
        <ele>481.4</ele>
        <time>2022-06-12T08:24:59Z</time>
      </trkpt>
      <trkpt lat="46.47618" lon="5.52551">
        <ele>481</ele>
        <time>2022-06-12T08:25:05Z</time>
      </trkpt>
      <trkpt lat="46.47592" lon="5.52556">
        <ele>480</ele>
        <time>2022-06-12T08:25:08Z</time>
      </trkpt>
      <trkpt lat="46.47583" lon="5.5256">
        <ele>480</ele>
        <time>2022-06-12T08:25:09Z</time>
      </trkpt>
      <trkpt lat="46.47559" lon="5.52577">
        <ele>478.6</ele>
        <time>2022-06-12T08:25:12Z</time>
      </trkpt>
      <trkpt lat="46.47533" lon="5.52595">
        <ele>476.8</ele>
        <time>2022-06-12T08:25:15Z</time>
      </trkpt>
      <trkpt lat="46.47524" lon="5.526">
        <ele>476.4</ele>
        <time>2022-06-12T08:25:16Z</time>
      </trkpt>
      <trkpt lat="46.47504" lon="5.52606">
        <ele>475.2</ele>
        <time>2022-06-12T08:25:18Z</time>
      </trkpt>
      <trkpt lat="46.47495" lon="5.52609">
        <ele>474.6</ele>
        <time>2022-06-12T08:25:19Z</time>
      </trkpt>
      <trkpt lat="46.47485" lon="5.52613">
        <ele>474.2</ele>
        <time>2022-06-12T08:25:20Z</time>
      </trkpt>
      <trkpt lat="46.47446" lon="5.5263">
        <ele>473.2</ele>
        <time>2022-06-12T08:25:24Z</time>
      </trkpt>
      <trkpt lat="46.47437" lon="5.52635">
        <ele>473</ele>
        <time>2022-06-12T08:25:25Z</time>
      </trkpt>
      <trkpt lat="46.47427" lon="5.52641">
        <ele>472.2</ele>
        <time>2022-06-12T08:25:26Z</time>
      </trkpt>
      <trkpt lat="46.47417" lon="5.52647">
        <ele>471.6</ele>
        <time>2022-06-12T08:25:27Z</time>
      </trkpt>
      <trkpt lat="46.47398" lon="5.52659">
        <ele>470.4</ele>
        <time>2022-06-12T08:25:29Z</time>
      </trkpt>
      <trkpt lat="46.47378" lon="5.5267">
        <ele>468.8</ele>
        <time>2022-06-12T08:25:31Z</time>
      </trkpt>
      <trkpt lat="46.47358" lon="5.5268">
        <ele>467.8</ele>
        <time>2022-06-12T08:25:33Z</time>
      </trkpt>
      <trkpt lat="46.47348" lon="5.52685">
        <ele>466.8</ele>
        <time>2022-06-12T08:25:34Z</time>
      </trkpt>
      <trkpt lat="46.47339" lon="5.52689">
        <ele>466.6</ele>
        <time>2022-06-12T08:25:35Z</time>
      </trkpt>
      <trkpt lat="46.47308" lon="5.52702">
        <ele>465.2</ele>
        <time>2022-06-12T08:25:38Z</time>
      </trkpt>
      <trkpt lat="46.47276" lon="5.52716">
        <ele>464</ele>
        <time>2022-06-12T08:25:41Z</time>
      </trkpt>
      <trkpt lat="46.47254" lon="5.52726">
        <ele>462.8</ele>
        <time>2022-06-12T08:25:43Z</time>
      </trkpt>
      <trkpt lat="46.47222" lon="5.52746">
        <ele>461.4</ele>
        <time>2022-06-12T08:25:46Z</time>
      </trkpt>
      <trkpt lat="46.47202" lon="5.52763">
        <ele>460</ele>
        <time>2022-06-12T08:25:48Z</time>
      </trkpt>
      <trkpt lat="46.4717" lon="5.52788">
        <ele>458.8</ele>
        <time>2022-06-12T08:25:51Z</time>
      </trkpt>
      <trkpt lat="46.47149" lon="5.52805">
        <ele>457.8</ele>
        <time>2022-06-12T08:25:53Z</time>
      </trkpt>
      <trkpt lat="46.47128" lon="5.52822">
        <ele>456.2</ele>
        <time>2022-06-12T08:25:55Z</time>
      </trkpt>
      <trkpt lat="46.47107" lon="5.52839">
        <ele>454.6</ele>
        <time>2022-06-12T08:25:57Z</time>
      </trkpt>
      <trkpt lat="46.47087" lon="5.52858">
        <ele>453.4</ele>
        <time>2022-06-12T08:25:59Z</time>
      </trkpt>
      <trkpt lat="46.47077" lon="5.52869">
        <ele>453</ele>
        <time>2022-06-12T08:26:00Z</time>
      </trkpt>
      <trkpt lat="46.47067" lon="5.52879">
        <ele>452.2</ele>
        <time>2022-06-12T08:26:01Z</time>
      </trkpt>
      <trkpt lat="46.47047" lon="5.52904">
        <ele>451</ele>
        <time>2022-06-12T08:26:03Z</time>
      </trkpt>
      <trkpt lat="46.47029" lon="5.52927">
        <ele>450</ele>
        <time>2022-06-12T08:26:05Z</time>
      </trkpt>
      <trkpt lat="46.47021" lon="5.52939">
        <ele>449.2</ele>
        <time>2022-06-12T08:26:06Z</time>
      </trkpt>
      <trkpt lat="46.47004" lon="5.52965">
        <ele>448</ele>
        <time>2022-06-12T08:26:08Z</time>
      </trkpt>
      <trkpt lat="46.46988" lon="5.52991">
        <ele>446.6</ele>
        <time>2022-06-12T08:26:10Z</time>
      </trkpt>
      <trkpt lat="46.46972" lon="5.53016">
        <ele>445.4</ele>
        <time>2022-06-12T08:26:12Z</time>
      </trkpt>
      <trkpt lat="46.46964" lon="5.53029">
        <ele>444.4</ele>
        <time>2022-06-12T08:26:13Z</time>
      </trkpt>
      <trkpt lat="46.46946" lon="5.53053">
        <ele>443.4</ele>
        <time>2022-06-12T08:26:15Z</time>
      </trkpt>
      <trkpt lat="46.46927" lon="5.53077">
        <ele>442.2</ele>
        <time>2022-06-12T08:26:17Z</time>
      </trkpt>
      <trkpt lat="46.46919" lon="5.53086">
        <ele>441.4</ele>
        <time>2022-06-12T08:26:18Z</time>
      </trkpt>
      <trkpt lat="46.4691" lon="5.53098">
        <ele>441</ele>
        <time>2022-06-12T08:26:19Z</time>
      </trkpt>
      <trkpt lat="46.46901" lon="5.53113">
        <ele>440.2</ele>
        <time>2022-06-12T08:26:20Z</time>
      </trkpt>
      <trkpt lat="46.46894" lon="5.53127">
        <ele>439.6</ele>
        <time>2022-06-12T08:26:21Z</time>
      </trkpt>
      <trkpt lat="46.46887" lon="5.53141">
        <ele>438.8</ele>
        <time>2022-06-12T08:26:22Z</time>
      </trkpt>
      <trkpt lat="46.46882" lon="5.53153">
        <ele>437.8</ele>
        <time>2022-06-12T08:26:23Z</time>
      </trkpt>
      <trkpt lat="46.46867" lon="5.53184">
        <ele>436.4</ele>
        <time>2022-06-12T08:26:25Z</time>
      </trkpt>
      <trkpt lat="46.46853" lon="5.53208">
        <ele>435</ele>
        <time>2022-06-12T08:26:27Z</time>
      </trkpt>
      <trkpt lat="46.46837" lon="5.53237">
        <ele>433.8</ele>
        <time>2022-06-12T08:26:29Z</time>
      </trkpt>
      <trkpt lat="46.46834" lon="5.53248">
        <ele>433</ele>
        <time>2022-06-12T08:26:30Z</time>
      </trkpt>
      <trkpt lat="46.4683" lon="5.53261">
        <ele>432.6</ele>
        <time>2022-06-12T08:26:31Z</time>
      </trkpt>
      <trkpt lat="46.46824" lon="5.53283">
        <ele>431.2</ele>
        <time>2022-06-12T08:26:33Z</time>
      </trkpt>
      <trkpt lat="46.4681" lon="5.53296">
        <ele>430.2</ele>
        <time>2022-06-12T08:26:35Z</time>
      </trkpt>
      <trkpt lat="46.46801" lon="5.53288">
        <ele>429.2</ele>
        <time>2022-06-12T08:26:37Z</time>
      </trkpt>
      <trkpt lat="46.46798" lon="5.53282">
        <ele>428.8</ele>
        <time>2022-06-12T08:26:38Z</time>
      </trkpt>
      <trkpt lat="46.46795" lon="5.53266">
        <ele>428</ele>
        <time>2022-06-12T08:26:40Z</time>
      </trkpt>
      <trkpt lat="46.46795" lon="5.5326">
        <ele>427.4</ele>
        <time>2022-06-12T08:26:41Z</time>
      </trkpt>
      <trkpt lat="46.46799" lon="5.53253">
        <ele>427</ele>
        <time>2022-06-12T08:26:42Z</time>
      </trkpt>
      <trkpt lat="46.46805" lon="5.53243">
        <ele>426</ele>
        <time>2022-06-12T08:26:43Z</time>
      </trkpt>
      <trkpt lat="46.46812" lon="5.53233">
        <ele>425.4</ele>
        <time>2022-06-12T08:26:44Z</time>
      </trkpt>
      <trkpt lat="46.46831" lon="5.532">
        <ele>424.8</ele>
        <time>2022-06-12T08:26:47Z</time>
      </trkpt>
      <trkpt lat="46.46838" lon="5.53187">
        <ele>424.4</ele>
        <time>2022-06-12T08:26:48Z</time>
      </trkpt>
      <trkpt lat="46.46847" lon="5.53165">
        <ele>423.8</ele>
        <time>2022-06-12T08:26:50Z</time>
      </trkpt>
      <trkpt lat="46.46853" lon="5.53151">
        <ele>423</ele>
        <time>2022-06-12T08:26:51Z</time>
      </trkpt>
      <trkpt lat="46.46857" lon="5.53138">
        <ele>422.6</ele>
        <time>2022-06-12T08:26:52Z</time>
      </trkpt>
      <trkpt lat="46.46865" lon="5.53113">
        <ele>422</ele>
        <time>2022-06-12T08:26:54Z</time>
      </trkpt>
      <trkpt lat="46.46869" lon="5.53098">
        <ele>421.6</ele>
        <time>2022-06-12T08:26:55Z</time>
      </trkpt>
      <trkpt lat="46.46879" lon="5.53071">
        <ele>421</ele>
        <time>2022-06-12T08:26:57Z</time>
      </trkpt>
      <trkpt lat="46.46892" lon="5.53044">
        <ele>420.4</ele>
        <time>2022-06-12T08:26:59Z</time>
      </trkpt>
      <trkpt lat="46.46898" lon="5.53031">
        <ele>420</ele>
        <time>2022-06-12T08:27:00Z</time>
      </trkpt>
      <trkpt lat="46.46904" lon="5.53017">
        <ele>419.6</ele>
        <time>2022-06-12T08:27:01Z</time>
      </trkpt>
      <trkpt lat="46.46911" lon="5.53004">
        <ele>418.8</ele>
        <time>2022-06-12T08:27:02Z</time>
      </trkpt>
      <trkpt lat="46.46933" lon="5.52966">
        <ele>417.4</ele>
        <time>2022-06-12T08:27:05Z</time>
      </trkpt>
      <trkpt lat="46.46946" lon="5.5294">
        <ele>416.6</ele>
        <time>2022-06-12T08:27:07Z</time>
      </trkpt>
      <trkpt lat="46.4695" lon="5.52927">
        <ele>416.2</ele>
        <time>2022-06-12T08:27:08Z</time>
      </trkpt>
      <trkpt lat="46.46964" lon="5.52889">
        <ele>414.8</ele>
        <time>2022-06-12T08:27:11Z</time>
      </trkpt>
      <trkpt lat="46.46986" lon="5.52843">
        <ele>413.8</ele>
        <time>2022-06-12T08:27:15Z</time>
      </trkpt>
      <trkpt lat="46.46991" lon="5.52833">
        <ele>413.6</ele>
        <time>2022-06-12T08:27:16Z</time>
      </trkpt>
      <trkpt lat="46.47001" lon="5.52815">
        <ele>413.2</ele>
        <time>2022-06-12T08:27:18Z</time>
      </trkpt>
      <trkpt lat="46.47017" lon="5.5279">
        <ele>413</ele>
        <time>2022-06-12T08:27:21Z</time>
      </trkpt>
      <trkpt lat="46.4705" lon="5.52746">
        <ele>413</ele>
        <time>2022-06-12T08:27:27Z</time>
      </trkpt>
      <trkpt lat="46.4705" lon="5.52728">
        <ele>412.8</ele>
        <time>2022-06-12T08:27:29Z</time>
      </trkpt>
      <trkpt lat="46.47048" lon="5.52719">
        <ele>412.8</ele>
        <time>2022-06-12T08:27:30Z</time>
      </trkpt>
      <trkpt lat="46.47046" lon="5.52713">
        <ele>412.6</ele>
        <time>2022-06-12T08:27:31Z</time>
      </trkpt>
      <trkpt lat="46.4703" lon="5.52722">
        <ele>412</ele>
        <time>2022-06-12T08:27:33Z</time>
      </trkpt>
      <trkpt lat="46.47024" lon="5.52731">
        <ele>411.8</ele>
        <time>2022-06-12T08:27:34Z</time>
      </trkpt>
      <trkpt lat="46.47018" lon="5.52738">
        <ele>411</ele>
        <time>2022-06-12T08:27:35Z</time>
      </trkpt>
      <trkpt lat="46.47011" lon="5.52746">
        <ele>410.8</ele>
        <time>2022-06-12T08:27:36Z</time>
      </trkpt>
      <trkpt lat="46.46997" lon="5.52771">
        <ele>409.6</ele>
        <time>2022-06-12T08:27:38Z</time>
      </trkpt>
      <trkpt lat="46.4699" lon="5.52783">
        <ele>409</ele>
        <time>2022-06-12T08:27:39Z</time>
      </trkpt>
      <trkpt lat="46.46974" lon="5.52808">
        <ele>408.4</ele>
        <time>2022-06-12T08:27:41Z</time>
      </trkpt>
      <trkpt lat="46.46948" lon="5.52841">
        <ele>407.4</ele>
        <time>2022-06-12T08:27:44Z</time>
      </trkpt>
      <trkpt lat="46.46922" lon="5.52873">
        <ele>406.4</ele>
        <time>2022-06-12T08:27:47Z</time>
      </trkpt>
      <trkpt lat="46.46906" lon="5.52895">
        <ele>404.8</ele>
        <time>2022-06-12T08:27:49Z</time>
      </trkpt>
      <trkpt lat="46.46898" lon="5.52907">
        <ele>404.6</ele>
        <time>2022-06-12T08:27:50Z</time>
      </trkpt>
      <trkpt lat="46.46889" lon="5.52918">
        <ele>403.2</ele>
        <time>2022-06-12T08:27:51Z</time>
      </trkpt>
      <trkpt lat="46.46871" lon="5.52941">
        <ele>402</ele>
        <time>2022-06-12T08:27:53Z</time>
      </trkpt>
      <trkpt lat="46.46855" lon="5.52964">
        <ele>400.6</ele>
        <time>2022-06-12T08:27:55Z</time>
      </trkpt>
      <trkpt lat="46.46848" lon="5.52977">
        <ele>399.8</ele>
        <time>2022-06-12T08:27:56Z</time>
      </trkpt>
      <trkpt lat="46.46841" lon="5.5299">
        <ele>399.4</ele>
        <time>2022-06-12T08:27:57Z</time>
      </trkpt>
      <trkpt lat="46.46835" lon="5.53004">
        <ele>398.6</ele>
        <time>2022-06-12T08:27:58Z</time>
      </trkpt>
      <trkpt lat="46.46829" lon="5.53023">
        <ele>398</ele>
        <time>2022-06-12T08:27:59Z</time>
      </trkpt>
      <trkpt lat="46.46821" lon="5.53051">
        <ele>396.8</ele>
        <time>2022-06-12T08:28:01Z</time>
      </trkpt>
      <trkpt lat="46.46808" lon="5.53085">
        <ele>395.6</ele>
        <time>2022-06-12T08:28:03Z</time>
      </trkpt>
      <trkpt lat="46.46802" lon="5.53096">
        <ele>395.2</ele>
        <time>2022-06-12T08:28:04Z</time>
      </trkpt>
      <trkpt lat="46.46792" lon="5.53111">
        <ele>394</ele>
        <time>2022-06-12T08:28:05Z</time>
      </trkpt>
      <trkpt lat="46.46776" lon="5.5313">
        <ele>392.6</ele>
        <time>2022-06-12T08:28:07Z</time>
      </trkpt>
      <trkpt lat="46.46748" lon="5.53158">
        <ele>390.6</ele>
        <time>2022-06-12T08:28:10Z</time>
      </trkpt>
      <trkpt lat="46.4674" lon="5.53169">
        <ele>390</ele>
        <time>2022-06-12T08:28:11Z</time>
      </trkpt>
      <trkpt lat="46.46734" lon="5.53182">
        <ele>388.8</ele>
        <time>2022-06-12T08:28:12Z</time>
      </trkpt>
      <trkpt lat="46.46723" lon="5.53208">
        <ele>387.6</ele>
        <time>2022-06-12T08:28:14Z</time>
      </trkpt>
      <trkpt lat="46.46704" lon="5.5325">
        <ele>386</ele>
        <time>2022-06-12T08:28:17Z</time>
      </trkpt>
      <trkpt lat="46.46696" lon="5.53272">
        <ele>384.8</ele>
        <time>2022-06-12T08:28:19Z</time>
      </trkpt>
      <trkpt lat="46.4669" lon="5.53298">
        <ele>383.2</ele>
        <time>2022-06-12T08:28:21Z</time>
      </trkpt>
      <trkpt lat="46.46683" lon="5.53325">
        <ele>382</ele>
        <time>2022-06-12T08:28:23Z</time>
      </trkpt>
      <trkpt lat="46.46681" lon="5.53335">
        <ele>381</ele>
        <time>2022-06-12T08:28:24Z</time>
      </trkpt>
      <trkpt lat="46.46678" lon="5.53345">
        <ele>380.6</ele>
        <time>2022-06-12T08:28:25Z</time>
      </trkpt>
      <trkpt lat="46.46674" lon="5.53354">
        <ele>379.8</ele>
        <time>2022-06-12T08:28:26Z</time>
      </trkpt>
      <trkpt lat="46.46668" lon="5.53361">
        <ele>379.4</ele>
        <time>2022-06-12T08:28:27Z</time>
      </trkpt>
      <trkpt lat="46.46662" lon="5.53366">
        <ele>378.8</ele>
        <time>2022-06-12T08:28:28Z</time>
      </trkpt>
      <trkpt lat="46.46656" lon="5.53368">
        <ele>378.6</ele>
        <time>2022-06-12T08:28:29Z</time>
      </trkpt>
      <trkpt lat="46.46638" lon="5.53377">
        <ele>378.2</ele>
        <time>2022-06-12T08:28:32Z</time>
      </trkpt>
      <trkpt lat="46.46633" lon="5.53382">
        <ele>378.2</ele>
        <time>2022-06-12T08:28:33Z</time>
      </trkpt>
      <trkpt lat="46.46599" lon="5.53417">
        <ele>378</ele>
        <time>2022-06-12T08:28:39Z</time>
      </trkpt>
      <trkpt lat="46.46594" lon="5.53425">
        <ele>378.2</ele>
        <time>2022-06-12T08:28:40Z</time>
      </trkpt>
      <trkpt lat="46.46578" lon="5.53458">
        <ele>378.2</ele>
        <time>2022-06-12T08:28:44Z</time>
      </trkpt>
      <trkpt lat="46.46563" lon="5.53491">
        <ele>378.2</ele>
        <time>2022-06-12T08:28:48Z</time>
      </trkpt>
      <trkpt lat="46.46558" lon="5.53498">
        <ele>378.2</ele>
        <time>2022-06-12T08:28:49Z</time>
      </trkpt>
      <trkpt lat="46.46553" lon="5.53503">
        <ele>378.2</ele>
        <time>2022-06-12T08:28:50Z</time>
      </trkpt>
      <trkpt lat="46.46541" lon="5.53507">
        <ele>378.4</ele>
        <time>2022-06-12T08:28:52Z</time>
      </trkpt>
      <trkpt lat="46.46532" lon="5.53504">
        <ele>378.6</ele>
        <time>2022-06-12T08:28:54Z</time>
      </trkpt>
      <trkpt lat="46.46528" lon="5.53501">
        <ele>378.6</ele>
        <time>2022-06-12T08:28:55Z</time>
      </trkpt>
      <trkpt lat="46.46509" lon="5.53483">
        <ele>380</ele>
        <time>2022-06-12T08:29:01Z</time>
      </trkpt>
      <trkpt lat="46.46506" lon="5.53481">
        <ele>380.4</ele>
        <time>2022-06-12T08:29:02Z</time>
      </trkpt>
      <trkpt lat="46.46498" lon="5.53476">
        <ele>381.2</ele>
        <time>2022-06-12T08:29:05Z</time>
      </trkpt>
      <trkpt lat="46.4649" lon="5.5347">
        <ele>383</ele>
        <time>2022-06-12T08:29:08Z</time>
      </trkpt>
      <trkpt lat="46.46484" lon="5.53465">
        <ele>383.6</ele>
        <time>2022-06-12T08:29:10Z</time>
      </trkpt>
      <trkpt lat="46.46482" lon="5.53463">
        <ele>384</ele>
        <time>2022-06-12T08:29:11Z</time>
      </trkpt>
      <trkpt lat="46.46477" lon="5.53458">
        <ele>385</ele>
        <time>2022-06-12T08:29:13Z</time>
      </trkpt>
      <trkpt lat="46.46467" lon="5.53449">
        <ele>386</ele>
        <time>2022-06-12T08:29:17Z</time>
      </trkpt>
      <trkpt lat="46.46456" lon="5.53439">
        <ele>387.2</ele>
        <time>2022-06-12T08:29:21Z</time>
      </trkpt>
      <trkpt lat="46.46448" lon="5.53432">
        <ele>387.8</ele>
        <time>2022-06-12T08:29:24Z</time>
      </trkpt>
      <trkpt lat="46.46443" lon="5.53428">
        <ele>388.2</ele>
        <time>2022-06-12T08:29:26Z</time>
      </trkpt>
      <trkpt lat="46.46428" lon="5.53417">
        <ele>389.4</ele>
        <time>2022-06-12T08:29:31Z</time>
      </trkpt>
      <trkpt lat="46.46414" lon="5.53408">
        <ele>390.4</ele>
        <time>2022-06-12T08:29:35Z</time>
      </trkpt>
      <trkpt lat="46.4641" lon="5.53405">
        <ele>390.6</ele>
        <time>2022-06-12T08:29:36Z</time>
      </trkpt>
      <trkpt lat="46.46406" lon="5.53403">
        <ele>390.6</ele>
        <time>2022-06-12T08:29:37Z</time>
      </trkpt>
      <trkpt lat="46.46398" lon="5.53397">
        <ele>391</ele>
        <time>2022-06-12T08:29:39Z</time>
      </trkpt>
      <trkpt lat="46.46381" lon="5.53387">
        <ele>391.4</ele>
        <time>2022-06-12T08:29:43Z</time>
      </trkpt>
      <trkpt lat="46.46377" lon="5.53385">
        <ele>391.4</ele>
        <time>2022-06-12T08:29:44Z</time>
      </trkpt>
      <trkpt lat="46.46342" lon="5.53368">
        <ele>392.4</ele>
        <time>2022-06-12T08:29:53Z</time>
      </trkpt>
      <trkpt lat="46.46338" lon="5.53366">
        <ele>392.6</ele>
        <time>2022-06-12T08:29:54Z</time>
      </trkpt>
      <trkpt lat="46.46319" lon="5.53359">
        <ele>393.6</ele>
        <time>2022-06-12T08:29:59Z</time>
      </trkpt>
      <trkpt lat="46.46312" lon="5.53356">
        <ele>394.2</ele>
        <time>2022-06-12T08:30:01Z</time>
      </trkpt>
      <trkpt lat="46.46296" lon="5.53349">
        <ele>394.8</ele>
        <time>2022-06-12T08:30:05Z</time>
      </trkpt>
      <trkpt lat="46.46277" lon="5.53341">
        <ele>395.8</ele>
        <time>2022-06-12T08:30:10Z</time>
      </trkpt>
      <trkpt lat="46.46273" lon="5.53339">
        <ele>396.2</ele>
        <time>2022-06-12T08:30:11Z</time>
      </trkpt>
      <trkpt lat="46.46255" lon="5.53332">
        <ele>397</ele>
        <time>2022-06-12T08:30:16Z</time>
      </trkpt>
      <trkpt lat="46.46235" lon="5.53323">
        <ele>397.8</ele>
        <time>2022-06-12T08:30:21Z</time>
      </trkpt>
      <trkpt lat="46.4623" lon="5.53321">
        <ele>398.2</ele>
        <time>2022-06-12T08:30:22Z</time>
      </trkpt>
      <trkpt lat="46.46198" lon="5.53305">
        <ele>398.8</ele>
        <time>2022-06-12T08:30:29Z</time>
      </trkpt>
      <trkpt lat="46.46185" lon="5.53298">
        <ele>399.2</ele>
        <time>2022-06-12T08:30:32Z</time>
      </trkpt>
      <trkpt lat="46.4618" lon="5.53296">
        <ele>399.2</ele>
        <time>2022-06-12T08:30:33Z</time>
      </trkpt>
      <trkpt lat="46.46154" lon="5.53282">
        <ele>400.4</ele>
        <time>2022-06-12T08:30:39Z</time>
      </trkpt>
      <trkpt lat="46.4613" lon="5.5327">
        <ele>401.2</ele>
        <time>2022-06-12T08:30:44Z</time>
      </trkpt>
      <trkpt lat="46.46112" lon="5.53259">
        <ele>401.4</ele>
        <time>2022-06-12T08:30:48Z</time>
      </trkpt>
      <trkpt lat="46.46075" lon="5.53234">
        <ele>402.4</ele>
        <time>2022-06-12T08:30:56Z</time>
      </trkpt>
      <trkpt lat="46.46064" lon="5.53228">
        <ele>402.6</ele>
        <time>2022-06-12T08:30:58Z</time>
      </trkpt>
      <trkpt lat="46.46037" lon="5.53213">
        <ele>402.4</ele>
        <time>2022-06-12T08:31:03Z</time>
      </trkpt>
      <trkpt lat="46.46031" lon="5.5321">
        <ele>402.6</ele>
        <time>2022-06-12T08:31:04Z</time>
      </trkpt>
      <trkpt lat="46.45997" lon="5.53195">
        <ele>402.4</ele>
        <time>2022-06-12T08:31:10Z</time>
      </trkpt>
      <trkpt lat="46.45956" lon="5.53179">
        <ele>403.4</ele>
        <time>2022-06-12T08:31:18Z</time>
      </trkpt>
      <trkpt lat="46.45923" lon="5.53166">
        <ele>404.2</ele>
        <time>2022-06-12T08:31:25Z</time>
      </trkpt>
      <trkpt lat="46.45918" lon="5.53165">
        <ele>404.6</ele>
        <time>2022-06-12T08:31:26Z</time>
      </trkpt>
      <trkpt lat="46.4589" lon="5.53153">
        <ele>406</ele>
        <time>2022-06-12T08:31:32Z</time>
      </trkpt>
      <trkpt lat="46.45875" lon="5.53148">
        <ele>406.4</ele>
        <time>2022-06-12T08:31:35Z</time>
      </trkpt>
      <trkpt lat="46.45857" lon="5.5314">
        <ele>407</ele>
        <time>2022-06-12T08:31:39Z</time>
      </trkpt>
      <trkpt lat="46.45838" lon="5.53132">
        <ele>407.6</ele>
        <time>2022-06-12T08:31:43Z</time>
      </trkpt>
      <trkpt lat="46.45828" lon="5.53128">
        <ele>407.8</ele>
        <time>2022-06-12T08:31:45Z</time>
      </trkpt>
      <trkpt lat="46.45824" lon="5.53126">
        <ele>408</ele>
        <time>2022-06-12T08:31:46Z</time>
      </trkpt>
      <trkpt lat="46.4579" lon="5.53107">
        <ele>409.2</ele>
        <time>2022-06-12T08:31:53Z</time>
      </trkpt>
      <trkpt lat="46.45786" lon="5.53104">
        <ele>409.2</ele>
        <time>2022-06-12T08:31:54Z</time>
      </trkpt>
      <trkpt lat="46.4576" lon="5.53088">
        <ele>409.8</ele>
        <time>2022-06-12T08:31:59Z</time>
      </trkpt>
      <trkpt lat="46.45744" lon="5.53078">
        <ele>410</ele>
        <time>2022-06-12T08:32:02Z</time>
      </trkpt>
      <trkpt lat="46.45697" lon="5.5305">
        <ele>410</ele>
        <time>2022-06-12T08:32:10Z</time>
      </trkpt>
      <trkpt lat="46.45652" lon="5.53028">
        <ele>409.6</ele>
        <time>2022-06-12T08:32:17Z</time>
      </trkpt>
      <trkpt lat="46.45632" lon="5.5302">
        <ele>409.6</ele>
        <time>2022-06-12T08:32:20Z</time>
      </trkpt>
      <trkpt lat="46.45609" lon="5.53005">
        <ele>409.8</ele>
        <time>2022-06-12T08:32:24Z</time>
      </trkpt>
      <trkpt lat="46.45592" lon="5.52989">
        <ele>410</ele>
        <time>2022-06-12T08:32:27Z</time>
      </trkpt>
      <trkpt lat="46.45583" lon="5.52976">
        <ele>410.2</ele>
        <time>2022-06-12T08:32:29Z</time>
      </trkpt>
      <trkpt lat="46.45573" lon="5.52967">
        <ele>410.2</ele>
        <time>2022-06-12T08:32:31Z</time>
      </trkpt>
      <trkpt lat="46.45564" lon="5.52958">
        <ele>410.6</ele>
        <time>2022-06-12T08:32:33Z</time>
      </trkpt>
      <trkpt lat="46.45559" lon="5.52954">
        <ele>410.6</ele>
        <time>2022-06-12T08:32:34Z</time>
      </trkpt>
      <trkpt lat="46.45526" lon="5.52937">
        <ele>411</ele>
        <time>2022-06-12T08:32:39Z</time>
      </trkpt>
      <trkpt lat="46.45478" lon="5.52916">
        <ele>410.2</ele>
        <time>2022-06-12T08:32:45Z</time>
      </trkpt>
      <trkpt lat="46.45439" lon="5.52899">
        <ele>409</ele>
        <time>2022-06-12T08:32:49Z</time>
      </trkpt>
      <trkpt lat="46.45429" lon="5.52894">
        <ele>408.6</ele>
        <time>2022-06-12T08:32:50Z</time>
      </trkpt>
      <trkpt lat="46.45408" lon="5.52881">
        <ele>407.6</ele>
        <time>2022-06-12T08:32:52Z</time>
      </trkpt>
      <trkpt lat="46.45387" lon="5.52868">
        <ele>406.4</ele>
        <time>2022-06-12T08:32:54Z</time>
      </trkpt>
      <trkpt lat="46.45376" lon="5.52863">
        <ele>405.6</ele>
        <time>2022-06-12T08:32:55Z</time>
      </trkpt>
      <trkpt lat="46.45364" lon="5.52858">
        <ele>405</ele>
        <time>2022-06-12T08:32:56Z</time>
      </trkpt>
      <trkpt lat="46.45351" lon="5.52854">
        <ele>403.8</ele>
        <time>2022-06-12T08:32:57Z</time>
      </trkpt>
      <trkpt lat="46.45324" lon="5.52847">
        <ele>402.6</ele>
        <time>2022-06-12T08:32:59Z</time>
      </trkpt>
      <trkpt lat="46.45295" lon="5.52841">
        <ele>400.8</ele>
        <time>2022-06-12T08:33:01Z</time>
      </trkpt>
      <trkpt lat="46.4528" lon="5.52839">
        <ele>398.6</ele>
        <time>2022-06-12T08:33:02Z</time>
      </trkpt>
      <trkpt lat="46.45249" lon="5.52833">
        <ele>396.4</ele>
        <time>2022-06-12T08:33:04Z</time>
      </trkpt>
      <trkpt lat="46.45237" lon="5.52831">
        <ele>395.8</ele>
        <time>2022-06-12T08:33:05Z</time>
      </trkpt>
      <trkpt lat="46.45223" lon="5.52828">
        <ele>394.4</ele>
        <time>2022-06-12T08:33:06Z</time>
      </trkpt>
      <trkpt lat="46.4521" lon="5.52824">
        <ele>393.2</ele>
        <time>2022-06-12T08:33:07Z</time>
      </trkpt>
      <trkpt lat="46.45197" lon="5.52819">
        <ele>392.2</ele>
        <time>2022-06-12T08:33:08Z</time>
      </trkpt>
      <trkpt lat="46.45172" lon="5.5281">
        <ele>391.4</ele>
        <time>2022-06-12T08:33:10Z</time>
      </trkpt>
      <trkpt lat="46.4516" lon="5.52806">
        <ele>390.8</ele>
        <time>2022-06-12T08:33:11Z</time>
      </trkpt>
      <trkpt lat="46.45116" lon="5.52786">
        <ele>389.6</ele>
        <time>2022-06-12T08:33:15Z</time>
      </trkpt>
      <trkpt lat="46.45105" lon="5.52782">
        <ele>389.2</ele>
        <time>2022-06-12T08:33:16Z</time>
      </trkpt>
      <trkpt lat="46.45065" lon="5.52765">
        <ele>388.4</ele>
        <time>2022-06-12T08:33:20Z</time>
      </trkpt>
      <trkpt lat="46.45056" lon="5.52762">
        <ele>388.4</ele>
        <time>2022-06-12T08:33:21Z</time>
      </trkpt>
      <trkpt lat="46.45004" lon="5.5274">
        <ele>388.4</ele>
        <time>2022-06-12T08:33:27Z</time>
      </trkpt>
      <trkpt lat="46.44968" lon="5.52726">
        <ele>388.8</ele>
        <time>2022-06-12T08:33:32Z</time>
      </trkpt>
      <trkpt lat="46.44945" lon="5.52718">
        <ele>389.6</ele>
        <time>2022-06-12T08:33:36Z</time>
      </trkpt>
      <trkpt lat="46.44934" lon="5.52715">
        <ele>390.2</ele>
        <time>2022-06-12T08:33:38Z</time>
      </trkpt>
      <trkpt lat="46.44928" lon="5.52714">
        <ele>390.6</ele>
        <time>2022-06-12T08:33:39Z</time>
      </trkpt>
      <trkpt lat="46.44923" lon="5.52714">
        <ele>390.8</ele>
        <time>2022-06-12T08:33:40Z</time>
      </trkpt>
      <trkpt lat="46.44912" lon="5.52716">
        <ele>391.6</ele>
        <time>2022-06-12T08:33:42Z</time>
      </trkpt>
      <trkpt lat="46.44908" lon="5.52718">
        <ele>392</ele>
        <time>2022-06-12T08:33:43Z</time>
      </trkpt>
      <trkpt lat="46.44895" lon="5.52723">
        <ele>393.2</ele>
        <time>2022-06-12T08:33:46Z</time>
      </trkpt>
      <trkpt lat="46.44884" lon="5.52729">
        <ele>394</ele>
        <time>2022-06-12T08:33:49Z</time>
      </trkpt>
      <trkpt lat="46.44881" lon="5.52732">
        <ele>394.8</ele>
        <time>2022-06-12T08:33:50Z</time>
      </trkpt>
      <trkpt lat="46.44872" lon="5.52739">
        <ele>395.8</ele>
        <time>2022-06-12T08:33:53Z</time>
      </trkpt>
      <trkpt lat="46.44864" lon="5.52745">
        <ele>396.6</ele>
        <time>2022-06-12T08:33:56Z</time>
      </trkpt>
      <trkpt lat="46.44862" lon="5.52747">
        <ele>397</ele>
        <time>2022-06-12T08:33:57Z</time>
      </trkpt>
      <trkpt lat="46.44855" lon="5.52754">
        <ele>398.2</ele>
        <time>2022-06-12T08:34:00Z</time>
      </trkpt>
      <trkpt lat="46.44845" lon="5.52763">
        <ele>399.2</ele>
        <time>2022-06-12T08:34:04Z</time>
      </trkpt>
      <trkpt lat="46.44842" lon="5.52766">
        <ele>399.6</ele>
        <time>2022-06-12T08:34:05Z</time>
      </trkpt>
      <trkpt lat="46.44835" lon="5.52771">
        <ele>400.2</ele>
        <time>2022-06-12T08:34:08Z</time>
      </trkpt>
      <trkpt lat="46.44826" lon="5.52779">
        <ele>401.4</ele>
        <time>2022-06-12T08:34:12Z</time>
      </trkpt>
      <trkpt lat="46.44819" lon="5.52785">
        <ele>402</ele>
        <time>2022-06-12T08:34:15Z</time>
      </trkpt>
      <trkpt lat="46.44817" lon="5.52787">
        <ele>402.6</ele>
        <time>2022-06-12T08:34:16Z</time>
      </trkpt>
      <trkpt lat="46.44806" lon="5.52796">
        <ele>404</ele>
        <time>2022-06-12T08:34:21Z</time>
      </trkpt>
      <trkpt lat="46.44802" lon="5.52799">
        <ele>404.6</ele>
        <time>2022-06-12T08:34:23Z</time>
      </trkpt>
      <trkpt lat="46.44796" lon="5.52804">
        <ele>405.2</ele>
        <time>2022-06-12T08:34:26Z</time>
      </trkpt>
      <trkpt lat="46.44787" lon="5.5281">
        <ele>406.2</ele>
        <time>2022-06-12T08:34:30Z</time>
      </trkpt>
      <trkpt lat="46.44777" lon="5.52818">
        <ele>407.4</ele>
        <time>2022-06-12T08:34:34Z</time>
      </trkpt>
      <trkpt lat="46.44772" lon="5.52823">
        <ele>407.8</ele>
        <time>2022-06-12T08:34:36Z</time>
      </trkpt>
      <trkpt lat="46.44764" lon="5.52832">
        <ele>408.4</ele>
        <time>2022-06-12T08:34:39Z</time>
      </trkpt>
      <trkpt lat="46.44752" lon="5.52843">
        <ele>408.6</ele>
        <time>2022-06-12T08:34:43Z</time>
      </trkpt>
      <trkpt lat="46.4474" lon="5.52846">
        <ele>408.6</ele>
        <time>2022-06-12T08:34:46Z</time>
      </trkpt>
      <trkpt lat="46.44735" lon="5.52845">
        <ele>408.6</ele>
        <time>2022-06-12T08:34:47Z</time>
      </trkpt>
      <trkpt lat="46.44704" lon="5.52844">
        <ele>407.8</ele>
        <time>2022-06-12T08:34:52Z</time>
      </trkpt>
      <trkpt lat="46.4469" lon="5.52846">
        <ele>407.2</ele>
        <time>2022-06-12T08:34:54Z</time>
      </trkpt>
      <trkpt lat="46.44664" lon="5.52851">
        <ele>405.8</ele>
        <time>2022-06-12T08:34:58Z</time>
      </trkpt>
      <trkpt lat="46.44659" lon="5.52855">
        <ele>405.8</ele>
        <time>2022-06-12T08:34:59Z</time>
      </trkpt>
      <trkpt lat="46.44655" lon="5.52863">
        <ele>405.2</ele>
        <time>2022-06-12T08:35:00Z</time>
      </trkpt>
      <trkpt lat="46.44651" lon="5.5287">
        <ele>405</ele>
        <time>2022-06-12T08:35:01Z</time>
      </trkpt>
      <trkpt lat="46.44646" lon="5.52877">
        <ele>404.8</ele>
        <time>2022-06-12T08:35:02Z</time>
      </trkpt>
      <trkpt lat="46.44638" lon="5.52881">
        <ele>404.2</ele>
        <time>2022-06-12T08:35:03Z</time>
      </trkpt>
      <trkpt lat="46.44623" lon="5.52885">
        <ele>403.6</ele>
        <time>2022-06-12T08:35:05Z</time>
      </trkpt>
      <trkpt lat="46.44605" lon="5.52891">
        <ele>402.6</ele>
        <time>2022-06-12T08:35:08Z</time>
      </trkpt>
      <trkpt lat="46.44599" lon="5.52893">
        <ele>402.2</ele>
        <time>2022-06-12T08:35:09Z</time>
      </trkpt>
      <trkpt lat="46.44594" lon="5.52893">
        <ele>401.4</ele>
        <time>2022-06-12T08:35:10Z</time>
      </trkpt>
      <trkpt lat="46.44582" lon="5.52894">
        <ele>400.2</ele>
        <time>2022-06-12T08:35:12Z</time>
      </trkpt>
      <trkpt lat="46.44576" lon="5.52894">
        <ele>399.8</ele>
        <time>2022-06-12T08:35:13Z</time>
      </trkpt>
      <trkpt lat="46.44563" lon="5.52894">
        <ele>399</ele>
        <time>2022-06-12T08:35:15Z</time>
      </trkpt>
      <trkpt lat="46.44553" lon="5.52893">
        <ele>398.4</ele>
        <time>2022-06-12T08:35:17Z</time>
      </trkpt>
      <trkpt lat="46.44551" lon="5.52893">
        <ele>398.2</ele>
        <time>2022-06-12T08:35:18Z</time>
      </trkpt>
      <trkpt lat="46.4455" lon="5.52894">
        <ele>398.2</ele>
        <time>2022-06-12T08:35:19Z</time>
      </trkpt>
      <trkpt lat="46.44552" lon="5.52896">
        <ele>398.2</ele>
        <time>2022-06-12T08:35:21Z</time>
      </trkpt>
      <trkpt lat="46.44565" lon="5.52896">
        <ele>398</ele>
        <time>2022-06-12T08:35:25Z</time>
      </trkpt>
      <trkpt lat="46.44579" lon="5.52896">
        <ele>397.8</ele>
        <time>2022-06-12T08:35:28Z</time>
      </trkpt>
      <trkpt lat="46.44592" lon="5.52896">
        <ele>398</ele>
        <time>2022-06-12T08:35:31Z</time>
      </trkpt>
      <trkpt lat="46.44603" lon="5.52893">
        <ele>398.4</ele>
        <time>2022-06-12T08:35:35Z</time>
      </trkpt>
      <trkpt lat="46.44606" lon="5.52891">
        <ele>398.8</ele>
        <time>2022-06-12T08:35:40Z</time>
      </trkpt>
      <trkpt lat="46.4461" lon="5.52893">
        <ele>398.6</ele>
        <time>2022-06-12T08:35:44Z</time>
      </trkpt>
      <trkpt lat="46.44608" lon="5.52893">
        <ele>398.4</ele>
        <time>2022-06-12T08:35:46Z</time>
      </trkpt>
      <trkpt lat="46.44592" lon="5.52892">
        <ele>398.4</ele>
        <time>2022-06-12T08:35:50Z</time>
      </trkpt>
      <trkpt lat="46.44587" lon="5.52893">
        <ele>398.4</ele>
        <time>2022-06-12T08:35:51Z</time>
      </trkpt>
      <trkpt lat="46.44565" lon="5.52893">
        <ele>398.2</ele>
        <time>2022-06-12T08:35:55Z</time>
      </trkpt>
      <trkpt lat="46.44536" lon="5.52894">
        <ele>398</ele>
        <time>2022-06-12T08:36:00Z</time>
      </trkpt>
      <trkpt lat="46.4453" lon="5.52895">
        <ele>398</ele>
        <time>2022-06-12T08:36:01Z</time>
      </trkpt>
      <trkpt lat="46.44524" lon="5.52896">
        <ele>398</ele>
        <time>2022-06-12T08:36:02Z</time>
      </trkpt>
      <trkpt lat="46.445" lon="5.52907">
        <ele>397.6</ele>
        <time>2022-06-12T08:36:06Z</time>
      </trkpt>
      <trkpt lat="46.44473" lon="5.52919">
        <ele>396.8</ele>
        <time>2022-06-12T08:36:10Z</time>
      </trkpt>
      <trkpt lat="46.44458" lon="5.52926">
        <ele>396.6</ele>
        <time>2022-06-12T08:36:12Z</time>
      </trkpt>
      <trkpt lat="46.44433" lon="5.52935">
        <ele>395.6</ele>
        <time>2022-06-12T08:36:15Z</time>
      </trkpt>
      <trkpt lat="46.44415" lon="5.52941">
        <ele>394.8</ele>
        <time>2022-06-12T08:36:17Z</time>
      </trkpt>
      <trkpt lat="46.44397" lon="5.52947">
        <ele>394</ele>
        <time>2022-06-12T08:36:19Z</time>
      </trkpt>
      <trkpt lat="46.44377" lon="5.52948">
        <ele>393.4</ele>
        <time>2022-06-12T08:36:21Z</time>
      </trkpt>
      <trkpt lat="46.44368" lon="5.52948">
        <ele>392.8</ele>
        <time>2022-06-12T08:36:22Z</time>
      </trkpt>
      <trkpt lat="46.44348" lon="5.52946">
        <ele>391.6</ele>
        <time>2022-06-12T08:36:24Z</time>
      </trkpt>
      <trkpt lat="46.44327" lon="5.52943">
        <ele>390.4</ele>
        <time>2022-06-12T08:36:26Z</time>
      </trkpt>
      <trkpt lat="46.44317" lon="5.52942">
        <ele>389.8</ele>
        <time>2022-06-12T08:36:27Z</time>
      </trkpt>
      <trkpt lat="46.44296" lon="5.52944">
        <ele>389</ele>
        <time>2022-06-12T08:36:29Z</time>
      </trkpt>
      <trkpt lat="46.44274" lon="5.5295">
        <ele>388.2</ele>
        <time>2022-06-12T08:36:31Z</time>
      </trkpt>
      <trkpt lat="46.44263" lon="5.52955">
        <ele>387.8</ele>
        <time>2022-06-12T08:36:32Z</time>
      </trkpt>
      <trkpt lat="46.44252" lon="5.52959">
        <ele>386.8</ele>
        <time>2022-06-12T08:36:33Z</time>
      </trkpt>
      <trkpt lat="46.4424" lon="5.52962">
        <ele>385.8</ele>
        <time>2022-06-12T08:36:34Z</time>
      </trkpt>
      <trkpt lat="46.44227" lon="5.52965">
        <ele>385.4</ele>
        <time>2022-06-12T08:36:35Z</time>
      </trkpt>
      <trkpt lat="46.44215" lon="5.52968">
        <ele>384.6</ele>
        <time>2022-06-12T08:36:36Z</time>
      </trkpt>
      <trkpt lat="46.44203" lon="5.52971">
        <ele>383.8</ele>
        <time>2022-06-12T08:36:37Z</time>
      </trkpt>
      <trkpt lat="46.44178" lon="5.5298">
        <ele>382.6</ele>
        <time>2022-06-12T08:36:39Z</time>
      </trkpt>
      <trkpt lat="46.44167" lon="5.52988">
        <ele>381</ele>
        <time>2022-06-12T08:36:40Z</time>
      </trkpt>
      <trkpt lat="46.44156" lon="5.52999">
        <ele>379.6</ele>
        <time>2022-06-12T08:36:41Z</time>
      </trkpt>
      <trkpt lat="46.44139" lon="5.53024">
        <ele>378</ele>
        <time>2022-06-12T08:36:43Z</time>
      </trkpt>
      <trkpt lat="46.44122" lon="5.5305">
        <ele>376.2</ele>
        <time>2022-06-12T08:36:45Z</time>
      </trkpt>
      <trkpt lat="46.44108" lon="5.53074">
        <ele>375</ele>
        <time>2022-06-12T08:36:47Z</time>
      </trkpt>
      <trkpt lat="46.44102" lon="5.53087">
        <ele>374.6</ele>
        <time>2022-06-12T08:36:48Z</time>
      </trkpt>
      <trkpt lat="46.44099" lon="5.531">
        <ele>374.4</ele>
        <time>2022-06-12T08:36:49Z</time>
      </trkpt>
      <trkpt lat="46.44095" lon="5.53128">
        <ele>374</ele>
        <time>2022-06-12T08:36:51Z</time>
      </trkpt>
      <trkpt lat="46.44093" lon="5.53141">
        <ele>373.8</ele>
        <time>2022-06-12T08:36:52Z</time>
      </trkpt>
      <trkpt lat="46.4409" lon="5.53153">
        <ele>373.8</ele>
        <time>2022-06-12T08:36:53Z</time>
      </trkpt>
      <trkpt lat="46.44085" lon="5.53164">
        <ele>373.8</ele>
        <time>2022-06-12T08:36:54Z</time>
      </trkpt>
      <trkpt lat="46.44057" lon="5.53215">
        <ele>373.6</ele>
        <time>2022-06-12T08:36:59Z</time>
      </trkpt>
      <trkpt lat="46.44035" lon="5.53276">
        <ele>373.2</ele>
        <time>2022-06-12T08:37:04Z</time>
      </trkpt>
      <trkpt lat="46.44027" lon="5.53302">
        <ele>372.8</ele>
        <time>2022-06-12T08:37:06Z</time>
      </trkpt>
      <trkpt lat="46.44016" lon="5.53341">
        <ele>371.4</ele>
        <time>2022-06-12T08:37:09Z</time>
      </trkpt>
      <trkpt lat="46.44013" lon="5.53355">
        <ele>371.2</ele>
        <time>2022-06-12T08:37:10Z</time>
      </trkpt>
      <trkpt lat="46.44002" lon="5.53412">
        <ele>370.2</ele>
        <time>2022-06-12T08:37:14Z</time>
      </trkpt>
      <trkpt lat="46.43993" lon="5.53454">
        <ele>369.4</ele>
        <time>2022-06-12T08:37:17Z</time>
      </trkpt>
      <trkpt lat="46.43988" lon="5.53467">
        <ele>368.8</ele>
        <time>2022-06-12T08:37:18Z</time>
      </trkpt>
      <trkpt lat="46.43981" lon="5.53478">
        <ele>368.4</ele>
        <time>2022-06-12T08:37:19Z</time>
      </trkpt>
      <trkpt lat="46.43973" lon="5.53487">
        <ele>367.8</ele>
        <time>2022-06-12T08:37:20Z</time>
      </trkpt>
      <trkpt lat="46.43965" lon="5.53492">
        <ele>367.4</ele>
        <time>2022-06-12T08:37:21Z</time>
      </trkpt>
      <trkpt lat="46.43947" lon="5.535">
        <ele>366.6</ele>
        <time>2022-06-12T08:37:23Z</time>
      </trkpt>
      <trkpt lat="46.4391" lon="5.53512">
        <ele>365.6</ele>
        <time>2022-06-12T08:37:27Z</time>
      </trkpt>
      <trkpt lat="46.43883" lon="5.53522">
        <ele>365</ele>
        <time>2022-06-12T08:37:30Z</time>
      </trkpt>
      <trkpt lat="46.43846" lon="5.53542">
        <ele>364.2</ele>
        <time>2022-06-12T08:37:34Z</time>
      </trkpt>
      <trkpt lat="46.43818" lon="5.53558">
        <ele>363.6</ele>
        <time>2022-06-12T08:37:37Z</time>
      </trkpt>
      <trkpt lat="46.438" lon="5.53565">
        <ele>363.2</ele>
        <time>2022-06-12T08:37:39Z</time>
      </trkpt>
      <trkpt lat="46.43765" lon="5.53578">
        <ele>362.6</ele>
        <time>2022-06-12T08:37:43Z</time>
      </trkpt>
      <trkpt lat="46.4374" lon="5.53593">
        <ele>362.2</ele>
        <time>2022-06-12T08:37:46Z</time>
      </trkpt>
      <trkpt lat="46.43717" lon="5.5361">
        <ele>362.2</ele>
        <time>2022-06-12T08:37:49Z</time>
      </trkpt>
      <trkpt lat="46.43682" lon="5.53637">
        <ele>362.2</ele>
        <time>2022-06-12T08:37:54Z</time>
      </trkpt>
      <trkpt lat="46.43644" lon="5.53657">
        <ele>362.6</ele>
        <time>2022-06-12T08:38:00Z</time>
      </trkpt>
      <trkpt lat="46.43623" lon="5.53671">
        <ele>363.6</ele>
        <time>2022-06-12T08:38:04Z</time>
      </trkpt>
      <trkpt lat="46.43613" lon="5.53677">
        <ele>364</ele>
        <time>2022-06-12T08:38:06Z</time>
      </trkpt>
      <trkpt lat="46.43598" lon="5.53686">
        <ele>364.6</ele>
        <time>2022-06-12T08:38:09Z</time>
      </trkpt>
      <trkpt lat="46.43578" lon="5.537">
        <ele>365.6</ele>
        <time>2022-06-12T08:38:13Z</time>
      </trkpt>
      <trkpt lat="46.43546" lon="5.53729">
        <ele>366.4</ele>
        <time>2022-06-12T08:38:19Z</time>
      </trkpt>
      <trkpt lat="46.43505" lon="5.53769">
        <ele>366.4</ele>
        <time>2022-06-12T08:38:26Z</time>
      </trkpt>
      <trkpt lat="46.43466" lon="5.53821">
        <ele>365.8</ele>
        <time>2022-06-12T08:38:34Z</time>
      </trkpt>
      <trkpt lat="46.43455" lon="5.5383">
        <ele>365.8</ele>
        <time>2022-06-12T08:38:36Z</time>
      </trkpt>
      <trkpt lat="46.43444" lon="5.53837">
        <ele>365.8</ele>
        <time>2022-06-12T08:38:38Z</time>
      </trkpt>
      <trkpt lat="46.43422" lon="5.53849">
        <ele>366.4</ele>
        <time>2022-06-12T08:38:42Z</time>
      </trkpt>
      <trkpt lat="46.43411" lon="5.53852">
        <ele>366.8</ele>
        <time>2022-06-12T08:38:44Z</time>
      </trkpt>
      <trkpt lat="46.43405" lon="5.53854">
        <ele>366.8</ele>
        <time>2022-06-12T08:38:45Z</time>
      </trkpt>
      <trkpt lat="46.43378" lon="5.53862">
        <ele>367.8</ele>
        <time>2022-06-12T08:38:50Z</time>
      </trkpt>
      <trkpt lat="46.43362" lon="5.53865">
        <ele>369</ele>
        <time>2022-06-12T08:38:53Z</time>
      </trkpt>
      <trkpt lat="46.43335" lon="5.53867">
        <ele>370</ele>
        <time>2022-06-12T08:38:58Z</time>
      </trkpt>
      <trkpt lat="46.43306" lon="5.5387">
        <ele>370.4</ele>
        <time>2022-06-12T08:39:03Z</time>
      </trkpt>
      <trkpt lat="46.43288" lon="5.53875">
        <ele>370.4</ele>
        <time>2022-06-12T08:39:06Z</time>
      </trkpt>
      <trkpt lat="46.43276" lon="5.53882">
        <ele>370.4</ele>
        <time>2022-06-12T08:39:08Z</time>
      </trkpt>
      <trkpt lat="46.43246" lon="5.53912">
        <ele>370.4</ele>
        <time>2022-06-12T08:39:14Z</time>
      </trkpt>
      <trkpt lat="46.43209" lon="5.53946">
        <ele>371</ele>
        <time>2022-06-12T08:39:22Z</time>
      </trkpt>
      <trkpt lat="46.43176" lon="5.53975">
        <ele>372.2</ele>
        <time>2022-06-12T08:39:29Z</time>
      </trkpt>
      <trkpt lat="46.43166" lon="5.53984">
        <ele>372.6</ele>
        <time>2022-06-12T08:39:31Z</time>
      </trkpt>
      <trkpt lat="46.4314" lon="5.54008">
        <ele>373.4</ele>
        <time>2022-06-12T08:39:37Z</time>
      </trkpt>
      <trkpt lat="46.43126" lon="5.54019">
        <ele>373.8</ele>
        <time>2022-06-12T08:39:40Z</time>
      </trkpt>
      <trkpt lat="46.43111" lon="5.54028">
        <ele>374.6</ele>
        <time>2022-06-12T08:39:43Z</time>
      </trkpt>
      <trkpt lat="46.4308" lon="5.54043">
        <ele>375.4</ele>
        <time>2022-06-12T08:39:49Z</time>
      </trkpt>
      <trkpt lat="46.43075" lon="5.54046">
        <ele>375.4</ele>
        <time>2022-06-12T08:39:50Z</time>
      </trkpt>
      <trkpt lat="46.43033" lon="5.54066">
        <ele>376.4</ele>
        <time>2022-06-12T08:39:58Z</time>
      </trkpt>
      <trkpt lat="46.43018" lon="5.54074">
        <ele>376.8</ele>
        <time>2022-06-12T08:40:01Z</time>
      </trkpt>
      <trkpt lat="46.42967" lon="5.54096">
        <ele>377.6</ele>
        <time>2022-06-12T08:40:10Z</time>
      </trkpt>
      <trkpt lat="46.42925" lon="5.54116">
        <ele>377.8</ele>
        <time>2022-06-12T08:40:18Z</time>
      </trkpt>
      <trkpt lat="46.42916" lon="5.54121">
        <ele>378</ele>
        <time>2022-06-12T08:40:20Z</time>
      </trkpt>
      <trkpt lat="46.42895" lon="5.54129">
        <ele>378.4</ele>
        <time>2022-06-12T08:40:24Z</time>
      </trkpt>
      <trkpt lat="46.42886" lon="5.54132">
        <ele>379</ele>
        <time>2022-06-12T08:40:26Z</time>
      </trkpt>
      <trkpt lat="46.42871" lon="5.54136">
        <ele>379.8</ele>
        <time>2022-06-12T08:40:29Z</time>
      </trkpt>
      <trkpt lat="46.42866" lon="5.54137">
        <ele>380</ele>
        <time>2022-06-12T08:40:30Z</time>
      </trkpt>
      <trkpt lat="46.42841" lon="5.54144">
        <ele>381</ele>
        <time>2022-06-12T08:40:35Z</time>
      </trkpt>
      <trkpt lat="46.42815" lon="5.5415">
        <ele>381.6</ele>
        <time>2022-06-12T08:40:40Z</time>
      </trkpt>
      <trkpt lat="46.42793" lon="5.54155">
        <ele>382</ele>
        <time>2022-06-12T08:40:44Z</time>
      </trkpt>
      <trkpt lat="46.42771" lon="5.5416">
        <ele>382.4</ele>
        <time>2022-06-12T08:40:48Z</time>
      </trkpt>
      <trkpt lat="46.42748" lon="5.54165">
        <ele>382.6</ele>
        <time>2022-06-12T08:40:52Z</time>
      </trkpt>
      <trkpt lat="46.42738" lon="5.54172">
        <ele>382.8</ele>
        <time>2022-06-12T08:40:54Z</time>
      </trkpt>
      <trkpt lat="46.42733" lon="5.54187">
        <ele>382.8</ele>
        <time>2022-06-12T08:40:56Z</time>
      </trkpt>
      <trkpt lat="46.4273" lon="5.54196">
        <ele>382.8</ele>
        <time>2022-06-12T08:40:57Z</time>
      </trkpt>
      <trkpt lat="46.42715" lon="5.54261">
        <ele>382</ele>
        <time>2022-06-12T08:41:03Z</time>
      </trkpt>
      <trkpt lat="46.42703" lon="5.54321">
        <ele>380.8</ele>
        <time>2022-06-12T08:41:08Z</time>
      </trkpt>
      <trkpt lat="46.42698" lon="5.54343">
        <ele>380.4</ele>
        <time>2022-06-12T08:41:10Z</time>
      </trkpt>
      <trkpt lat="46.42684" lon="5.54407">
        <ele>380</ele>
        <time>2022-06-12T08:41:16Z</time>
      </trkpt>
      <trkpt lat="46.42666" lon="5.54487">
        <ele>380.6</ele>
        <time>2022-06-12T08:41:24Z</time>
      </trkpt>
      <trkpt lat="46.42647" lon="5.54561">
        <ele>380.8</ele>
        <time>2022-06-12T08:41:32Z</time>
      </trkpt>
      <trkpt lat="46.42639" lon="5.54588">
        <ele>380.4</ele>
        <time>2022-06-12T08:41:35Z</time>
      </trkpt>
      <trkpt lat="46.42626" lon="5.54614">
        <ele>380.2</ele>
        <time>2022-06-12T08:41:38Z</time>
      </trkpt>
      <trkpt lat="46.42602" lon="5.54659">
        <ele>379.8</ele>
        <time>2022-06-12T08:41:43Z</time>
      </trkpt>
      <trkpt lat="46.42592" lon="5.54678">
        <ele>379.6</ele>
        <time>2022-06-12T08:41:45Z</time>
      </trkpt>
      <trkpt lat="46.42576" lon="5.54707">
        <ele>378.8</ele>
        <time>2022-06-12T08:41:48Z</time>
      </trkpt>
      <trkpt lat="46.42548" lon="5.54756">
        <ele>377.6</ele>
        <time>2022-06-12T08:41:53Z</time>
      </trkpt>
      <trkpt lat="46.4253" lon="5.54784">
        <ele>377</ele>
        <time>2022-06-12T08:41:56Z</time>
      </trkpt>
      <trkpt lat="46.42515" lon="5.54799">
        <ele>376.4</ele>
        <time>2022-06-12T08:41:58Z</time>
      </trkpt>
      <trkpt lat="46.42497" lon="5.54808">
        <ele>375.8</ele>
        <time>2022-06-12T08:42:00Z</time>
      </trkpt>
      <trkpt lat="46.42488" lon="5.5481">
        <ele>375.6</ele>
        <time>2022-06-12T08:42:01Z</time>
      </trkpt>
      <trkpt lat="46.42478" lon="5.54811">
        <ele>375.2</ele>
        <time>2022-06-12T08:42:02Z</time>
      </trkpt>
      <trkpt lat="46.42448" lon="5.54811">
        <ele>373.8</ele>
        <time>2022-06-12T08:42:05Z</time>
      </trkpt>
      <trkpt lat="46.42428" lon="5.54811">
        <ele>372.8</ele>
        <time>2022-06-12T08:42:07Z</time>
      </trkpt>
      <trkpt lat="46.42395" lon="5.54811">
        <ele>371.4</ele>
        <time>2022-06-12T08:42:10Z</time>
      </trkpt>
      <trkpt lat="46.42373" lon="5.54812">
        <ele>370.8</ele>
        <time>2022-06-12T08:42:12Z</time>
      </trkpt>
      <trkpt lat="46.42362" lon="5.54813">
        <ele>370.4</ele>
        <time>2022-06-12T08:42:13Z</time>
      </trkpt>
      <trkpt lat="46.42339" lon="5.54819">
        <ele>369.2</ele>
        <time>2022-06-12T08:42:15Z</time>
      </trkpt>
      <trkpt lat="46.42328" lon="5.54823">
        <ele>368.2</ele>
        <time>2022-06-12T08:42:16Z</time>
      </trkpt>
      <trkpt lat="46.42316" lon="5.54828">
        <ele>367.4</ele>
        <time>2022-06-12T08:42:17Z</time>
      </trkpt>
      <trkpt lat="46.42294" lon="5.54839">
        <ele>366</ele>
        <time>2022-06-12T08:42:19Z</time>
      </trkpt>
      <trkpt lat="46.42271" lon="5.54851">
        <ele>364.4</ele>
        <time>2022-06-12T08:42:21Z</time>
      </trkpt>
      <trkpt lat="46.42249" lon="5.54864">
        <ele>363.6</ele>
        <time>2022-06-12T08:42:23Z</time>
      </trkpt>
      <trkpt lat="46.42239" lon="5.54873">
        <ele>362.2</ele>
        <time>2022-06-12T08:42:24Z</time>
      </trkpt>
      <trkpt lat="46.42222" lon="5.54895">
        <ele>360.8</ele>
        <time>2022-06-12T08:42:26Z</time>
      </trkpt>
      <trkpt lat="46.4221" lon="5.54924">
        <ele>359.6</ele>
        <time>2022-06-12T08:42:28Z</time>
      </trkpt>
      <trkpt lat="46.42206" lon="5.54938">
        <ele>359.2</ele>
        <time>2022-06-12T08:42:29Z</time>
      </trkpt>
      <trkpt lat="46.42202" lon="5.54953">
        <ele>358</ele>
        <time>2022-06-12T08:42:30Z</time>
      </trkpt>
      <trkpt lat="46.422" lon="5.54982">
        <ele>356.8</ele>
        <time>2022-06-12T08:42:32Z</time>
      </trkpt>
      <trkpt lat="46.42202" lon="5.55039">
        <ele>355.8</ele>
        <time>2022-06-12T08:42:36Z</time>
      </trkpt>
      <trkpt lat="46.42202" lon="5.55052">
        <ele>355.6</ele>
        <time>2022-06-12T08:42:37Z</time>
      </trkpt>
      <trkpt lat="46.42201" lon="5.55065">
        <ele>355.6</ele>
        <time>2022-06-12T08:42:38Z</time>
      </trkpt>
      <trkpt lat="46.42196" lon="5.55089">
        <ele>355.6</ele>
        <time>2022-06-12T08:42:40Z</time>
      </trkpt>
      <trkpt lat="46.42176" lon="5.55167">
        <ele>355.2</ele>
        <time>2022-06-12T08:42:47Z</time>
      </trkpt>
      <trkpt lat="46.42164" lon="5.55231">
        <ele>355.4</ele>
        <time>2022-06-12T08:42:53Z</time>
      </trkpt>
      <trkpt lat="46.42166" lon="5.55284">
        <ele>355.4</ele>
        <time>2022-06-12T08:42:58Z</time>
      </trkpt>
      <trkpt lat="46.42172" lon="5.55345">
        <ele>355.6</ele>
        <time>2022-06-12T08:43:04Z</time>
      </trkpt>
      <trkpt lat="46.42185" lon="5.55391">
        <ele>356</ele>
        <time>2022-06-12T08:43:09Z</time>
      </trkpt>
      <trkpt lat="46.42191" lon="5.55409">
        <ele>356.2</ele>
        <time>2022-06-12T08:43:11Z</time>
      </trkpt>
      <trkpt lat="46.42194" lon="5.55428">
        <ele>356.2</ele>
        <time>2022-06-12T08:43:13Z</time>
      </trkpt>
      <trkpt lat="46.42195" lon="5.55438">
        <ele>356.4</ele>
        <time>2022-06-12T08:43:14Z</time>
      </trkpt>
      <trkpt lat="46.42196" lon="5.55472">
        <ele>356.4</ele>
        <time>2022-06-12T08:43:18Z</time>
      </trkpt>
      <trkpt lat="46.42195" lon="5.55479">
        <ele>356.4</ele>
        <time>2022-06-12T08:43:19Z</time>
      </trkpt>
      <trkpt lat="46.42191" lon="5.55484">
        <ele>356.4</ele>
        <time>2022-06-12T08:43:20Z</time>
      </trkpt>
      <trkpt lat="46.42182" lon="5.55488">
        <ele>356.6</ele>
        <time>2022-06-12T08:43:22Z</time>
      </trkpt>
      <trkpt lat="46.42156" lon="5.55482">
        <ele>357</ele>
        <time>2022-06-12T08:43:26Z</time>
      </trkpt>
      <trkpt lat="46.42142" lon="5.55478">
        <ele>357</ele>
        <time>2022-06-12T08:43:28Z</time>
      </trkpt>
      <trkpt lat="46.42101" lon="5.55467">
        <ele>357.2</ele>
        <time>2022-06-12T08:43:34Z</time>
      </trkpt>
      <trkpt lat="46.42051" lon="5.55454">
        <ele>357</ele>
        <time>2022-06-12T08:43:41Z</time>
      </trkpt>
      <trkpt lat="46.41988" lon="5.55437">
        <ele>357.2</ele>
        <time>2022-06-12T08:43:49Z</time>
      </trkpt>
      <trkpt lat="46.41981" lon="5.55436">
        <ele>357.2</ele>
        <time>2022-06-12T08:43:51Z</time>
      </trkpt>
      <trkpt lat="46.41935" lon="5.55423">
        <ele>357.8</ele>
        <time>2022-06-12T08:43:58Z</time>
      </trkpt>
      <trkpt lat="46.41904" lon="5.55415">
        <ele>358</ele>
        <time>2022-06-12T08:44:03Z</time>
      </trkpt>
      <trkpt lat="46.41885" lon="5.55412">
        <ele>358.2</ele>
        <time>2022-06-12T08:44:05Z</time>
      </trkpt>
      <trkpt lat="46.41832" lon="5.55413">
        <ele>358.6</ele>
        <time>2022-06-12T08:44:14Z</time>
      </trkpt>
      <trkpt lat="46.41765" lon="5.55421">
        <ele>358.8</ele>
        <time>2022-06-12T08:44:23Z</time>
      </trkpt>
      <trkpt lat="46.41752" lon="5.55422">
        <ele>358.8</ele>
        <time>2022-06-12T08:44:25Z</time>
      </trkpt>
      <trkpt lat="46.41697" lon="5.55428">
        <ele>358.8</ele>
        <time>2022-06-12T08:44:33Z</time>
      </trkpt>
      <trkpt lat="46.4169" lon="5.55429">
        <ele>358.8</ele>
        <time>2022-06-12T08:44:34Z</time>
      </trkpt>
      <trkpt lat="46.41634" lon="5.55434">
        <ele>358.6</ele>
        <time>2022-06-12T08:44:42Z</time>
      </trkpt>
      <trkpt lat="46.41634" lon="5.55434">
        <ele>358.6</ele>
        <time>2022-06-12T08:44:43Z</time>
      </trkpt>
      <trkpt lat="46.41575" lon="5.5544">
        <ele>358.2</ele>
        <time>2022-06-12T08:44:50Z</time>
      </trkpt>
      <trkpt lat="46.41559" lon="5.55442">
        <ele>358.2</ele>
        <time>2022-06-12T08:44:52Z</time>
      </trkpt>
      <trkpt lat="46.41504" lon="5.55449">
        <ele>357.8</ele>
        <time>2022-06-12T08:44:59Z</time>
      </trkpt>
      <trkpt lat="46.41497" lon="5.55451">
        <ele>357.6</ele>
        <time>2022-06-12T08:45:00Z</time>
      </trkpt>
      <trkpt lat="46.41456" lon="5.55471">
        <ele>357.6</ele>
        <time>2022-06-12T08:45:06Z</time>
      </trkpt>
      <trkpt lat="46.41428" lon="5.55497">
        <ele>358</ele>
        <time>2022-06-12T08:45:11Z</time>
      </trkpt>
      <trkpt lat="46.41401" lon="5.55536">
        <ele>358.6</ele>
        <time>2022-06-12T08:45:17Z</time>
      </trkpt>
      <trkpt lat="46.41384" lon="5.55578">
        <ele>359.4</ele>
        <time>2022-06-12T08:45:23Z</time>
      </trkpt>
      <trkpt lat="46.41373" lon="5.55616">
        <ele>360.6</ele>
        <time>2022-06-12T08:45:28Z</time>
      </trkpt>
      <trkpt lat="46.4137" lon="5.55632">
        <ele>360.8</ele>
        <time>2022-06-12T08:45:30Z</time>
      </trkpt>
      <trkpt lat="46.41367" lon="5.55664">
        <ele>361.6</ele>
        <time>2022-06-12T08:45:34Z</time>
      </trkpt>
      <trkpt lat="46.41367" lon="5.55672">
        <ele>361.6</ele>
        <time>2022-06-12T08:45:35Z</time>
      </trkpt>
      <trkpt lat="46.41367" lon="5.55697">
        <ele>362</ele>
        <time>2022-06-12T08:45:38Z</time>
      </trkpt>
      <trkpt lat="46.41368" lon="5.55746">
        <ele>362.8</ele>
        <time>2022-06-12T08:45:44Z</time>
      </trkpt>
      <trkpt lat="46.41368" lon="5.55787">
        <ele>363.4</ele>
        <time>2022-06-12T08:45:49Z</time>
      </trkpt>
      <trkpt lat="46.41367" lon="5.55818">
        <ele>363.8</ele>
        <time>2022-06-12T08:45:53Z</time>
      </trkpt>
      <trkpt lat="46.41365" lon="5.5585">
        <ele>364.2</ele>
        <time>2022-06-12T08:45:57Z</time>
      </trkpt>
      <trkpt lat="46.41354" lon="5.55912">
        <ele>365</ele>
        <time>2022-06-12T08:46:05Z</time>
      </trkpt>
      <trkpt lat="46.41339" lon="5.55962">
        <ele>366</ele>
        <time>2022-06-12T08:46:12Z</time>
      </trkpt>
      <trkpt lat="46.41333" lon="5.55983">
        <ele>366.2</ele>
        <time>2022-06-12T08:46:15Z</time>
      </trkpt>
      <trkpt lat="46.4132" lon="5.56027">
        <ele>367.2</ele>
        <time>2022-06-12T08:46:21Z</time>
      </trkpt>
      <trkpt lat="46.41311" lon="5.56057">
        <ele>367.6</ele>
        <time>2022-06-12T08:46:25Z</time>
      </trkpt>
      <trkpt lat="46.413" lon="5.56096">
        <ele>368.2</ele>
        <time>2022-06-12T08:46:30Z</time>
      </trkpt>
      <trkpt lat="46.41282" lon="5.56155">
        <ele>368.6</ele>
        <time>2022-06-12T08:46:37Z</time>
      </trkpt>
      <trkpt lat="46.41257" lon="5.56212">
        <ele>368.4</ele>
        <time>2022-06-12T08:46:44Z</time>
      </trkpt>
      <trkpt lat="46.41226" lon="5.56248">
        <ele>368.6</ele>
        <time>2022-06-12T08:46:50Z</time>
      </trkpt>
      <trkpt lat="46.41193" lon="5.56269">
        <ele>369</ele>
        <time>2022-06-12T08:46:56Z</time>
      </trkpt>
      <trkpt lat="46.41177" lon="5.56273">
        <ele>369.2</ele>
        <time>2022-06-12T08:46:59Z</time>
      </trkpt>
      <trkpt lat="46.41161" lon="5.56275">
        <ele>369.4</ele>
        <time>2022-06-12T08:47:02Z</time>
      </trkpt>
      <trkpt lat="46.41138" lon="5.56272">
        <ele>370.4</ele>
        <time>2022-06-12T08:47:07Z</time>
      </trkpt>
      <trkpt lat="46.41117" lon="5.56268">
        <ele>371.6</ele>
        <time>2022-06-12T08:47:12Z</time>
      </trkpt>
      <trkpt lat="46.4111" lon="5.56266">
        <ele>372.2</ele>
        <time>2022-06-12T08:47:14Z</time>
      </trkpt>
      <trkpt lat="46.41098" lon="5.56264">
        <ele>372.8</ele>
        <time>2022-06-12T08:47:17Z</time>
      </trkpt>
      <trkpt lat="46.41078" lon="5.56261">
        <ele>374</ele>
        <time>2022-06-12T08:47:22Z</time>
      </trkpt>
      <trkpt lat="46.41074" lon="5.56261">
        <ele>374</ele>
        <time>2022-06-12T08:47:23Z</time>
      </trkpt>
      <trkpt lat="46.41048" lon="5.56263">
        <ele>375</ele>
        <time>2022-06-12T08:47:29Z</time>
      </trkpt>
      <trkpt lat="46.41036" lon="5.56267">
        <ele>375.8</ele>
        <time>2022-06-12T08:47:32Z</time>
      </trkpt>
      <trkpt lat="46.41028" lon="5.5627">
        <ele>376.2</ele>
        <time>2022-06-12T08:47:34Z</time>
      </trkpt>
      <trkpt lat="46.41006" lon="5.56278">
        <ele>377.2</ele>
        <time>2022-06-12T08:47:39Z</time>
      </trkpt>
      <trkpt lat="46.40994" lon="5.56284">
        <ele>378.2</ele>
        <time>2022-06-12T08:47:42Z</time>
      </trkpt>
      <trkpt lat="46.40994" lon="5.56284">
        <ele>378.2</ele>
        <time>2022-06-12T08:47:43Z</time>
      </trkpt>
      <trkpt lat="46.40971" lon="5.56296">
        <ele>379.4</ele>
        <time>2022-06-12T08:47:48Z</time>
      </trkpt>
      <trkpt lat="46.40956" lon="5.56303">
        <ele>380.4</ele>
        <time>2022-06-12T08:47:52Z</time>
      </trkpt>
      <trkpt lat="46.40952" lon="5.56305">
        <ele>380.6</ele>
        <time>2022-06-12T08:47:53Z</time>
      </trkpt>
      <trkpt lat="46.40938" lon="5.56312">
        <ele>381.8</ele>
        <time>2022-06-12T08:47:57Z</time>
      </trkpt>
      <trkpt lat="46.40917" lon="5.56322">
        <ele>382.8</ele>
        <time>2022-06-12T08:48:03Z</time>
      </trkpt>
      <trkpt lat="46.40913" lon="5.56324">
        <ele>383</ele>
        <time>2022-06-12T08:48:04Z</time>
      </trkpt>
      <trkpt lat="46.4091" lon="5.56325">
        <ele>383.2</ele>
        <time>2022-06-12T08:48:05Z</time>
      </trkpt>
      <trkpt lat="46.40895" lon="5.56333">
        <ele>383.8</ele>
        <time>2022-06-12T08:48:09Z</time>
      </trkpt>
      <trkpt lat="46.4088" lon="5.56339">
        <ele>385</ele>
        <time>2022-06-12T08:48:13Z</time>
      </trkpt>
      <trkpt lat="46.40869" lon="5.56345">
        <ele>385.8</ele>
        <time>2022-06-12T08:48:17Z</time>
      </trkpt>
      <trkpt lat="46.40862" lon="5.56349">
        <ele>386</ele>
        <time>2022-06-12T08:48:18Z</time>
      </trkpt>
      <trkpt lat="46.40848" lon="5.56358">
        <ele>387</ele>
        <time>2022-06-12T08:48:22Z</time>
      </trkpt>
      <trkpt lat="46.40838" lon="5.56367">
        <ele>387.8</ele>
        <time>2022-06-12T08:48:25Z</time>
      </trkpt>
      <trkpt lat="46.40831" lon="5.56373">
        <ele>388.2</ele>
        <time>2022-06-12T08:48:27Z</time>
      </trkpt>
      <trkpt lat="46.40814" lon="5.56388">
        <ele>389.2</ele>
        <time>2022-06-12T08:48:32Z</time>
      </trkpt>
      <trkpt lat="46.40811" lon="5.56392">
        <ele>389.4</ele>
        <time>2022-06-12T08:48:33Z</time>
      </trkpt>
      <trkpt lat="46.40794" lon="5.56409">
        <ele>390.4</ele>
        <time>2022-06-12T08:48:38Z</time>
      </trkpt>
      <trkpt lat="46.40777" lon="5.56424">
        <ele>391.6</ele>
        <time>2022-06-12T08:48:43Z</time>
      </trkpt>
      <trkpt lat="46.40767" lon="5.56432">
        <ele>392</ele>
        <time>2022-06-12T08:48:46Z</time>
      </trkpt>
      <trkpt lat="46.40752" lon="5.56441">
        <ele>393</ele>
        <time>2022-06-12T08:48:50Z</time>
      </trkpt>
      <trkpt lat="46.40738" lon="5.56447">
        <ele>394</ele>
        <time>2022-06-12T08:48:54Z</time>
      </trkpt>
      <trkpt lat="46.4073" lon="5.5645">
        <ele>394.4</ele>
        <time>2022-06-12T08:48:56Z</time>
      </trkpt>
      <trkpt lat="46.40714" lon="5.56454">
        <ele>395.2</ele>
        <time>2022-06-12T08:49:00Z</time>
      </trkpt>
      <trkpt lat="46.40706" lon="5.56455">
        <ele>395.6</ele>
        <time>2022-06-12T08:49:02Z</time>
      </trkpt>
      <trkpt lat="46.40695" lon="5.56457">
        <ele>396.4</ele>
        <time>2022-06-12T08:49:05Z</time>
      </trkpt>
      <trkpt lat="46.40675" lon="5.56456">
        <ele>397.4</ele>
        <time>2022-06-12T08:49:10Z</time>
      </trkpt>
      <trkpt lat="46.4066" lon="5.56453">
        <ele>398.4</ele>
        <time>2022-06-12T08:49:14Z</time>
      </trkpt>
      <trkpt lat="46.40656" lon="5.56453">
        <ele>398.6</ele>
        <time>2022-06-12T08:49:15Z</time>
      </trkpt>
      <trkpt lat="46.40638" lon="5.56446">
        <ele>399.6</ele>
        <time>2022-06-12T08:49:20Z</time>
      </trkpt>
      <trkpt lat="46.40619" lon="5.56437">
        <ele>400.6</ele>
        <time>2022-06-12T08:49:25Z</time>
      </trkpt>
      <trkpt lat="46.40615" lon="5.56434">
        <ele>400.8</ele>
        <time>2022-06-12T08:49:26Z</time>
      </trkpt>
      <trkpt lat="46.40598" lon="5.56421">
        <ele>401.8</ele>
        <time>2022-06-12T08:49:31Z</time>
      </trkpt>
      <trkpt lat="46.40591" lon="5.56414">
        <ele>402.2</ele>
        <time>2022-06-12T08:49:33Z</time>
      </trkpt>
      <trkpt lat="46.40581" lon="5.56403">
        <ele>402.8</ele>
        <time>2022-06-12T08:49:36Z</time>
      </trkpt>
      <trkpt lat="46.40567" lon="5.56382">
        <ele>403.6</ele>
        <time>2022-06-12T08:49:41Z</time>
      </trkpt>
      <trkpt lat="46.40564" lon="5.56377">
        <ele>403.8</ele>
        <time>2022-06-12T08:49:42Z</time>
      </trkpt>
      <trkpt lat="46.40545" lon="5.56344">
        <ele>405</ele>
        <time>2022-06-12T08:49:49Z</time>
      </trkpt>
      <trkpt lat="46.4053" lon="5.56322">
        <ele>406</ele>
        <time>2022-06-12T08:49:54Z</time>
      </trkpt>
      <trkpt lat="46.4053" lon="5.56322">
        <ele>406.2</ele>
        <time>2022-06-12T08:49:55Z</time>
      </trkpt>
      <trkpt lat="46.40523" lon="5.56314">
        <ele>406.4</ele>
        <time>2022-06-12T08:49:56Z</time>
      </trkpt>
      <trkpt lat="46.40508" lon="5.56301">
        <ele>407.2</ele>
        <time>2022-06-12T08:50:00Z</time>
      </trkpt>
      <trkpt lat="46.40504" lon="5.56298">
        <ele>407.2</ele>
        <time>2022-06-12T08:50:01Z</time>
      </trkpt>
      <trkpt lat="46.40476" lon="5.56289">
        <ele>408.2</ele>
        <time>2022-06-12T08:50:07Z</time>
      </trkpt>
      <trkpt lat="46.40467" lon="5.56288">
        <ele>408.4</ele>
        <time>2022-06-12T08:50:09Z</time>
      </trkpt>
      <trkpt lat="46.40443" lon="5.5629">
        <ele>409.4</ele>
        <time>2022-06-12T08:50:14Z</time>
      </trkpt>
      <trkpt lat="46.40439" lon="5.56291">
        <ele>409.4</ele>
        <time>2022-06-12T08:50:15Z</time>
      </trkpt>
      <trkpt lat="46.40417" lon="5.563">
        <ele>410.4</ele>
        <time>2022-06-12T08:50:20Z</time>
      </trkpt>
      <trkpt lat="46.40408" lon="5.56304">
        <ele>410.8</ele>
        <time>2022-06-12T08:50:22Z</time>
      </trkpt>
      <trkpt lat="46.40395" lon="5.5631">
        <ele>411.6</ele>
        <time>2022-06-12T08:50:25Z</time>
      </trkpt>
      <trkpt lat="46.40364" lon="5.56325">
        <ele>412.6</ele>
        <time>2022-06-12T08:50:32Z</time>
      </trkpt>
      <trkpt lat="46.40315" lon="5.56349">
        <ele>413.6</ele>
        <time>2022-06-12T08:50:42Z</time>
      </trkpt>
      <trkpt lat="46.40309" lon="5.56352">
        <ele>413.6</ele>
        <time>2022-06-12T08:50:43Z</time>
      </trkpt>
      <trkpt lat="46.40268" lon="5.5637">
        <ele>414.6</ele>
        <time>2022-06-12T08:50:51Z</time>
      </trkpt>
      <trkpt lat="46.40258" lon="5.56374">
        <ele>414.8</ele>
        <time>2022-06-12T08:50:53Z</time>
      </trkpt>
      <trkpt lat="46.40224" lon="5.56385">
        <ele>415</ele>
        <time>2022-06-12T08:50:59Z</time>
      </trkpt>
      <trkpt lat="46.40181" lon="5.56394">
        <ele>415.6</ele>
        <time>2022-06-12T08:51:07Z</time>
      </trkpt>
      <trkpt lat="46.40165" lon="5.56397">
        <ele>416.2</ele>
        <time>2022-06-12T08:51:10Z</time>
      </trkpt>
      <trkpt lat="46.40145" lon="5.56402">
        <ele>416.6</ele>
        <time>2022-06-12T08:51:14Z</time>
      </trkpt>
      <trkpt lat="46.40124" lon="5.56405">
        <ele>417.2</ele>
        <time>2022-06-12T08:51:18Z</time>
      </trkpt>
      <trkpt lat="46.40104" lon="5.56408">
        <ele>417.8</ele>
        <time>2022-06-12T08:51:22Z</time>
      </trkpt>
      <trkpt lat="46.40094" lon="5.5641">
        <ele>418.2</ele>
        <time>2022-06-12T08:51:24Z</time>
      </trkpt>
      <trkpt lat="46.40061" lon="5.56422">
        <ele>419.6</ele>
        <time>2022-06-12T08:51:31Z</time>
      </trkpt>
      <trkpt lat="46.40038" lon="5.56431">
        <ele>420.8</ele>
        <time>2022-06-12T08:51:36Z</time>
      </trkpt>
      <trkpt lat="46.40025" lon="5.56438">
        <ele>421.4</ele>
        <time>2022-06-12T08:51:39Z</time>
      </trkpt>
      <trkpt lat="46.40017" lon="5.56443">
        <ele>422</ele>
        <time>2022-06-12T08:51:41Z</time>
      </trkpt>
      <trkpt lat="46.39993" lon="5.56462">
        <ele>423</ele>
        <time>2022-06-12T08:51:47Z</time>
      </trkpt>
      <trkpt lat="46.39989" lon="5.56465">
        <ele>423.2</ele>
        <time>2022-06-12T08:51:48Z</time>
      </trkpt>
      <trkpt lat="46.39973" lon="5.56477">
        <ele>424.4</ele>
        <time>2022-06-12T08:51:52Z</time>
      </trkpt>
      <trkpt lat="46.39953" lon="5.56497">
        <ele>425.6</ele>
        <time>2022-06-12T08:51:57Z</time>
      </trkpt>
      <trkpt lat="46.39948" lon="5.56501">
        <ele>425.6</ele>
        <time>2022-06-12T08:51:58Z</time>
      </trkpt>
      <trkpt lat="46.39922" lon="5.56526">
        <ele>426.6</ele>
        <time>2022-06-12T08:52:04Z</time>
      </trkpt>
      <trkpt lat="46.39909" lon="5.56537">
        <ele>426.8</ele>
        <time>2022-06-12T08:52:07Z</time>
      </trkpt>
      <trkpt lat="46.39891" lon="5.56553">
        <ele>427.2</ele>
        <time>2022-06-12T08:52:11Z</time>
      </trkpt>
      <trkpt lat="46.39877" lon="5.56562">
        <ele>427.2</ele>
        <time>2022-06-12T08:52:14Z</time>
      </trkpt>
      <trkpt lat="46.39857" lon="5.5657">
        <ele>427.6</ele>
        <time>2022-06-12T08:52:19Z</time>
      </trkpt>
      <trkpt lat="46.39823" lon="5.56583">
        <ele>428.6</ele>
        <time>2022-06-12T08:52:25Z</time>
      </trkpt>
      <trkpt lat="46.39818" lon="5.56584">
        <ele>428.8</ele>
        <time>2022-06-12T08:52:26Z</time>
      </trkpt>
      <trkpt lat="46.39783" lon="5.56597">
        <ele>430</ele>
        <time>2022-06-12T08:52:34Z</time>
      </trkpt>
      <trkpt lat="46.39778" lon="5.56598">
        <ele>430</ele>
        <time>2022-06-12T08:52:35Z</time>
      </trkpt>
      <trkpt lat="46.39757" lon="5.56606">
        <ele>431</ele>
        <time>2022-06-12T08:52:40Z</time>
      </trkpt>
      <trkpt lat="46.39744" lon="5.56611">
        <ele>431.6</ele>
        <time>2022-06-12T08:52:43Z</time>
      </trkpt>
      <trkpt lat="46.39736" lon="5.56614">
        <ele>432</ele>
        <time>2022-06-12T08:52:45Z</time>
      </trkpt>
      <trkpt lat="46.39717" lon="5.56621">
        <ele>433.2</ele>
        <time>2022-06-12T08:52:50Z</time>
      </trkpt>
      <trkpt lat="46.39705" lon="5.56626">
        <ele>434</ele>
        <time>2022-06-12T08:52:53Z</time>
      </trkpt>
      <trkpt lat="46.39694" lon="5.5663">
        <ele>434.4</ele>
        <time>2022-06-12T08:52:56Z</time>
      </trkpt>
      <trkpt lat="46.39674" lon="5.56638">
        <ele>435.4</ele>
        <time>2022-06-12T08:53:01Z</time>
      </trkpt>
      <trkpt lat="46.39659" lon="5.56644">
        <ele>436.6</ele>
        <time>2022-06-12T08:53:06Z</time>
      </trkpt>
      <trkpt lat="46.39637" lon="5.56657">
        <ele>437.6</ele>
        <time>2022-06-12T08:53:11Z</time>
      </trkpt>
      <trkpt lat="46.39633" lon="5.5666">
        <ele>437.6</ele>
        <time>2022-06-12T08:53:12Z</time>
      </trkpt>
      <trkpt lat="46.39619" lon="5.56668">
        <ele>438.8</ele>
        <time>2022-06-12T08:53:16Z</time>
      </trkpt>
      <trkpt lat="46.39601" lon="5.5668">
        <ele>439.4</ele>
        <time>2022-06-12T08:53:21Z</time>
      </trkpt>
      <trkpt lat="46.39594" lon="5.56684">
        <ele>439.8</ele>
        <time>2022-06-12T08:53:23Z</time>
      </trkpt>
      <trkpt lat="46.39579" lon="5.56691">
        <ele>440.8</ele>
        <time>2022-06-12T08:53:27Z</time>
      </trkpt>
      <trkpt lat="46.39575" lon="5.56693">
        <ele>441</ele>
        <time>2022-06-12T08:53:28Z</time>
      </trkpt>
      <trkpt lat="46.39557" lon="5.56703">
        <ele>442.2</ele>
        <time>2022-06-12T08:53:33Z</time>
      </trkpt>
      <trkpt lat="46.39549" lon="5.56707">
        <ele>442.8</ele>
        <time>2022-06-12T08:53:35Z</time>
      </trkpt>
      <trkpt lat="46.39538" lon="5.56713">
        <ele>443.4</ele>
        <time>2022-06-12T08:53:38Z</time>
      </trkpt>
      <trkpt lat="46.3952" lon="5.56723">
        <ele>444.4</ele>
        <time>2022-06-12T08:53:43Z</time>
      </trkpt>
      <trkpt lat="46.39517" lon="5.56725">
        <ele>444.8</ele>
        <time>2022-06-12T08:53:44Z</time>
      </trkpt>
      <trkpt lat="46.39509" lon="5.56729">
        <ele>445.6</ele>
        <time>2022-06-12T08:53:46Z</time>
      </trkpt>
      <trkpt lat="46.39491" lon="5.56738">
        <ele>447</ele>
        <time>2022-06-12T08:53:51Z</time>
      </trkpt>
      <trkpt lat="46.39477" lon="5.56744">
        <ele>448</ele>
        <time>2022-06-12T08:53:55Z</time>
      </trkpt>
      <trkpt lat="46.39455" lon="5.56754">
        <ele>449</ele>
        <time>2022-06-12T08:54:01Z</time>
      </trkpt>
      <trkpt lat="46.39441" lon="5.56759">
        <ele>450.2</ele>
        <time>2022-06-12T08:54:05Z</time>
      </trkpt>
      <trkpt lat="46.39426" lon="5.56765">
        <ele>451.2</ele>
        <time>2022-06-12T08:54:09Z</time>
      </trkpt>
      <trkpt lat="46.39418" lon="5.56768">
        <ele>451.8</ele>
        <time>2022-06-12T08:54:11Z</time>
      </trkpt>
      <trkpt lat="46.39406" lon="5.56772">
        <ele>452.4</ele>
        <time>2022-06-12T08:54:14Z</time>
      </trkpt>
      <trkpt lat="46.39398" lon="5.56771">
        <ele>452.6</ele>
        <time>2022-06-12T08:54:16Z</time>
      </trkpt>
      <trkpt lat="46.39394" lon="5.5677">
        <ele>452.8</ele>
        <time>2022-06-12T08:54:17Z</time>
      </trkpt>
      <trkpt lat="46.39369" lon="5.56764">
        <ele>453.4</ele>
        <time>2022-06-12T08:54:22Z</time>
      </trkpt>
      <trkpt lat="46.39364" lon="5.56762">
        <ele>453.6</ele>
        <time>2022-06-12T08:54:23Z</time>
      </trkpt>
      <trkpt lat="46.39351" lon="5.56751">
        <ele>454</ele>
        <time>2022-06-12T08:54:26Z</time>
      </trkpt>
      <trkpt lat="46.39347" lon="5.56747">
        <ele>454.2</ele>
        <time>2022-06-12T08:54:27Z</time>
      </trkpt>
      <trkpt lat="46.3934" lon="5.56738">
        <ele>454.4</ele>
        <time>2022-06-12T08:54:29Z</time>
      </trkpt>
      <trkpt lat="46.39331" lon="5.56728">
        <ele>454.6</ele>
        <time>2022-06-12T08:54:31Z</time>
      </trkpt>
      <trkpt lat="46.3933" lon="5.56713">
        <ele>454.8</ele>
        <time>2022-06-12T08:54:33Z</time>
      </trkpt>
      <trkpt lat="46.39338" lon="5.56691">
        <ele>454.8</ele>
        <time>2022-06-12T08:54:36Z</time>
      </trkpt>
      <trkpt lat="46.3934" lon="5.56682">
        <ele>454.8</ele>
        <time>2022-06-12T08:54:37Z</time>
      </trkpt>
      <trkpt lat="46.39346" lon="5.56636">
        <ele>454.4</ele>
        <time>2022-06-12T08:54:42Z</time>
      </trkpt>
      <trkpt lat="46.39355" lon="5.56609">
        <ele>453.8</ele>
        <time>2022-06-12T08:54:45Z</time>
      </trkpt>
      <trkpt lat="46.39358" lon="5.56599">
        <ele>453.6</ele>
        <time>2022-06-12T08:54:46Z</time>
      </trkpt>
      <trkpt lat="46.39363" lon="5.5659">
        <ele>453.2</ele>
        <time>2022-06-12T08:54:47Z</time>
      </trkpt>
      <trkpt lat="46.39373" lon="5.56575">
        <ele>452.6</ele>
        <time>2022-06-12T08:54:49Z</time>
      </trkpt>
      <trkpt lat="46.39376" lon="5.56553">
        <ele>452</ele>
        <time>2022-06-12T08:54:51Z</time>
      </trkpt>
      <trkpt lat="46.39375" lon="5.56542">
        <ele>451.6</ele>
        <time>2022-06-12T08:54:52Z</time>
      </trkpt>
      <trkpt lat="46.39372" lon="5.56523">
        <ele>451</ele>
        <time>2022-06-12T08:54:54Z</time>
      </trkpt>
      <trkpt lat="46.39364" lon="5.56502">
        <ele>450.2</ele>
        <time>2022-06-12T08:54:56Z</time>
      </trkpt>
      <trkpt lat="46.39353" lon="5.56485">
        <ele>449.4</ele>
        <time>2022-06-12T08:54:58Z</time>
      </trkpt>
      <trkpt lat="46.39333" lon="5.56459">
        <ele>449</ele>
        <time>2022-06-12T08:55:01Z</time>
      </trkpt>
      <trkpt lat="46.39312" lon="5.56433">
        <ele>448.4</ele>
        <time>2022-06-12T08:55:04Z</time>
      </trkpt>
      <trkpt lat="46.39303" lon="5.56428">
        <ele>448.2</ele>
        <time>2022-06-12T08:55:05Z</time>
      </trkpt>
      <trkpt lat="46.39293" lon="5.56427">
        <ele>447.6</ele>
        <time>2022-06-12T08:55:06Z</time>
      </trkpt>
      <trkpt lat="46.39274" lon="5.56431">
        <ele>447</ele>
        <time>2022-06-12T08:55:08Z</time>
      </trkpt>
      <trkpt lat="46.39246" lon="5.56438">
        <ele>445.6</ele>
        <time>2022-06-12T08:55:11Z</time>
      </trkpt>
      <trkpt lat="46.39228" lon="5.56442">
        <ele>444.6</ele>
        <time>2022-06-12T08:55:13Z</time>
      </trkpt>
      <trkpt lat="46.39211" lon="5.56446">
        <ele>444</ele>
        <time>2022-06-12T08:55:15Z</time>
      </trkpt>
      <trkpt lat="46.39182" lon="5.5645">
        <ele>443.8</ele>
        <time>2022-06-12T08:55:19Z</time>
      </trkpt>
      <trkpt lat="46.39164" lon="5.5645">
        <ele>444</ele>
        <time>2022-06-12T08:55:22Z</time>
      </trkpt>
      <trkpt lat="46.39158" lon="5.56449">
        <ele>444.2</ele>
        <time>2022-06-12T08:55:23Z</time>
      </trkpt>
      <trkpt lat="46.39137" lon="5.56441">
        <ele>445.8</ele>
        <time>2022-06-12T08:55:27Z</time>
      </trkpt>
      <trkpt lat="46.39119" lon="5.56434">
        <ele>446.6</ele>
        <time>2022-06-12T08:55:30Z</time>
      </trkpt>
      <trkpt lat="46.39113" lon="5.56433">
        <ele>447.6</ele>
        <time>2022-06-12T08:55:31Z</time>
      </trkpt>
      <trkpt lat="46.39086" lon="5.56431">
        <ele>448.8</ele>
        <time>2022-06-12T08:55:35Z</time>
      </trkpt>
      <trkpt lat="46.39079" lon="5.56431">
        <ele>449.2</ele>
        <time>2022-06-12T08:55:36Z</time>
      </trkpt>
      <trkpt lat="46.39033" lon="5.56431">
        <ele>449.6</ele>
        <time>2022-06-12T08:55:42Z</time>
      </trkpt>
      <trkpt lat="46.38973" lon="5.56434">
        <ele>448.8</ele>
        <time>2022-06-12T08:55:49Z</time>
      </trkpt>
      <trkpt lat="46.38919" lon="5.56433">
        <ele>448</ele>
        <time>2022-06-12T08:55:55Z</time>
      </trkpt>
      <trkpt lat="46.38899" lon="5.56433">
        <ele>447.6</ele>
        <time>2022-06-12T08:55:57Z</time>
      </trkpt>
      <trkpt lat="46.3887" lon="5.56433">
        <ele>446.6</ele>
        <time>2022-06-12T08:56:00Z</time>
      </trkpt>
      <trkpt lat="46.38861" lon="5.56433">
        <ele>446.2</ele>
        <time>2022-06-12T08:56:01Z</time>
      </trkpt>
      <trkpt lat="46.38814" lon="5.56433">
        <ele>445</ele>
        <time>2022-06-12T08:56:06Z</time>
      </trkpt>
      <trkpt lat="46.38805" lon="5.56433">
        <ele>445</ele>
        <time>2022-06-12T08:56:07Z</time>
      </trkpt>
      <trkpt lat="46.38749" lon="5.56432">
        <ele>443.6</ele>
        <time>2022-06-12T08:56:13Z</time>
      </trkpt>
      <trkpt lat="46.3872" lon="5.56433">
        <ele>442.8</ele>
        <time>2022-06-12T08:56:16Z</time>
      </trkpt>
      <trkpt lat="46.38701" lon="5.56433">
        <ele>442.4</ele>
        <time>2022-06-12T08:56:18Z</time>
      </trkpt>
      <trkpt lat="46.38638" lon="5.56433">
        <ele>441.4</ele>
        <time>2022-06-12T08:56:25Z</time>
      </trkpt>
      <trkpt lat="46.38579" lon="5.56435">
        <ele>440.8</ele>
        <time>2022-06-12T08:56:32Z</time>
      </trkpt>
      <trkpt lat="46.38571" lon="5.56435">
        <ele>440.8</ele>
        <time>2022-06-12T08:56:33Z</time>
      </trkpt>
      <trkpt lat="46.38516" lon="5.56436">
        <ele>441</ele>
        <time>2022-06-12T08:56:40Z</time>
      </trkpt>
      <trkpt lat="46.38509" lon="5.56436">
        <ele>441.2</ele>
        <time>2022-06-12T08:56:41Z</time>
      </trkpt>
      <trkpt lat="46.38454" lon="5.56436">
        <ele>442.2</ele>
        <time>2022-06-12T08:56:49Z</time>
      </trkpt>
      <trkpt lat="46.38448" lon="5.56436">
        <ele>442.4</ele>
        <time>2022-06-12T08:56:50Z</time>
      </trkpt>
      <trkpt lat="46.38411" lon="5.56437">
        <ele>443.4</ele>
        <time>2022-06-12T08:56:56Z</time>
      </trkpt>
      <trkpt lat="46.38406" lon="5.56437">
        <ele>443.6</ele>
        <time>2022-06-12T08:56:57Z</time>
      </trkpt>
      <trkpt lat="46.38376" lon="5.56438">
        <ele>444.8</ele>
        <time>2022-06-12T08:57:02Z</time>
      </trkpt>
      <trkpt lat="46.38323" lon="5.56436">
        <ele>445.8</ele>
        <time>2022-06-12T08:57:11Z</time>
      </trkpt>
      <trkpt lat="46.38304" lon="5.56437">
        <ele>446.6</ele>
        <time>2022-06-12T08:57:14Z</time>
      </trkpt>
      <trkpt lat="46.38262" lon="5.56437">
        <ele>447</ele>
        <time>2022-06-12T08:57:21Z</time>
      </trkpt>
      <trkpt lat="46.38245" lon="5.56436">
        <ele>447.2</ele>
        <time>2022-06-12T08:57:24Z</time>
      </trkpt>
      <trkpt lat="46.38194" lon="5.56437">
        <ele>448</ele>
        <time>2022-06-12T08:57:33Z</time>
      </trkpt>
      <trkpt lat="46.38154" lon="5.56436">
        <ele>449</ele>
        <time>2022-06-12T08:57:40Z</time>
      </trkpt>
      <trkpt lat="46.38143" lon="5.56435">
        <ele>449.4</ele>
        <time>2022-06-12T08:57:42Z</time>
      </trkpt>
      <trkpt lat="46.38116" lon="5.56428">
        <ele>450</ele>
        <time>2022-06-12T08:57:47Z</time>
      </trkpt>
      <trkpt lat="46.38099" lon="5.56422">
        <ele>450.4</ele>
        <time>2022-06-12T08:57:50Z</time>
      </trkpt>
      <trkpt lat="46.38063" lon="5.5641">
        <ele>451.2</ele>
        <time>2022-06-12T08:57:56Z</time>
      </trkpt>
      <trkpt lat="46.38044" lon="5.56405">
        <ele>451.4</ele>
        <time>2022-06-12T08:57:59Z</time>
      </trkpt>
      <trkpt lat="46.37999" lon="5.56389">
        <ele>451.4</ele>
        <time>2022-06-12T08:58:06Z</time>
      </trkpt>
      <trkpt lat="46.37956" lon="5.56368">
        <ele>451.6</ele>
        <time>2022-06-12T08:58:13Z</time>
      </trkpt>
      <trkpt lat="46.37912" lon="5.56353">
        <ele>452</ele>
        <time>2022-06-12T08:58:20Z</time>
      </trkpt>
      <trkpt lat="46.37893" lon="5.56346">
        <ele>452</ele>
        <time>2022-06-12T08:58:23Z</time>
      </trkpt>
      <trkpt lat="46.37874" lon="5.56336">
        <ele>452.2</ele>
        <time>2022-06-12T08:58:26Z</time>
      </trkpt>
      <trkpt lat="46.37824" lon="5.5632">
        <ele>451.6</ele>
        <time>2022-06-12T08:58:32Z</time>
      </trkpt>
      <trkpt lat="46.37767" lon="5.56307">
        <ele>450.4</ele>
        <time>2022-06-12T08:58:38Z</time>
      </trkpt>
      <trkpt lat="46.37758" lon="5.56305">
        <ele>450.4</ele>
        <time>2022-06-12T08:58:39Z</time>
      </trkpt>
      <trkpt lat="46.37749" lon="5.56303">
        <ele>449.8</ele>
        <time>2022-06-12T08:58:40Z</time>
      </trkpt>
      <trkpt lat="46.37699" lon="5.5629">
        <ele>449.2</ele>
        <time>2022-06-12T08:58:46Z</time>
      </trkpt>
      <trkpt lat="46.37641" lon="5.56276">
        <ele>449.2</ele>
        <time>2022-06-12T08:58:53Z</time>
      </trkpt>
      <trkpt lat="46.37632" lon="5.56274">
        <ele>449.2</ele>
        <time>2022-06-12T08:58:54Z</time>
      </trkpt>
      <trkpt lat="46.37598" lon="5.56266">
        <ele>448.8</ele>
        <time>2022-06-12T08:58:58Z</time>
      </trkpt>
      <trkpt lat="46.37549" lon="5.56253">
        <ele>448</ele>
        <time>2022-06-12T08:59:04Z</time>
      </trkpt>
      <trkpt lat="46.37498" lon="5.56241">
        <ele>448.6</ele>
        <time>2022-06-12T08:59:11Z</time>
      </trkpt>
      <trkpt lat="46.37444" lon="5.56227">
        <ele>449.8</ele>
        <time>2022-06-12T08:59:19Z</time>
      </trkpt>
      <trkpt lat="46.37395" lon="5.56215">
        <ele>450.6</ele>
        <time>2022-06-12T08:59:26Z</time>
      </trkpt>
      <trkpt lat="46.37367" lon="5.56208">
        <ele>450.8</ele>
        <time>2022-06-12T08:59:30Z</time>
      </trkpt>
      <trkpt lat="46.37331" lon="5.56199">
        <ele>451</ele>
        <time>2022-06-12T08:59:35Z</time>
      </trkpt>
      <trkpt lat="46.37277" lon="5.56185">
        <ele>451</ele>
        <time>2022-06-12T08:59:42Z</time>
      </trkpt>
      <trkpt lat="46.37259" lon="5.56181">
        <ele>451</ele>
        <time>2022-06-12T08:59:44Z</time>
      </trkpt>
      <trkpt lat="46.37206" lon="5.56167">
        <ele>450.4</ele>
        <time>2022-06-12T08:59:50Z</time>
      </trkpt>
      <trkpt lat="46.3718" lon="5.5616">
        <ele>449.6</ele>
        <time>2022-06-12T08:59:53Z</time>
      </trkpt>
      <trkpt lat="46.3714" lon="5.56151">
        <ele>449.2</ele>
        <time>2022-06-12T08:59:58Z</time>
      </trkpt>
      <trkpt lat="46.37097" lon="5.56139">
        <ele>449.6</ele>
        <time>2022-06-12T09:00:04Z</time>
      </trkpt>
      <trkpt lat="46.37043" lon="5.56125">
        <ele>450.2</ele>
        <time>2022-06-12T09:00:12Z</time>
      </trkpt>
      <trkpt lat="46.37023" lon="5.5612">
        <ele>451.2</ele>
        <time>2022-06-12T09:00:15Z</time>
      </trkpt>
      <trkpt lat="46.36982" lon="5.5611">
        <ele>452</ele>
        <time>2022-06-12T09:00:21Z</time>
      </trkpt>
      <trkpt lat="46.36977" lon="5.56109">
        <ele>452</ele>
        <time>2022-06-12T09:00:22Z</time>
      </trkpt>
      <trkpt lat="46.36921" lon="5.56096">
        <ele>453.4</ele>
        <time>2022-06-12T09:00:31Z</time>
      </trkpt>
      <trkpt lat="46.36908" lon="5.56093">
        <ele>453.6</ele>
        <time>2022-06-12T09:00:33Z</time>
      </trkpt>
      <trkpt lat="46.36884" lon="5.56087">
        <ele>454.4</ele>
        <time>2022-06-12T09:00:37Z</time>
      </trkpt>
      <trkpt lat="46.36856" lon="5.5608">
        <ele>455</ele>
        <time>2022-06-12T09:00:42Z</time>
      </trkpt>
      <trkpt lat="46.36832" lon="5.56074">
        <ele>455.4</ele>
        <time>2022-06-12T09:00:46Z</time>
      </trkpt>
      <trkpt lat="46.36807" lon="5.56067">
        <ele>456</ele>
        <time>2022-06-12T09:00:51Z</time>
      </trkpt>
      <trkpt lat="46.36796" lon="5.56064">
        <ele>456.6</ele>
        <time>2022-06-12T09:00:53Z</time>
      </trkpt>
      <trkpt lat="46.36747" lon="5.56052">
        <ele>457.8</ele>
        <time>2022-06-12T09:01:02Z</time>
      </trkpt>
      <trkpt lat="46.36704" lon="5.56041">
        <ele>458.6</ele>
        <time>2022-06-12T09:01:09Z</time>
      </trkpt>
      <trkpt lat="46.3667" lon="5.56033">
        <ele>458.6</ele>
        <time>2022-06-12T09:01:14Z</time>
      </trkpt>
      <trkpt lat="46.36656" lon="5.56029">
        <ele>458.4</ele>
        <time>2022-06-12T09:01:16Z</time>
      </trkpt>
      <trkpt lat="46.36598" lon="5.56014">
        <ele>457.4</ele>
        <time>2022-06-12T09:01:24Z</time>
      </trkpt>
      <trkpt lat="46.3659" lon="5.56011">
        <ele>457.4</ele>
        <time>2022-06-12T09:01:25Z</time>
      </trkpt>
      <trkpt lat="46.36533" lon="5.55997">
        <ele>457.4</ele>
        <time>2022-06-12T09:01:33Z</time>
      </trkpt>
      <trkpt lat="46.36497" lon="5.55987">
        <ele>457.4</ele>
        <time>2022-06-12T09:01:38Z</time>
      </trkpt>
      <trkpt lat="46.36443" lon="5.55973">
        <ele>457.2</ele>
        <time>2022-06-12T09:01:46Z</time>
      </trkpt>
      <trkpt lat="46.36386" lon="5.55959">
        <ele>457.6</ele>
        <time>2022-06-12T09:01:54Z</time>
      </trkpt>
      <trkpt lat="46.36378" lon="5.55956">
        <ele>457.6</ele>
        <time>2022-06-12T09:01:55Z</time>
      </trkpt>
      <trkpt lat="46.36339" lon="5.55946">
        <ele>456.6</ele>
        <time>2022-06-12T09:02:00Z</time>
      </trkpt>
      <trkpt lat="46.36325" lon="5.55942">
        <ele>456.2</ele>
        <time>2022-06-12T09:02:02Z</time>
      </trkpt>
      <trkpt lat="46.3627" lon="5.55928">
        <ele>456</ele>
        <time>2022-06-12T09:02:10Z</time>
      </trkpt>
      <trkpt lat="46.36219" lon="5.55915">
        <ele>456</ele>
        <time>2022-06-12T09:02:17Z</time>
      </trkpt>
      <trkpt lat="46.36168" lon="5.55902">
        <ele>455.4</ele>
        <time>2022-06-12T09:02:23Z</time>
      </trkpt>
      <trkpt lat="46.36159" lon="5.55899">
        <ele>454.8</ele>
        <time>2022-06-12T09:02:24Z</time>
      </trkpt>
      <trkpt lat="46.3614" lon="5.55893">
        <ele>454</ele>
        <time>2022-06-12T09:02:26Z</time>
      </trkpt>
      <trkpt lat="46.3611" lon="5.55886">
        <ele>452.8</ele>
        <time>2022-06-12T09:02:29Z</time>
      </trkpt>
      <trkpt lat="46.36101" lon="5.55883">
        <ele>452.2</ele>
        <time>2022-06-12T09:02:30Z</time>
      </trkpt>
      <trkpt lat="46.36085" lon="5.55879">
        <ele>451.6</ele>
        <time>2022-06-12T09:02:32Z</time>
      </trkpt>
      <trkpt lat="46.36034" lon="5.55866">
        <ele>450.6</ele>
        <time>2022-06-12T09:02:38Z</time>
      </trkpt>
      <trkpt lat="46.36012" lon="5.55861">
        <ele>450.4</ele>
        <time>2022-06-12T09:02:41Z</time>
      </trkpt>
      <trkpt lat="46.35998" lon="5.55863">
        <ele>450.2</ele>
        <time>2022-06-12T09:02:43Z</time>
      </trkpt>
      <trkpt lat="46.35979" lon="5.55869">
        <ele>450.4</ele>
        <time>2022-06-12T09:02:46Z</time>
      </trkpt>
      <trkpt lat="46.35972" lon="5.55867">
        <ele>450.4</ele>
        <time>2022-06-12T09:02:47Z</time>
      </trkpt>
      <trkpt lat="46.35968" lon="5.55864">
        <ele>450.4</ele>
        <time>2022-06-12T09:02:48Z</time>
      </trkpt>
      <trkpt lat="46.35964" lon="5.55849">
        <ele>450.6</ele>
        <time>2022-06-12T09:02:50Z</time>
      </trkpt>
      <trkpt lat="46.35967" lon="5.5583">
        <ele>450.8</ele>
        <time>2022-06-12T09:02:52Z</time>
      </trkpt>
      <trkpt lat="46.3597" lon="5.55823">
        <ele>451</ele>
        <time>2022-06-12T09:02:53Z</time>
      </trkpt>
      <trkpt lat="46.35976" lon="5.55805">
        <ele>451</ele>
        <time>2022-06-12T09:02:55Z</time>
      </trkpt>
      <trkpt lat="46.35984" lon="5.55788">
        <ele>451</ele>
        <time>2022-06-12T09:02:57Z</time>
      </trkpt>
      <trkpt lat="46.35987" lon="5.55777">
        <ele>451</ele>
        <time>2022-06-12T09:02:58Z</time>
      </trkpt>
      <trkpt lat="46.35994" lon="5.55703">
        <ele>450.6</ele>
        <time>2022-06-12T09:03:05Z</time>
      </trkpt>
      <trkpt lat="46.35995" lon="5.55634">
        <ele>450</ele>
        <time>2022-06-12T09:03:11Z</time>
      </trkpt>
      <trkpt lat="46.35995" lon="5.55611">
        <ele>449.6</ele>
        <time>2022-06-12T09:03:13Z</time>
      </trkpt>
      <trkpt lat="46.36" lon="5.55588">
        <ele>449.6</ele>
        <time>2022-06-12T09:03:15Z</time>
      </trkpt>
      <trkpt lat="46.36004" lon="5.55577">
        <ele>449.8</ele>
        <time>2022-06-12T09:03:16Z</time>
      </trkpt>
      <trkpt lat="46.36009" lon="5.55568">
        <ele>449.4</ele>
        <time>2022-06-12T09:03:17Z</time>
      </trkpt>
      <trkpt lat="46.36016" lon="5.55561">
        <ele>449.4</ele>
        <time>2022-06-12T09:03:18Z</time>
      </trkpt>
      <trkpt lat="46.36035" lon="5.55536">
        <ele>448.4</ele>
        <time>2022-06-12T09:03:21Z</time>
      </trkpt>
      <trkpt lat="46.36044" lon="5.55514">
        <ele>447.4</ele>
        <time>2022-06-12T09:03:23Z</time>
      </trkpt>
      <trkpt lat="46.36059" lon="5.5548">
        <ele>446</ele>
        <time>2022-06-12T09:03:26Z</time>
      </trkpt>
      <trkpt lat="46.36071" lon="5.55461">
        <ele>445.4</ele>
        <time>2022-06-12T09:03:28Z</time>
      </trkpt>
      <trkpt lat="46.36077" lon="5.55452">
        <ele>445</ele>
        <time>2022-06-12T09:03:29Z</time>
      </trkpt>
      <trkpt lat="46.36087" lon="5.55431">
        <ele>444.2</ele>
        <time>2022-06-12T09:03:31Z</time>
      </trkpt>
      <trkpt lat="46.36091" lon="5.5542">
        <ele>444</ele>
        <time>2022-06-12T09:03:32Z</time>
      </trkpt>
      <trkpt lat="46.36094" lon="5.55408">
        <ele>443.6</ele>
        <time>2022-06-12T09:03:33Z</time>
      </trkpt>
      <trkpt lat="46.36098" lon="5.55383">
        <ele>443</ele>
        <time>2022-06-12T09:03:35Z</time>
      </trkpt>
      <trkpt lat="46.36099" lon="5.5537">
        <ele>443</ele>
        <time>2022-06-12T09:03:36Z</time>
      </trkpt>
      <trkpt lat="46.36097" lon="5.55331">
        <ele>442.8</ele>
        <time>2022-06-12T09:03:39Z</time>
      </trkpt>
      <trkpt lat="46.36096" lon="5.55305">
        <ele>442.6</ele>
        <time>2022-06-12T09:03:41Z</time>
      </trkpt>
      <trkpt lat="46.36099" lon="5.5528">
        <ele>441.6</ele>
        <time>2022-06-12T09:03:43Z</time>
      </trkpt>
      <trkpt lat="46.36108" lon="5.55245">
        <ele>440.6</ele>
        <time>2022-06-12T09:03:46Z</time>
      </trkpt>
      <trkpt lat="46.36112" lon="5.55233">
        <ele>440.2</ele>
        <time>2022-06-12T09:03:47Z</time>
      </trkpt>
      <trkpt lat="46.36133" lon="5.55179">
        <ele>439.4</ele>
        <time>2022-06-12T09:03:52Z</time>
      </trkpt>
      <trkpt lat="46.3614" lon="5.55156">
        <ele>439</ele>
        <time>2022-06-12T09:03:54Z</time>
      </trkpt>
      <trkpt lat="46.36146" lon="5.5512">
        <ele>438.4</ele>
        <time>2022-06-12T09:03:57Z</time>
      </trkpt>
      <trkpt lat="46.36156" lon="5.55071">
        <ele>438</ele>
        <time>2022-06-12T09:04:01Z</time>
      </trkpt>
      <trkpt lat="46.36164" lon="5.55008">
        <ele>437.4</ele>
        <time>2022-06-12T09:04:06Z</time>
      </trkpt>
      <trkpt lat="46.36165" lon="5.54995">
        <ele>437.4</ele>
        <time>2022-06-12T09:04:07Z</time>
      </trkpt>
      <trkpt lat="46.36169" lon="5.54947">
        <ele>436.6</ele>
        <time>2022-06-12T09:04:11Z</time>
      </trkpt>
      <trkpt lat="46.36175" lon="5.54924">
        <ele>436.4</ele>
        <time>2022-06-12T09:04:13Z</time>
      </trkpt>
      <trkpt lat="46.36179" lon="5.54913">
        <ele>436.4</ele>
        <time>2022-06-12T09:04:14Z</time>
      </trkpt>
      <trkpt lat="46.36195" lon="5.54886">
        <ele>436.2</ele>
        <time>2022-06-12T09:04:17Z</time>
      </trkpt>
      <trkpt lat="46.36214" lon="5.54837">
        <ele>436.4</ele>
        <time>2022-06-12T09:04:22Z</time>
      </trkpt>
      <trkpt lat="46.3623" lon="5.54788">
        <ele>436.6</ele>
        <time>2022-06-12T09:04:27Z</time>
      </trkpt>
      <trkpt lat="46.36237" lon="5.5477">
        <ele>436.4</ele>
        <time>2022-06-12T09:04:29Z</time>
      </trkpt>
      <trkpt lat="46.36259" lon="5.54698">
        <ele>437.2</ele>
        <time>2022-06-12T09:04:37Z</time>
      </trkpt>
      <trkpt lat="46.36263" lon="5.5468">
        <ele>437.4</ele>
        <time>2022-06-12T09:04:39Z</time>
      </trkpt>
      <trkpt lat="46.36276" lon="5.54618">
        <ele>438</ele>
        <time>2022-06-12T09:04:46Z</time>
      </trkpt>
      <trkpt lat="46.36282" lon="5.54584">
        <ele>438.4</ele>
        <time>2022-06-12T09:04:50Z</time>
      </trkpt>
      <trkpt lat="46.36287" lon="5.54557">
        <ele>438.6</ele>
        <time>2022-06-12T09:04:53Z</time>
      </trkpt>
      <trkpt lat="46.36288" lon="5.54548">
        <ele>438.6</ele>
        <time>2022-06-12T09:04:54Z</time>
      </trkpt>
      <trkpt lat="46.36288" lon="5.54538">
        <ele>438.6</ele>
        <time>2022-06-12T09:04:55Z</time>
      </trkpt>
      <trkpt lat="46.36284" lon="5.54519">
        <ele>438.6</ele>
        <time>2022-06-12T09:04:57Z</time>
      </trkpt>
      <trkpt lat="46.36274" lon="5.54502">
        <ele>438.2</ele>
        <time>2022-06-12T09:04:59Z</time>
      </trkpt>
      <trkpt lat="46.36267" lon="5.54496">
        <ele>438</ele>
        <time>2022-06-12T09:05:00Z</time>
      </trkpt>
      <trkpt lat="46.36259" lon="5.5449">
        <ele>437.8</ele>
        <time>2022-06-12T09:05:01Z</time>
      </trkpt>
      <trkpt lat="46.36251" lon="5.54486">
        <ele>437.2</ele>
        <time>2022-06-12T09:05:02Z</time>
      </trkpt>
      <trkpt lat="46.36232" lon="5.54478">
        <ele>436.6</ele>
        <time>2022-06-12T09:05:04Z</time>
      </trkpt>
      <trkpt lat="46.36223" lon="5.54475">
        <ele>436.2</ele>
        <time>2022-06-12T09:05:05Z</time>
      </trkpt>
      <trkpt lat="46.36203" lon="5.54469">
        <ele>435</ele>
        <time>2022-06-12T09:05:07Z</time>
      </trkpt>
      <trkpt lat="46.36181" lon="5.54466">
        <ele>434.2</ele>
        <time>2022-06-12T09:05:09Z</time>
      </trkpt>
      <trkpt lat="46.36171" lon="5.54466">
        <ele>433.8</ele>
        <time>2022-06-12T09:05:10Z</time>
      </trkpt>
      <trkpt lat="46.36162" lon="5.54466">
        <ele>432.6</ele>
        <time>2022-06-12T09:05:11Z</time>
      </trkpt>
      <trkpt lat="46.36154" lon="5.54466">
        <ele>432</ele>
        <time>2022-06-12T09:05:12Z</time>
      </trkpt>
      <trkpt lat="46.36146" lon="5.54464">
        <ele>430.8</ele>
        <time>2022-06-12T09:05:13Z</time>
      </trkpt>
      <trkpt lat="46.36141" lon="5.54459">
        <ele>430</ele>
        <time>2022-06-12T09:05:14Z</time>
      </trkpt>
      <trkpt lat="46.36139" lon="5.5445">
        <ele>429.6</ele>
        <time>2022-06-12T09:05:15Z</time>
      </trkpt>
      <trkpt lat="46.3614" lon="5.54441">
        <ele>428.6</ele>
        <time>2022-06-12T09:05:16Z</time>
      </trkpt>
      <trkpt lat="46.36142" lon="5.54432">
        <ele>428.2</ele>
        <time>2022-06-12T09:05:17Z</time>
      </trkpt>
      <trkpt lat="46.36144" lon="5.54423">
        <ele>427.4</ele>
        <time>2022-06-12T09:05:18Z</time>
      </trkpt>
      <trkpt lat="46.36144" lon="5.54415">
        <ele>427</ele>
        <time>2022-06-12T09:05:19Z</time>
      </trkpt>
      <trkpt lat="46.36146" lon="5.54401">
        <ele>425.4</ele>
        <time>2022-06-12T09:05:21Z</time>
      </trkpt>
      <trkpt lat="46.36145" lon="5.54393">
        <ele>425</ele>
        <time>2022-06-12T09:05:22Z</time>
      </trkpt>
      <trkpt lat="46.36142" lon="5.54378">
        <ele>424.2</ele>
        <time>2022-06-12T09:05:24Z</time>
      </trkpt>
      <trkpt lat="46.36141" lon="5.54369">
        <ele>423.8</ele>
        <time>2022-06-12T09:05:25Z</time>
      </trkpt>
      <trkpt lat="46.36143" lon="5.54356">
        <ele>423</ele>
        <time>2022-06-12T09:05:27Z</time>
      </trkpt>
      <trkpt lat="46.36163" lon="5.54375">
        <ele>422.4</ele>
        <time>2022-06-12T09:05:28Z</time>
      </trkpt>
      <trkpt lat="46.36211" lon="5.54408">
        <ele>421.6</ele>
        <time>2022-06-12T09:05:30Z</time>
      </trkpt>
      <trkpt lat="46.36253" lon="5.54421">
        <ele>420.4</ele>
        <time>2022-06-12T09:05:32Z</time>
      </trkpt>
      <trkpt lat="46.3627" lon="5.5442">
        <ele>420.2</ele>
        <time>2022-06-12T09:05:33Z</time>
      </trkpt>
      <trkpt lat="46.36287" lon="5.54415">
        <ele>419.8</ele>
        <time>2022-06-12T09:05:34Z</time>
      </trkpt>
      <trkpt lat="46.36302" lon="5.54411">
        <ele>419.2</ele>
        <time>2022-06-12T09:05:35Z</time>
      </trkpt>
      <trkpt lat="46.36316" lon="5.54408">
        <ele>418.8</ele>
        <time>2022-06-12T09:05:36Z</time>
      </trkpt>
      <trkpt lat="46.36343" lon="5.54402">
        <ele>418</ele>
        <time>2022-06-12T09:05:38Z</time>
      </trkpt>
      <trkpt lat="46.36357" lon="5.54399">
        <ele>416.6</ele>
        <time>2022-06-12T09:05:39Z</time>
      </trkpt>
      <trkpt lat="46.36384" lon="5.54394">
        <ele>415.2</ele>
        <time>2022-06-12T09:05:41Z</time>
      </trkpt>
      <trkpt lat="46.36397" lon="5.54391">
        <ele>413.8</ele>
        <time>2022-06-12T09:05:42Z</time>
      </trkpt>
      <trkpt lat="46.3641" lon="5.54386">
        <ele>413.2</ele>
        <time>2022-06-12T09:05:43Z</time>
      </trkpt>
      <trkpt lat="46.36423" lon="5.5438">
        <ele>411.6</ele>
        <time>2022-06-12T09:05:44Z</time>
      </trkpt>
      <trkpt lat="46.36435" lon="5.5437">
        <ele>411</ele>
        <time>2022-06-12T09:05:45Z</time>
      </trkpt>
      <trkpt lat="46.36447" lon="5.54362">
        <ele>410.2</ele>
        <time>2022-06-12T09:05:46Z</time>
      </trkpt>
      <trkpt lat="46.36483" lon="5.54333">
        <ele>408.6</ele>
        <time>2022-06-12T09:05:49Z</time>
      </trkpt>
      <trkpt lat="46.36494" lon="5.54323">
        <ele>408</ele>
        <time>2022-06-12T09:05:50Z</time>
      </trkpt>
      <trkpt lat="46.36506" lon="5.54313">
        <ele>406.8</ele>
        <time>2022-06-12T09:05:51Z</time>
      </trkpt>
      <trkpt lat="46.36516" lon="5.54301">
        <ele>406</ele>
        <time>2022-06-12T09:05:52Z</time>
      </trkpt>
      <trkpt lat="46.36526" lon="5.54288">
        <ele>404.8</ele>
        <time>2022-06-12T09:05:53Z</time>
      </trkpt>
      <trkpt lat="46.36535" lon="5.54273">
        <ele>404.4</ele>
        <time>2022-06-12T09:05:54Z</time>
      </trkpt>
      <trkpt lat="46.36543" lon="5.54258">
        <ele>403.6</ele>
        <time>2022-06-12T09:05:55Z</time>
      </trkpt>
      <trkpt lat="46.36551" lon="5.54242">
        <ele>401.8</ele>
        <time>2022-06-12T09:05:56Z</time>
      </trkpt>
      <trkpt lat="46.36566" lon="5.54213">
        <ele>400</ele>
        <time>2022-06-12T09:05:58Z</time>
      </trkpt>
      <trkpt lat="46.36573" lon="5.54201">
        <ele>399.4</ele>
        <time>2022-06-12T09:05:59Z</time>
      </trkpt>
      <trkpt lat="46.3658" lon="5.54192">
        <ele>398.2</ele>
        <time>2022-06-12T09:06:00Z</time>
      </trkpt>
      <trkpt lat="46.36599" lon="5.54181">
        <ele>396.8</ele>
        <time>2022-06-12T09:06:02Z</time>
      </trkpt>
      <trkpt lat="46.3661" lon="5.54178">
        <ele>395.4</ele>
        <time>2022-06-12T09:06:03Z</time>
      </trkpt>
      <trkpt lat="46.36621" lon="5.54177">
        <ele>394.8</ele>
        <time>2022-06-12T09:06:04Z</time>
      </trkpt>
      <trkpt lat="46.36633" lon="5.54174">
        <ele>393</ele>
        <time>2022-06-12T09:06:05Z</time>
      </trkpt>
      <trkpt lat="46.36644" lon="5.54169">
        <ele>392.2</ele>
        <time>2022-06-12T09:06:06Z</time>
      </trkpt>
      <trkpt lat="46.36655" lon="5.5416">
        <ele>391.2</ele>
        <time>2022-06-12T09:06:07Z</time>
      </trkpt>
      <trkpt lat="46.36674" lon="5.54144">
        <ele>389.6</ele>
        <time>2022-06-12T09:06:09Z</time>
      </trkpt>
      <trkpt lat="46.36683" lon="5.54137">
        <ele>388.8</ele>
        <time>2022-06-12T09:06:10Z</time>
      </trkpt>
      <trkpt lat="46.36692" lon="5.54129">
        <ele>388.2</ele>
        <time>2022-06-12T09:06:11Z</time>
      </trkpt>
      <trkpt lat="46.36693" lon="5.5411">
        <ele>387.4</ele>
        <time>2022-06-12T09:06:12Z</time>
      </trkpt>
      <trkpt lat="46.36694" lon="5.54092">
        <ele>387.2</ele>
        <time>2022-06-12T09:06:13Z</time>
      </trkpt>
      <trkpt lat="46.36696" lon="5.54071">
        <ele>385.8</ele>
        <time>2022-06-12T09:06:14Z</time>
      </trkpt>
      <trkpt lat="46.36701" lon="5.54058">
        <ele>385.4</ele>
        <time>2022-06-12T09:06:15Z</time>
      </trkpt>
      <trkpt lat="46.36708" lon="5.54047">
        <ele>384.6</ele>
        <time>2022-06-12T09:06:16Z</time>
      </trkpt>
      <trkpt lat="46.36717" lon="5.5404">
        <ele>383.2</ele>
        <time>2022-06-12T09:06:17Z</time>
      </trkpt>
      <trkpt lat="46.36727" lon="5.54037">
        <ele>382.2</ele>
        <time>2022-06-12T09:06:18Z</time>
      </trkpt>
      <trkpt lat="46.36738" lon="5.54035">
        <ele>381</ele>
        <time>2022-06-12T09:06:19Z</time>
      </trkpt>
      <trkpt lat="46.3676" lon="5.54032">
        <ele>379.2</ele>
        <time>2022-06-12T09:06:21Z</time>
      </trkpt>
      <trkpt lat="46.36783" lon="5.54027">
        <ele>378.2</ele>
        <time>2022-06-12T09:06:23Z</time>
      </trkpt>
      <trkpt lat="46.36794" lon="5.54025">
        <ele>377.4</ele>
        <time>2022-06-12T09:06:24Z</time>
      </trkpt>
      <trkpt lat="46.36805" lon="5.54023">
        <ele>377</ele>
        <time>2022-06-12T09:06:25Z</time>
      </trkpt>
      <trkpt lat="46.36827" lon="5.54019">
        <ele>375.6</ele>
        <time>2022-06-12T09:06:27Z</time>
      </trkpt>
      <trkpt lat="46.36838" lon="5.54017">
        <ele>374.2</ele>
        <time>2022-06-12T09:06:28Z</time>
      </trkpt>
      <trkpt lat="46.3685" lon="5.54016">
        <ele>373.8</ele>
        <time>2022-06-12T09:06:29Z</time>
      </trkpt>
      <trkpt lat="46.36862" lon="5.54016">
        <ele>373</ele>
        <time>2022-06-12T09:06:30Z</time>
      </trkpt>
      <trkpt lat="46.36873" lon="5.5402">
        <ele>371.4</ele>
        <time>2022-06-12T09:06:31Z</time>
      </trkpt>
      <trkpt lat="46.36885" lon="5.54022">
        <ele>371</ele>
        <time>2022-06-12T09:06:32Z</time>
      </trkpt>
      <trkpt lat="46.36896" lon="5.54024">
        <ele>370.2</ele>
        <time>2022-06-12T09:06:33Z</time>
      </trkpt>
      <trkpt lat="46.3692" lon="5.5403">
        <ele>368.6</ele>
        <time>2022-06-12T09:06:35Z</time>
      </trkpt>
      <trkpt lat="46.36947" lon="5.54037">
        <ele>366.8</ele>
        <time>2022-06-12T09:06:37Z</time>
      </trkpt>
      <trkpt lat="46.36973" lon="5.54041">
        <ele>365.6</ele>
        <time>2022-06-12T09:06:39Z</time>
      </trkpt>
      <trkpt lat="46.36997" lon="5.54047">
        <ele>364.4</ele>
        <time>2022-06-12T09:06:41Z</time>
      </trkpt>
      <trkpt lat="46.37009" lon="5.5405">
        <ele>362.8</ele>
        <time>2022-06-12T09:06:42Z</time>
      </trkpt>
      <trkpt lat="46.37022" lon="5.54054">
        <ele>362.2</ele>
        <time>2022-06-12T09:06:43Z</time>
      </trkpt>
      <trkpt lat="46.37033" lon="5.54055">
        <ele>361.2</ele>
        <time>2022-06-12T09:06:44Z</time>
      </trkpt>
      <trkpt lat="46.37056" lon="5.54056">
        <ele>359.2</ele>
        <time>2022-06-12T09:06:46Z</time>
      </trkpt>
      <trkpt lat="46.37067" lon="5.54056">
        <ele>357.8</ele>
        <time>2022-06-12T09:06:47Z</time>
      </trkpt>
      <trkpt lat="46.37089" lon="5.54059">
        <ele>355.4</ele>
        <time>2022-06-12T09:06:49Z</time>
      </trkpt>
      <trkpt lat="46.37109" lon="5.54064">
        <ele>354</ele>
        <time>2022-06-12T09:06:51Z</time>
      </trkpt>
      <trkpt lat="46.37116" lon="5.54066">
        <ele>353.6</ele>
        <time>2022-06-12T09:06:52Z</time>
      </trkpt>
      <trkpt lat="46.37122" lon="5.54068">
        <ele>352.2</ele>
        <time>2022-06-12T09:06:53Z</time>
      </trkpt>
      <trkpt lat="46.37127" lon="5.54066">
        <ele>350.8</ele>
        <time>2022-06-12T09:06:54Z</time>
      </trkpt>
      <trkpt lat="46.37126" lon="5.54055">
        <ele>349.6</ele>
        <time>2022-06-12T09:06:56Z</time>
      </trkpt>
      <trkpt lat="46.37116" lon="5.54042">
        <ele>348.4</ele>
        <time>2022-06-12T09:06:58Z</time>
      </trkpt>
      <trkpt lat="46.37103" lon="5.54029">
        <ele>347.2</ele>
        <time>2022-06-12T09:07:00Z</time>
      </trkpt>
      <trkpt lat="46.37084" lon="5.54006">
        <ele>345.8</ele>
        <time>2022-06-12T09:07:03Z</time>
      </trkpt>
      <trkpt lat="46.3706" lon="5.53969">
        <ele>344.8</ele>
        <time>2022-06-12T09:07:07Z</time>
      </trkpt>
      <trkpt lat="46.37055" lon="5.53958">
        <ele>344.6</ele>
        <time>2022-06-12T09:07:08Z</time>
      </trkpt>
      <trkpt lat="46.37051" lon="5.53946">
        <ele>344.4</ele>
        <time>2022-06-12T09:07:09Z</time>
      </trkpt>
      <trkpt lat="46.37046" lon="5.53923">
        <ele>344</ele>
        <time>2022-06-12T09:07:11Z</time>
      </trkpt>
      <trkpt lat="46.37045" lon="5.53911">
        <ele>343.8</ele>
        <time>2022-06-12T09:07:12Z</time>
      </trkpt>
      <trkpt lat="46.37044" lon="5.539">
        <ele>343.8</ele>
        <time>2022-06-12T09:07:13Z</time>
      </trkpt>
      <trkpt lat="46.37042" lon="5.53879">
        <ele>343.4</ele>
        <time>2022-06-12T09:07:15Z</time>
      </trkpt>
      <trkpt lat="46.37042" lon="5.53867">
        <ele>343.4</ele>
        <time>2022-06-12T09:07:16Z</time>
      </trkpt>
      <trkpt lat="46.3704" lon="5.53795">
        <ele>342.8</ele>
        <time>2022-06-12T09:07:23Z</time>
      </trkpt>
      <trkpt lat="46.37039" lon="5.53717">
        <ele>343.2</ele>
        <time>2022-06-12T09:07:31Z</time>
      </trkpt>
      <trkpt lat="46.37038" lon="5.53682">
        <ele>343.6</ele>
        <time>2022-06-12T09:07:35Z</time>
      </trkpt>
      <trkpt lat="46.37038" lon="5.53657">
        <ele>344</ele>
        <time>2022-06-12T09:07:38Z</time>
      </trkpt>
      <trkpt lat="46.37038" lon="5.53624">
        <ele>344.8</ele>
        <time>2022-06-12T09:07:42Z</time>
      </trkpt>
      <trkpt lat="46.37037" lon="5.53584">
        <ele>345.4</ele>
        <time>2022-06-12T09:07:47Z</time>
      </trkpt>
      <trkpt lat="46.37036" lon="5.53569">
        <ele>345.8</ele>
        <time>2022-06-12T09:07:49Z</time>
      </trkpt>
      <trkpt lat="46.37034" lon="5.53531">
        <ele>346.6</ele>
        <time>2022-06-12T09:07:54Z</time>
      </trkpt>
      <trkpt lat="46.37033" lon="5.53495">
        <ele>347.4</ele>
        <time>2022-06-12T09:07:59Z</time>
      </trkpt>
      <trkpt lat="46.3703" lon="5.53459">
        <ele>348.2</ele>
        <time>2022-06-12T09:08:04Z</time>
      </trkpt>
      <trkpt lat="46.37029" lon="5.53446">
        <ele>348.6</ele>
        <time>2022-06-12T09:08:06Z</time>
      </trkpt>
      <trkpt lat="46.37026" lon="5.53405">
        <ele>349.8</ele>
        <time>2022-06-12T09:08:12Z</time>
      </trkpt>
      <trkpt lat="46.37026" lon="5.53398">
        <ele>350</ele>
        <time>2022-06-12T09:08:13Z</time>
      </trkpt>
      <trkpt lat="46.37024" lon="5.53361">
        <ele>350.8</ele>
        <time>2022-06-12T09:08:18Z</time>
      </trkpt>
      <trkpt lat="46.37022" lon="5.53334">
        <ele>350.8</ele>
        <time>2022-06-12T09:08:21Z</time>
      </trkpt>
      <trkpt lat="46.37015" lon="5.53278">
        <ele>351</ele>
        <time>2022-06-12T09:08:27Z</time>
      </trkpt>
      <trkpt lat="46.37012" lon="5.53261">
        <ele>351</ele>
        <time>2022-06-12T09:08:29Z</time>
      </trkpt>
      <trkpt lat="46.37008" lon="5.53227">
        <ele>351.2</ele>
        <time>2022-06-12T09:08:33Z</time>
      </trkpt>
      <trkpt lat="46.37005" lon="5.53188">
        <ele>352.2</ele>
        <time>2022-06-12T09:08:38Z</time>
      </trkpt>
      <trkpt lat="46.37004" lon="5.5318">
        <ele>352.4</ele>
        <time>2022-06-12T09:08:39Z</time>
      </trkpt>
      <trkpt lat="46.36997" lon="5.53149">
        <ele>353</ele>
        <time>2022-06-12T09:08:43Z</time>
      </trkpt>
      <trkpt lat="46.36988" lon="5.53116">
        <ele>353.4</ele>
        <time>2022-06-12T09:08:47Z</time>
      </trkpt>
      <trkpt lat="46.36986" lon="5.53108">
        <ele>353.4</ele>
        <time>2022-06-12T09:08:48Z</time>
      </trkpt>
      <trkpt lat="46.36974" lon="5.53053">
        <ele>353.6</ele>
        <time>2022-06-12T09:08:55Z</time>
      </trkpt>
      <trkpt lat="46.36973" lon="5.53045">
        <ele>353.6</ele>
        <time>2022-06-12T09:08:56Z</time>
      </trkpt>
      <trkpt lat="46.36973" lon="5.53038">
        <ele>353.8</ele>
        <time>2022-06-12T09:08:57Z</time>
      </trkpt>
      <trkpt lat="46.36974" lon="5.53023">
        <ele>354</ele>
        <time>2022-06-12T09:08:59Z</time>
      </trkpt>
      <trkpt lat="46.36975" lon="5.53017">
        <ele>354.4</ele>
        <time>2022-06-12T09:09:00Z</time>
      </trkpt>
      <trkpt lat="46.36982" lon="5.52996">
        <ele>355.4</ele>
        <time>2022-06-12T09:09:04Z</time>
      </trkpt>
      <trkpt lat="46.36987" lon="5.52982">
        <ele>356.2</ele>
        <time>2022-06-12T09:09:07Z</time>
      </trkpt>
      <trkpt lat="46.36989" lon="5.52978">
        <ele>356.6</ele>
        <time>2022-06-12T09:09:08Z</time>
      </trkpt>
      <trkpt lat="46.36996" lon="5.52966">
        <ele>357.6</ele>
        <time>2022-06-12T09:09:11Z</time>
      </trkpt>
      <trkpt lat="46.37001" lon="5.52959">
        <ele>358.4</ele>
        <time>2022-06-12T09:09:13Z</time>
      </trkpt>
      <trkpt lat="46.37006" lon="5.52953">
        <ele>358.8</ele>
        <time>2022-06-12T09:09:15Z</time>
      </trkpt>
      <trkpt lat="46.37017" lon="5.52933">
        <ele>359.6</ele>
        <time>2022-06-12T09:09:20Z</time>
      </trkpt>
      <trkpt lat="46.3702" lon="5.52923">
        <ele>360</ele>
        <time>2022-06-12T09:09:22Z</time>
      </trkpt>
      <trkpt lat="46.37024" lon="5.52899">
        <ele>361.2</ele>
        <time>2022-06-12T09:09:27Z</time>
      </trkpt>
      <trkpt lat="46.37025" lon="5.52894">
        <ele>361.2</ele>
        <time>2022-06-12T09:09:28Z</time>
      </trkpt>
      <trkpt lat="46.37025" lon="5.52875">
        <ele>362.8</ele>
        <time>2022-06-12T09:09:32Z</time>
      </trkpt>
      <trkpt lat="46.37024" lon="5.52855">
        <ele>363.4</ele>
        <time>2022-06-12T09:09:36Z</time>
      </trkpt>
      <trkpt lat="46.37024" lon="5.5285">
        <ele>363.6</ele>
        <time>2022-06-12T09:09:37Z</time>
      </trkpt>
      <trkpt lat="46.37023" lon="5.52839">
        <ele>363.8</ele>
        <time>2022-06-12T09:09:39Z</time>
      </trkpt>
      <trkpt lat="46.37021" lon="5.52808">
        <ele>364.8</ele>
        <time>2022-06-12T09:09:45Z</time>
      </trkpt>
      <trkpt lat="46.3702" lon="5.52803">
        <ele>365.2</ele>
        <time>2022-06-12T09:09:46Z</time>
      </trkpt>
      <trkpt lat="46.37015" lon="5.52782">
        <ele>366</ele>
        <time>2022-06-12T09:09:50Z</time>
      </trkpt>
      <trkpt lat="46.37005" lon="5.52756">
        <ele>366.8</ele>
        <time>2022-06-12T09:09:55Z</time>
      </trkpt>
      <trkpt lat="46.36999" lon="5.52746">
        <ele>367.2</ele>
        <time>2022-06-12T09:09:57Z</time>
      </trkpt>
      <trkpt lat="46.36984" lon="5.52719">
        <ele>367.2</ele>
        <time>2022-06-12T09:10:01Z</time>
      </trkpt>
      <trkpt lat="46.36962" lon="5.52668">
        <ele>366.8</ele>
        <time>2022-06-12T09:10:07Z</time>
      </trkpt>
      <trkpt lat="46.36936" lon="5.526">
        <ele>366.2</ele>
        <time>2022-06-12T09:10:15Z</time>
      </trkpt>
      <trkpt lat="46.36932" lon="5.52592">
        <ele>366.2</ele>
        <time>2022-06-12T09:10:16Z</time>
      </trkpt>
      <trkpt lat="46.36907" lon="5.52533">
        <ele>366.2</ele>
        <time>2022-06-12T09:10:23Z</time>
      </trkpt>
      <trkpt lat="46.36901" lon="5.52517">
        <ele>366.4</ele>
        <time>2022-06-12T09:10:25Z</time>
      </trkpt>
      <trkpt lat="46.36892" lon="5.52476">
        <ele>366.8</ele>
        <time>2022-06-12T09:10:30Z</time>
      </trkpt>
      <trkpt lat="46.3689" lon="5.52432">
        <ele>367.6</ele>
        <time>2022-06-12T09:10:35Z</time>
      </trkpt>
      <trkpt lat="46.36891" lon="5.52423">
        <ele>367.8</ele>
        <time>2022-06-12T09:10:36Z</time>
      </trkpt>
      <trkpt lat="46.36899" lon="5.52384">
        <ele>368</ele>
        <time>2022-06-12T09:10:40Z</time>
      </trkpt>
      <trkpt lat="46.36901" lon="5.52374">
        <ele>368.2</ele>
        <time>2022-06-12T09:10:41Z</time>
      </trkpt>
      <trkpt lat="46.36902" lon="5.52364">
        <ele>368.2</ele>
        <time>2022-06-12T09:10:42Z</time>
      </trkpt>
      <trkpt lat="46.36904" lon="5.52333">
        <ele>368.2</ele>
        <time>2022-06-12T09:10:45Z</time>
      </trkpt>
      <trkpt lat="46.36907" lon="5.52252">
        <ele>368.2</ele>
        <time>2022-06-12T09:10:53Z</time>
      </trkpt>
      <trkpt lat="46.36908" lon="5.522">
        <ele>368.6</ele>
        <time>2022-06-12T09:10:59Z</time>
      </trkpt>
      <trkpt lat="46.36909" lon="5.52169">
        <ele>369.2</ele>
        <time>2022-06-12T09:11:03Z</time>
      </trkpt>
      <trkpt lat="46.36911" lon="5.52142">
        <ele>370.4</ele>
        <time>2022-06-12T09:11:07Z</time>
      </trkpt>
      <trkpt lat="46.36915" lon="5.52109">
        <ele>371.4</ele>
        <time>2022-06-12T09:11:12Z</time>
      </trkpt>
      <trkpt lat="46.36917" lon="5.52096">
        <ele>371.8</ele>
        <time>2022-06-12T09:11:14Z</time>
      </trkpt>
      <trkpt lat="46.36922" lon="5.52077">
        <ele>372.4</ele>
        <time>2022-06-12T09:11:17Z</time>
      </trkpt>
      <trkpt lat="46.36937" lon="5.52029">
        <ele>373.6</ele>
        <time>2022-06-12T09:11:24Z</time>
      </trkpt>
      <trkpt lat="46.36954" lon="5.51981">
        <ele>374.8</ele>
        <time>2022-06-12T09:11:31Z</time>
      </trkpt>
      <trkpt lat="46.3696" lon="5.51969">
        <ele>374.8</ele>
        <time>2022-06-12T09:11:33Z</time>
      </trkpt>
      <trkpt lat="46.36969" lon="5.51961">
        <ele>375</ele>
        <time>2022-06-12T09:11:35Z</time>
      </trkpt>
      <trkpt lat="46.36985" lon="5.51951">
        <ele>375.6</ele>
        <time>2022-06-12T09:11:39Z</time>
      </trkpt>
      <trkpt lat="46.3699" lon="5.5195">
        <ele>375.6</ele>
        <time>2022-06-12T09:11:40Z</time>
      </trkpt>
      <trkpt lat="46.36993" lon="5.51949">
        <ele>375.8</ele>
        <time>2022-06-12T09:11:41Z</time>
      </trkpt>
      <trkpt lat="46.37001" lon="5.51947">
        <ele>376</ele>
        <time>2022-06-12T09:11:43Z</time>
      </trkpt>
      <trkpt lat="46.37012" lon="5.51939">
        <ele>376.8</ele>
        <time>2022-06-12T09:11:46Z</time>
      </trkpt>
      <trkpt lat="46.37021" lon="5.51926">
        <ele>377.8</ele>
        <time>2022-06-12T09:11:50Z</time>
      </trkpt>
      <trkpt lat="46.37023" lon="5.51922">
        <ele>378.2</ele>
        <time>2022-06-12T09:11:51Z</time>
      </trkpt>
      <trkpt lat="46.37026" lon="5.51913">
        <ele>379</ele>
        <time>2022-06-12T09:11:53Z</time>
      </trkpt>
      <trkpt lat="46.3703" lon="5.519">
        <ele>380.2</ele>
        <time>2022-06-12T09:11:56Z</time>
      </trkpt>
      <trkpt lat="46.37033" lon="5.51891">
        <ele>381</ele>
        <time>2022-06-12T09:11:58Z</time>
      </trkpt>
      <trkpt lat="46.37034" lon="5.51888">
        <ele>381.4</ele>
        <time>2022-06-12T09:11:59Z</time>
      </trkpt>
      <trkpt lat="46.37042" lon="5.51868">
        <ele>382.6</ele>
        <time>2022-06-12T09:12:04Z</time>
      </trkpt>
      <trkpt lat="46.37046" lon="5.51857">
        <ele>383.2</ele>
        <time>2022-06-12T09:12:07Z</time>
      </trkpt>
      <trkpt lat="46.37048" lon="5.51853">
        <ele>383.4</ele>
        <time>2022-06-12T09:12:08Z</time>
      </trkpt>
      <trkpt lat="46.37052" lon="5.5183">
        <ele>384.6</ele>
        <time>2022-06-12T09:12:13Z</time>
      </trkpt>
      <trkpt lat="46.37054" lon="5.51812">
        <ele>385.6</ele>
        <time>2022-06-12T09:12:17Z</time>
      </trkpt>
      <trkpt lat="46.37055" lon="5.51793">
        <ele>386.2</ele>
        <time>2022-06-12T09:12:21Z</time>
      </trkpt>
      <trkpt lat="46.37059" lon="5.51781">
        <ele>386.8</ele>
        <time>2022-06-12T09:12:24Z</time>
      </trkpt>
      <trkpt lat="46.37062" lon="5.51775">
        <ele>387</ele>
        <time>2022-06-12T09:12:26Z</time>
      </trkpt>
      <trkpt lat="46.37066" lon="5.51771">
        <ele>388</ele>
        <time>2022-06-12T09:12:28Z</time>
      </trkpt>
      <trkpt lat="46.37072" lon="5.5177">
        <ele>388.8</ele>
        <time>2022-06-12T09:12:30Z</time>
      </trkpt>
      <trkpt lat="46.37075" lon="5.5177">
        <ele>389</ele>
        <time>2022-06-12T09:12:31Z</time>
      </trkpt>
      <trkpt lat="46.37089" lon="5.51771">
        <ele>390</ele>
        <time>2022-06-12T09:12:36Z</time>
      </trkpt>
      <trkpt lat="46.37096" lon="5.51771">
        <ele>390.8</ele>
        <time>2022-06-12T09:12:39Z</time>
      </trkpt>
      <trkpt lat="46.37099" lon="5.51771">
        <ele>391.2</ele>
        <time>2022-06-12T09:12:40Z</time>
      </trkpt>
      <trkpt lat="46.37107" lon="5.5177">
        <ele>392.2</ele>
        <time>2022-06-12T09:12:43Z</time>
      </trkpt>
      <trkpt lat="46.37115" lon="5.51767">
        <ele>393.2</ele>
        <time>2022-06-12T09:12:46Z</time>
      </trkpt>
      <trkpt lat="46.37117" lon="5.51765">
        <ele>393.6</ele>
        <time>2022-06-12T09:12:47Z</time>
      </trkpt>
      <trkpt lat="46.37127" lon="5.5175">
        <ele>394.6</ele>
        <time>2022-06-12T09:12:52Z</time>
      </trkpt>
      <trkpt lat="46.37136" lon="5.51729">
        <ele>395.6</ele>
        <time>2022-06-12T09:12:58Z</time>
      </trkpt>
      <trkpt lat="46.37138" lon="5.51721">
        <ele>396</ele>
        <time>2022-06-12T09:13:00Z</time>
      </trkpt>
      <trkpt lat="46.37142" lon="5.51706">
        <ele>396.8</ele>
        <time>2022-06-12T09:13:04Z</time>
      </trkpt>
      <trkpt lat="46.37145" lon="5.51684">
        <ele>397.8</ele>
        <time>2022-06-12T09:13:10Z</time>
      </trkpt>
      <trkpt lat="46.37149" lon="5.51661">
        <ele>398.8</ele>
        <time>2022-06-12T09:13:16Z</time>
      </trkpt>
      <trkpt lat="46.37155" lon="5.51643">
        <ele>399.6</ele>
        <time>2022-06-12T09:13:21Z</time>
      </trkpt>
      <trkpt lat="46.37158" lon="5.51637">
        <ele>400.2</ele>
        <time>2022-06-12T09:13:23Z</time>
      </trkpt>
      <trkpt lat="46.37172" lon="5.51621">
        <ele>401.4</ele>
        <time>2022-06-12T09:13:29Z</time>
      </trkpt>
      <trkpt lat="46.37185" lon="5.51609">
        <ele>402.6</ele>
        <time>2022-06-12T09:13:34Z</time>
      </trkpt>
      <trkpt lat="46.37192" lon="5.51601">
        <ele>403</ele>
        <time>2022-06-12T09:13:37Z</time>
      </trkpt>
      <trkpt lat="46.37199" lon="5.51591">
        <ele>403.6</ele>
        <time>2022-06-12T09:13:40Z</time>
      </trkpt>
      <trkpt lat="46.37206" lon="5.51575">
        <ele>404.4</ele>
        <time>2022-06-12T09:13:44Z</time>
      </trkpt>
      <trkpt lat="46.3721" lon="5.51567">
        <ele>405</ele>
        <time>2022-06-12T09:13:46Z</time>
      </trkpt>
      <trkpt lat="46.37216" lon="5.51551">
        <ele>405.8</ele>
        <time>2022-06-12T09:13:50Z</time>
      </trkpt>
      <trkpt lat="46.37221" lon="5.51534">
        <ele>406.6</ele>
        <time>2022-06-12T09:13:54Z</time>
      </trkpt>
      <trkpt lat="46.37223" lon="5.5153">
        <ele>407</ele>
        <time>2022-06-12T09:13:55Z</time>
      </trkpt>
      <trkpt lat="46.37235" lon="5.51509">
        <ele>408.2</ele>
        <time>2022-06-12T09:14:01Z</time>
      </trkpt>
      <trkpt lat="46.37249" lon="5.51491">
        <ele>409.2</ele>
        <time>2022-06-12T09:14:07Z</time>
      </trkpt>
      <trkpt lat="46.37257" lon="5.51479">
        <ele>410.8</ele>
        <time>2022-06-12T09:14:11Z</time>
      </trkpt>
      <trkpt lat="46.3726" lon="5.51471">
        <ele>411.4</ele>
        <time>2022-06-12T09:14:13Z</time>
      </trkpt>
      <trkpt lat="46.37261" lon="5.51467">
        <ele>411.8</ele>
        <time>2022-06-12T09:14:14Z</time>
      </trkpt>
      <trkpt lat="46.37265" lon="5.51445">
        <ele>413</ele>
        <time>2022-06-12T09:14:19Z</time>
      </trkpt>
      <trkpt lat="46.37266" lon="5.51436">
        <ele>413.4</ele>
        <time>2022-06-12T09:14:21Z</time>
      </trkpt>
      <trkpt lat="46.37268" lon="5.51419">
        <ele>414</ele>
        <time>2022-06-12T09:14:25Z</time>
      </trkpt>
      <trkpt lat="46.37267" lon="5.51399">
        <ele>414.6</ele>
        <time>2022-06-12T09:14:29Z</time>
      </trkpt>
      <trkpt lat="46.37261" lon="5.51387">
        <ele>415.2</ele>
        <time>2022-06-12T09:14:32Z</time>
      </trkpt>
      <trkpt lat="46.37258" lon="5.51384">
        <ele>415.2</ele>
        <time>2022-06-12T09:14:33Z</time>
      </trkpt>
      <trkpt lat="46.37235" lon="5.51371">
        <ele>416.2</ele>
        <time>2022-06-12T09:14:41Z</time>
      </trkpt>
      <trkpt lat="46.37216" lon="5.51355">
        <ele>417.4</ele>
        <time>2022-06-12T09:14:48Z</time>
      </trkpt>
      <trkpt lat="46.37207" lon="5.51349">
        <ele>418.4</ele>
        <time>2022-06-12T09:14:51Z</time>
      </trkpt>
      <trkpt lat="46.37193" lon="5.51347">
        <ele>419</ele>
        <time>2022-06-12T09:14:55Z</time>
      </trkpt>
      <trkpt lat="46.37183" lon="5.51349">
        <ele>419.4</ele>
        <time>2022-06-12T09:14:58Z</time>
      </trkpt>
      <trkpt lat="46.37174" lon="5.51347">
        <ele>419.8</ele>
        <time>2022-06-12T09:15:01Z</time>
      </trkpt>
      <trkpt lat="46.37166" lon="5.51341">
        <ele>420.6</ele>
        <time>2022-06-12T09:15:04Z</time>
      </trkpt>
      <trkpt lat="46.37163" lon="5.51338">
        <ele>420.8</ele>
        <time>2022-06-12T09:15:05Z</time>
      </trkpt>
      <trkpt lat="46.37157" lon="5.51323">
        <ele>421.8</ele>
        <time>2022-06-12T09:15:09Z</time>
      </trkpt>
      <trkpt lat="46.37157" lon="5.51315">
        <ele>422.2</ele>
        <time>2022-06-12T09:15:11Z</time>
      </trkpt>
      <trkpt lat="46.37157" lon="5.51302">
        <ele>423.2</ele>
        <time>2022-06-12T09:15:14Z</time>
      </trkpt>
      <trkpt lat="46.37158" lon="5.51292">
        <ele>424</ele>
        <time>2022-06-12T09:15:16Z</time>
      </trkpt>
      <trkpt lat="46.37157" lon="5.51284">
        <ele>424.4</ele>
        <time>2022-06-12T09:15:18Z</time>
      </trkpt>
      <trkpt lat="46.37153" lon="5.51266">
        <ele>425.2</ele>
        <time>2022-06-12T09:15:22Z</time>
      </trkpt>
      <trkpt lat="46.37152" lon="5.51262">
        <ele>425.4</ele>
        <time>2022-06-12T09:15:23Z</time>
      </trkpt>
      <trkpt lat="46.37148" lon="5.51244">
        <ele>426.6</ele>
        <time>2022-06-12T09:15:28Z</time>
      </trkpt>
      <trkpt lat="46.37147" lon="5.5124">
        <ele>426.6</ele>
        <time>2022-06-12T09:15:29Z</time>
      </trkpt>
      <trkpt lat="46.37143" lon="5.51225">
        <ele>427.8</ele>
        <time>2022-06-12T09:15:33Z</time>
      </trkpt>
      <trkpt lat="46.37141" lon="5.51217">
        <ele>428.4</ele>
        <time>2022-06-12T09:15:35Z</time>
      </trkpt>
      <trkpt lat="46.3714" lon="5.51205">
        <ele>429</ele>
        <time>2022-06-12T09:15:38Z</time>
      </trkpt>
      <trkpt lat="46.37139" lon="5.51174">
        <ele>430</ele>
        <time>2022-06-12T09:15:45Z</time>
      </trkpt>
      <trkpt lat="46.37139" lon="5.51169">
        <ele>430</ele>
        <time>2022-06-12T09:15:46Z</time>
      </trkpt>
      <trkpt lat="46.37134" lon="5.51148">
        <ele>430.6</ele>
        <time>2022-06-12T09:15:51Z</time>
      </trkpt>
      <trkpt lat="46.37131" lon="5.5114">
        <ele>431</ele>
        <time>2022-06-12T09:15:53Z</time>
      </trkpt>
      <trkpt lat="46.37122" lon="5.51122">
        <ele>432</ele>
        <time>2022-06-12T09:15:58Z</time>
      </trkpt>
      <trkpt lat="46.37117" lon="5.5111">
        <ele>432.8</ele>
        <time>2022-06-12T09:16:01Z</time>
      </trkpt>
      <trkpt lat="46.37113" lon="5.51102">
        <ele>433.2</ele>
        <time>2022-06-12T09:16:03Z</time>
      </trkpt>
      <trkpt lat="46.37104" lon="5.51082">
        <ele>434</ele>
        <time>2022-06-12T09:16:08Z</time>
      </trkpt>
      <trkpt lat="46.371" lon="5.51074">
        <ele>434.4</ele>
        <time>2022-06-12T09:16:10Z</time>
      </trkpt>
      <trkpt lat="46.37091" lon="5.51054">
        <ele>435.4</ele>
        <time>2022-06-12T09:16:15Z</time>
      </trkpt>
      <trkpt lat="46.37089" lon="5.5105">
        <ele>435.6</ele>
        <time>2022-06-12T09:16:16Z</time>
      </trkpt>
      <trkpt lat="46.3708" lon="5.51036">
        <ele>436.8</ele>
        <time>2022-06-12T09:16:20Z</time>
      </trkpt>
      <trkpt lat="46.37074" lon="5.51026">
        <ele>437.2</ele>
        <time>2022-06-12T09:16:23Z</time>
      </trkpt>
      <trkpt lat="46.37064" lon="5.51016">
        <ele>438</ele>
        <time>2022-06-12T09:16:27Z</time>
      </trkpt>
      <trkpt lat="46.37051" lon="5.51003">
        <ele>439</ele>
        <time>2022-06-12T09:16:32Z</time>
      </trkpt>
      <trkpt lat="46.37048" lon="5.51001">
        <ele>439.2</ele>
        <time>2022-06-12T09:16:33Z</time>
      </trkpt>
      <trkpt lat="46.37031" lon="5.50991">
        <ele>439.8</ele>
        <time>2022-06-12T09:16:39Z</time>
      </trkpt>
      <trkpt lat="46.37028" lon="5.50991">
        <ele>440</ele>
        <time>2022-06-12T09:16:40Z</time>
      </trkpt>
      <trkpt lat="46.37013" lon="5.50994">
        <ele>440.8</ele>
        <time>2022-06-12T09:16:45Z</time>
      </trkpt>
      <trkpt lat="46.37007" lon="5.50994">
        <ele>441.2</ele>
        <time>2022-06-12T09:16:47Z</time>
      </trkpt>
      <trkpt lat="46.36991" lon="5.50999">
        <ele>442.2</ele>
        <time>2022-06-12T09:16:52Z</time>
      </trkpt>
      <trkpt lat="46.36988" lon="5.51">
        <ele>442.4</ele>
        <time>2022-06-12T09:16:53Z</time>
      </trkpt>
      <trkpt lat="46.36973" lon="5.51007">
        <ele>443.4</ele>
        <time>2022-06-12T09:16:58Z</time>
      </trkpt>
      <trkpt lat="46.36962" lon="5.51014">
        <ele>444.6</ele>
        <time>2022-06-12T09:17:02Z</time>
      </trkpt>
      <trkpt lat="46.36948" lon="5.51027">
        <ele>445.8</ele>
        <time>2022-06-12T09:17:07Z</time>
      </trkpt>
      <trkpt lat="46.36934" lon="5.51044">
        <ele>446.6</ele>
        <time>2022-06-12T09:17:12Z</time>
      </trkpt>
      <trkpt lat="46.36931" lon="5.51047">
        <ele>446.8</ele>
        <time>2022-06-12T09:17:13Z</time>
      </trkpt>
      <trkpt lat="46.36927" lon="5.5105">
        <ele>446.8</ele>
        <time>2022-06-12T09:17:14Z</time>
      </trkpt>
      <trkpt lat="46.36918" lon="5.51052">
        <ele>447.8</ele>
        <time>2022-06-12T09:17:17Z</time>
      </trkpt>
      <trkpt lat="46.36914" lon="5.51052">
        <ele>448</ele>
        <time>2022-06-12T09:17:18Z</time>
      </trkpt>
      <trkpt lat="46.369" lon="5.51049">
        <ele>448.8</ele>
        <time>2022-06-12T09:17:23Z</time>
      </trkpt>
      <trkpt lat="46.36897" lon="5.51048">
        <ele>449</ele>
        <time>2022-06-12T09:17:24Z</time>
      </trkpt>
      <trkpt lat="46.36884" lon="5.51042">
        <ele>450.4</ele>
        <time>2022-06-12T09:17:29Z</time>
      </trkpt>
      <trkpt lat="46.36881" lon="5.5104">
        <ele>450.6</ele>
        <time>2022-06-12T09:17:30Z</time>
      </trkpt>
      <trkpt lat="46.36871" lon="5.51032">
        <ele>451.6</ele>
        <time>2022-06-12T09:17:34Z</time>
      </trkpt>
      <trkpt lat="46.36865" lon="5.51029">
        <ele>452</ele>
        <time>2022-06-12T09:17:36Z</time>
      </trkpt>
      <trkpt lat="46.36855" lon="5.5102">
        <ele>452.6</ele>
        <time>2022-06-12T09:17:40Z</time>
      </trkpt>
      <trkpt lat="46.36847" lon="5.51014">
        <ele>453.2</ele>
        <time>2022-06-12T09:17:43Z</time>
      </trkpt>
      <trkpt lat="46.36837" lon="5.51009">
        <ele>453.8</ele>
        <time>2022-06-12T09:17:46Z</time>
      </trkpt>
      <trkpt lat="46.36831" lon="5.51006">
        <ele>454</ele>
        <time>2022-06-12T09:17:48Z</time>
      </trkpt>
      <trkpt lat="46.36829" lon="5.51003">
        <ele>454</ele>
        <time>2022-06-12T09:17:49Z</time>
      </trkpt>
      <trkpt lat="46.36819" lon="5.50991">
        <ele>455</ele>
        <time>2022-06-12T09:17:53Z</time>
      </trkpt>
      <trkpt lat="46.36815" lon="5.50986">
        <ele>455.6</ele>
        <time>2022-06-12T09:17:55Z</time>
      </trkpt>
      <trkpt lat="46.36809" lon="5.50978">
        <ele>456</ele>
        <time>2022-06-12T09:17:58Z</time>
      </trkpt>
      <trkpt lat="46.368" lon="5.50967">
        <ele>457</ele>
        <time>2022-06-12T09:18:01Z</time>
      </trkpt>
      <trkpt lat="46.36798" lon="5.50965">
        <ele>457.4</ele>
        <time>2022-06-12T09:18:02Z</time>
      </trkpt>
      <trkpt lat="46.36782" lon="5.50959">
        <ele>458.4</ele>
        <time>2022-06-12T09:18:07Z</time>
      </trkpt>
      <trkpt lat="46.36779" lon="5.50959">
        <ele>458.6</ele>
        <time>2022-06-12T09:18:08Z</time>
      </trkpt>
      <trkpt lat="46.36764" lon="5.50957">
        <ele>459.6</ele>
        <time>2022-06-12T09:18:13Z</time>
      </trkpt>
      <trkpt lat="46.36761" lon="5.50957">
        <ele>460</ele>
        <time>2022-06-12T09:18:14Z</time>
      </trkpt>
      <trkpt lat="46.36753" lon="5.50954">
        <ele>460.6</ele>
        <time>2022-06-12T09:18:17Z</time>
      </trkpt>
      <trkpt lat="46.36742" lon="5.5095">
        <ele>461.6</ele>
        <time>2022-06-12T09:18:21Z</time>
      </trkpt>
      <trkpt lat="46.36739" lon="5.50948">
        <ele>461.6</ele>
        <time>2022-06-12T09:18:22Z</time>
      </trkpt>
      <trkpt lat="46.36728" lon="5.50938">
        <ele>462.8</ele>
        <time>2022-06-12T09:18:27Z</time>
      </trkpt>
      <trkpt lat="46.36712" lon="5.50929">
        <ele>463.8</ele>
        <time>2022-06-12T09:18:32Z</time>
      </trkpt>
      <trkpt lat="46.3669" lon="5.50914">
        <ele>465</ele>
        <time>2022-06-12T09:18:39Z</time>
      </trkpt>
      <trkpt lat="46.36673" lon="5.50901">
        <ele>466.2</ele>
        <time>2022-06-12T09:18:44Z</time>
      </trkpt>
      <trkpt lat="46.36671" lon="5.50898">
        <ele>466.4</ele>
        <time>2022-06-12T09:18:45Z</time>
      </trkpt>
      <trkpt lat="46.3666" lon="5.50886">
        <ele>467.4</ele>
        <time>2022-06-12T09:18:49Z</time>
      </trkpt>
      <trkpt lat="46.3665" lon="5.50877">
        <ele>468.4</ele>
        <time>2022-06-12T09:18:53Z</time>
      </trkpt>
      <trkpt lat="46.36638" lon="5.50868">
        <ele>469.4</ele>
        <time>2022-06-12T09:18:58Z</time>
      </trkpt>
      <trkpt lat="46.36635" lon="5.50866">
        <ele>469.6</ele>
        <time>2022-06-12T09:18:59Z</time>
      </trkpt>
      <trkpt lat="46.3662" lon="5.50861">
        <ele>470.4</ele>
        <time>2022-06-12T09:19:04Z</time>
      </trkpt>
      <trkpt lat="46.36617" lon="5.5086">
        <ele>470.6</ele>
        <time>2022-06-12T09:19:05Z</time>
      </trkpt>
      <trkpt lat="46.36602" lon="5.5086">
        <ele>471.6</ele>
        <time>2022-06-12T09:19:10Z</time>
      </trkpt>
      <trkpt lat="46.36596" lon="5.50859">
        <ele>472.2</ele>
        <time>2022-06-12T09:19:12Z</time>
      </trkpt>
      <trkpt lat="46.36587" lon="5.50856">
        <ele>472.8</ele>
        <time>2022-06-12T09:19:15Z</time>
      </trkpt>
      <trkpt lat="46.36579" lon="5.50851">
        <ele>473.2</ele>
        <time>2022-06-12T09:19:18Z</time>
      </trkpt>
      <trkpt lat="46.36568" lon="5.50845">
        <ele>473.8</ele>
        <time>2022-06-12T09:19:22Z</time>
      </trkpt>
      <trkpt lat="46.3656" lon="5.50839">
        <ele>474.4</ele>
        <time>2022-06-12T09:19:25Z</time>
      </trkpt>
      <trkpt lat="46.36558" lon="5.50837">
        <ele>474.6</ele>
        <time>2022-06-12T09:19:26Z</time>
      </trkpt>
      <trkpt lat="46.36545" lon="5.50827">
        <ele>475.8</ele>
        <time>2022-06-12T09:19:31Z</time>
      </trkpt>
      <trkpt lat="46.36541" lon="5.50822">
        <ele>476</ele>
        <time>2022-06-12T09:19:33Z</time>
      </trkpt>
      <trkpt lat="46.36531" lon="5.50814">
        <ele>476.8</ele>
        <time>2022-06-12T09:19:37Z</time>
      </trkpt>
      <trkpt lat="46.36529" lon="5.50812">
        <ele>477</ele>
        <time>2022-06-12T09:19:38Z</time>
      </trkpt>
      <trkpt lat="46.36518" lon="5.50805">
        <ele>478</ele>
        <time>2022-06-12T09:19:42Z</time>
      </trkpt>
      <trkpt lat="46.3651" lon="5.50799">
        <ele>478.8</ele>
        <time>2022-06-12T09:19:45Z</time>
      </trkpt>
      <trkpt lat="46.36505" lon="5.50795">
        <ele>479</ele>
        <time>2022-06-12T09:19:47Z</time>
      </trkpt>
      <trkpt lat="46.36489" lon="5.50788">
        <ele>480.2</ele>
        <time>2022-06-12T09:19:52Z</time>
      </trkpt>
      <trkpt lat="46.36477" lon="5.50784">
        <ele>481.4</ele>
        <time>2022-06-12T09:19:56Z</time>
      </trkpt>
      <trkpt lat="46.36459" lon="5.50784">
        <ele>482.6</ele>
        <time>2022-06-12T09:20:01Z</time>
      </trkpt>
      <trkpt lat="46.36435" lon="5.50779">
        <ele>483.6</ele>
        <time>2022-06-12T09:20:08Z</time>
      </trkpt>
      <trkpt lat="46.36425" lon="5.50773">
        <ele>484.8</ele>
        <time>2022-06-12T09:20:12Z</time>
      </trkpt>
      <trkpt lat="46.36419" lon="5.50772">
        <ele>485.4</ele>
        <time>2022-06-12T09:20:14Z</time>
      </trkpt>
      <trkpt lat="46.36415" lon="5.50769">
        <ele>486</ele>
        <time>2022-06-12T09:20:16Z</time>
      </trkpt>
      <trkpt lat="46.36406" lon="5.50764">
        <ele>486.6</ele>
        <time>2022-06-12T09:20:19Z</time>
      </trkpt>
      <trkpt lat="46.36403" lon="5.50762">
        <ele>487</ele>
        <time>2022-06-12T09:20:20Z</time>
      </trkpt>
      <trkpt lat="46.36391" lon="5.50758">
        <ele>487.8</ele>
        <time>2022-06-12T09:20:24Z</time>
      </trkpt>
      <trkpt lat="46.36388" lon="5.50756">
        <ele>487.8</ele>
        <time>2022-06-12T09:20:25Z</time>
      </trkpt>
      <trkpt lat="46.36371" lon="5.50746">
        <ele>488.4</ele>
        <time>2022-06-12T09:20:31Z</time>
      </trkpt>
      <trkpt lat="46.36362" lon="5.50744">
        <ele>489</ele>
        <time>2022-06-12T09:20:34Z</time>
      </trkpt>
      <trkpt lat="46.36353" lon="5.50743">
        <ele>489.4</ele>
        <time>2022-06-12T09:20:37Z</time>
      </trkpt>
      <trkpt lat="46.36347" lon="5.5074">
        <ele>490</ele>
        <time>2022-06-12T09:20:39Z</time>
      </trkpt>
      <trkpt lat="46.36337" lon="5.50735">
        <ele>490.8</ele>
        <time>2022-06-12T09:20:42Z</time>
      </trkpt>
      <trkpt lat="46.36334" lon="5.50732">
        <ele>491.2</ele>
        <time>2022-06-12T09:20:43Z</time>
      </trkpt>
      <trkpt lat="46.36326" lon="5.50727">
        <ele>491.8</ele>
        <time>2022-06-12T09:20:46Z</time>
      </trkpt>
      <trkpt lat="46.36319" lon="5.50727">
        <ele>492.4</ele>
        <time>2022-06-12T09:20:48Z</time>
      </trkpt>
      <trkpt lat="46.36311" lon="5.50722">
        <ele>492.8</ele>
        <time>2022-06-12T09:20:51Z</time>
      </trkpt>
      <trkpt lat="46.36304" lon="5.50716">
        <ele>493.4</ele>
        <time>2022-06-12T09:20:54Z</time>
      </trkpt>
      <trkpt lat="46.36298" lon="5.50714">
        <ele>493.8</ele>
        <time>2022-06-12T09:20:56Z</time>
      </trkpt>
      <trkpt lat="46.36287" lon="5.5071">
        <ele>494.4</ele>
        <time>2022-06-12T09:21:00Z</time>
      </trkpt>
      <trkpt lat="46.36284" lon="5.50709">
        <ele>494.8</ele>
        <time>2022-06-12T09:21:01Z</time>
      </trkpt>
      <trkpt lat="46.36267" lon="5.50701">
        <ele>495.6</ele>
        <time>2022-06-12T09:21:06Z</time>
      </trkpt>
      <trkpt lat="46.36261" lon="5.50699">
        <ele>496</ele>
        <time>2022-06-12T09:21:08Z</time>
      </trkpt>
      <trkpt lat="46.36248" lon="5.50691">
        <ele>497</ele>
        <time>2022-06-12T09:21:13Z</time>
      </trkpt>
      <trkpt lat="46.36246" lon="5.5069">
        <ele>497.2</ele>
        <time>2022-06-12T09:21:14Z</time>
      </trkpt>
      <trkpt lat="46.36238" lon="5.50685">
        <ele>498</ele>
        <time>2022-06-12T09:21:18Z</time>
      </trkpt>
      <trkpt lat="46.36233" lon="5.50683">
        <ele>498.8</ele>
        <time>2022-06-12T09:21:20Z</time>
      </trkpt>
      <trkpt lat="46.36227" lon="5.50681">
        <ele>499.4</ele>
        <time>2022-06-12T09:21:22Z</time>
      </trkpt>
      <trkpt lat="46.36207" lon="5.50672">
        <ele>500.2</ele>
        <time>2022-06-12T09:21:28Z</time>
      </trkpt>
      <trkpt lat="46.36203" lon="5.50672">
        <ele>500.4</ele>
        <time>2022-06-12T09:21:29Z</time>
      </trkpt>
      <trkpt lat="46.36184" lon="5.50666">
        <ele>501.2</ele>
        <time>2022-06-12T09:21:34Z</time>
      </trkpt>
      <trkpt lat="46.36181" lon="5.50666">
        <ele>501.4</ele>
        <time>2022-06-12T09:21:35Z</time>
      </trkpt>
      <trkpt lat="46.36167" lon="5.50668">
        <ele>502.2</ele>
        <time>2022-06-12T09:21:39Z</time>
      </trkpt>
      <trkpt lat="46.36152" lon="5.50662">
        <ele>503.4</ele>
        <time>2022-06-12T09:21:43Z</time>
      </trkpt>
      <trkpt lat="46.36135" lon="5.50656">
        <ele>504.4</ele>
        <time>2022-06-12T09:21:48Z</time>
      </trkpt>
      <trkpt lat="46.36129" lon="5.50655">
        <ele>504.8</ele>
        <time>2022-06-12T09:21:50Z</time>
      </trkpt>
      <trkpt lat="46.36123" lon="5.50652">
        <ele>505.2</ele>
        <time>2022-06-12T09:21:52Z</time>
      </trkpt>
      <trkpt lat="46.36122" lon="5.50651">
        <ele>505.6</ele>
        <time>2022-06-12T09:21:53Z</time>
      </trkpt>
      <trkpt lat="46.36112" lon="5.50649">
        <ele>506.6</ele>
        <time>2022-06-12T09:21:56Z</time>
      </trkpt>
      <trkpt lat="46.36103" lon="5.5065">
        <ele>507</ele>
        <time>2022-06-12T09:21:58Z</time>
      </trkpt>
      <trkpt lat="46.36086" lon="5.50646">
        <ele>507.6</ele>
        <time>2022-06-12T09:22:03Z</time>
      </trkpt>
      <trkpt lat="46.36074" lon="5.50643">
        <ele>508.6</ele>
        <time>2022-06-12T09:22:07Z</time>
      </trkpt>
      <trkpt lat="46.36065" lon="5.50641">
        <ele>509.4</ele>
        <time>2022-06-12T09:22:10Z</time>
      </trkpt>
      <trkpt lat="46.36062" lon="5.5064">
        <ele>509.8</ele>
        <time>2022-06-12T09:22:11Z</time>
      </trkpt>
      <trkpt lat="46.36048" lon="5.50633">
        <ele>510.8</ele>
        <time>2022-06-12T09:22:16Z</time>
      </trkpt>
      <trkpt lat="46.36035" lon="5.50629">
        <ele>511.6</ele>
        <time>2022-06-12T09:22:21Z</time>
      </trkpt>
      <trkpt lat="46.36032" lon="5.50628">
        <ele>511.8</ele>
        <time>2022-06-12T09:22:22Z</time>
      </trkpt>
      <trkpt lat="46.36016" lon="5.50626">
        <ele>512.8</ele>
        <time>2022-06-12T09:22:27Z</time>
      </trkpt>
      <trkpt lat="46.36013" lon="5.50624">
        <ele>513.2</ele>
        <time>2022-06-12T09:22:28Z</time>
      </trkpt>
      <trkpt lat="46.36006" lon="5.50621">
        <ele>513.8</ele>
        <time>2022-06-12T09:22:30Z</time>
      </trkpt>
      <trkpt lat="46.35996" lon="5.50623">
        <ele>514.4</ele>
        <time>2022-06-12T09:22:33Z</time>
      </trkpt>
      <trkpt lat="46.3599" lon="5.50624">
        <ele>514.8</ele>
        <time>2022-06-12T09:22:35Z</time>
      </trkpt>
      <trkpt lat="46.35971" lon="5.50625">
        <ele>515.4</ele>
        <time>2022-06-12T09:22:41Z</time>
      </trkpt>
      <trkpt lat="46.35968" lon="5.50625">
        <ele>515.8</ele>
        <time>2022-06-12T09:22:42Z</time>
      </trkpt>
      <trkpt lat="46.35951" lon="5.5063">
        <ele>517</ele>
        <time>2022-06-12T09:22:47Z</time>
      </trkpt>
      <trkpt lat="46.35933" lon="5.50627">
        <ele>517.8</ele>
        <time>2022-06-12T09:22:52Z</time>
      </trkpt>
      <trkpt lat="46.3593" lon="5.50626">
        <ele>518.2</ele>
        <time>2022-06-12T09:22:53Z</time>
      </trkpt>
      <trkpt lat="46.35915" lon="5.50626">
        <ele>519.4</ele>
        <time>2022-06-12T09:22:58Z</time>
      </trkpt>
      <trkpt lat="46.35913" lon="5.50624">
        <ele>519.4</ele>
        <time>2022-06-12T09:22:59Z</time>
      </trkpt>
      <trkpt lat="46.35907" lon="5.50622">
        <ele>520</ele>
        <time>2022-06-12T09:23:01Z</time>
      </trkpt>
      <trkpt lat="46.35901" lon="5.50621">
        <ele>520.2</ele>
        <time>2022-06-12T09:23:03Z</time>
      </trkpt>
      <trkpt lat="46.35885" lon="5.50617">
        <ele>521.2</ele>
        <time>2022-06-12T09:23:08Z</time>
      </trkpt>
      <trkpt lat="46.35877" lon="5.50613">
        <ele>521.6</ele>
        <time>2022-06-12T09:23:11Z</time>
      </trkpt>
      <trkpt lat="46.35871" lon="5.50611">
        <ele>522.2</ele>
        <time>2022-06-12T09:23:13Z</time>
      </trkpt>
      <trkpt lat="46.35869" lon="5.50612">
        <ele>522.6</ele>
        <time>2022-06-12T09:23:14Z</time>
      </trkpt>
      <trkpt lat="46.35854" lon="5.50613">
        <ele>523.2</ele>
        <time>2022-06-12T09:23:19Z</time>
      </trkpt>
      <trkpt lat="46.35851" lon="5.50613">
        <ele>523</ele>
        <time>2022-06-12T09:23:20Z</time>
      </trkpt>
      <trkpt lat="46.35848" lon="5.50614">
        <ele>523.4</ele>
        <time>2022-06-12T09:23:21Z</time>
      </trkpt>
      <trkpt lat="46.35839" lon="5.50616">
        <ele>524.2</ele>
        <time>2022-06-12T09:23:24Z</time>
      </trkpt>
      <trkpt lat="46.35829" lon="5.50617">
        <ele>524.6</ele>
        <time>2022-06-12T09:23:27Z</time>
      </trkpt>
      <trkpt lat="46.35813" lon="5.50617">
        <ele>525.6</ele>
        <time>2022-06-12T09:23:32Z</time>
      </trkpt>
      <trkpt lat="46.35793" lon="5.50618">
        <ele>526.4</ele>
        <time>2022-06-12T09:23:38Z</time>
      </trkpt>
      <trkpt lat="46.35791" lon="5.50618">
        <ele>526.6</ele>
        <time>2022-06-12T09:23:39Z</time>
      </trkpt>
      <trkpt lat="46.35782" lon="5.50616">
        <ele>527.6</ele>
        <time>2022-06-12T09:23:43Z</time>
      </trkpt>
      <trkpt lat="46.3578" lon="5.50617">
        <ele>528</ele>
        <time>2022-06-12T09:23:44Z</time>
      </trkpt>
      <trkpt lat="46.35771" lon="5.50618">
        <ele>528.6</ele>
        <time>2022-06-12T09:23:47Z</time>
      </trkpt>
      <trkpt lat="46.35757" lon="5.50619">
        <ele>529.8</ele>
        <time>2022-06-12T09:23:52Z</time>
      </trkpt>
      <trkpt lat="46.35741" lon="5.50622">
        <ele>530.8</ele>
        <time>2022-06-12T09:23:57Z</time>
      </trkpt>
      <trkpt lat="46.3573" lon="5.50624">
        <ele>531.2</ele>
        <time>2022-06-12T09:24:00Z</time>
      </trkpt>
      <trkpt lat="46.35726" lon="5.50623">
        <ele>531.4</ele>
        <time>2022-06-12T09:24:01Z</time>
      </trkpt>
      <trkpt lat="46.35719" lon="5.50625">
        <ele>531.8</ele>
        <time>2022-06-12T09:24:03Z</time>
      </trkpt>
      <trkpt lat="46.35704" lon="5.50623">
        <ele>532.6</ele>
        <time>2022-06-12T09:24:07Z</time>
      </trkpt>
      <trkpt lat="46.35701" lon="5.50622">
        <ele>532.8</ele>
        <time>2022-06-12T09:24:08Z</time>
      </trkpt>
      <trkpt lat="46.35686" lon="5.5062">
        <ele>533.2</ele>
        <time>2022-06-12T09:24:13Z</time>
      </trkpt>
      <trkpt lat="46.35678" lon="5.50615">
        <ele>533.8</ele>
        <time>2022-06-12T09:24:16Z</time>
      </trkpt>
      <trkpt lat="46.35668" lon="5.5061">
        <ele>535.2</ele>
        <time>2022-06-12T09:24:20Z</time>
      </trkpt>
      <trkpt lat="46.35665" lon="5.50609">
        <ele>535.4</ele>
        <time>2022-06-12T09:24:21Z</time>
      </trkpt>
      <trkpt lat="46.35654" lon="5.50605">
        <ele>536.4</ele>
        <time>2022-06-12T09:24:25Z</time>
      </trkpt>
      <trkpt lat="46.35641" lon="5.506">
        <ele>537</ele>
        <time>2022-06-12T09:24:29Z</time>
      </trkpt>
      <trkpt lat="46.35635" lon="5.50599">
        <ele>537.2</ele>
        <time>2022-06-12T09:24:31Z</time>
      </trkpt>
      <trkpt lat="46.35624" lon="5.50593">
        <ele>538</ele>
        <time>2022-06-12T09:24:35Z</time>
      </trkpt>
      <trkpt lat="46.35617" lon="5.50595">
        <ele>538.4</ele>
        <time>2022-06-12T09:24:37Z</time>
      </trkpt>
      <trkpt lat="46.35606" lon="5.50588">
        <ele>539.4</ele>
        <time>2022-06-12T09:24:41Z</time>
      </trkpt>
      <trkpt lat="46.35601" lon="5.50588">
        <ele>539.8</ele>
        <time>2022-06-12T09:24:42Z</time>
      </trkpt>
      <trkpt lat="46.35587" lon="5.50585">
        <ele>540.8</ele>
        <time>2022-06-12T09:24:46Z</time>
      </trkpt>
      <trkpt lat="46.35583" lon="5.50585">
        <ele>541</ele>
        <time>2022-06-12T09:24:47Z</time>
      </trkpt>
      <trkpt lat="46.35559" lon="5.50582">
        <ele>541.8</ele>
        <time>2022-06-12T09:24:54Z</time>
      </trkpt>
      <trkpt lat="46.35556" lon="5.50581">
        <ele>542</ele>
        <time>2022-06-12T09:24:55Z</time>
      </trkpt>
      <trkpt lat="46.35545" lon="5.50577">
        <ele>542.8</ele>
        <time>2022-06-12T09:24:59Z</time>
      </trkpt>
      <trkpt lat="46.35542" lon="5.50576">
        <ele>543.4</ele>
        <time>2022-06-12T09:25:00Z</time>
      </trkpt>
      <trkpt lat="46.35526" lon="5.50568">
        <ele>544.6</ele>
        <time>2022-06-12T09:25:06Z</time>
      </trkpt>
      <trkpt lat="46.35518" lon="5.50562">
        <ele>545.6</ele>
        <time>2022-06-12T09:25:10Z</time>
      </trkpt>
      <trkpt lat="46.35515" lon="5.50561">
        <ele>545.8</ele>
        <time>2022-06-12T09:25:11Z</time>
      </trkpt>
      <trkpt lat="46.35505" lon="5.50557">
        <ele>546.4</ele>
        <time>2022-06-12T09:25:15Z</time>
      </trkpt>
      <trkpt lat="46.35503" lon="5.50556">
        <ele>546.8</ele>
        <time>2022-06-12T09:25:16Z</time>
      </trkpt>
      <trkpt lat="46.355" lon="5.50555">
        <ele>547</ele>
        <time>2022-06-12T09:25:17Z</time>
      </trkpt>
      <trkpt lat="46.35491" lon="5.50556">
        <ele>547.6</ele>
        <time>2022-06-12T09:25:20Z</time>
      </trkpt>
      <trkpt lat="46.35488" lon="5.50556">
        <ele>547.8</ele>
        <time>2022-06-12T09:25:21Z</time>
      </trkpt>
      <trkpt lat="46.3547" lon="5.50558">
        <ele>549</ele>
        <time>2022-06-12T09:25:26Z</time>
      </trkpt>
      <trkpt lat="46.35466" lon="5.50559">
        <ele>549.2</ele>
        <time>2022-06-12T09:25:27Z</time>
      </trkpt>
      <trkpt lat="46.35447" lon="5.50561">
        <ele>550</ele>
        <time>2022-06-12T09:25:32Z</time>
      </trkpt>
      <trkpt lat="46.35438" lon="5.50564">
        <ele>550.4</ele>
        <time>2022-06-12T09:25:35Z</time>
      </trkpt>
      <trkpt lat="46.3542" lon="5.5057">
        <ele>551</ele>
        <time>2022-06-12T09:25:40Z</time>
      </trkpt>
      <trkpt lat="46.35414" lon="5.50569">
        <ele>551.2</ele>
        <time>2022-06-12T09:25:42Z</time>
      </trkpt>
      <trkpt lat="46.35395" lon="5.50569">
        <ele>552</ele>
        <time>2022-06-12T09:25:48Z</time>
      </trkpt>
      <trkpt lat="46.35386" lon="5.50566">
        <ele>552.2</ele>
        <time>2022-06-12T09:25:51Z</time>
      </trkpt>
      <trkpt lat="46.35362" lon="5.50559">
        <ele>553.2</ele>
        <time>2022-06-12T09:25:57Z</time>
      </trkpt>
      <trkpt lat="46.35351" lon="5.50555">
        <ele>553.2</ele>
        <time>2022-06-12T09:25:59Z</time>
      </trkpt>
      <trkpt lat="46.35327" lon="5.50549">
        <ele>553.4</ele>
        <time>2022-06-12T09:26:03Z</time>
      </trkpt>
      <trkpt lat="46.35291" lon="5.50539">
        <ele>552.6</ele>
        <time>2022-06-12T09:26:08Z</time>
      </trkpt>
      <trkpt lat="46.3527" lon="5.50526">
        <ele>552.2</ele>
        <time>2022-06-12T09:26:11Z</time>
      </trkpt>
      <trkpt lat="46.35256" lon="5.50512">
        <ele>551.6</ele>
        <time>2022-06-12T09:26:13Z</time>
      </trkpt>
      <trkpt lat="46.35243" lon="5.50497">
        <ele>551.2</ele>
        <time>2022-06-12T09:26:15Z</time>
      </trkpt>
      <trkpt lat="46.35212" lon="5.50461">
        <ele>549.8</ele>
        <time>2022-06-12T09:26:20Z</time>
      </trkpt>
      <trkpt lat="46.35187" lon="5.50428">
        <ele>548.6</ele>
        <time>2022-06-12T09:26:24Z</time>
      </trkpt>
      <trkpt lat="46.35176" lon="5.50406">
        <ele>548.2</ele>
        <time>2022-06-12T09:26:26Z</time>
      </trkpt>
      <trkpt lat="46.3517" lon="5.50385">
        <ele>547.4</ele>
        <time>2022-06-12T09:26:28Z</time>
      </trkpt>
      <trkpt lat="46.35167" lon="5.5036">
        <ele>547</ele>
        <time>2022-06-12T09:26:30Z</time>
      </trkpt>
      <trkpt lat="46.35166" lon="5.50335">
        <ele>546.2</ele>
        <time>2022-06-12T09:26:32Z</time>
      </trkpt>
      <trkpt lat="46.35162" lon="5.50296">
        <ele>545</ele>
        <time>2022-06-12T09:26:35Z</time>
      </trkpt>
      <trkpt lat="46.3516" lon="5.50283">
        <ele>544.6</ele>
        <time>2022-06-12T09:26:36Z</time>
      </trkpt>
      <trkpt lat="46.35146" lon="5.50232">
        <ele>543.6</ele>
        <time>2022-06-12T09:26:40Z</time>
      </trkpt>
      <trkpt lat="46.35141" lon="5.50219">
        <ele>543.4</ele>
        <time>2022-06-12T09:26:41Z</time>
      </trkpt>
      <trkpt lat="46.35137" lon="5.50207">
        <ele>542.4</ele>
        <time>2022-06-12T09:26:42Z</time>
      </trkpt>
      <trkpt lat="46.35123" lon="5.50173">
        <ele>541.4</ele>
        <time>2022-06-12T09:26:45Z</time>
      </trkpt>
      <trkpt lat="46.35117" lon="5.50163">
        <ele>541.2</ele>
        <time>2022-06-12T09:26:46Z</time>
      </trkpt>
      <trkpt lat="46.35099" lon="5.50135">
        <ele>540.2</ele>
        <time>2022-06-12T09:26:49Z</time>
      </trkpt>
      <trkpt lat="46.35093" lon="5.50126">
        <ele>540</ele>
        <time>2022-06-12T09:26:50Z</time>
      </trkpt>
      <trkpt lat="46.35088" lon="5.50116">
        <ele>539.8</ele>
        <time>2022-06-12T09:26:51Z</time>
      </trkpt>
      <trkpt lat="46.35082" lon="5.50107">
        <ele>539.6</ele>
        <time>2022-06-12T09:26:52Z</time>
      </trkpt>
      <trkpt lat="46.35054" lon="5.50067">
        <ele>539.4</ele>
        <time>2022-06-12T09:26:57Z</time>
      </trkpt>
      <trkpt lat="46.35019" lon="5.5001">
        <ele>539.2</ele>
        <time>2022-06-12T09:27:04Z</time>
      </trkpt>
      <trkpt lat="46.34989" lon="5.49961">
        <ele>539.2</ele>
        <time>2022-06-12T09:27:10Z</time>
      </trkpt>
      <trkpt lat="46.34963" lon="5.49907">
        <ele>538.4</ele>
        <time>2022-06-12T09:27:16Z</time>
      </trkpt>
      <trkpt lat="46.3496" lon="5.49896">
        <ele>538.4</ele>
        <time>2022-06-12T09:27:17Z</time>
      </trkpt>
      <trkpt lat="46.34951" lon="5.49854">
        <ele>538.2</ele>
        <time>2022-06-12T09:27:21Z</time>
      </trkpt>
      <trkpt lat="46.34949" lon="5.49844">
        <ele>538</ele>
        <time>2022-06-12T09:27:22Z</time>
      </trkpt>
      <trkpt lat="46.34934" lon="5.49804">
        <ele>537.6</ele>
        <time>2022-06-12T09:27:26Z</time>
      </trkpt>
      <trkpt lat="46.34912" lon="5.49763">
        <ele>537</ele>
        <time>2022-06-12T09:27:30Z</time>
      </trkpt>
      <trkpt lat="46.34905" lon="5.49752">
        <ele>536.6</ele>
        <time>2022-06-12T09:27:31Z</time>
      </trkpt>
      <trkpt lat="46.34892" lon="5.49731">
        <ele>535.8</ele>
        <time>2022-06-12T09:27:33Z</time>
      </trkpt>
      <trkpt lat="46.34878" lon="5.49711">
        <ele>534.8</ele>
        <time>2022-06-12T09:27:35Z</time>
      </trkpt>
      <trkpt lat="46.3487" lon="5.49703">
        <ele>534</ele>
        <time>2022-06-12T09:27:36Z</time>
      </trkpt>
      <trkpt lat="46.34859" lon="5.49694">
        <ele>533.8</ele>
        <time>2022-06-12T09:27:37Z</time>
      </trkpt>
      <trkpt lat="46.34829" lon="5.49679">
        <ele>532.4</ele>
        <time>2022-06-12T09:27:40Z</time>
      </trkpt>
      <trkpt lat="46.34811" lon="5.49671">
        <ele>531.4</ele>
        <time>2022-06-12T09:27:42Z</time>
      </trkpt>
      <trkpt lat="46.34799" lon="5.49667">
        <ele>530.8</ele>
        <time>2022-06-12T09:27:43Z</time>
      </trkpt>
      <trkpt lat="46.34771" lon="5.49655">
        <ele>529.8</ele>
        <time>2022-06-12T09:27:46Z</time>
      </trkpt>
      <trkpt lat="46.34742" lon="5.49642">
        <ele>528.6</ele>
        <time>2022-06-12T09:27:49Z</time>
      </trkpt>
      <trkpt lat="46.34712" lon="5.49629">
        <ele>527.8</ele>
        <time>2022-06-12T09:27:52Z</time>
      </trkpt>
      <trkpt lat="46.34693" lon="5.4962">
        <ele>527.2</ele>
        <time>2022-06-12T09:27:54Z</time>
      </trkpt>
      <trkpt lat="46.34655" lon="5.49604">
        <ele>526.4</ele>
        <time>2022-06-12T09:27:58Z</time>
      </trkpt>
      <trkpt lat="46.34627" lon="5.49591">
        <ele>526.2</ele>
        <time>2022-06-12T09:28:01Z</time>
      </trkpt>
      <trkpt lat="46.34609" lon="5.49582">
        <ele>526.2</ele>
        <time>2022-06-12T09:28:03Z</time>
      </trkpt>
      <trkpt lat="46.34557" lon="5.49558">
        <ele>525.2</ele>
        <time>2022-06-12T09:28:09Z</time>
      </trkpt>
      <trkpt lat="46.34539" lon="5.49551">
        <ele>525</ele>
        <time>2022-06-12T09:28:11Z</time>
      </trkpt>
      <trkpt lat="46.34481" lon="5.49525">
        <ele>524.6</ele>
        <time>2022-06-12T09:28:18Z</time>
      </trkpt>
      <trkpt lat="46.34473" lon="5.49522">
        <ele>524.6</ele>
        <time>2022-06-12T09:28:19Z</time>
      </trkpt>
      <trkpt lat="46.34427" lon="5.49506">
        <ele>524.8</ele>
        <time>2022-06-12T09:28:25Z</time>
      </trkpt>
      <trkpt lat="46.34387" lon="5.4949">
        <ele>525</ele>
        <time>2022-06-12T09:28:31Z</time>
      </trkpt>
      <trkpt lat="46.34335" lon="5.4947">
        <ele>525.6</ele>
        <time>2022-06-12T09:28:39Z</time>
      </trkpt>
      <trkpt lat="46.34294" lon="5.49443">
        <ele>526.2</ele>
        <time>2022-06-12T09:28:45Z</time>
      </trkpt>
      <trkpt lat="46.34287" lon="5.49436">
        <ele>526</ele>
        <time>2022-06-12T09:28:46Z</time>
      </trkpt>
      <trkpt lat="46.34268" lon="5.49413">
        <ele>525.8</ele>
        <time>2022-06-12T09:28:49Z</time>
      </trkpt>
      <trkpt lat="46.34235" lon="5.49353">
        <ele>524.4</ele>
        <time>2022-06-12T09:28:55Z</time>
      </trkpt>
      <trkpt lat="46.34229" lon="5.49343">
        <ele>524</ele>
        <time>2022-06-12T09:28:56Z</time>
      </trkpt>
      <trkpt lat="46.34197" lon="5.4929">
        <ele>522.8</ele>
        <time>2022-06-12T09:29:01Z</time>
      </trkpt>
      <trkpt lat="46.34184" lon="5.49269">
        <ele>521.4</ele>
        <time>2022-06-12T09:29:03Z</time>
      </trkpt>
      <trkpt lat="46.34159" lon="5.49227">
        <ele>520.2</ele>
        <time>2022-06-12T09:29:07Z</time>
      </trkpt>
      <trkpt lat="46.34126" lon="5.49179">
        <ele>518.8</ele>
        <time>2022-06-12T09:29:12Z</time>
      </trkpt>
      <trkpt lat="46.3412" lon="5.4917">
        <ele>518.8</ele>
        <time>2022-06-12T09:29:13Z</time>
      </trkpt>
      <trkpt lat="46.34091" lon="5.49126">
        <ele>518.4</ele>
        <time>2022-06-12T09:29:18Z</time>
      </trkpt>
      <trkpt lat="46.34084" lon="5.49104">
        <ele>518.4</ele>
        <time>2022-06-12T09:29:20Z</time>
      </trkpt>
      <trkpt lat="46.34083" lon="5.49091">
        <ele>518.4</ele>
        <time>2022-06-12T09:29:21Z</time>
      </trkpt>
      <trkpt lat="46.34084" lon="5.49038">
        <ele>518.4</ele>
        <time>2022-06-12T09:29:25Z</time>
      </trkpt>
      <trkpt lat="46.34083" lon="5.49024">
        <ele>518.2</ele>
        <time>2022-06-12T09:29:26Z</time>
      </trkpt>
      <trkpt lat="46.34075" lon="5.48997">
        <ele>517.6</ele>
        <time>2022-06-12T09:29:28Z</time>
      </trkpt>
      <trkpt lat="46.34064" lon="5.48974">
        <ele>516</ele>
        <time>2022-06-12T09:29:30Z</time>
      </trkpt>
      <trkpt lat="46.34047" lon="5.48941">
        <ele>514.6</ele>
        <time>2022-06-12T09:29:33Z</time>
      </trkpt>
      <trkpt lat="46.3402" lon="5.48886">
        <ele>513.4</ele>
        <time>2022-06-12T09:29:38Z</time>
      </trkpt>
      <trkpt lat="46.34016" lon="5.48874">
        <ele>513.2</ele>
        <time>2022-06-12T09:29:39Z</time>
      </trkpt>
      <trkpt lat="46.34013" lon="5.48862">
        <ele>513</ele>
        <time>2022-06-12T09:29:40Z</time>
      </trkpt>
      <trkpt lat="46.34005" lon="5.48824">
        <ele>512.4</ele>
        <time>2022-06-12T09:29:43Z</time>
      </trkpt>
      <trkpt lat="46.34" lon="5.48812">
        <ele>512.2</ele>
        <time>2022-06-12T09:29:44Z</time>
      </trkpt>
      <trkpt lat="46.33994" lon="5.48801">
        <ele>512</ele>
        <time>2022-06-12T09:29:45Z</time>
      </trkpt>
      <trkpt lat="46.33987" lon="5.48792">
        <ele>511.8</ele>
        <time>2022-06-12T09:29:46Z</time>
      </trkpt>
      <trkpt lat="46.33962" lon="5.48765">
        <ele>510.6</ele>
        <time>2022-06-12T09:29:49Z</time>
      </trkpt>
      <trkpt lat="46.33939" lon="5.4874">
        <ele>509.4</ele>
        <time>2022-06-12T09:29:52Z</time>
      </trkpt>
      <trkpt lat="46.33913" lon="5.48704">
        <ele>508.6</ele>
        <time>2022-06-12T09:29:56Z</time>
      </trkpt>
      <trkpt lat="46.33908" lon="5.48694">
        <ele>508.6</ele>
        <time>2022-06-12T09:29:57Z</time>
      </trkpt>
      <trkpt lat="46.339" lon="5.48673">
        <ele>508.4</ele>
        <time>2022-06-12T09:29:59Z</time>
      </trkpt>
      <trkpt lat="46.33886" lon="5.48633">
        <ele>508.4</ele>
        <time>2022-06-12T09:30:03Z</time>
      </trkpt>
      <trkpt lat="46.3387" lon="5.48588">
        <ele>508.4</ele>
        <time>2022-06-12T09:30:08Z</time>
      </trkpt>
      <trkpt lat="46.33841" lon="5.48534">
        <ele>508.8</ele>
        <time>2022-06-12T09:30:15Z</time>
      </trkpt>
      <trkpt lat="46.33815" lon="5.48493">
        <ele>509.4</ele>
        <time>2022-06-12T09:30:21Z</time>
      </trkpt>
      <trkpt lat="46.33791" lon="5.48437">
        <ele>509.4</ele>
        <time>2022-06-12T09:30:28Z</time>
      </trkpt>
      <trkpt lat="46.33779" lon="5.4837">
        <ele>509.4</ele>
        <time>2022-06-12T09:30:35Z</time>
      </trkpt>
      <trkpt lat="46.33762" lon="5.48291">
        <ele>508.6</ele>
        <time>2022-06-12T09:30:43Z</time>
      </trkpt>
      <trkpt lat="46.33747" lon="5.4822">
        <ele>507.2</ele>
        <time>2022-06-12T09:30:49Z</time>
      </trkpt>
      <trkpt lat="46.3374" lon="5.48185">
        <ele>506</ele>
        <time>2022-06-12T09:30:52Z</time>
      </trkpt>
      <trkpt lat="46.33731" lon="5.4813">
        <ele>505.2</ele>
        <time>2022-06-12T09:30:57Z</time>
      </trkpt>
      <trkpt lat="46.33716" lon="5.48073">
        <ele>505</ele>
        <time>2022-06-12T09:31:03Z</time>
      </trkpt>
      <trkpt lat="46.33704" lon="5.48034">
        <ele>505.2</ele>
        <time>2022-06-12T09:31:08Z</time>
      </trkpt>
      <trkpt lat="46.337" lon="5.48027">
        <ele>505.4</ele>
        <time>2022-06-12T09:31:09Z</time>
      </trkpt>
      <trkpt lat="46.33689" lon="5.48004">
        <ele>506</ele>
        <time>2022-06-12T09:31:13Z</time>
      </trkpt>
      <trkpt lat="46.33684" lon="5.47992">
        <ele>506.4</ele>
        <time>2022-06-12T09:31:15Z</time>
      </trkpt>
      <trkpt lat="46.33678" lon="5.47976">
        <ele>507.2</ele>
        <time>2022-06-12T09:31:18Z</time>
      </trkpt>
      <trkpt lat="46.33677" lon="5.47965">
        <ele>507.6</ele>
        <time>2022-06-12T09:31:20Z</time>
      </trkpt>
      <trkpt lat="46.33677" lon="5.47958">
        <ele>508</ele>
        <time>2022-06-12T09:31:21Z</time>
      </trkpt>
      <trkpt lat="46.33677" lon="5.47952">
        <ele>508.4</ele>
        <time>2022-06-12T09:31:22Z</time>
      </trkpt>
      <trkpt lat="46.3368" lon="5.47926">
        <ele>509.4</ele>
        <time>2022-06-12T09:31:26Z</time>
      </trkpt>
      <trkpt lat="46.33681" lon="5.47919">
        <ele>509.6</ele>
        <time>2022-06-12T09:31:27Z</time>
      </trkpt>
      <trkpt lat="46.33681" lon="5.47913">
        <ele>509.6</ele>
        <time>2022-06-12T09:31:28Z</time>
      </trkpt>
      <trkpt lat="46.33685" lon="5.47895">
        <ele>510.6</ele>
        <time>2022-06-12T09:31:31Z</time>
      </trkpt>
      <trkpt lat="46.33686" lon="5.47889">
        <ele>510.8</ele>
        <time>2022-06-12T09:31:32Z</time>
      </trkpt>
      <trkpt lat="46.33689" lon="5.47884">
        <ele>511</ele>
        <time>2022-06-12T09:31:33Z</time>
      </trkpt>
      <trkpt lat="46.33696" lon="5.47877">
        <ele>511.2</ele>
        <time>2022-06-12T09:31:35Z</time>
      </trkpt>
      <trkpt lat="46.337" lon="5.47876">
        <ele>511.4</ele>
        <time>2022-06-12T09:31:36Z</time>
      </trkpt>
      <trkpt lat="46.33714" lon="5.47878">
        <ele>511.8</ele>
        <time>2022-06-12T09:31:39Z</time>
      </trkpt>
      <trkpt lat="46.33729" lon="5.47882">
        <ele>512.2</ele>
        <time>2022-06-12T09:31:42Z</time>
      </trkpt>
      <trkpt lat="46.33759" lon="5.47891">
        <ele>512.4</ele>
        <time>2022-06-12T09:31:47Z</time>
      </trkpt>
      <trkpt lat="46.3379" lon="5.47901">
        <ele>512.4</ele>
        <time>2022-06-12T09:31:52Z</time>
      </trkpt>
      <trkpt lat="46.3384" lon="5.47915">
        <ele>512.6</ele>
        <time>2022-06-12T09:32:00Z</time>
      </trkpt>
      <trkpt lat="46.33853" lon="5.47915">
        <ele>512.8</ele>
        <time>2022-06-12T09:32:02Z</time>
      </trkpt>
      <trkpt lat="46.33864" lon="5.47915">
        <ele>512.8</ele>
        <time>2022-06-12T09:32:04Z</time>
      </trkpt>
      <trkpt lat="46.33876" lon="5.47914">
        <ele>512.8</ele>
        <time>2022-06-12T09:32:06Z</time>
      </trkpt>
      <trkpt lat="46.33909" lon="5.47911">
        <ele>513.6</ele>
        <time>2022-06-12T09:32:12Z</time>
      </trkpt>
      <trkpt lat="46.33925" lon="5.47909">
        <ele>513.8</ele>
        <time>2022-06-12T09:32:15Z</time>
      </trkpt>
      <trkpt lat="46.33951" lon="5.47899">
        <ele>514.6</ele>
        <time>2022-06-12T09:32:20Z</time>
      </trkpt>
      <trkpt lat="46.33972" lon="5.47886">
        <ele>514.8</ele>
        <time>2022-06-12T09:32:24Z</time>
      </trkpt>
      <trkpt lat="46.33995" lon="5.4787">
        <ele>515.4</ele>
        <time>2022-06-12T09:32:28Z</time>
      </trkpt>
      <trkpt lat="46.34028" lon="5.47834">
        <ele>515.2</ele>
        <time>2022-06-12T09:32:34Z</time>
      </trkpt>
      <trkpt lat="46.34065" lon="5.47787">
        <ele>514.6</ele>
        <time>2022-06-12T09:32:41Z</time>
      </trkpt>
      <trkpt lat="46.34098" lon="5.47757">
        <ele>514.6</ele>
        <time>2022-06-12T09:32:47Z</time>
      </trkpt>
      <trkpt lat="46.34109" lon="5.47753">
        <ele>514.8</ele>
        <time>2022-06-12T09:32:49Z</time>
      </trkpt>
      <trkpt lat="46.34121" lon="5.47753">
        <ele>515</ele>
        <time>2022-06-12T09:32:51Z</time>
      </trkpt>
      <trkpt lat="46.34161" lon="5.47758">
        <ele>515.2</ele>
        <time>2022-06-12T09:32:57Z</time>
      </trkpt>
      <trkpt lat="46.34211" lon="5.47769">
        <ele>514.6</ele>
        <time>2022-06-12T09:33:03Z</time>
      </trkpt>
      <trkpt lat="46.34241" lon="5.47776">
        <ele>513.4</ele>
        <time>2022-06-12T09:33:06Z</time>
      </trkpt>
      <trkpt lat="46.34251" lon="5.47779">
        <ele>512.8</ele>
        <time>2022-06-12T09:33:07Z</time>
      </trkpt>
      <trkpt lat="46.34273" lon="5.47786">
        <ele>512.2</ele>
        <time>2022-06-12T09:33:09Z</time>
      </trkpt>
      <trkpt lat="46.34307" lon="5.47794">
        <ele>510.2</ele>
        <time>2022-06-12T09:33:12Z</time>
      </trkpt>
      <trkpt lat="46.34319" lon="5.47796">
        <ele>509.8</ele>
        <time>2022-06-12T09:33:13Z</time>
      </trkpt>
      <trkpt lat="46.34331" lon="5.47797">
        <ele>509.2</ele>
        <time>2022-06-12T09:33:14Z</time>
      </trkpt>
      <trkpt lat="46.34344" lon="5.47798">
        <ele>508</ele>
        <time>2022-06-12T09:33:15Z</time>
      </trkpt>
      <trkpt lat="46.3437" lon="5.47796">
        <ele>506</ele>
        <time>2022-06-12T09:33:17Z</time>
      </trkpt>
      <trkpt lat="46.34383" lon="5.47795">
        <ele>505.6</ele>
        <time>2022-06-12T09:33:18Z</time>
      </trkpt>
      <trkpt lat="46.34396" lon="5.47791">
        <ele>504.8</ele>
        <time>2022-06-12T09:33:19Z</time>
      </trkpt>
      <trkpt lat="46.34421" lon="5.47776">
        <ele>503.8</ele>
        <time>2022-06-12T09:33:21Z</time>
      </trkpt>
      <trkpt lat="46.34432" lon="5.47766">
        <ele>503.2</ele>
        <time>2022-06-12T09:33:22Z</time>
      </trkpt>
      <trkpt lat="46.34442" lon="5.47753">
        <ele>502.4</ele>
        <time>2022-06-12T09:33:23Z</time>
      </trkpt>
      <trkpt lat="46.34451" lon="5.4774">
        <ele>501</ele>
        <time>2022-06-12T09:33:24Z</time>
      </trkpt>
      <trkpt lat="46.34467" lon="5.4771">
        <ele>499.2</ele>
        <time>2022-06-12T09:33:26Z</time>
      </trkpt>
      <trkpt lat="46.34481" lon="5.4768">
        <ele>497.6</ele>
        <time>2022-06-12T09:33:28Z</time>
      </trkpt>
      <trkpt lat="46.34488" lon="5.47666">
        <ele>496.8</ele>
        <time>2022-06-12T09:33:29Z</time>
      </trkpt>
      <trkpt lat="46.34495" lon="5.47652">
        <ele>496.2</ele>
        <time>2022-06-12T09:33:30Z</time>
      </trkpt>
      <trkpt lat="46.34502" lon="5.47638">
        <ele>495.2</ele>
        <time>2022-06-12T09:33:31Z</time>
      </trkpt>
      <trkpt lat="46.34517" lon="5.47612">
        <ele>494.2</ele>
        <time>2022-06-12T09:33:33Z</time>
      </trkpt>
      <trkpt lat="46.34525" lon="5.47598">
        <ele>494</ele>
        <time>2022-06-12T09:33:34Z</time>
      </trkpt>
      <trkpt lat="46.34557" lon="5.47547">
        <ele>493</ele>
        <time>2022-06-12T09:33:38Z</time>
      </trkpt>
      <trkpt lat="46.34575" lon="5.47522">
        <ele>492.4</ele>
        <time>2022-06-12T09:33:40Z</time>
      </trkpt>
      <trkpt lat="46.34594" lon="5.47499">
        <ele>491</ele>
        <time>2022-06-12T09:33:42Z</time>
      </trkpt>
      <trkpt lat="46.34614" lon="5.47476">
        <ele>489.6</ele>
        <time>2022-06-12T09:33:44Z</time>
      </trkpt>
      <trkpt lat="46.34623" lon="5.47464">
        <ele>488.8</ele>
        <time>2022-06-12T09:33:45Z</time>
      </trkpt>
      <trkpt lat="46.34631" lon="5.47451">
        <ele>488.4</ele>
        <time>2022-06-12T09:33:46Z</time>
      </trkpt>
      <trkpt lat="46.34638" lon="5.47432">
        <ele>487.4</ele>
        <time>2022-06-12T09:33:47Z</time>
      </trkpt>
      <trkpt lat="46.34642" lon="5.47418">
        <ele>487.2</ele>
        <time>2022-06-12T09:33:48Z</time>
      </trkpt>
      <trkpt lat="46.34645" lon="5.47401">
        <ele>486</ele>
        <time>2022-06-12T09:33:49Z</time>
      </trkpt>
      <trkpt lat="46.34648" lon="5.47384">
        <ele>484.6</ele>
        <time>2022-06-12T09:33:50Z</time>
      </trkpt>
      <trkpt lat="46.34654" lon="5.47351">
        <ele>483.6</ele>
        <time>2022-06-12T09:33:52Z</time>
      </trkpt>
      <trkpt lat="46.34657" lon="5.47336">
        <ele>483.2</ele>
        <time>2022-06-12T09:33:53Z</time>
      </trkpt>
      <trkpt lat="46.34659" lon="5.47321">
        <ele>482</ele>
        <time>2022-06-12T09:33:54Z</time>
      </trkpt>
      <trkpt lat="46.34661" lon="5.47306">
        <ele>481.6</ele>
        <time>2022-06-12T09:33:55Z</time>
      </trkpt>
      <trkpt lat="46.3466" lon="5.47275">
        <ele>481</ele>
        <time>2022-06-12T09:33:57Z</time>
      </trkpt>
      <trkpt lat="46.3465" lon="5.47243">
        <ele>480.8</ele>
        <time>2022-06-12T09:33:59Z</time>
      </trkpt>
      <trkpt lat="46.34643" lon="5.47229">
        <ele>480.6</ele>
        <time>2022-06-12T09:34:00Z</time>
      </trkpt>
      <trkpt lat="46.34621" lon="5.4719">
        <ele>479.2</ele>
        <time>2022-06-12T09:34:03Z</time>
      </trkpt>
      <trkpt lat="46.34612" lon="5.47178">
        <ele>478.6</ele>
        <time>2022-06-12T09:34:04Z</time>
      </trkpt>
      <trkpt lat="46.3459" lon="5.4716">
        <ele>477</ele>
        <time>2022-06-12T09:34:06Z</time>
      </trkpt>
      <trkpt lat="46.34579" lon="5.47152">
        <ele>476.4</ele>
        <time>2022-06-12T09:34:07Z</time>
      </trkpt>
      <trkpt lat="46.34568" lon="5.47145">
        <ele>475.2</ele>
        <time>2022-06-12T09:34:08Z</time>
      </trkpt>
      <trkpt lat="46.34546" lon="5.47132">
        <ele>473.8</ele>
        <time>2022-06-12T09:34:10Z</time>
      </trkpt>
      <trkpt lat="46.34527" lon="5.47119">
        <ele>472.8</ele>
        <time>2022-06-12T09:34:12Z</time>
      </trkpt>
      <trkpt lat="46.34518" lon="5.47111">
        <ele>472.2</ele>
        <time>2022-06-12T09:34:13Z</time>
      </trkpt>
      <trkpt lat="46.34509" lon="5.47103">
        <ele>471.8</ele>
        <time>2022-06-12T09:34:14Z</time>
      </trkpt>
      <trkpt lat="46.345" lon="5.47092">
        <ele>471.4</ele>
        <time>2022-06-12T09:34:15Z</time>
      </trkpt>
      <trkpt lat="46.34485" lon="5.4707">
        <ele>471</ele>
        <time>2022-06-12T09:34:17Z</time>
      </trkpt>
      <trkpt lat="46.34473" lon="5.47042">
        <ele>470.2</ele>
        <time>2022-06-12T09:34:19Z</time>
      </trkpt>
      <trkpt lat="46.34469" lon="5.47027">
        <ele>469.6</ele>
        <time>2022-06-12T09:34:20Z</time>
      </trkpt>
      <trkpt lat="46.34463" lon="5.46993">
        <ele>468.8</ele>
        <time>2022-06-12T09:34:22Z</time>
      </trkpt>
      <trkpt lat="46.34458" lon="5.46977">
        <ele>468.6</ele>
        <time>2022-06-12T09:34:23Z</time>
      </trkpt>
      <trkpt lat="46.34453" lon="5.46963">
        <ele>467.6</ele>
        <time>2022-06-12T09:34:24Z</time>
      </trkpt>
      <trkpt lat="46.34446" lon="5.4695">
        <ele>466.8</ele>
        <time>2022-06-12T09:34:25Z</time>
      </trkpt>
      <trkpt lat="46.34438" lon="5.46939">
        <ele>466.4</ele>
        <time>2022-06-12T09:34:26Z</time>
      </trkpt>
      <trkpt lat="46.34428" lon="5.46931">
        <ele>465.8</ele>
        <time>2022-06-12T09:34:27Z</time>
      </trkpt>
      <trkpt lat="46.34417" lon="5.46923">
        <ele>465</ele>
        <time>2022-06-12T09:34:28Z</time>
      </trkpt>
      <trkpt lat="46.34405" lon="5.46917">
        <ele>463.8</ele>
        <time>2022-06-12T09:34:29Z</time>
      </trkpt>
      <trkpt lat="46.34393" lon="5.46912">
        <ele>463.4</ele>
        <time>2022-06-12T09:34:30Z</time>
      </trkpt>
      <trkpt lat="46.34381" lon="5.46908">
        <ele>461.8</ele>
        <time>2022-06-12T09:34:31Z</time>
      </trkpt>
      <trkpt lat="46.34369" lon="5.46904">
        <ele>460.8</ele>
        <time>2022-06-12T09:34:32Z</time>
      </trkpt>
      <trkpt lat="46.34357" lon="5.46898">
        <ele>460.4</ele>
        <time>2022-06-12T09:34:33Z</time>
      </trkpt>
      <trkpt lat="46.34346" lon="5.46892">
        <ele>460</ele>
        <time>2022-06-12T09:34:34Z</time>
      </trkpt>
      <trkpt lat="46.34336" lon="5.46883">
        <ele>459.4</ele>
        <time>2022-06-12T09:34:35Z</time>
      </trkpt>
      <trkpt lat="46.34324" lon="5.46851">
        <ele>458</ele>
        <time>2022-06-12T09:34:37Z</time>
      </trkpt>
      <trkpt lat="46.34334" lon="5.46816">
        <ele>456.2</ele>
        <time>2022-06-12T09:34:39Z</time>
      </trkpt>
      <trkpt lat="46.34334" lon="5.468">
        <ele>455.8</ele>
        <time>2022-06-12T09:34:40Z</time>
      </trkpt>
      <trkpt lat="46.3433" lon="5.46782">
        <ele>455.2</ele>
        <time>2022-06-12T09:34:41Z</time>
      </trkpt>
      <trkpt lat="46.34324" lon="5.46768">
        <ele>454.8</ele>
        <time>2022-06-12T09:34:42Z</time>
      </trkpt>
      <trkpt lat="46.34317" lon="5.46757">
        <ele>454.4</ele>
        <time>2022-06-12T09:34:43Z</time>
      </trkpt>
      <trkpt lat="46.34308" lon="5.4675">
        <ele>454.2</ele>
        <time>2022-06-12T09:34:44Z</time>
      </trkpt>
      <trkpt lat="46.343" lon="5.46743">
        <ele>453.6</ele>
        <time>2022-06-12T09:34:45Z</time>
      </trkpt>
      <trkpt lat="46.34293" lon="5.46738">
        <ele>453</ele>
        <time>2022-06-12T09:34:46Z</time>
      </trkpt>
      <trkpt lat="46.34285" lon="5.46732">
        <ele>452.6</ele>
        <time>2022-06-12T09:34:47Z</time>
      </trkpt>
      <trkpt lat="46.34279" lon="5.46726">
        <ele>452</ele>
        <time>2022-06-12T09:34:48Z</time>
      </trkpt>
      <trkpt lat="46.34261" lon="5.46713">
        <ele>451.6</ele>
        <time>2022-06-12T09:34:50Z</time>
      </trkpt>
      <trkpt lat="46.34251" lon="5.46705">
        <ele>451.4</ele>
        <time>2022-06-12T09:34:51Z</time>
      </trkpt>
      <trkpt lat="46.34224" lon="5.46679">
        <ele>450.6</ele>
        <time>2022-06-12T09:34:54Z</time>
      </trkpt>
      <trkpt lat="46.34211" lon="5.46649">
        <ele>450.2</ele>
        <time>2022-06-12T09:34:56Z</time>
      </trkpt>
      <trkpt lat="46.3421" lon="5.46617">
        <ele>449.6</ele>
        <time>2022-06-12T09:34:58Z</time>
      </trkpt>
      <trkpt lat="46.34212" lon="5.46603">
        <ele>449.6</ele>
        <time>2022-06-12T09:34:59Z</time>
      </trkpt>
      <trkpt lat="46.34217" lon="5.4659">
        <ele>449</ele>
        <time>2022-06-12T09:35:00Z</time>
      </trkpt>
      <trkpt lat="46.34224" lon="5.4658">
        <ele>448.8</ele>
        <time>2022-06-12T09:35:01Z</time>
      </trkpt>
      <trkpt lat="46.34233" lon="5.46572">
        <ele>448.4</ele>
        <time>2022-06-12T09:35:02Z</time>
      </trkpt>
      <trkpt lat="46.34242" lon="5.46565">
        <ele>448</ele>
        <time>2022-06-12T09:35:03Z</time>
      </trkpt>
      <trkpt lat="46.34251" lon="5.4656">
        <ele>447.4</ele>
        <time>2022-06-12T09:35:04Z</time>
      </trkpt>
      <trkpt lat="46.3426" lon="5.46556">
        <ele>447</ele>
        <time>2022-06-12T09:35:05Z</time>
      </trkpt>
      <trkpt lat="46.34286" lon="5.46542">
        <ele>446.8</ele>
        <time>2022-06-12T09:35:08Z</time>
      </trkpt>
      <trkpt lat="46.34292" lon="5.46533">
        <ele>446.8</ele>
        <time>2022-06-12T09:35:09Z</time>
      </trkpt>
      <trkpt lat="46.34294" lon="5.46518">
        <ele>446.6</ele>
        <time>2022-06-12T09:35:10Z</time>
      </trkpt>
      <trkpt lat="46.34302" lon="5.46493">
        <ele>446.6</ele>
        <time>2022-06-12T09:35:12Z</time>
      </trkpt>
      <trkpt lat="46.34306" lon="5.4648">
        <ele>446.6</ele>
        <time>2022-06-12T09:35:13Z</time>
      </trkpt>
      <trkpt lat="46.34306" lon="5.46469">
        <ele>446.6</ele>
        <time>2022-06-12T09:35:14Z</time>
      </trkpt>
      <trkpt lat="46.34306" lon="5.46456">
        <ele>446.6</ele>
        <time>2022-06-12T09:35:15Z</time>
      </trkpt>
      <trkpt lat="46.34305" lon="5.46443">
        <ele>446.8</ele>
        <time>2022-06-12T09:35:16Z</time>
      </trkpt>
      <trkpt lat="46.34296" lon="5.46406">
        <ele>446.6</ele>
        <time>2022-06-12T09:35:19Z</time>
      </trkpt>
      <trkpt lat="46.34292" lon="5.46391">
        <ele>446.6</ele>
        <time>2022-06-12T09:35:20Z</time>
      </trkpt>
      <trkpt lat="46.34292" lon="5.46362">
        <ele>446.4</ele>
        <time>2022-06-12T09:35:22Z</time>
      </trkpt>
      <trkpt lat="46.34294" lon="5.46335">
        <ele>446.4</ele>
        <time>2022-06-12T09:35:24Z</time>
      </trkpt>
      <trkpt lat="46.34297" lon="5.46313">
        <ele>446.2</ele>
        <time>2022-06-12T09:35:26Z</time>
      </trkpt>
      <trkpt lat="46.34305" lon="5.46263">
        <ele>446.2</ele>
        <time>2022-06-12T09:35:31Z</time>
      </trkpt>
      <trkpt lat="46.3431" lon="5.46244">
        <ele>446.4</ele>
        <time>2022-06-12T09:35:33Z</time>
      </trkpt>
      <trkpt lat="46.3432" lon="5.46228">
        <ele>446.4</ele>
        <time>2022-06-12T09:35:35Z</time>
      </trkpt>
      <trkpt lat="46.34347" lon="5.46202">
        <ele>446.6</ele>
        <time>2022-06-12T09:35:39Z</time>
      </trkpt>
      <trkpt lat="46.34377" lon="5.46168">
        <ele>446.6</ele>
        <time>2022-06-12T09:35:44Z</time>
      </trkpt>
      <trkpt lat="46.34403" lon="5.46146">
        <ele>446.4</ele>
        <time>2022-06-12T09:35:48Z</time>
      </trkpt>
      <trkpt lat="46.34411" lon="5.46143">
        <ele>446.4</ele>
        <time>2022-06-12T09:35:49Z</time>
      </trkpt>
      <trkpt lat="46.34438" lon="5.4614">
        <ele>446</ele>
        <time>2022-06-12T09:35:53Z</time>
      </trkpt>
      <trkpt lat="46.3445" lon="5.46146">
        <ele>445.8</ele>
        <time>2022-06-12T09:35:55Z</time>
      </trkpt>
      <trkpt lat="46.34456" lon="5.46152">
        <ele>445.6</ele>
        <time>2022-06-12T09:35:56Z</time>
      </trkpt>
      <trkpt lat="46.34469" lon="5.46163">
        <ele>445.4</ele>
        <time>2022-06-12T09:35:58Z</time>
      </trkpt>
      <trkpt lat="46.34477" lon="5.46165">
        <ele>445.4</ele>
        <time>2022-06-12T09:35:59Z</time>
      </trkpt>
      <trkpt lat="46.34491" lon="5.46164">
        <ele>445.2</ele>
        <time>2022-06-12T09:36:01Z</time>
      </trkpt>
      <trkpt lat="46.34498" lon="5.4616">
        <ele>445.2</ele>
        <time>2022-06-12T09:36:02Z</time>
      </trkpt>
      <trkpt lat="46.34504" lon="5.46155">
        <ele>445</ele>
        <time>2022-06-12T09:36:03Z</time>
      </trkpt>
      <trkpt lat="46.34522" lon="5.4614">
        <ele>444.4</ele>
        <time>2022-06-12T09:36:06Z</time>
      </trkpt>
      <trkpt lat="46.34527" lon="5.4612">
        <ele>443.6</ele>
        <time>2022-06-12T09:36:08Z</time>
      </trkpt>
      <trkpt lat="46.34528" lon="5.46106">
        <ele>443.4</ele>
        <time>2022-06-12T09:36:09Z</time>
      </trkpt>
      <trkpt lat="46.34532" lon="5.46079">
        <ele>442.8</ele>
        <time>2022-06-12T09:36:11Z</time>
      </trkpt>
      <trkpt lat="46.34538" lon="5.46068">
        <ele>442.4</ele>
        <time>2022-06-12T09:36:12Z</time>
      </trkpt>
      <trkpt lat="46.34546" lon="5.46062">
        <ele>442</ele>
        <time>2022-06-12T09:36:13Z</time>
      </trkpt>
      <trkpt lat="46.34555" lon="5.46058">
        <ele>441.2</ele>
        <time>2022-06-12T09:36:14Z</time>
      </trkpt>
      <trkpt lat="46.34574" lon="5.46054">
        <ele>440</ele>
        <time>2022-06-12T09:36:16Z</time>
      </trkpt>
      <trkpt lat="46.34583" lon="5.46053">
        <ele>439</ele>
        <time>2022-06-12T09:36:17Z</time>
      </trkpt>
      <trkpt lat="46.34593" lon="5.46051">
        <ele>438.6</ele>
        <time>2022-06-12T09:36:18Z</time>
      </trkpt>
      <trkpt lat="46.34615" lon="5.46046">
        <ele>437.6</ele>
        <time>2022-06-12T09:36:20Z</time>
      </trkpt>
      <trkpt lat="46.34636" lon="5.46041">
        <ele>436.6</ele>
        <time>2022-06-12T09:36:22Z</time>
      </trkpt>
      <trkpt lat="46.34647" lon="5.46038">
        <ele>436</ele>
        <time>2022-06-12T09:36:23Z</time>
      </trkpt>
      <trkpt lat="46.34659" lon="5.46036">
        <ele>435.4</ele>
        <time>2022-06-12T09:36:24Z</time>
      </trkpt>
      <trkpt lat="46.34681" lon="5.46031">
        <ele>434</ele>
        <time>2022-06-12T09:36:26Z</time>
      </trkpt>
      <trkpt lat="46.34705" lon="5.46027">
        <ele>432.8</ele>
        <time>2022-06-12T09:36:28Z</time>
      </trkpt>
      <trkpt lat="46.34718" lon="5.46024">
        <ele>431.8</ele>
        <time>2022-06-12T09:36:29Z</time>
      </trkpt>
      <trkpt lat="46.3473" lon="5.46021">
        <ele>431.4</ele>
        <time>2022-06-12T09:36:30Z</time>
      </trkpt>
      <trkpt lat="46.34756" lon="5.46014">
        <ele>430</ele>
        <time>2022-06-12T09:36:32Z</time>
      </trkpt>
      <trkpt lat="46.3477" lon="5.46011">
        <ele>428.6</ele>
        <time>2022-06-12T09:36:33Z</time>
      </trkpt>
      <trkpt lat="46.34796" lon="5.46006">
        <ele>427.4</ele>
        <time>2022-06-12T09:36:35Z</time>
      </trkpt>
      <trkpt lat="46.34809" lon="5.46003">
        <ele>425.6</ele>
        <time>2022-06-12T09:36:36Z</time>
      </trkpt>
      <trkpt lat="46.34836" lon="5.45999">
        <ele>424.2</ele>
        <time>2022-06-12T09:36:38Z</time>
      </trkpt>
      <trkpt lat="46.34864" lon="5.45997">
        <ele>422.6</ele>
        <time>2022-06-12T09:36:40Z</time>
      </trkpt>
      <trkpt lat="46.34878" lon="5.45996">
        <ele>422</ele>
        <time>2022-06-12T09:36:41Z</time>
      </trkpt>
      <trkpt lat="46.34892" lon="5.45995">
        <ele>421.2</ele>
        <time>2022-06-12T09:36:42Z</time>
      </trkpt>
      <trkpt lat="46.34921" lon="5.45993">
        <ele>419.8</ele>
        <time>2022-06-12T09:36:44Z</time>
      </trkpt>
      <trkpt lat="46.34935" lon="5.45992">
        <ele>417.4</ele>
        <time>2022-06-12T09:36:45Z</time>
      </trkpt>
      <trkpt lat="46.34964" lon="5.4599">
        <ele>415.8</ele>
        <time>2022-06-12T09:36:47Z</time>
      </trkpt>
      <trkpt lat="46.34979" lon="5.45988">
        <ele>415.6</ele>
        <time>2022-06-12T09:36:48Z</time>
      </trkpt>
      <trkpt lat="46.35008" lon="5.45985">
        <ele>413.6</ele>
        <time>2022-06-12T09:36:50Z</time>
      </trkpt>
      <trkpt lat="46.35037" lon="5.45982">
        <ele>411.4</ele>
        <time>2022-06-12T09:36:52Z</time>
      </trkpt>
      <trkpt lat="46.35068" lon="5.45981">
        <ele>409.8</ele>
        <time>2022-06-12T09:36:54Z</time>
      </trkpt>
      <trkpt lat="46.35098" lon="5.45978">
        <ele>408</ele>
        <time>2022-06-12T09:36:56Z</time>
      </trkpt>
      <trkpt lat="46.35113" lon="5.45977">
        <ele>406.2</ele>
        <time>2022-06-12T09:36:57Z</time>
      </trkpt>
      <trkpt lat="46.35144" lon="5.45974">
        <ele>404.6</ele>
        <time>2022-06-12T09:36:59Z</time>
      </trkpt>
      <trkpt lat="46.35174" lon="5.45971">
        <ele>403</ele>
        <time>2022-06-12T09:37:01Z</time>
      </trkpt>
      <trkpt lat="46.35204" lon="5.4597">
        <ele>401</ele>
        <time>2022-06-12T09:37:03Z</time>
      </trkpt>
      <trkpt lat="46.35219" lon="5.45969">
        <ele>399.8</ele>
        <time>2022-06-12T09:37:04Z</time>
      </trkpt>
      <trkpt lat="46.35249" lon="5.45968">
        <ele>398.4</ele>
        <time>2022-06-12T09:37:06Z</time>
      </trkpt>
      <trkpt lat="46.3528" lon="5.4597">
        <ele>395.6</ele>
        <time>2022-06-12T09:37:08Z</time>
      </trkpt>
      <trkpt lat="46.35312" lon="5.45972">
        <ele>393.4</ele>
        <time>2022-06-12T09:37:10Z</time>
      </trkpt>
      <trkpt lat="46.35328" lon="5.45973">
        <ele>391.6</ele>
        <time>2022-06-12T09:37:11Z</time>
      </trkpt>
      <trkpt lat="46.3536" lon="5.45975">
        <ele>389.2</ele>
        <time>2022-06-12T09:37:13Z</time>
      </trkpt>
      <trkpt lat="46.35392" lon="5.45976">
        <ele>387.8</ele>
        <time>2022-06-12T09:37:15Z</time>
      </trkpt>
      <trkpt lat="46.35411" lon="5.45974">
        <ele>386.8</ele>
        <time>2022-06-12T09:37:16Z</time>
      </trkpt>
      <trkpt lat="46.35423" lon="5.45973">
        <ele>385.6</ele>
        <time>2022-06-12T09:37:17Z</time>
      </trkpt>
      <trkpt lat="46.35439" lon="5.45971">
        <ele>384.4</ele>
        <time>2022-06-12T09:37:18Z</time>
      </trkpt>
      <trkpt lat="46.35469" lon="5.45967">
        <ele>382.4</ele>
        <time>2022-06-12T09:37:20Z</time>
      </trkpt>
      <trkpt lat="46.35502" lon="5.45965">
        <ele>380.4</ele>
        <time>2022-06-12T09:37:22Z</time>
      </trkpt>
      <trkpt lat="46.35514" lon="5.45965">
        <ele>379.6</ele>
        <time>2022-06-12T09:37:23Z</time>
      </trkpt>
      <trkpt lat="46.35529" lon="5.45965">
        <ele>378.6</ele>
        <time>2022-06-12T09:37:24Z</time>
      </trkpt>
      <trkpt lat="46.35557" lon="5.45968">
        <ele>377.2</ele>
        <time>2022-06-12T09:37:26Z</time>
      </trkpt>
      <trkpt lat="46.3557" lon="5.4597">
        <ele>376.6</ele>
        <time>2022-06-12T09:37:27Z</time>
      </trkpt>
      <trkpt lat="46.35582" lon="5.45974">
        <ele>376.2</ele>
        <time>2022-06-12T09:37:28Z</time>
      </trkpt>
      <trkpt lat="46.35604" lon="5.45982">
        <ele>374.6</ele>
        <time>2022-06-12T09:37:30Z</time>
      </trkpt>
      <trkpt lat="46.35614" lon="5.45986">
        <ele>373</ele>
        <time>2022-06-12T09:37:31Z</time>
      </trkpt>
      <trkpt lat="46.35624" lon="5.45989">
        <ele>371.8</ele>
        <time>2022-06-12T09:37:32Z</time>
      </trkpt>
      <trkpt lat="46.35635" lon="5.45987">
        <ele>370.8</ele>
        <time>2022-06-12T09:37:33Z</time>
      </trkpt>
      <trkpt lat="46.35645" lon="5.45984">
        <ele>369.8</ele>
        <time>2022-06-12T09:37:34Z</time>
      </trkpt>
      <trkpt lat="46.35665" lon="5.45979">
        <ele>367.6</ele>
        <time>2022-06-12T09:37:36Z</time>
      </trkpt>
      <trkpt lat="46.35684" lon="5.45976">
        <ele>366</ele>
        <time>2022-06-12T09:37:38Z</time>
      </trkpt>
      <trkpt lat="46.35694" lon="5.45975">
        <ele>365.2</ele>
        <time>2022-06-12T09:37:39Z</time>
      </trkpt>
      <trkpt lat="46.35703" lon="5.45975">
        <ele>364.6</ele>
        <time>2022-06-12T09:37:40Z</time>
      </trkpt>
      <trkpt lat="46.35727" lon="5.45978">
        <ele>363.2</ele>
        <time>2022-06-12T09:37:43Z</time>
      </trkpt>
      <trkpt lat="46.3575" lon="5.45983">
        <ele>362.6</ele>
        <time>2022-06-12T09:37:46Z</time>
      </trkpt>
      <trkpt lat="46.35758" lon="5.45982">
        <ele>362.4</ele>
        <time>2022-06-12T09:37:47Z</time>
      </trkpt>
      <trkpt lat="46.35765" lon="5.45979">
        <ele>362.2</ele>
        <time>2022-06-12T09:37:48Z</time>
      </trkpt>
      <trkpt lat="46.35774" lon="5.45965">
        <ele>362.2</ele>
        <time>2022-06-12T09:37:50Z</time>
      </trkpt>
      <trkpt lat="46.35785" lon="5.45922">
        <ele>362.4</ele>
        <time>2022-06-12T09:37:55Z</time>
      </trkpt>
      <trkpt lat="46.35793" lon="5.45886">
        <ele>363</ele>
        <time>2022-06-12T09:37:59Z</time>
      </trkpt>
      <trkpt lat="46.35794" lon="5.45877">
        <ele>363.2</ele>
        <time>2022-06-12T09:38:00Z</time>
      </trkpt>
      <trkpt lat="46.35795" lon="5.45868">
        <ele>363.4</ele>
        <time>2022-06-12T09:38:01Z</time>
      </trkpt>
      <trkpt lat="46.35796" lon="5.45859">
        <ele>363.6</ele>
        <time>2022-06-12T09:38:02Z</time>
      </trkpt>
      <trkpt lat="46.35795" lon="5.4583">
        <ele>364</ele>
        <time>2022-06-12T09:38:05Z</time>
      </trkpt>
      <trkpt lat="46.35786" lon="5.45754">
        <ele>364.4</ele>
        <time>2022-06-12T09:38:13Z</time>
      </trkpt>
      <trkpt lat="46.35779" lon="5.45716">
        <ele>364.6</ele>
        <time>2022-06-12T09:38:18Z</time>
      </trkpt>
      <trkpt lat="46.35778" lon="5.45708">
        <ele>364.6</ele>
        <time>2022-06-12T09:38:19Z</time>
      </trkpt>
      <trkpt lat="46.35779" lon="5.4569">
        <ele>364.8</ele>
        <time>2022-06-12T09:38:21Z</time>
      </trkpt>
      <trkpt lat="46.35788" lon="5.45677">
        <ele>365</ele>
        <time>2022-06-12T09:38:23Z</time>
      </trkpt>
      <trkpt lat="46.35794" lon="5.45673">
        <ele>365</ele>
        <time>2022-06-12T09:38:24Z</time>
      </trkpt>
      <trkpt lat="46.35806" lon="5.45671">
        <ele>365</ele>
        <time>2022-06-12T09:38:26Z</time>
      </trkpt>
      <trkpt lat="46.35839" lon="5.4567">
        <ele>365.4</ele>
        <time>2022-06-12T09:38:32Z</time>
      </trkpt>
      <trkpt lat="46.35849" lon="5.45668">
        <ele>365.8</ele>
        <time>2022-06-12T09:38:34Z</time>
      </trkpt>
      <trkpt lat="46.35871" lon="5.4566">
        <ele>367.2</ele>
        <time>2022-06-12T09:38:39Z</time>
      </trkpt>
      <trkpt lat="46.3589" lon="5.45654">
        <ele>368.6</ele>
        <time>2022-06-12T09:38:43Z</time>
      </trkpt>
      <trkpt lat="46.35911" lon="5.45646">
        <ele>369.6</ele>
        <time>2022-06-12T09:38:47Z</time>
      </trkpt>
      <trkpt lat="46.35916" lon="5.45644">
        <ele>369.8</ele>
        <time>2022-06-12T09:38:48Z</time>
      </trkpt>
      <trkpt lat="46.35958" lon="5.45636">
        <ele>370.4</ele>
        <time>2022-06-12T09:38:56Z</time>
      </trkpt>
      <trkpt lat="46.36011" lon="5.4564">
        <ele>370.8</ele>
        <time>2022-06-12T09:39:05Z</time>
      </trkpt>
      <trkpt lat="46.36054" lon="5.45644">
        <ele>370.8</ele>
        <time>2022-06-12T09:39:12Z</time>
      </trkpt>
      <trkpt lat="46.36066" lon="5.45644">
        <ele>370.6</ele>
        <time>2022-06-12T09:39:14Z</time>
      </trkpt>
      <trkpt lat="46.36123" lon="5.45644">
        <ele>370.6</ele>
        <time>2022-06-12T09:39:23Z</time>
      </trkpt>
      <trkpt lat="46.36129" lon="5.45644">
        <ele>370.6</ele>
        <time>2022-06-12T09:39:24Z</time>
      </trkpt>
      <trkpt lat="46.36183" lon="5.45645">
        <ele>371.2</ele>
        <time>2022-06-12T09:39:33Z</time>
      </trkpt>
      <trkpt lat="46.36218" lon="5.45644">
        <ele>371.4</ele>
        <time>2022-06-12T09:39:39Z</time>
      </trkpt>
      <trkpt lat="46.3624" lon="5.45645">
        <ele>371.6</ele>
        <time>2022-06-12T09:39:43Z</time>
      </trkpt>
      <trkpt lat="46.36274" lon="5.45647">
        <ele>372</ele>
        <time>2022-06-12T09:39:49Z</time>
      </trkpt>
      <trkpt lat="46.36291" lon="5.45649">
        <ele>372.2</ele>
        <time>2022-06-12T09:39:52Z</time>
      </trkpt>
      <trkpt lat="46.36342" lon="5.45652">
        <ele>373</ele>
        <time>2022-06-12T09:40:01Z</time>
      </trkpt>
      <trkpt lat="46.36359" lon="5.45651">
        <ele>373.2</ele>
        <time>2022-06-12T09:40:04Z</time>
      </trkpt>
      <trkpt lat="46.36371" lon="5.45651">
        <ele>373.2</ele>
        <time>2022-06-12T09:40:06Z</time>
      </trkpt>
      <trkpt lat="46.36384" lon="5.45648">
        <ele>373.4</ele>
        <time>2022-06-12T09:40:08Z</time>
      </trkpt>
      <trkpt lat="46.36422" lon="5.45631">
        <ele>373.4</ele>
        <time>2022-06-12T09:40:14Z</time>
      </trkpt>
      <trkpt lat="46.36442" lon="5.45622">
        <ele>373.2</ele>
        <time>2022-06-12T09:40:17Z</time>
      </trkpt>
      <trkpt lat="46.36469" lon="5.45615">
        <ele>373.2</ele>
        <time>2022-06-12T09:40:21Z</time>
      </trkpt>
      <trkpt lat="46.3651" lon="5.45611">
        <ele>373.4</ele>
        <time>2022-06-12T09:40:27Z</time>
      </trkpt>
      <trkpt lat="46.36556" lon="5.45616">
        <ele>373.8</ele>
        <time>2022-06-12T09:40:34Z</time>
      </trkpt>
      <trkpt lat="46.36575" lon="5.45617">
        <ele>374.4</ele>
        <time>2022-06-12T09:40:37Z</time>
      </trkpt>
      <trkpt lat="46.36601" lon="5.45617">
        <ele>374.4</ele>
        <time>2022-06-12T09:40:41Z</time>
      </trkpt>
      <trkpt lat="46.36645" lon="5.45609">
        <ele>375.2</ele>
        <time>2022-06-12T09:40:48Z</time>
      </trkpt>
      <trkpt lat="46.36662" lon="5.45606">
        <ele>375.4</ele>
        <time>2022-06-12T09:40:51Z</time>
      </trkpt>
      <trkpt lat="46.36667" lon="5.45604">
        <ele>375.6</ele>
        <time>2022-06-12T09:40:52Z</time>
      </trkpt>
      <trkpt lat="46.36683" lon="5.45602">
        <ele>376</ele>
        <time>2022-06-12T09:40:55Z</time>
      </trkpt>
      <trkpt lat="46.36699" lon="5.45599">
        <ele>376.6</ele>
        <time>2022-06-12T09:40:58Z</time>
      </trkpt>
      <trkpt lat="46.36715" lon="5.45596">
        <ele>377.6</ele>
        <time>2022-06-12T09:41:01Z</time>
      </trkpt>
      <trkpt lat="46.36725" lon="5.45594">
        <ele>378.2</ele>
        <time>2022-06-12T09:41:03Z</time>
      </trkpt>
      <trkpt lat="46.36742" lon="5.45593">
        <ele>379</ele>
        <time>2022-06-12T09:41:06Z</time>
      </trkpt>
      <trkpt lat="46.36777" lon="5.45592">
        <ele>379.4</ele>
        <time>2022-06-12T09:41:12Z</time>
      </trkpt>
      <trkpt lat="46.36816" lon="5.45591">
        <ele>379.8</ele>
        <time>2022-06-12T09:41:19Z</time>
      </trkpt>
      <trkpt lat="46.36833" lon="5.45592">
        <ele>380</ele>
        <time>2022-06-12T09:41:22Z</time>
      </trkpt>
      <trkpt lat="46.36861" lon="5.45595">
        <ele>380.2</ele>
        <time>2022-06-12T09:41:27Z</time>
      </trkpt>
      <trkpt lat="46.36903" lon="5.45599">
        <ele>380.6</ele>
        <time>2022-06-12T09:41:34Z</time>
      </trkpt>
      <trkpt lat="46.36921" lon="5.45601">
        <ele>380.6</ele>
        <time>2022-06-12T09:41:37Z</time>
      </trkpt>
      <trkpt lat="46.36968" lon="5.45612">
        <ele>380.8</ele>
        <time>2022-06-12T09:41:45Z</time>
      </trkpt>
      <trkpt lat="46.37006" lon="5.45631">
        <ele>380.8</ele>
        <time>2022-06-12T09:41:52Z</time>
      </trkpt>
      <trkpt lat="46.37016" lon="5.45636">
        <ele>381</ele>
        <time>2022-06-12T09:41:54Z</time>
      </trkpt>
      <trkpt lat="46.37042" lon="5.45644">
        <ele>381.6</ele>
        <time>2022-06-12T09:41:59Z</time>
      </trkpt>
      <trkpt lat="46.37053" lon="5.45646">
        <ele>382</ele>
        <time>2022-06-12T09:42:01Z</time>
      </trkpt>
      <trkpt lat="46.37103" lon="5.45648">
        <ele>382.6</ele>
        <time>2022-06-12T09:42:10Z</time>
      </trkpt>
      <trkpt lat="46.3713" lon="5.45648">
        <ele>383</ele>
        <time>2022-06-12T09:42:15Z</time>
      </trkpt>
      <trkpt lat="46.3715" lon="5.45646">
        <ele>383.4</ele>
        <time>2022-06-12T09:42:19Z</time>
      </trkpt>
      <trkpt lat="46.37171" lon="5.45646">
        <ele>384</ele>
        <time>2022-06-12T09:42:23Z</time>
      </trkpt>
      <trkpt lat="46.37207" lon="5.45643">
        <ele>384.4</ele>
        <time>2022-06-12T09:42:30Z</time>
      </trkpt>
      <trkpt lat="46.37242" lon="5.45641">
        <ele>385.2</ele>
        <time>2022-06-12T09:42:37Z</time>
      </trkpt>
      <trkpt lat="46.37247" lon="5.4564">
        <ele>385.2</ele>
        <time>2022-06-12T09:42:38Z</time>
      </trkpt>
      <trkpt lat="46.3729" lon="5.45636">
        <ele>386.2</ele>
        <time>2022-06-12T09:42:47Z</time>
      </trkpt>
      <trkpt lat="46.37326" lon="5.45635">
        <ele>387.2</ele>
        <time>2022-06-12T09:42:55Z</time>
      </trkpt>
      <trkpt lat="46.3733" lon="5.45635">
        <ele>387.4</ele>
        <time>2022-06-12T09:42:56Z</time>
      </trkpt>
      <trkpt lat="46.37358" lon="5.45636">
        <ele>388.4</ele>
        <time>2022-06-12T09:43:02Z</time>
      </trkpt>
      <trkpt lat="46.37367" lon="5.45636">
        <ele>388.8</ele>
        <time>2022-06-12T09:43:04Z</time>
      </trkpt>
      <trkpt lat="46.37377" lon="5.45637">
        <ele>388.8</ele>
        <time>2022-06-12T09:43:06Z</time>
      </trkpt>
      <trkpt lat="46.37395" lon="5.45639">
        <ele>389.8</ele>
        <time>2022-06-12T09:43:10Z</time>
      </trkpt>
      <trkpt lat="46.37413" lon="5.4564">
        <ele>390</ele>
        <time>2022-06-12T09:43:14Z</time>
      </trkpt>
      <trkpt lat="46.37436" lon="5.45638">
        <ele>390.8</ele>
        <time>2022-06-12T09:43:19Z</time>
      </trkpt>
      <trkpt lat="46.37454" lon="5.45633">
        <ele>391</ele>
        <time>2022-06-12T09:43:23Z</time>
      </trkpt>
      <trkpt lat="46.37464" lon="5.4563">
        <ele>391.2</ele>
        <time>2022-06-12T09:43:25Z</time>
      </trkpt>
      <trkpt lat="46.37481" lon="5.45623">
        <ele>391.6</ele>
        <time>2022-06-12T09:43:29Z</time>
      </trkpt>
      <trkpt lat="46.37485" lon="5.45621">
        <ele>392</ele>
        <time>2022-06-12T09:43:30Z</time>
      </trkpt>
      <trkpt lat="46.37506" lon="5.4561">
        <ele>393</ele>
        <time>2022-06-12T09:43:35Z</time>
      </trkpt>
      <trkpt lat="46.37513" lon="5.45605">
        <ele>393.4</ele>
        <time>2022-06-12T09:43:37Z</time>
      </trkpt>
      <trkpt lat="46.37533" lon="5.45595">
        <ele>394.6</ele>
        <time>2022-06-12T09:43:42Z</time>
      </trkpt>
      <trkpt lat="46.37545" lon="5.4559">
        <ele>395.4</ele>
        <time>2022-06-12T09:43:45Z</time>
      </trkpt>
      <trkpt lat="46.37552" lon="5.45588">
        <ele>395.8</ele>
        <time>2022-06-12T09:43:47Z</time>
      </trkpt>
      <trkpt lat="46.37572" lon="5.45587">
        <ele>396.8</ele>
        <time>2022-06-12T09:43:52Z</time>
      </trkpt>
      <trkpt lat="46.37575" lon="5.45586">
        <ele>396.8</ele>
        <time>2022-06-12T09:43:53Z</time>
      </trkpt>
      <trkpt lat="46.37587" lon="5.45585">
        <ele>398</ele>
        <time>2022-06-12T09:43:56Z</time>
      </trkpt>
      <trkpt lat="46.37592" lon="5.45585">
        <ele>398</ele>
        <time>2022-06-12T09:43:57Z</time>
      </trkpt>
      <trkpt lat="46.37614" lon="5.45586">
        <ele>399</ele>
        <time>2022-06-12T09:44:02Z</time>
      </trkpt>
      <trkpt lat="46.37627" lon="5.45586">
        <ele>399.2</ele>
        <time>2022-06-12T09:44:05Z</time>
      </trkpt>
      <trkpt lat="46.3765" lon="5.45588">
        <ele>400</ele>
        <time>2022-06-12T09:44:10Z</time>
      </trkpt>
      <trkpt lat="46.37664" lon="5.45588">
        <ele>400.4</ele>
        <time>2022-06-12T09:44:13Z</time>
      </trkpt>
      <trkpt lat="46.37691" lon="5.45588">
        <ele>401</ele>
        <time>2022-06-12T09:44:19Z</time>
      </trkpt>
      <trkpt lat="46.37703" lon="5.45588">
        <ele>401.2</ele>
        <time>2022-06-12T09:44:22Z</time>
      </trkpt>
      <trkpt lat="46.37737" lon="5.45589">
        <ele>402</ele>
        <time>2022-06-12T09:44:30Z</time>
      </trkpt>
      <trkpt lat="46.37744" lon="5.4559">
        <ele>402.6</ele>
        <time>2022-06-12T09:44:32Z</time>
      </trkpt>
      <trkpt lat="46.37752" lon="5.4559">
        <ele>403.2</ele>
        <time>2022-06-12T09:44:34Z</time>
      </trkpt>
      <trkpt lat="46.37775" lon="5.45592">
        <ele>404.2</ele>
        <time>2022-06-12T09:44:40Z</time>
      </trkpt>
      <trkpt lat="46.37783" lon="5.45593">
        <ele>404.6</ele>
        <time>2022-06-12T09:44:42Z</time>
      </trkpt>
      <trkpt lat="46.37787" lon="5.45593">
        <ele>404.8</ele>
        <time>2022-06-12T09:44:43Z</time>
      </trkpt>
      <trkpt lat="46.37807" lon="5.45595">
        <ele>405.4</ele>
        <time>2022-06-12T09:44:48Z</time>
      </trkpt>
      <trkpt lat="46.37825" lon="5.45596">
        <ele>406.4</ele>
        <time>2022-06-12T09:44:53Z</time>
      </trkpt>
      <trkpt lat="46.37833" lon="5.45596">
        <ele>407.4</ele>
        <time>2022-06-12T09:44:55Z</time>
      </trkpt>
      <trkpt lat="46.37864" lon="5.45598">
        <ele>408</ele>
        <time>2022-06-12T09:45:03Z</time>
      </trkpt>
      <trkpt lat="46.37872" lon="5.45598">
        <ele>408.4</ele>
        <time>2022-06-12T09:45:05Z</time>
      </trkpt>
      <trkpt lat="46.37887" lon="5.45597">
        <ele>409.6</ele>
        <time>2022-06-12T09:45:09Z</time>
      </trkpt>
      <trkpt lat="46.37899" lon="5.45595">
        <ele>410</ele>
        <time>2022-06-12T09:45:12Z</time>
      </trkpt>
      <trkpt lat="46.37916" lon="5.45591">
        <ele>410.8</ele>
        <time>2022-06-12T09:45:16Z</time>
      </trkpt>
      <trkpt lat="46.37939" lon="5.45585">
        <ele>411.4</ele>
        <time>2022-06-12T09:45:21Z</time>
      </trkpt>
      <trkpt lat="46.37967" lon="5.45582">
        <ele>411.6</ele>
        <time>2022-06-12T09:45:26Z</time>
      </trkpt>
      <trkpt lat="46.37992" lon="5.45584">
        <ele>411.8</ele>
        <time>2022-06-12T09:45:30Z</time>
      </trkpt>
      <trkpt lat="46.38006" lon="5.45585">
        <ele>411.8</ele>
        <time>2022-06-12T09:45:32Z</time>
      </trkpt>
      <trkpt lat="46.38047" lon="5.45594">
        <ele>410.8</ele>
        <time>2022-06-12T09:45:38Z</time>
      </trkpt>
      <trkpt lat="46.3806" lon="5.45598">
        <ele>410.8</ele>
        <time>2022-06-12T09:45:40Z</time>
      </trkpt>
      <trkpt lat="46.38114" lon="5.45612">
        <ele>411</ele>
        <time>2022-06-12T09:45:48Z</time>
      </trkpt>
      <trkpt lat="46.38121" lon="5.45614">
        <ele>411</ele>
        <time>2022-06-12T09:45:49Z</time>
      </trkpt>
      <trkpt lat="46.38172" lon="5.45619">
        <ele>410.2</ele>
        <time>2022-06-12T09:45:55Z</time>
      </trkpt>
      <trkpt lat="46.382" lon="5.45621">
        <ele>409.2</ele>
        <time>2022-06-12T09:45:58Z</time>
      </trkpt>
      <trkpt lat="46.38226" lon="5.45623">
        <ele>408.2</ele>
        <time>2022-06-12T09:46:01Z</time>
      </trkpt>
      <trkpt lat="46.38253" lon="5.45625">
        <ele>407</ele>
        <time>2022-06-12T09:46:04Z</time>
      </trkpt>
      <trkpt lat="46.38262" lon="5.45625">
        <ele>406.6</ele>
        <time>2022-06-12T09:46:05Z</time>
      </trkpt>
      <trkpt lat="46.38307" lon="5.45631">
        <ele>406</ele>
        <time>2022-06-12T09:46:10Z</time>
      </trkpt>
      <trkpt lat="46.38326" lon="5.45634">
        <ele>405.8</ele>
        <time>2022-06-12T09:46:12Z</time>
      </trkpt>
      <trkpt lat="46.38352" lon="5.45638">
        <ele>404.8</ele>
        <time>2022-06-12T09:46:15Z</time>
      </trkpt>
      <trkpt lat="46.38388" lon="5.45646">
        <ele>403.6</ele>
        <time>2022-06-12T09:46:19Z</time>
      </trkpt>
      <trkpt lat="46.38396" lon="5.45648">
        <ele>403.6</ele>
        <time>2022-06-12T09:46:20Z</time>
      </trkpt>
      <trkpt lat="46.38448" lon="5.45658">
        <ele>402.4</ele>
        <time>2022-06-12T09:46:26Z</time>
      </trkpt>
      <trkpt lat="46.38457" lon="5.45658">
        <ele>402.2</ele>
        <time>2022-06-12T09:46:27Z</time>
      </trkpt>
      <trkpt lat="46.38486" lon="5.4566">
        <ele>400.8</ele>
        <time>2022-06-12T09:46:30Z</time>
      </trkpt>
      <trkpt lat="46.38526" lon="5.45659">
        <ele>399.8</ele>
        <time>2022-06-12T09:46:34Z</time>
      </trkpt>
      <trkpt lat="46.38558" lon="5.45653">
        <ele>398.4</ele>
        <time>2022-06-12T09:46:37Z</time>
      </trkpt>
      <trkpt lat="46.38579" lon="5.45649">
        <ele>397.2</ele>
        <time>2022-06-12T09:46:39Z</time>
      </trkpt>
      <trkpt lat="46.38611" lon="5.45645">
        <ele>395.6</ele>
        <time>2022-06-12T09:46:42Z</time>
      </trkpt>
      <trkpt lat="46.38648" lon="5.45637">
        <ele>394.6</ele>
        <time>2022-06-12T09:46:46Z</time>
      </trkpt>
      <trkpt lat="46.38675" lon="5.45634">
        <ele>394.6</ele>
        <time>2022-06-12T09:46:49Z</time>
      </trkpt>
      <trkpt lat="46.38693" lon="5.45637">
        <ele>394.4</ele>
        <time>2022-06-12T09:46:51Z</time>
      </trkpt>
      <trkpt lat="46.38745" lon="5.4564">
        <ele>394.6</ele>
        <time>2022-06-12T09:46:57Z</time>
      </trkpt>
      <trkpt lat="46.38795" lon="5.45647">
        <ele>394</ele>
        <time>2022-06-12T09:47:03Z</time>
      </trkpt>
      <trkpt lat="46.38838" lon="5.45651">
        <ele>394</ele>
        <time>2022-06-12T09:47:09Z</time>
      </trkpt>
      <trkpt lat="46.38887" lon="5.45648">
        <ele>394.2</ele>
        <time>2022-06-12T09:47:16Z</time>
      </trkpt>
      <trkpt lat="46.38923" lon="5.4565">
        <ele>395.4</ele>
        <time>2022-06-12T09:47:21Z</time>
      </trkpt>
      <trkpt lat="46.38977" lon="5.45657">
        <ele>395.6</ele>
        <time>2022-06-12T09:47:28Z</time>
      </trkpt>
      <trkpt lat="46.38985" lon="5.45657">
        <ele>395.4</ele>
        <time>2022-06-12T09:47:29Z</time>
      </trkpt>
      <trkpt lat="46.39044" lon="5.45649">
        <ele>394</ele>
        <time>2022-06-12T09:47:36Z</time>
      </trkpt>
      <trkpt lat="46.39069" lon="5.45643">
        <ele>393.6</ele>
        <time>2022-06-12T09:47:39Z</time>
      </trkpt>
      <trkpt lat="46.39109" lon="5.45633">
        <ele>392.8</ele>
        <time>2022-06-12T09:47:44Z</time>
      </trkpt>
      <trkpt lat="46.39117" lon="5.4563">
        <ele>392.6</ele>
        <time>2022-06-12T09:47:45Z</time>
      </trkpt>
      <trkpt lat="46.39166" lon="5.45612">
        <ele>392</ele>
        <time>2022-06-12T09:47:51Z</time>
      </trkpt>
      <trkpt lat="46.39191" lon="5.45605">
        <ele>391.2</ele>
        <time>2022-06-12T09:47:54Z</time>
      </trkpt>
      <trkpt lat="46.39229" lon="5.45595">
        <ele>390.6</ele>
        <time>2022-06-12T09:47:59Z</time>
      </trkpt>
      <trkpt lat="46.39271" lon="5.45573">
        <ele>390.4</ele>
        <time>2022-06-12T09:48:05Z</time>
      </trkpt>
      <trkpt lat="46.39306" lon="5.45561">
        <ele>390.2</ele>
        <time>2022-06-12T09:48:10Z</time>
      </trkpt>
      <trkpt lat="46.39328" lon="5.45544">
        <ele>390.2</ele>
        <time>2022-06-12T09:48:14Z</time>
      </trkpt>
      <trkpt lat="46.39337" lon="5.45532">
        <ele>390</ele>
        <time>2022-06-12T09:48:16Z</time>
      </trkpt>
      <trkpt lat="46.39345" lon="5.45516">
        <ele>390.2</ele>
        <time>2022-06-12T09:48:18Z</time>
      </trkpt>
      <trkpt lat="46.39361" lon="5.45482">
        <ele>391</ele>
        <time>2022-06-12T09:48:23Z</time>
      </trkpt>
      <trkpt lat="46.39364" lon="5.45477">
        <ele>391.2</ele>
        <time>2022-06-12T09:48:24Z</time>
      </trkpt>
      <trkpt lat="46.39368" lon="5.45473">
        <ele>391.4</ele>
        <time>2022-06-12T09:48:25Z</time>
      </trkpt>
      <trkpt lat="46.39375" lon="5.45464">
        <ele>392</ele>
        <time>2022-06-12T09:48:27Z</time>
      </trkpt>
      <trkpt lat="46.39378" lon="5.45459">
        <ele>392</ele>
        <time>2022-06-12T09:48:28Z</time>
      </trkpt>
      <trkpt lat="46.39381" lon="5.45455">
        <ele>392.4</ele>
        <time>2022-06-12T09:48:29Z</time>
      </trkpt>
      <trkpt lat="46.39385" lon="5.45451">
        <ele>392.8</ele>
        <time>2022-06-12T09:48:30Z</time>
      </trkpt>
      <trkpt lat="46.39388" lon="5.45446">
        <ele>393</ele>
        <time>2022-06-12T09:48:31Z</time>
      </trkpt>
      <trkpt lat="46.3939" lon="5.45441">
        <ele>393.4</ele>
        <time>2022-06-12T09:48:32Z</time>
      </trkpt>
      <trkpt lat="46.39393" lon="5.45426">
        <ele>394</ele>
        <time>2022-06-12T09:48:35Z</time>
      </trkpt>
      <trkpt lat="46.39395" lon="5.45422">
        <ele>394.4</ele>
        <time>2022-06-12T09:48:36Z</time>
      </trkpt>
      <trkpt lat="46.39401" lon="5.45408">
        <ele>395.2</ele>
        <time>2022-06-12T09:48:40Z</time>
      </trkpt>
      <trkpt lat="46.39402" lon="5.45405">
        <ele>395.6</ele>
        <time>2022-06-12T09:48:41Z</time>
      </trkpt>
      <trkpt lat="46.39402" lon="5.45403">
        <ele>395.6</ele>
        <time>2022-06-12T09:48:42Z</time>
      </trkpt>
      <trkpt lat="46.39402" lon="5.45401">
        <ele>396.2</ele>
        <time>2022-06-12T09:48:45Z</time>
      </trkpt>
      <trkpt lat="46.39401" lon="5.45404">
        <ele>394.6</ele>
        <time>2022-06-12T09:49:35Z</time>
      </trkpt>
      <trkpt lat="46.39399" lon="5.45408">
        <ele>394.6</ele>
        <time>2022-06-12T09:49:37Z</time>
      </trkpt>
      <trkpt lat="46.39391" lon="5.45402">
        <ele>394.6</ele>
        <time>2022-06-12T09:49:40Z</time>
      </trkpt>
      <trkpt lat="46.39386" lon="5.45377">
        <ele>394.8</ele>
        <time>2022-06-12T09:49:45Z</time>
      </trkpt>
      <trkpt lat="46.39376" lon="5.45365">
        <ele>395</ele>
        <time>2022-06-12T09:49:48Z</time>
      </trkpt>
      <trkpt lat="46.39372" lon="5.45362">
        <ele>395</ele>
        <time>2022-06-12T09:49:49Z</time>
      </trkpt>
      <trkpt lat="46.39362" lon="5.45355">
        <ele>395.2</ele>
        <time>2022-06-12T09:49:51Z</time>
      </trkpt>
      <trkpt lat="46.39351" lon="5.45346">
        <ele>395.2</ele>
        <time>2022-06-12T09:49:53Z</time>
      </trkpt>
      <trkpt lat="46.39321" lon="5.4532">
        <ele>395</ele>
        <time>2022-06-12T09:49:58Z</time>
      </trkpt>
      <trkpt lat="46.39313" lon="5.4531">
        <ele>394.8</ele>
        <time>2022-06-12T09:50:00Z</time>
      </trkpt>
      <trkpt lat="46.39313" lon="5.45304">
        <ele>394.4</ele>
        <time>2022-06-12T09:50:01Z</time>
      </trkpt>
      <trkpt lat="46.39316" lon="5.453">
        <ele>394.2</ele>
        <time>2022-06-12T09:50:02Z</time>
      </trkpt>
      <trkpt lat="46.39319" lon="5.45298">
        <ele>393.8</ele>
        <time>2022-06-12T09:50:03Z</time>
      </trkpt>
      <trkpt lat="46.39323" lon="5.45294">
        <ele>393.4</ele>
        <time>2022-06-12T09:50:04Z</time>
      </trkpt>
      <trkpt lat="46.39329" lon="5.45291">
        <ele>392.4</ele>
        <time>2022-06-12T09:50:05Z</time>
      </trkpt>
      <trkpt lat="46.39336" lon="5.45289">
        <ele>391.6</ele>
        <time>2022-06-12T09:50:06Z</time>
      </trkpt>
      <trkpt lat="46.39343" lon="5.45286">
        <ele>391.4</ele>
        <time>2022-06-12T09:50:07Z</time>
      </trkpt>
      <trkpt lat="46.39366" lon="5.45276">
        <ele>389.8</ele>
        <time>2022-06-12T09:50:10Z</time>
      </trkpt>
      <trkpt lat="46.39389" lon="5.45264">
        <ele>388.6</ele>
        <time>2022-06-12T09:50:13Z</time>
      </trkpt>
      <trkpt lat="46.39407" lon="5.45255">
        <ele>387.6</ele>
        <time>2022-06-12T09:50:15Z</time>
      </trkpt>
      <trkpt lat="46.39416" lon="5.45251">
        <ele>387.4</ele>
        <time>2022-06-12T09:50:16Z</time>
      </trkpt>
      <trkpt lat="46.39445" lon="5.45239">
        <ele>386</ele>
        <time>2022-06-12T09:50:19Z</time>
      </trkpt>
      <trkpt lat="46.39465" lon="5.4523">
        <ele>384.6</ele>
        <time>2022-06-12T09:50:21Z</time>
      </trkpt>
      <trkpt lat="46.39475" lon="5.45225">
        <ele>384</ele>
        <time>2022-06-12T09:50:22Z</time>
      </trkpt>
      <trkpt lat="46.39484" lon="5.4522">
        <ele>383.6</ele>
        <time>2022-06-12T09:50:23Z</time>
      </trkpt>
      <trkpt lat="46.39506" lon="5.45209">
        <ele>382.4</ele>
        <time>2022-06-12T09:50:25Z</time>
      </trkpt>
      <trkpt lat="46.39526" lon="5.45201">
        <ele>381.2</ele>
        <time>2022-06-12T09:50:27Z</time>
      </trkpt>
      <trkpt lat="46.39534" lon="5.45198">
        <ele>381</ele>
        <time>2022-06-12T09:50:28Z</time>
      </trkpt>
      <trkpt lat="46.39547" lon="5.45195">
        <ele>380.2</ele>
        <time>2022-06-12T09:50:29Z</time>
      </trkpt>
      <trkpt lat="46.39575" lon="5.45193">
        <ele>379.2</ele>
        <time>2022-06-12T09:50:32Z</time>
      </trkpt>
      <trkpt lat="46.39595" lon="5.45198">
        <ele>377.8</ele>
        <time>2022-06-12T09:50:34Z</time>
      </trkpt>
      <trkpt lat="46.39615" lon="5.45206">
        <ele>376.8</ele>
        <time>2022-06-12T09:50:36Z</time>
      </trkpt>
      <trkpt lat="46.39642" lon="5.45219">
        <ele>375.6</ele>
        <time>2022-06-12T09:50:39Z</time>
      </trkpt>
      <trkpt lat="46.3966" lon="5.45228">
        <ele>374.4</ele>
        <time>2022-06-12T09:50:41Z</time>
      </trkpt>
      <trkpt lat="46.39688" lon="5.45243">
        <ele>373.6</ele>
        <time>2022-06-12T09:50:44Z</time>
      </trkpt>
      <trkpt lat="46.39707" lon="5.45252">
        <ele>373.2</ele>
        <time>2022-06-12T09:50:46Z</time>
      </trkpt>
      <trkpt lat="46.39746" lon="5.45272">
        <ele>372.2</ele>
        <time>2022-06-12T09:50:50Z</time>
      </trkpt>
      <trkpt lat="46.39777" lon="5.45287">
        <ele>370.8</ele>
        <time>2022-06-12T09:50:53Z</time>
      </trkpt>
      <trkpt lat="46.39801" lon="5.45295">
        <ele>369.6</ele>
        <time>2022-06-12T09:50:55Z</time>
      </trkpt>
      <trkpt lat="46.39831" lon="5.45297">
        <ele>368.4</ele>
        <time>2022-06-12T09:50:58Z</time>
      </trkpt>
      <trkpt lat="46.39842" lon="5.45296">
        <ele>368</ele>
        <time>2022-06-12T09:50:59Z</time>
      </trkpt>
      <trkpt lat="46.39864" lon="5.45293">
        <ele>367</ele>
        <time>2022-06-12T09:51:01Z</time>
      </trkpt>
      <trkpt lat="46.39896" lon="5.45289">
        <ele>365.8</ele>
        <time>2022-06-12T09:51:04Z</time>
      </trkpt>
      <trkpt lat="46.39926" lon="5.45285">
        <ele>364.6</ele>
        <time>2022-06-12T09:51:07Z</time>
      </trkpt>
      <trkpt lat="46.39962" lon="5.45279">
        <ele>364</ele>
        <time>2022-06-12T09:51:11Z</time>
      </trkpt>
      <trkpt lat="46.39971" lon="5.45278">
        <ele>364</ele>
        <time>2022-06-12T09:51:12Z</time>
      </trkpt>
      <trkpt lat="46.40014" lon="5.45275">
        <ele>363.6</ele>
        <time>2022-06-12T09:51:17Z</time>
      </trkpt>
      <trkpt lat="46.4003" lon="5.45274">
        <ele>363.6</ele>
        <time>2022-06-12T09:51:19Z</time>
      </trkpt>
      <trkpt lat="46.40078" lon="5.45267">
        <ele>362.8</ele>
        <time>2022-06-12T09:51:25Z</time>
      </trkpt>
      <trkpt lat="46.4013" lon="5.45258">
        <ele>362.6</ele>
        <time>2022-06-12T09:51:32Z</time>
      </trkpt>
      <trkpt lat="46.40144" lon="5.45251">
        <ele>363</ele>
        <time>2022-06-12T09:51:34Z</time>
      </trkpt>
      <trkpt lat="46.40157" lon="5.45243">
        <ele>363</ele>
        <time>2022-06-12T09:51:36Z</time>
      </trkpt>
      <trkpt lat="46.40172" lon="5.45238">
        <ele>363</ele>
        <time>2022-06-12T09:51:38Z</time>
      </trkpt>
      <trkpt lat="46.40187" lon="5.45236">
        <ele>363</ele>
        <time>2022-06-12T09:51:40Z</time>
      </trkpt>
      <trkpt lat="46.40216" lon="5.45232">
        <ele>362.8</ele>
        <time>2022-06-12T09:51:44Z</time>
      </trkpt>
      <trkpt lat="46.40229" lon="5.45225">
        <ele>363</ele>
        <time>2022-06-12T09:51:46Z</time>
      </trkpt>
      <trkpt lat="46.40266" lon="5.45205">
        <ele>363</ele>
        <time>2022-06-12T09:51:52Z</time>
      </trkpt>
      <trkpt lat="46.40316" lon="5.45179">
        <ele>363.4</ele>
        <time>2022-06-12T09:52:00Z</time>
      </trkpt>
      <trkpt lat="46.40368" lon="5.45153">
        <ele>363.4</ele>
        <time>2022-06-12T09:52:08Z</time>
      </trkpt>
      <trkpt lat="46.40422" lon="5.45123">
        <ele>363.8</ele>
        <time>2022-06-12T09:52:17Z</time>
      </trkpt>
      <trkpt lat="46.40428" lon="5.4512">
        <ele>364</ele>
        <time>2022-06-12T09:52:18Z</time>
      </trkpt>
      <trkpt lat="46.40462" lon="5.45103">
        <ele>365</ele>
        <time>2022-06-12T09:52:24Z</time>
      </trkpt>
      <trkpt lat="46.40468" lon="5.451">
        <ele>365</ele>
        <time>2022-06-12T09:52:25Z</time>
      </trkpt>
      <trkpt lat="46.40523" lon="5.45071">
        <ele>365.6</ele>
        <time>2022-06-12T09:52:34Z</time>
      </trkpt>
      <trkpt lat="46.40536" lon="5.45064">
        <ele>365.6</ele>
        <time>2022-06-12T09:52:36Z</time>
      </trkpt>
      <trkpt lat="46.40589" lon="5.45035">
        <ele>365.8</ele>
        <time>2022-06-12T09:52:44Z</time>
      </trkpt>
      <trkpt lat="46.4061" lon="5.45024">
        <ele>366</ele>
        <time>2022-06-12T09:52:47Z</time>
      </trkpt>
      <trkpt lat="46.40668" lon="5.44999">
        <ele>366</ele>
        <time>2022-06-12T09:52:55Z</time>
      </trkpt>
      <trkpt lat="46.40705" lon="5.44996">
        <ele>366</ele>
        <time>2022-06-12T09:53:00Z</time>
      </trkpt>
      <trkpt lat="46.40719" lon="5.44998">
        <ele>366.2</ele>
        <time>2022-06-12T09:53:02Z</time>
      </trkpt>
      <trkpt lat="46.40754" lon="5.4501">
        <ele>366.6</ele>
        <time>2022-06-12T09:53:07Z</time>
      </trkpt>
      <trkpt lat="46.40808" lon="5.45031">
        <ele>366.8</ele>
        <time>2022-06-12T09:53:15Z</time>
      </trkpt>
      <trkpt lat="46.40851" lon="5.45056">
        <ele>367.4</ele>
        <time>2022-06-12T09:53:22Z</time>
      </trkpt>
      <trkpt lat="46.40856" lon="5.4506">
        <ele>367.6</ele>
        <time>2022-06-12T09:53:23Z</time>
      </trkpt>
      <trkpt lat="46.40887" lon="5.45086">
        <ele>368.6</ele>
        <time>2022-06-12T09:53:29Z</time>
      </trkpt>
      <trkpt lat="46.40892" lon="5.4509">
        <ele>368.6</ele>
        <time>2022-06-12T09:53:30Z</time>
      </trkpt>
      <trkpt lat="46.40922" lon="5.45115">
        <ele>370</ele>
        <time>2022-06-12T09:53:36Z</time>
      </trkpt>
      <trkpt lat="46.40949" lon="5.45137">
        <ele>371.2</ele>
        <time>2022-06-12T09:53:41Z</time>
      </trkpt>
      <trkpt lat="46.40972" lon="5.45152">
        <ele>371.8</ele>
        <time>2022-06-12T09:53:45Z</time>
      </trkpt>
      <trkpt lat="46.41027" lon="5.45178">
        <ele>372.2</ele>
        <time>2022-06-12T09:53:54Z</time>
      </trkpt>
      <trkpt lat="46.41033" lon="5.4518">
        <ele>372.4</ele>
        <time>2022-06-12T09:53:55Z</time>
      </trkpt>
      <trkpt lat="46.4108" lon="5.45193">
        <ele>373.4</ele>
        <time>2022-06-12T09:54:03Z</time>
      </trkpt>
      <trkpt lat="46.41086" lon="5.45195">
        <ele>373.6</ele>
        <time>2022-06-12T09:54:04Z</time>
      </trkpt>
      <trkpt lat="46.41134" lon="5.45205">
        <ele>374.6</ele>
        <time>2022-06-12T09:54:12Z</time>
      </trkpt>
      <trkpt lat="46.41141" lon="5.45206">
        <ele>374.8</ele>
        <time>2022-06-12T09:54:13Z</time>
      </trkpt>
      <trkpt lat="46.41197" lon="5.45216">
        <ele>375.2</ele>
        <time>2022-06-12T09:54:22Z</time>
      </trkpt>
      <trkpt lat="46.41203" lon="5.45218">
        <ele>375.2</ele>
        <time>2022-06-12T09:54:23Z</time>
      </trkpt>
      <trkpt lat="46.41246" lon="5.45226">
        <ele>375.8</ele>
        <time>2022-06-12T09:54:30Z</time>
      </trkpt>
      <trkpt lat="46.41266" lon="5.4523">
        <ele>376</ele>
        <time>2022-06-12T09:54:33Z</time>
      </trkpt>
      <trkpt lat="46.41322" lon="5.45243">
        <ele>376.4</ele>
        <time>2022-06-12T09:54:41Z</time>
      </trkpt>
      <trkpt lat="46.41379" lon="5.45256">
        <ele>376.4</ele>
        <time>2022-06-12T09:54:49Z</time>
      </trkpt>
      <trkpt lat="46.41386" lon="5.45258">
        <ele>376.4</ele>
        <time>2022-06-12T09:54:50Z</time>
      </trkpt>
      <trkpt lat="46.41445" lon="5.45273">
        <ele>376.4</ele>
        <time>2022-06-12T09:54:58Z</time>
      </trkpt>
      <trkpt lat="46.41474" lon="5.4528">
        <ele>376.4</ele>
        <time>2022-06-12T09:55:02Z</time>
      </trkpt>
      <trkpt lat="46.41532" lon="5.45294">
        <ele>376.6</ele>
        <time>2022-06-12T09:55:10Z</time>
      </trkpt>
      <trkpt lat="46.41554" lon="5.45299">
        <ele>376.6</ele>
        <time>2022-06-12T09:55:13Z</time>
      </trkpt>
      <trkpt lat="46.41611" lon="5.45313">
        <ele>377.2</ele>
        <time>2022-06-12T09:55:22Z</time>
      </trkpt>
      <trkpt lat="46.41618" lon="5.45314">
        <ele>377.2</ele>
        <time>2022-06-12T09:55:23Z</time>
      </trkpt>
      <trkpt lat="46.41631" lon="5.45318">
        <ele>377.4</ele>
        <time>2022-06-12T09:55:25Z</time>
      </trkpt>
      <trkpt lat="46.4167" lon="5.45327">
        <ele>378.2</ele>
        <time>2022-06-12T09:55:31Z</time>
      </trkpt>
      <trkpt lat="46.41695" lon="5.45333">
        <ele>379</ele>
        <time>2022-06-12T09:55:35Z</time>
      </trkpt>
      <trkpt lat="46.41726" lon="5.4534">
        <ele>379.4</ele>
        <time>2022-06-12T09:55:40Z</time>
      </trkpt>
      <trkpt lat="46.41762" lon="5.45349">
        <ele>380.6</ele>
        <time>2022-06-12T09:55:46Z</time>
      </trkpt>
      <trkpt lat="46.4182" lon="5.45362">
        <ele>381.2</ele>
        <time>2022-06-12T09:55:55Z</time>
      </trkpt>
      <trkpt lat="46.41827" lon="5.45363">
        <ele>381.2</ele>
        <time>2022-06-12T09:55:56Z</time>
      </trkpt>
      <trkpt lat="46.41866" lon="5.45373">
        <ele>381.2</ele>
        <time>2022-06-12T09:56:02Z</time>
      </trkpt>
      <trkpt lat="46.41886" lon="5.45377">
        <ele>381.2</ele>
        <time>2022-06-12T09:56:05Z</time>
      </trkpt>
      <trkpt lat="46.41944" lon="5.45394">
        <ele>381.4</ele>
        <time>2022-06-12T09:56:14Z</time>
      </trkpt>
      <trkpt lat="46.4195" lon="5.45396">
        <ele>381.4</ele>
        <time>2022-06-12T09:56:15Z</time>
      </trkpt>
      <trkpt lat="46.41986" lon="5.4541">
        <ele>381.6</ele>
        <time>2022-06-12T09:56:21Z</time>
      </trkpt>
      <trkpt lat="46.42004" lon="5.45417">
        <ele>382.2</ele>
        <time>2022-06-12T09:56:24Z</time>
      </trkpt>
      <trkpt lat="46.42015" lon="5.45423">
        <ele>382.6</ele>
        <time>2022-06-12T09:56:26Z</time>
      </trkpt>
      <trkpt lat="46.42053" lon="5.45439">
        <ele>383.8</ele>
        <time>2022-06-12T09:56:32Z</time>
      </trkpt>
      <trkpt lat="46.42108" lon="5.45462">
        <ele>384</ele>
        <time>2022-06-12T09:56:40Z</time>
      </trkpt>
      <trkpt lat="46.42166" lon="5.45484">
        <ele>383.6</ele>
        <time>2022-06-12T09:56:48Z</time>
      </trkpt>
      <trkpt lat="46.42181" lon="5.45489">
        <ele>383.4</ele>
        <time>2022-06-12T09:56:50Z</time>
      </trkpt>
      <trkpt lat="46.42238" lon="5.45509">
        <ele>383</ele>
        <time>2022-06-12T09:56:58Z</time>
      </trkpt>
      <trkpt lat="46.42252" lon="5.45514">
        <ele>383</ele>
        <time>2022-06-12T09:57:00Z</time>
      </trkpt>
      <trkpt lat="46.42306" lon="5.45531">
        <ele>383.2</ele>
        <time>2022-06-12T09:57:08Z</time>
      </trkpt>
      <trkpt lat="46.42313" lon="5.45533">
        <ele>383.2</ele>
        <time>2022-06-12T09:57:09Z</time>
      </trkpt>
      <trkpt lat="46.42372" lon="5.45551">
        <ele>383</ele>
        <time>2022-06-12T09:57:17Z</time>
      </trkpt>
      <trkpt lat="46.42388" lon="5.45556">
        <ele>382.8</ele>
        <time>2022-06-12T09:57:19Z</time>
      </trkpt>
      <trkpt lat="46.42446" lon="5.45575">
        <ele>381.8</ele>
        <time>2022-06-12T09:57:26Z</time>
      </trkpt>
      <trkpt lat="46.42455" lon="5.45577">
        <ele>381.6</ele>
        <time>2022-06-12T09:57:27Z</time>
      </trkpt>
      <trkpt lat="46.42489" lon="5.45588">
        <ele>380.6</ele>
        <time>2022-06-12T09:57:31Z</time>
      </trkpt>
      <trkpt lat="46.42531" lon="5.45601">
        <ele>379.6</ele>
        <time>2022-06-12T09:57:36Z</time>
      </trkpt>
      <trkpt lat="46.42539" lon="5.45604">
        <ele>379.4</ele>
        <time>2022-06-12T09:57:37Z</time>
      </trkpt>
      <trkpt lat="46.42592" lon="5.45621">
        <ele>378.8</ele>
        <time>2022-06-12T09:57:44Z</time>
      </trkpt>
      <trkpt lat="46.426" lon="5.45624">
        <ele>378.6</ele>
        <time>2022-06-12T09:57:45Z</time>
      </trkpt>
      <trkpt lat="46.42656" lon="5.45641">
        <ele>378.8</ele>
        <time>2022-06-12T09:57:53Z</time>
      </trkpt>
      <trkpt lat="46.42669" lon="5.45646">
        <ele>379</ele>
        <time>2022-06-12T09:57:55Z</time>
      </trkpt>
      <trkpt lat="46.4272" lon="5.45662">
        <ele>379.8</ele>
        <time>2022-06-12T09:58:03Z</time>
      </trkpt>
      <trkpt lat="46.42779" lon="5.45676">
        <ele>380.4</ele>
        <time>2022-06-12T09:58:12Z</time>
      </trkpt>
      <trkpt lat="46.42838" lon="5.45681">
        <ele>380</ele>
        <time>2022-06-12T09:58:20Z</time>
      </trkpt>
      <trkpt lat="46.42892" lon="5.45681">
        <ele>379.4</ele>
        <time>2022-06-12T09:58:27Z</time>
      </trkpt>
      <trkpt lat="46.42909" lon="5.45682">
        <ele>379.2</ele>
        <time>2022-06-12T09:58:29Z</time>
      </trkpt>
      <trkpt lat="46.42934" lon="5.45682">
        <ele>378.4</ele>
        <time>2022-06-12T09:58:32Z</time>
      </trkpt>
      <trkpt lat="46.42985" lon="5.45684">
        <ele>377.4</ele>
        <time>2022-06-12T09:58:38Z</time>
      </trkpt>
      <trkpt lat="46.43043" lon="5.45685">
        <ele>376.4</ele>
        <time>2022-06-12T09:58:45Z</time>
      </trkpt>
      <trkpt lat="46.4306" lon="5.45685">
        <ele>376</ele>
        <time>2022-06-12T09:58:47Z</time>
      </trkpt>
      <trkpt lat="46.43085" lon="5.45686">
        <ele>375.2</ele>
        <time>2022-06-12T09:58:50Z</time>
      </trkpt>
      <trkpt lat="46.43129" lon="5.45686">
        <ele>374.4</ele>
        <time>2022-06-12T09:58:55Z</time>
      </trkpt>
      <trkpt lat="46.43156" lon="5.45687">
        <ele>373.8</ele>
        <time>2022-06-12T09:58:58Z</time>
      </trkpt>
      <trkpt lat="46.43182" lon="5.45687">
        <ele>373.2</ele>
        <time>2022-06-12T09:59:01Z</time>
      </trkpt>
      <trkpt lat="46.43225" lon="5.45688">
        <ele>372</ele>
        <time>2022-06-12T09:59:06Z</time>
      </trkpt>
      <trkpt lat="46.4325" lon="5.45689">
        <ele>371.8</ele>
        <time>2022-06-12T09:59:09Z</time>
      </trkpt>
      <trkpt lat="46.43307" lon="5.4569">
        <ele>371.2</ele>
        <time>2022-06-12T09:59:16Z</time>
      </trkpt>
      <trkpt lat="46.43331" lon="5.45691">
        <ele>371.2</ele>
        <time>2022-06-12T09:59:19Z</time>
      </trkpt>
      <trkpt lat="46.43385" lon="5.45692">
        <ele>371.2</ele>
        <time>2022-06-12T09:59:26Z</time>
      </trkpt>
      <trkpt lat="46.434" lon="5.45692">
        <ele>371.4</ele>
        <time>2022-06-12T09:59:28Z</time>
      </trkpt>
      <trkpt lat="46.43461" lon="5.45694">
        <ele>371.6</ele>
        <time>2022-06-12T09:59:36Z</time>
      </trkpt>
      <trkpt lat="46.43507" lon="5.45694">
        <ele>372</ele>
        <time>2022-06-12T09:59:42Z</time>
      </trkpt>
      <trkpt lat="46.43566" lon="5.45696">
        <ele>371.6</ele>
        <time>2022-06-12T09:59:50Z</time>
      </trkpt>
      <trkpt lat="46.43624" lon="5.45697">
        <ele>371.4</ele>
        <time>2022-06-12T09:59:58Z</time>
      </trkpt>
      <trkpt lat="46.43638" lon="5.45697">
        <ele>371.4</ele>
        <time>2022-06-12T10:00:00Z</time>
      </trkpt>
      <trkpt lat="46.43696" lon="5.45699">
        <ele>371.4</ele>
        <time>2022-06-12T10:00:08Z</time>
      </trkpt>
      <trkpt lat="46.43725" lon="5.45699">
        <ele>371.6</ele>
        <time>2022-06-12T10:00:12Z</time>
      </trkpt>
      <trkpt lat="46.4378" lon="5.45701">
        <ele>372.2</ele>
        <time>2022-06-12T10:00:20Z</time>
      </trkpt>
      <trkpt lat="46.43794" lon="5.45701">
        <ele>372.4</ele>
        <time>2022-06-12T10:00:22Z</time>
      </trkpt>
      <trkpt lat="46.4385" lon="5.457">
        <ele>372.6</ele>
        <time>2022-06-12T10:00:30Z</time>
      </trkpt>
      <trkpt lat="46.43903" lon="5.45693">
        <ele>372.8</ele>
        <time>2022-06-12T10:00:38Z</time>
      </trkpt>
      <trkpt lat="46.43917" lon="5.45691">
        <ele>372.8</ele>
        <time>2022-06-12T10:00:40Z</time>
      </trkpt>
      <trkpt lat="46.43975" lon="5.45681">
        <ele>372.6</ele>
        <time>2022-06-12T10:00:49Z</time>
      </trkpt>
      <trkpt lat="46.43982" lon="5.4568">
        <ele>372.8</ele>
        <time>2022-06-12T10:00:50Z</time>
      </trkpt>
      <trkpt lat="46.44038" lon="5.45669">
        <ele>373.2</ele>
        <time>2022-06-12T10:00:59Z</time>
      </trkpt>
      <trkpt lat="46.44051" lon="5.45667">
        <ele>373.2</ele>
        <time>2022-06-12T10:01:01Z</time>
      </trkpt>
      <trkpt lat="46.44092" lon="5.45659">
        <ele>373.4</ele>
        <time>2022-06-12T10:01:08Z</time>
      </trkpt>
      <trkpt lat="46.44116" lon="5.45654">
        <ele>374</ele>
        <time>2022-06-12T10:01:12Z</time>
      </trkpt>
      <trkpt lat="46.44171" lon="5.45644">
        <ele>374</ele>
        <time>2022-06-12T10:01:21Z</time>
      </trkpt>
      <trkpt lat="46.44184" lon="5.45641">
        <ele>374</ele>
        <time>2022-06-12T10:01:23Z</time>
      </trkpt>
      <trkpt lat="46.4424" lon="5.45631">
        <ele>374.2</ele>
        <time>2022-06-12T10:01:32Z</time>
      </trkpt>
      <trkpt lat="46.44252" lon="5.45629">
        <ele>374.2</ele>
        <time>2022-06-12T10:01:34Z</time>
      </trkpt>
      <trkpt lat="46.44276" lon="5.45629">
        <ele>374.6</ele>
        <time>2022-06-12T10:01:38Z</time>
      </trkpt>
      <trkpt lat="46.44301" lon="5.45631">
        <ele>375.2</ele>
        <time>2022-06-12T10:01:42Z</time>
      </trkpt>
      <trkpt lat="46.44342" lon="5.45636">
        <ele>375.8</ele>
        <time>2022-06-12T10:01:49Z</time>
      </trkpt>
      <trkpt lat="46.44361" lon="5.45639">
        <ele>376</ele>
        <time>2022-06-12T10:01:52Z</time>
      </trkpt>
      <trkpt lat="46.44397" lon="5.45642">
        <ele>377</ele>
        <time>2022-06-12T10:01:58Z</time>
      </trkpt>
      <trkpt lat="46.44408" lon="5.45643">
        <ele>377.2</ele>
        <time>2022-06-12T10:02:00Z</time>
      </trkpt>
      <trkpt lat="46.44438" lon="5.45646">
        <ele>378.2</ele>
        <time>2022-06-12T10:02:05Z</time>
      </trkpt>
      <trkpt lat="46.44456" lon="5.45647">
        <ele>378.8</ele>
        <time>2022-06-12T10:02:08Z</time>
      </trkpt>
      <trkpt lat="46.44467" lon="5.45648">
        <ele>379.2</ele>
        <time>2022-06-12T10:02:10Z</time>
      </trkpt>
      <trkpt lat="46.44496" lon="5.45651">
        <ele>380</ele>
        <time>2022-06-12T10:02:15Z</time>
      </trkpt>
      <trkpt lat="46.44514" lon="5.45657">
        <ele>380.4</ele>
        <time>2022-06-12T10:02:18Z</time>
      </trkpt>
      <trkpt lat="46.44559" lon="5.4567">
        <ele>380.6</ele>
        <time>2022-06-12T10:02:25Z</time>
      </trkpt>
      <trkpt lat="46.44615" lon="5.45688">
        <ele>380</ele>
        <time>2022-06-12T10:02:33Z</time>
      </trkpt>
      <trkpt lat="46.44672" lon="5.45708">
        <ele>379.8</ele>
        <time>2022-06-12T10:02:41Z</time>
      </trkpt>
      <trkpt lat="46.44699" lon="5.45719">
        <ele>379.8</ele>
        <time>2022-06-12T10:02:45Z</time>
      </trkpt>
      <trkpt lat="46.44752" lon="5.45744">
        <ele>380</ele>
        <time>2022-06-12T10:02:53Z</time>
      </trkpt>
      <trkpt lat="46.44764" lon="5.45751">
        <ele>380</ele>
        <time>2022-06-12T10:02:55Z</time>
      </trkpt>
      <trkpt lat="46.44814" lon="5.4578">
        <ele>380.8</ele>
        <time>2022-06-12T10:03:03Z</time>
      </trkpt>
      <trkpt lat="46.4484" lon="5.45794">
        <ele>381</ele>
        <time>2022-06-12T10:03:07Z</time>
      </trkpt>
      <trkpt lat="46.44891" lon="5.45824">
        <ele>381.4</ele>
        <time>2022-06-12T10:03:15Z</time>
      </trkpt>
      <trkpt lat="46.44911" lon="5.45836">
        <ele>381.4</ele>
        <time>2022-06-12T10:03:18Z</time>
      </trkpt>
      <trkpt lat="46.44962" lon="5.45866">
        <ele>380.2</ele>
        <time>2022-06-12T10:03:25Z</time>
      </trkpt>
      <trkpt lat="46.44969" lon="5.4587">
        <ele>380.2</ele>
        <time>2022-06-12T10:03:26Z</time>
      </trkpt>
      <trkpt lat="46.45016" lon="5.45899">
        <ele>379.6</ele>
        <time>2022-06-12T10:03:32Z</time>
      </trkpt>
      <trkpt lat="46.45032" lon="5.45908">
        <ele>379.4</ele>
        <time>2022-06-12T10:03:34Z</time>
      </trkpt>
      <trkpt lat="46.45057" lon="5.45922">
        <ele>378.6</ele>
        <time>2022-06-12T10:03:37Z</time>
      </trkpt>
      <trkpt lat="46.45106" lon="5.45948">
        <ele>377.8</ele>
        <time>2022-06-12T10:03:43Z</time>
      </trkpt>
      <trkpt lat="46.45121" lon="5.45956">
        <ele>377.8</ele>
        <time>2022-06-12T10:03:45Z</time>
      </trkpt>
      <trkpt lat="46.45142" lon="5.45973">
        <ele>377.8</ele>
        <time>2022-06-12T10:03:48Z</time>
      </trkpt>
      <trkpt lat="46.45173" lon="5.45997">
        <ele>378</ele>
        <time>2022-06-12T10:03:53Z</time>
      </trkpt>
      <trkpt lat="46.45192" lon="5.4601">
        <ele>378.8</ele>
        <time>2022-06-12T10:03:56Z</time>
      </trkpt>
      <trkpt lat="46.45203" lon="5.4602">
        <ele>379.4</ele>
        <time>2022-06-12T10:03:58Z</time>
      </trkpt>
      <trkpt lat="46.45214" lon="5.4603">
        <ele>379.6</ele>
        <time>2022-06-12T10:04:00Z</time>
      </trkpt>
      <trkpt lat="46.45224" lon="5.46039">
        <ele>379.8</ele>
        <time>2022-06-12T10:04:02Z</time>
      </trkpt>
      <trkpt lat="46.45229" lon="5.46042">
        <ele>379.8</ele>
        <time>2022-06-12T10:04:03Z</time>
      </trkpt>
      <trkpt lat="46.45234" lon="5.46045">
        <ele>380.2</ele>
        <time>2022-06-12T10:04:04Z</time>
      </trkpt>
      <trkpt lat="46.45244" lon="5.46045">
        <ele>380.6</ele>
        <time>2022-06-12T10:04:06Z</time>
      </trkpt>
      <trkpt lat="46.45248" lon="5.46041">
        <ele>380.8</ele>
        <time>2022-06-12T10:04:07Z</time>
      </trkpt>
      <trkpt lat="46.45252" lon="5.46035">
        <ele>381</ele>
        <time>2022-06-12T10:04:08Z</time>
      </trkpt>
      <trkpt lat="46.45262" lon="5.46011">
        <ele>381.6</ele>
        <time>2022-06-12T10:04:11Z</time>
      </trkpt>
      <trkpt lat="46.45273" lon="5.45983">
        <ele>381.6</ele>
        <time>2022-06-12T10:04:14Z</time>
      </trkpt>
      <trkpt lat="46.45279" lon="5.45961">
        <ele>381.6</ele>
        <time>2022-06-12T10:04:16Z</time>
      </trkpt>
      <trkpt lat="46.45295" lon="5.45887">
        <ele>379.8</ele>
        <time>2022-06-12T10:04:22Z</time>
      </trkpt>
      <trkpt lat="46.45307" lon="5.4585">
        <ele>378.2</ele>
        <time>2022-06-12T10:04:25Z</time>
      </trkpt>
      <trkpt lat="46.45317" lon="5.45814">
        <ele>377</ele>
        <time>2022-06-12T10:04:28Z</time>
      </trkpt>
      <trkpt lat="46.45329" lon="5.45744">
        <ele>376.2</ele>
        <time>2022-06-12T10:04:34Z</time>
      </trkpt>
      <trkpt lat="46.45334" lon="5.4571">
        <ele>375.8</ele>
        <time>2022-06-12T10:04:37Z</time>
      </trkpt>
      <trkpt lat="46.45341" lon="5.45666">
        <ele>375.6</ele>
        <time>2022-06-12T10:04:41Z</time>
      </trkpt>
      <trkpt lat="46.45347" lon="5.45635">
        <ele>375.4</ele>
        <time>2022-06-12T10:04:44Z</time>
      </trkpt>
      <trkpt lat="46.45354" lon="5.45617">
        <ele>375.4</ele>
        <time>2022-06-12T10:04:46Z</time>
      </trkpt>
      <trkpt lat="46.45365" lon="5.45604">
        <ele>375.4</ele>
        <time>2022-06-12T10:04:48Z</time>
      </trkpt>
      <trkpt lat="46.45371" lon="5.456">
        <ele>375.6</ele>
        <time>2022-06-12T10:04:49Z</time>
      </trkpt>
      <trkpt lat="46.45384" lon="5.45595">
        <ele>375.6</ele>
        <time>2022-06-12T10:04:51Z</time>
      </trkpt>
      <trkpt lat="46.45398" lon="5.45595">
        <ele>375.6</ele>
        <time>2022-06-12T10:04:53Z</time>
      </trkpt>
      <trkpt lat="46.45417" lon="5.45603">
        <ele>375.8</ele>
        <time>2022-06-12T10:04:56Z</time>
      </trkpt>
      <trkpt lat="46.45423" lon="5.45607">
        <ele>375.8</ele>
        <time>2022-06-12T10:04:57Z</time>
      </trkpt>
      <trkpt lat="46.45455" lon="5.45634">
        <ele>376.2</ele>
        <time>2022-06-12T10:05:03Z</time>
      </trkpt>
      <trkpt lat="46.45493" lon="5.45661">
        <ele>377.2</ele>
        <time>2022-06-12T10:05:10Z</time>
      </trkpt>
      <trkpt lat="46.45531" lon="5.45683">
        <ele>378.2</ele>
        <time>2022-06-12T10:05:17Z</time>
      </trkpt>
      <trkpt lat="46.45536" lon="5.45686">
        <ele>378.4</ele>
        <time>2022-06-12T10:05:18Z</time>
      </trkpt>
      <trkpt lat="46.4555" lon="5.45693">
        <ele>379.4</ele>
        <time>2022-06-12T10:05:21Z</time>
      </trkpt>
      <trkpt lat="46.4557" lon="5.457">
        <ele>380.4</ele>
        <time>2022-06-12T10:05:25Z</time>
      </trkpt>
      <trkpt lat="46.45575" lon="5.45701">
        <ele>380.6</ele>
        <time>2022-06-12T10:05:26Z</time>
      </trkpt>
      <trkpt lat="46.4559" lon="5.45703">
        <ele>381.8</ele>
        <time>2022-06-12T10:05:29Z</time>
      </trkpt>
      <trkpt lat="46.45604" lon="5.45702">
        <ele>382.8</ele>
        <time>2022-06-12T10:05:32Z</time>
      </trkpt>
      <trkpt lat="46.45609" lon="5.45701">
        <ele>383.2</ele>
        <time>2022-06-12T10:05:33Z</time>
      </trkpt>
      <trkpt lat="46.45614" lon="5.45699">
        <ele>383.4</ele>
        <time>2022-06-12T10:05:34Z</time>
      </trkpt>
      <trkpt lat="46.45641" lon="5.45687">
        <ele>384.6</ele>
        <time>2022-06-12T10:05:40Z</time>
      </trkpt>
      <trkpt lat="46.45677" lon="5.45667">
        <ele>385.4</ele>
        <time>2022-06-12T10:05:48Z</time>
      </trkpt>
      <trkpt lat="46.45686" lon="5.45661">
        <ele>385.8</ele>
        <time>2022-06-12T10:05:50Z</time>
      </trkpt>
      <trkpt lat="46.45714" lon="5.45644">
        <ele>386.8</ele>
        <time>2022-06-12T10:05:56Z</time>
      </trkpt>
      <trkpt lat="46.45719" lon="5.45641">
        <ele>387</ele>
        <time>2022-06-12T10:05:57Z</time>
      </trkpt>
      <trkpt lat="46.45766" lon="5.45614">
        <ele>387.6</ele>
        <time>2022-06-12T10:06:06Z</time>
      </trkpt>
      <trkpt lat="46.45818" lon="5.45586">
        <ele>387.6</ele>
        <time>2022-06-12T10:06:15Z</time>
      </trkpt>
      <trkpt lat="46.45831" lon="5.45579">
        <ele>387.6</ele>
        <time>2022-06-12T10:06:17Z</time>
      </trkpt>
      <trkpt lat="46.45881" lon="5.4555">
        <ele>386.6</ele>
        <time>2022-06-12T10:06:24Z</time>
      </trkpt>
      <trkpt lat="46.45904" lon="5.45537">
        <ele>385.8</ele>
        <time>2022-06-12T10:06:27Z</time>
      </trkpt>
      <trkpt lat="46.45935" lon="5.45519">
        <ele>385</ele>
        <time>2022-06-12T10:06:31Z</time>
      </trkpt>
      <trkpt lat="46.45943" lon="5.45515">
        <ele>384.8</ele>
        <time>2022-06-12T10:06:32Z</time>
      </trkpt>
      <trkpt lat="46.45998" lon="5.45483">
        <ele>383.6</ele>
        <time>2022-06-12T10:06:39Z</time>
      </trkpt>
      <trkpt lat="46.4603" lon="5.45464">
        <ele>382.8</ele>
        <time>2022-06-12T10:06:43Z</time>
      </trkpt>
      <trkpt lat="46.46045" lon="5.45455">
        <ele>382.4</ele>
        <time>2022-06-12T10:06:45Z</time>
      </trkpt>
      <trkpt lat="46.46099" lon="5.45422">
        <ele>382</ele>
        <time>2022-06-12T10:06:52Z</time>
      </trkpt>
      <trkpt lat="46.46122" lon="5.45407">
        <ele>381.8</ele>
        <time>2022-06-12T10:06:55Z</time>
      </trkpt>
      <trkpt lat="46.46138" lon="5.45397">
        <ele>381.4</ele>
        <time>2022-06-12T10:06:57Z</time>
      </trkpt>
      <trkpt lat="46.46191" lon="5.45359">
        <ele>380.2</ele>
        <time>2022-06-12T10:07:04Z</time>
      </trkpt>
      <trkpt lat="46.46241" lon="5.45323">
        <ele>379.6</ele>
        <time>2022-06-12T10:07:11Z</time>
      </trkpt>
      <trkpt lat="46.46254" lon="5.45312">
        <ele>379.6</ele>
        <time>2022-06-12T10:07:13Z</time>
      </trkpt>
      <trkpt lat="46.46303" lon="5.45273">
        <ele>379.6</ele>
        <time>2022-06-12T10:07:20Z</time>
      </trkpt>
      <trkpt lat="46.46318" lon="5.4526">
        <ele>379.2</ele>
        <time>2022-06-12T10:07:22Z</time>
      </trkpt>
      <trkpt lat="46.46324" lon="5.45255">
        <ele>379</ele>
        <time>2022-06-12T10:07:23Z</time>
      </trkpt>
      <trkpt lat="46.46375" lon="5.45222">
        <ele>378.8</ele>
        <time>2022-06-12T10:07:30Z</time>
      </trkpt>
      <trkpt lat="46.46403" lon="5.45205">
        <ele>378.6</ele>
        <time>2022-06-12T10:07:34Z</time>
      </trkpt>
      <trkpt lat="46.46415" lon="5.45192">
        <ele>378.8</ele>
        <time>2022-06-12T10:07:36Z</time>
      </trkpt>
      <trkpt lat="46.4642" lon="5.45185">
        <ele>379.2</ele>
        <time>2022-06-12T10:07:37Z</time>
      </trkpt>
      <trkpt lat="46.46428" lon="5.45169">
        <ele>379.4</ele>
        <time>2022-06-12T10:07:39Z</time>
      </trkpt>
      <trkpt lat="46.46431" lon="5.4516">
        <ele>379.4</ele>
        <time>2022-06-12T10:07:40Z</time>
      </trkpt>
      <trkpt lat="46.46433" lon="5.45152">
        <ele>379.4</ele>
        <time>2022-06-12T10:07:41Z</time>
      </trkpt>
      <trkpt lat="46.46435" lon="5.45134">
        <ele>379.6</ele>
        <time>2022-06-12T10:07:43Z</time>
      </trkpt>
      <trkpt lat="46.46435" lon="5.45125">
        <ele>379.6</ele>
        <time>2022-06-12T10:07:44Z</time>
      </trkpt>
      <trkpt lat="46.46434" lon="5.45117">
        <ele>379.8</ele>
        <time>2022-06-12T10:07:45Z</time>
      </trkpt>
      <trkpt lat="46.46431" lon="5.45084">
        <ele>380.2</ele>
        <time>2022-06-12T10:07:49Z</time>
      </trkpt>
      <trkpt lat="46.46429" lon="5.45076">
        <ele>380.4</ele>
        <time>2022-06-12T10:07:50Z</time>
      </trkpt>
      <trkpt lat="46.46418" lon="5.45035">
        <ele>381.2</ele>
        <time>2022-06-12T10:07:55Z</time>
      </trkpt>
      <trkpt lat="46.46413" lon="5.45017">
        <ele>381.2</ele>
        <time>2022-06-12T10:07:57Z</time>
      </trkpt>
      <trkpt lat="46.46409" lon="5.44998">
        <ele>381.2</ele>
        <time>2022-06-12T10:07:59Z</time>
      </trkpt>
      <trkpt lat="46.46396" lon="5.44943">
        <ele>381</ele>
        <time>2022-06-12T10:08:05Z</time>
      </trkpt>
      <trkpt lat="46.46394" lon="5.44936">
        <ele>381</ele>
        <time>2022-06-12T10:08:06Z</time>
      </trkpt>
      <trkpt lat="46.46389" lon="5.44923">
        <ele>381.2</ele>
        <time>2022-06-12T10:08:08Z</time>
      </trkpt>
      <trkpt lat="46.4638" lon="5.44905">
        <ele>381.4</ele>
        <time>2022-06-12T10:08:11Z</time>
      </trkpt>
      <trkpt lat="46.46376" lon="5.44899">
        <ele>381.4</ele>
        <time>2022-06-12T10:08:12Z</time>
      </trkpt>
      <trkpt lat="46.46366" lon="5.44877">
        <ele>382</ele>
        <time>2022-06-12T10:08:15Z</time>
      </trkpt>
      <trkpt lat="46.4636" lon="5.44862">
        <ele>382</ele>
        <time>2022-06-12T10:08:17Z</time>
      </trkpt>
      <trkpt lat="46.46353" lon="5.4481">
        <ele>382.2</ele>
        <time>2022-06-12T10:08:23Z</time>
      </trkpt>
      <trkpt lat="46.46352" lon="5.44768">
        <ele>382.2</ele>
        <time>2022-06-12T10:08:29Z</time>
      </trkpt>
      <trkpt lat="46.46353" lon="5.44757">
        <ele>382.6</ele>
        <time>2022-06-12T10:08:31Z</time>
      </trkpt>
      <trkpt lat="46.46353" lon="5.44741">
        <ele>383.8</ele>
        <time>2022-06-12T10:08:34Z</time>
      </trkpt>
      <trkpt lat="46.46353" lon="5.44726">
        <ele>384.6</ele>
        <time>2022-06-12T10:08:37Z</time>
      </trkpt>
      <trkpt lat="46.46351" lon="5.44715">
        <ele>385.2</ele>
        <time>2022-06-12T10:08:39Z</time>
      </trkpt>
      <trkpt lat="46.46346" lon="5.44707">
        <ele>386</ele>
        <time>2022-06-12T10:08:41Z</time>
      </trkpt>
      <trkpt lat="46.46343" lon="5.44705">
        <ele>386.2</ele>
        <time>2022-06-12T10:08:42Z</time>
      </trkpt>
      <trkpt lat="46.46327" lon="5.44697">
        <ele>387</ele>
        <time>2022-06-12T10:08:46Z</time>
      </trkpt>
      <trkpt lat="46.46319" lon="5.44693">
        <ele>387.4</ele>
        <time>2022-06-12T10:08:48Z</time>
      </trkpt>
      <trkpt lat="46.46294" lon="5.44681">
        <ele>388.4</ele>
        <time>2022-06-12T10:08:55Z</time>
      </trkpt>
      <trkpt lat="46.4627" lon="5.4467">
        <ele>389.6</ele>
        <time>2022-06-12T10:09:02Z</time>
      </trkpt>
      <trkpt lat="46.46263" lon="5.44666">
        <ele>389.8</ele>
        <time>2022-06-12T10:09:04Z</time>
      </trkpt>
      <trkpt lat="46.46243" lon="5.44655">
        <ele>390.6</ele>
        <time>2022-06-12T10:09:10Z</time>
      </trkpt>
      <trkpt lat="46.46229" lon="5.44645">
        <ele>392</ele>
        <time>2022-06-12T10:09:14Z</time>
      </trkpt>
      <trkpt lat="46.46227" lon="5.44643">
        <ele>392.2</ele>
        <time>2022-06-12T10:09:15Z</time>
      </trkpt>
      <trkpt lat="46.46212" lon="5.44622">
        <ele>393</ele>
        <time>2022-06-12T10:09:21Z</time>
      </trkpt>
      <trkpt lat="46.4621" lon="5.44618">
        <ele>393.2</ele>
        <time>2022-06-12T10:09:22Z</time>
      </trkpt>
      <trkpt lat="46.46202" lon="5.44596">
        <ele>394.2</ele>
        <time>2022-06-12T10:09:27Z</time>
      </trkpt>
      <trkpt lat="46.46199" lon="5.44582">
        <ele>394.8</ele>
        <time>2022-06-12T10:09:30Z</time>
      </trkpt>
      <trkpt lat="46.46197" lon="5.44564">
        <ele>395.2</ele>
        <time>2022-06-12T10:09:34Z</time>
      </trkpt>
      <trkpt lat="46.46196" lon="5.44545">
        <ele>396</ele>
        <time>2022-06-12T10:09:38Z</time>
      </trkpt>
      <trkpt lat="46.46195" lon="5.4453">
        <ele>396.6</ele>
        <time>2022-06-12T10:09:41Z</time>
      </trkpt>
      <trkpt lat="46.46193" lon="5.44501">
        <ele>397.6</ele>
        <time>2022-06-12T10:09:46Z</time>
      </trkpt>
      <trkpt lat="46.46193" lon="5.44471">
        <ele>398.8</ele>
        <time>2022-06-12T10:09:52Z</time>
      </trkpt>
      <trkpt lat="46.46193" lon="5.44466">
        <ele>399</ele>
        <time>2022-06-12T10:09:53Z</time>
      </trkpt>
      <trkpt lat="46.46193" lon="5.44433">
        <ele>399.8</ele>
        <time>2022-06-12T10:09:59Z</time>
      </trkpt>
      <trkpt lat="46.46192" lon="5.44412">
        <ele>400.8</ele>
        <time>2022-06-12T10:10:03Z</time>
      </trkpt>
      <trkpt lat="46.46192" lon="5.44401">
        <ele>401</ele>
        <time>2022-06-12T10:10:05Z</time>
      </trkpt>
      <trkpt lat="46.46194" lon="5.4437">
        <ele>401.8</ele>
        <time>2022-06-12T10:10:11Z</time>
      </trkpt>
      <trkpt lat="46.46193" lon="5.44364">
        <ele>402.4</ele>
        <time>2022-06-12T10:10:12Z</time>
      </trkpt>
      <trkpt lat="46.46195" lon="5.44345">
        <ele>403.2</ele>
        <time>2022-06-12T10:10:16Z</time>
      </trkpt>
      <trkpt lat="46.46195" lon="5.44341">
        <ele>403.4</ele>
        <time>2022-06-12T10:10:17Z</time>
      </trkpt>
      <trkpt lat="46.46197" lon="5.44325">
        <ele>404.2</ele>
        <time>2022-06-12T10:10:21Z</time>
      </trkpt>
      <trkpt lat="46.46197" lon="5.44319">
        <ele>404.4</ele>
        <time>2022-06-12T10:10:22Z</time>
      </trkpt>
      <trkpt lat="46.46195" lon="5.44297">
        <ele>405.8</ele>
        <time>2022-06-12T10:10:26Z</time>
      </trkpt>
      <trkpt lat="46.46192" lon="5.44278">
        <ele>406.2</ele>
        <time>2022-06-12T10:10:29Z</time>
      </trkpt>
      <trkpt lat="46.46187" lon="5.44256">
        <ele>406.8</ele>
        <time>2022-06-12T10:10:33Z</time>
      </trkpt>
      <trkpt lat="46.4618" lon="5.4423">
        <ele>407.6</ele>
        <time>2022-06-12T10:10:38Z</time>
      </trkpt>
      <trkpt lat="46.46178" lon="5.44221">
        <ele>407.8</ele>
        <time>2022-06-12T10:10:40Z</time>
      </trkpt>
      <trkpt lat="46.4617" lon="5.44198">
        <ele>409</ele>
        <time>2022-06-12T10:10:45Z</time>
      </trkpt>
      <trkpt lat="46.46168" lon="5.44193">
        <ele>409.2</ele>
        <time>2022-06-12T10:10:46Z</time>
      </trkpt>
      <trkpt lat="46.46159" lon="5.44166">
        <ele>410.2</ele>
        <time>2022-06-12T10:10:52Z</time>
      </trkpt>
      <trkpt lat="46.46152" lon="5.44148">
        <ele>411</ele>
        <time>2022-06-12T10:10:56Z</time>
      </trkpt>
      <trkpt lat="46.46151" lon="5.44143">
        <ele>411.2</ele>
        <time>2022-06-12T10:10:57Z</time>
      </trkpt>
      <trkpt lat="46.46142" lon="5.44111">
        <ele>412.2</ele>
        <time>2022-06-12T10:11:04Z</time>
      </trkpt>
      <trkpt lat="46.4614" lon="5.44103">
        <ele>412.6</ele>
        <time>2022-06-12T10:11:06Z</time>
      </trkpt>
      <trkpt lat="46.46139" lon="5.4409">
        <ele>413.2</ele>
        <time>2022-06-12T10:11:09Z</time>
      </trkpt>
      <trkpt lat="46.46138" lon="5.4408">
        <ele>414</ele>
        <time>2022-06-12T10:11:11Z</time>
      </trkpt>
      <trkpt lat="46.46132" lon="5.44051">
        <ele>414.6</ele>
        <time>2022-06-12T10:11:17Z</time>
      </trkpt>
      <trkpt lat="46.46131" lon="5.44046">
        <ele>415.2</ele>
        <time>2022-06-12T10:11:18Z</time>
      </trkpt>
      <trkpt lat="46.46128" lon="5.44017">
        <ele>416</ele>
        <time>2022-06-12T10:11:23Z</time>
      </trkpt>
      <trkpt lat="46.46128" lon="5.44011">
        <ele>416.2</ele>
        <time>2022-06-12T10:11:24Z</time>
      </trkpt>
      <trkpt lat="46.4613" lon="5.43984">
        <ele>417.2</ele>
        <time>2022-06-12T10:11:29Z</time>
      </trkpt>
      <trkpt lat="46.46132" lon="5.43974">
        <ele>417.6</ele>
        <time>2022-06-12T10:11:31Z</time>
      </trkpt>
      <trkpt lat="46.46136" lon="5.43959">
        <ele>418.2</ele>
        <time>2022-06-12T10:11:34Z</time>
      </trkpt>
      <trkpt lat="46.46143" lon="5.43935">
        <ele>419.2</ele>
        <time>2022-06-12T10:11:39Z</time>
      </trkpt>
      <trkpt lat="46.46147" lon="5.43921">
        <ele>419.8</ele>
        <time>2022-06-12T10:11:42Z</time>
      </trkpt>
      <trkpt lat="46.46149" lon="5.43916">
        <ele>420.4</ele>
        <time>2022-06-12T10:11:43Z</time>
      </trkpt>
      <trkpt lat="46.46156" lon="5.43888">
        <ele>421.4</ele>
        <time>2022-06-12T10:11:49Z</time>
      </trkpt>
      <trkpt lat="46.46163" lon="5.43865">
        <ele>422</ele>
        <time>2022-06-12T10:11:54Z</time>
      </trkpt>
      <trkpt lat="46.46167" lon="5.43852">
        <ele>422.6</ele>
        <time>2022-06-12T10:11:57Z</time>
      </trkpt>
      <trkpt lat="46.46173" lon="5.43829">
        <ele>423.8</ele>
        <time>2022-06-12T10:12:02Z</time>
      </trkpt>
      <trkpt lat="46.46177" lon="5.43817">
        <ele>424.2</ele>
        <time>2022-06-12T10:12:05Z</time>
      </trkpt>
      <trkpt lat="46.46181" lon="5.43804">
        <ele>425</ele>
        <time>2022-06-12T10:12:08Z</time>
      </trkpt>
      <trkpt lat="46.46186" lon="5.43786">
        <ele>425.6</ele>
        <time>2022-06-12T10:12:12Z</time>
      </trkpt>
      <trkpt lat="46.46187" lon="5.43782">
        <ele>426</ele>
        <time>2022-06-12T10:12:13Z</time>
      </trkpt>
      <trkpt lat="46.46192" lon="5.43753">
        <ele>427.2</ele>
        <time>2022-06-12T10:12:19Z</time>
      </trkpt>
      <trkpt lat="46.46192" lon="5.43749">
        <ele>427.2</ele>
        <time>2022-06-12T10:12:20Z</time>
      </trkpt>
      <trkpt lat="46.46192" lon="5.43714">
        <ele>428</ele>
        <time>2022-06-12T10:12:27Z</time>
      </trkpt>
      <trkpt lat="46.46191" lon="5.43709">
        <ele>428.2</ele>
        <time>2022-06-12T10:12:28Z</time>
      </trkpt>
      <trkpt lat="46.46184" lon="5.43668">
        <ele>429</ele>
        <time>2022-06-12T10:12:36Z</time>
      </trkpt>
      <trkpt lat="46.46183" lon="5.43663">
        <ele>429.4</ele>
        <time>2022-06-12T10:12:37Z</time>
      </trkpt>
      <trkpt lat="46.46173" lon="5.43637">
        <ele>430.4</ele>
        <time>2022-06-12T10:12:42Z</time>
      </trkpt>
      <trkpt lat="46.46171" lon="5.43632">
        <ele>430.6</ele>
        <time>2022-06-12T10:12:43Z</time>
      </trkpt>
      <trkpt lat="46.46155" lon="5.43607">
        <ele>430.8</ele>
        <time>2022-06-12T10:12:48Z</time>
      </trkpt>
      <trkpt lat="46.46148" lon="5.43598">
        <ele>430.8</ele>
        <time>2022-06-12T10:12:50Z</time>
      </trkpt>
      <trkpt lat="46.46119" lon="5.43575">
        <ele>430.4</ele>
        <time>2022-06-12T10:12:56Z</time>
      </trkpt>
      <trkpt lat="46.46086" lon="5.43566">
        <ele>430.2</ele>
        <time>2022-06-12T10:13:01Z</time>
      </trkpt>
      <trkpt lat="46.46049" lon="5.43564">
        <ele>429.4</ele>
        <time>2022-06-12T10:13:06Z</time>
      </trkpt>
      <trkpt lat="46.46034" lon="5.43562">
        <ele>429.4</ele>
        <time>2022-06-12T10:13:08Z</time>
      </trkpt>
      <trkpt lat="46.46003" lon="5.43551">
        <ele>428.6</ele>
        <time>2022-06-12T10:13:12Z</time>
      </trkpt>
      <trkpt lat="46.45995" lon="5.43547">
        <ele>428.4</ele>
        <time>2022-06-12T10:13:13Z</time>
      </trkpt>
      <trkpt lat="46.4598" lon="5.43537">
        <ele>427.6</ele>
        <time>2022-06-12T10:13:15Z</time>
      </trkpt>
      <trkpt lat="46.45951" lon="5.43515">
        <ele>426.4</ele>
        <time>2022-06-12T10:13:19Z</time>
      </trkpt>
      <trkpt lat="46.45914" lon="5.43487">
        <ele>425</ele>
        <time>2022-06-12T10:13:24Z</time>
      </trkpt>
      <trkpt lat="46.45883" lon="5.43463">
        <ele>423.6</ele>
        <time>2022-06-12T10:13:28Z</time>
      </trkpt>
      <trkpt lat="46.45867" lon="5.43451">
        <ele>422.8</ele>
        <time>2022-06-12T10:13:30Z</time>
      </trkpt>
      <trkpt lat="46.45859" lon="5.43445">
        <ele>422.4</ele>
        <time>2022-06-12T10:13:31Z</time>
      </trkpt>
      <trkpt lat="46.45817" lon="5.43412">
        <ele>420.6</ele>
        <time>2022-06-12T10:13:36Z</time>
      </trkpt>
      <trkpt lat="46.458" lon="5.434">
        <ele>420</ele>
        <time>2022-06-12T10:13:38Z</time>
      </trkpt>
      <trkpt lat="46.45792" lon="5.43393">
        <ele>419.6</ele>
        <time>2022-06-12T10:13:39Z</time>
      </trkpt>
      <trkpt lat="46.45767" lon="5.43372">
        <ele>418.4</ele>
        <time>2022-06-12T10:13:42Z</time>
      </trkpt>
      <trkpt lat="46.45751" lon="5.43355">
        <ele>417.8</ele>
        <time>2022-06-12T10:13:44Z</time>
      </trkpt>
      <trkpt lat="46.45729" lon="5.43329">
        <ele>416.8</ele>
        <time>2022-06-12T10:13:47Z</time>
      </trkpt>
      <trkpt lat="46.45717" lon="5.43309">
        <ele>415.6</ele>
        <time>2022-06-12T10:13:49Z</time>
      </trkpt>
      <trkpt lat="46.45692" lon="5.43255">
        <ele>414.2</ele>
        <time>2022-06-12T10:13:54Z</time>
      </trkpt>
      <trkpt lat="46.45687" lon="5.43244">
        <ele>414</ele>
        <time>2022-06-12T10:13:55Z</time>
      </trkpt>
      <trkpt lat="46.45659" lon="5.43183">
        <ele>412.8</ele>
        <time>2022-06-12T10:14:01Z</time>
      </trkpt>
      <trkpt lat="46.45646" lon="5.43152">
        <ele>411.6</ele>
        <time>2022-06-12T10:14:04Z</time>
      </trkpt>
      <trkpt lat="46.45614" lon="5.43082">
        <ele>411</ele>
        <time>2022-06-12T10:14:11Z</time>
      </trkpt>
      <trkpt lat="46.45606" lon="5.43063">
        <ele>411</ele>
        <time>2022-06-12T10:14:13Z</time>
      </trkpt>
      <trkpt lat="46.4558" lon="5.43013">
        <ele>410.8</ele>
        <time>2022-06-12T10:14:19Z</time>
      </trkpt>
      <trkpt lat="46.45568" lon="5.42992">
        <ele>411</ele>
        <time>2022-06-12T10:14:22Z</time>
      </trkpt>
      <trkpt lat="46.45555" lon="5.42974">
        <ele>411.4</ele>
        <time>2022-06-12T10:14:25Z</time>
      </trkpt>
      <trkpt lat="46.45524" lon="5.42936">
        <ele>412.2</ele>
        <time>2022-06-12T10:14:32Z</time>
      </trkpt>
      <trkpt lat="46.45509" lon="5.42917">
        <ele>412.6</ele>
        <time>2022-06-12T10:14:36Z</time>
      </trkpt>
      <trkpt lat="46.45497" lon="5.42902">
        <ele>413.4</ele>
        <time>2022-06-12T10:14:39Z</time>
      </trkpt>
      <trkpt lat="46.45485" lon="5.42886">
        <ele>413.8</ele>
        <time>2022-06-12T10:14:42Z</time>
      </trkpt>
      <trkpt lat="46.45467" lon="5.42864">
        <ele>414.2</ele>
        <time>2022-06-12T10:14:47Z</time>
      </trkpt>
      <trkpt lat="46.4546" lon="5.42855">
        <ele>414.8</ele>
        <time>2022-06-12T10:14:49Z</time>
      </trkpt>
      <trkpt lat="46.45453" lon="5.42848">
        <ele>415.4</ele>
        <time>2022-06-12T10:14:51Z</time>
      </trkpt>
      <trkpt lat="46.45445" lon="5.42841">
        <ele>415.8</ele>
        <time>2022-06-12T10:14:53Z</time>
      </trkpt>
      <trkpt lat="46.45442" lon="5.42837">
        <ele>416</ele>
        <time>2022-06-12T10:14:54Z</time>
      </trkpt>
      <trkpt lat="46.45404" lon="5.42802">
        <ele>417</ele>
        <time>2022-06-12T10:15:04Z</time>
      </trkpt>
      <trkpt lat="46.45397" lon="5.42794">
        <ele>417.4</ele>
        <time>2022-06-12T10:15:06Z</time>
      </trkpt>
      <trkpt lat="46.45372" lon="5.4276">
        <ele>418.2</ele>
        <time>2022-06-12T10:15:14Z</time>
      </trkpt>
      <trkpt lat="46.45366" lon="5.42751">
        <ele>418.6</ele>
        <time>2022-06-12T10:15:16Z</time>
      </trkpt>
      <trkpt lat="46.45358" lon="5.42738">
        <ele>419.2</ele>
        <time>2022-06-12T10:15:19Z</time>
      </trkpt>
      <trkpt lat="46.4534" lon="5.42706">
        <ele>420</ele>
        <time>2022-06-12T10:15:26Z</time>
      </trkpt>
      <trkpt lat="46.45335" lon="5.42698">
        <ele>420.4</ele>
        <time>2022-06-12T10:15:28Z</time>
      </trkpt>
      <trkpt lat="46.45318" lon="5.42668">
        <ele>420.8</ele>
        <time>2022-06-12T10:15:35Z</time>
      </trkpt>
      <trkpt lat="46.45311" lon="5.42655">
        <ele>421.6</ele>
        <time>2022-06-12T10:15:38Z</time>
      </trkpt>
      <trkpt lat="46.45297" lon="5.42628">
        <ele>422.6</ele>
        <time>2022-06-12T10:15:44Z</time>
      </trkpt>
      <trkpt lat="46.45292" lon="5.4262">
        <ele>422.6</ele>
        <time>2022-06-12T10:15:46Z</time>
      </trkpt>
      <trkpt lat="46.45276" lon="5.4259">
        <ele>423.4</ele>
        <time>2022-06-12T10:15:53Z</time>
      </trkpt>
      <trkpt lat="46.45271" lon="5.42582">
        <ele>423.6</ele>
        <time>2022-06-12T10:15:55Z</time>
      </trkpt>
      <trkpt lat="46.45256" lon="5.42554">
        <ele>424.6</ele>
        <time>2022-06-12T10:16:01Z</time>
      </trkpt>
      <trkpt lat="46.45253" lon="5.42549">
        <ele>424.8</ele>
        <time>2022-06-12T10:16:02Z</time>
      </trkpt>
      <trkpt lat="46.45226" lon="5.42499">
        <ele>425.8</ele>
        <time>2022-06-12T10:16:13Z</time>
      </trkpt>
      <trkpt lat="46.4522" lon="5.4249">
        <ele>426.2</ele>
        <time>2022-06-12T10:16:15Z</time>
      </trkpt>
      <trkpt lat="46.45206" lon="5.42462">
        <ele>427</ele>
        <time>2022-06-12T10:16:21Z</time>
      </trkpt>
      <trkpt lat="46.45203" lon="5.42457">
        <ele>427.4</ele>
        <time>2022-06-12T10:16:22Z</time>
      </trkpt>
      <trkpt lat="46.45185" lon="5.42424">
        <ele>427.8</ele>
        <time>2022-06-12T10:16:29Z</time>
      </trkpt>
      <trkpt lat="46.45169" lon="5.42398">
        <ele>428.4</ele>
        <time>2022-06-12T10:16:35Z</time>
      </trkpt>
      <trkpt lat="46.45158" lon="5.42381">
        <ele>429.4</ele>
        <time>2022-06-12T10:16:39Z</time>
      </trkpt>
      <trkpt lat="46.45156" lon="5.42377">
        <ele>429.6</ele>
        <time>2022-06-12T10:16:40Z</time>
      </trkpt>
      <trkpt lat="46.45137" lon="5.42355">
        <ele>430.4</ele>
        <time>2022-06-12T10:16:46Z</time>
      </trkpt>
      <trkpt lat="46.45131" lon="5.42346">
        <ele>430.6</ele>
        <time>2022-06-12T10:16:48Z</time>
      </trkpt>
      <trkpt lat="46.45125" lon="5.42339">
        <ele>430.8</ele>
        <time>2022-06-12T10:16:50Z</time>
      </trkpt>
      <trkpt lat="46.45115" lon="5.42321">
        <ele>431.2</ele>
        <time>2022-06-12T10:16:54Z</time>
      </trkpt>
      <trkpt lat="46.45106" lon="5.4231">
        <ele>431.8</ele>
        <time>2022-06-12T10:16:57Z</time>
      </trkpt>
      <trkpt lat="46.45095" lon="5.42299">
        <ele>432.4</ele>
        <time>2022-06-12T10:17:00Z</time>
      </trkpt>
      <trkpt lat="46.4509" lon="5.42289">
        <ele>432.4</ele>
        <time>2022-06-12T10:17:02Z</time>
      </trkpt>
      <trkpt lat="46.45088" lon="5.42279">
        <ele>432.8</ele>
        <time>2022-06-12T10:17:04Z</time>
      </trkpt>
      <trkpt lat="46.45087" lon="5.42273">
        <ele>433</ele>
        <time>2022-06-12T10:17:05Z</time>
      </trkpt>
      <trkpt lat="46.45082" lon="5.42229">
        <ele>433.8</ele>
        <time>2022-06-12T10:17:13Z</time>
      </trkpt>
      <trkpt lat="46.45082" lon="5.42223">
        <ele>434.2</ele>
        <time>2022-06-12T10:17:14Z</time>
      </trkpt>
      <trkpt lat="46.45079" lon="5.42202">
        <ele>435.2</ele>
        <time>2022-06-12T10:17:18Z</time>
      </trkpt>
      <trkpt lat="46.45077" lon="5.42191">
        <ele>435.6</ele>
        <time>2022-06-12T10:17:20Z</time>
      </trkpt>
      <trkpt lat="46.45072" lon="5.42169">
        <ele>436.2</ele>
        <time>2022-06-12T10:17:24Z</time>
      </trkpt>
      <trkpt lat="46.45066" lon="5.42151">
        <ele>436.6</ele>
        <time>2022-06-12T10:17:27Z</time>
      </trkpt>
      <trkpt lat="46.45052" lon="5.42114">
        <ele>437.2</ele>
        <time>2022-06-12T10:17:33Z</time>
      </trkpt>
      <trkpt lat="46.45046" lon="5.42101">
        <ele>437.2</ele>
        <time>2022-06-12T10:17:35Z</time>
      </trkpt>
      <trkpt lat="46.45017" lon="5.42046">
        <ele>438.2</ele>
        <time>2022-06-12T10:17:44Z</time>
      </trkpt>
      <trkpt lat="46.4501" lon="5.42035">
        <ele>438</ele>
        <time>2022-06-12T10:17:46Z</time>
      </trkpt>
      <trkpt lat="46.4499" lon="5.42003">
        <ele>438.6</ele>
        <time>2022-06-12T10:17:52Z</time>
      </trkpt>
      <trkpt lat="46.44987" lon="5.41998">
        <ele>439</ele>
        <time>2022-06-12T10:17:53Z</time>
      </trkpt>
      <trkpt lat="46.44984" lon="5.41993">
        <ele>439.2</ele>
        <time>2022-06-12T10:17:54Z</time>
      </trkpt>
      <trkpt lat="46.44968" lon="5.41966">
        <ele>439.8</ele>
        <time>2022-06-12T10:17:59Z</time>
      </trkpt>
      <trkpt lat="46.44963" lon="5.41954">
        <ele>440.4</ele>
        <time>2022-06-12T10:18:01Z</time>
      </trkpt>
      <trkpt lat="46.44959" lon="5.41941">
        <ele>440.8</ele>
        <time>2022-06-12T10:18:03Z</time>
      </trkpt>
      <trkpt lat="46.44958" lon="5.41928">
        <ele>441.4</ele>
        <time>2022-06-12T10:18:05Z</time>
      </trkpt>
      <trkpt lat="46.44958" lon="5.41921">
        <ele>441.4</ele>
        <time>2022-06-12T10:18:06Z</time>
      </trkpt>
      <trkpt lat="46.44958" lon="5.41914">
        <ele>441.6</ele>
        <time>2022-06-12T10:18:07Z</time>
      </trkpt>
      <trkpt lat="46.44963" lon="5.41884">
        <ele>442.2</ele>
        <time>2022-06-12T10:18:11Z</time>
      </trkpt>
      <trkpt lat="46.44966" lon="5.41877">
        <ele>442.4</ele>
        <time>2022-06-12T10:18:12Z</time>
      </trkpt>
      <trkpt lat="46.4498" lon="5.41839">
        <ele>443</ele>
        <time>2022-06-12T10:18:18Z</time>
      </trkpt>
      <trkpt lat="46.44986" lon="5.41828">
        <ele>443.4</ele>
        <time>2022-06-12T10:18:20Z</time>
      </trkpt>
      <trkpt lat="46.4499" lon="5.41823">
        <ele>443.6</ele>
        <time>2022-06-12T10:18:21Z</time>
      </trkpt>
      <trkpt lat="46.44997" lon="5.41815">
        <ele>443.8</ele>
        <time>2022-06-12T10:18:23Z</time>
      </trkpt>
      <trkpt lat="46.45006" lon="5.41809">
        <ele>444</ele>
        <time>2022-06-12T10:18:25Z</time>
      </trkpt>
      <trkpt lat="46.45021" lon="5.41804">
        <ele>444.4</ele>
        <time>2022-06-12T10:18:28Z</time>
      </trkpt>
      <trkpt lat="46.45027" lon="5.41804">
        <ele>444.6</ele>
        <time>2022-06-12T10:18:29Z</time>
      </trkpt>
      <trkpt lat="46.45032" lon="5.41804">
        <ele>444.8</ele>
        <time>2022-06-12T10:18:30Z</time>
      </trkpt>
      <trkpt lat="46.45047" lon="5.41808">
        <ele>445</ele>
        <time>2022-06-12T10:18:33Z</time>
      </trkpt>
      <trkpt lat="46.45089" lon="5.41814">
        <ele>445.2</ele>
        <time>2022-06-12T10:18:40Z</time>
      </trkpt>
      <trkpt lat="46.45128" lon="5.41807">
        <ele>444.8</ele>
        <time>2022-06-12T10:18:46Z</time>
      </trkpt>
      <trkpt lat="46.45163" lon="5.41786">
        <ele>444.2</ele>
        <time>2022-06-12T10:18:52Z</time>
      </trkpt>
      <trkpt lat="46.45168" lon="5.41781">
        <ele>444.2</ele>
        <time>2022-06-12T10:18:53Z</time>
      </trkpt>
      <trkpt lat="46.45186" lon="5.41757">
        <ele>444.2</ele>
        <time>2022-06-12T10:18:57Z</time>
      </trkpt>
      <trkpt lat="46.45209" lon="5.41709">
        <ele>444.6</ele>
        <time>2022-06-12T10:19:04Z</time>
      </trkpt>
      <trkpt lat="46.45229" lon="5.41644">
        <ele>445.6</ele>
        <time>2022-06-12T10:19:13Z</time>
      </trkpt>
      <trkpt lat="46.45234" lon="5.41615">
        <ele>446.2</ele>
        <time>2022-06-12T10:19:17Z</time>
      </trkpt>
      <trkpt lat="46.45236" lon="5.41601">
        <ele>446.8</ele>
        <time>2022-06-12T10:19:19Z</time>
      </trkpt>
      <trkpt lat="46.45237" lon="5.41596">
        <ele>447</ele>
        <time>2022-06-12T10:19:20Z</time>
      </trkpt>
      <trkpt lat="46.45244" lon="5.41572">
        <ele>447.4</ele>
        <time>2022-06-12T10:19:23Z</time>
      </trkpt>
      <trkpt lat="46.4525" lon="5.41558">
        <ele>447.8</ele>
        <time>2022-06-12T10:19:25Z</time>
      </trkpt>
      <trkpt lat="46.45253" lon="5.41553">
        <ele>447.8</ele>
        <time>2022-06-12T10:19:26Z</time>
      </trkpt>
      <trkpt lat="46.45258" lon="5.41546">
        <ele>447.8</ele>
        <time>2022-06-12T10:19:27Z</time>
      </trkpt>
      <trkpt lat="46.45267" lon="5.41538">
        <ele>448</ele>
        <time>2022-06-12T10:19:29Z</time>
      </trkpt>
      <trkpt lat="46.45272" lon="5.41534">
        <ele>448.2</ele>
        <time>2022-06-12T10:19:30Z</time>
      </trkpt>
      <trkpt lat="46.45283" lon="5.41529">
        <ele>448.4</ele>
        <time>2022-06-12T10:19:32Z</time>
      </trkpt>
      <trkpt lat="46.45289" lon="5.41529">
        <ele>448.8</ele>
        <time>2022-06-12T10:19:33Z</time>
      </trkpt>
      <trkpt lat="46.45293" lon="5.41528">
        <ele>448.8</ele>
        <time>2022-06-12T10:19:34Z</time>
      </trkpt>
      <trkpt lat="46.45298" lon="5.41528">
        <ele>449</ele>
        <time>2022-06-12T10:19:35Z</time>
      </trkpt>
      <trkpt lat="46.45328" lon="5.41533">
        <ele>449.8</ele>
        <time>2022-06-12T10:19:41Z</time>
      </trkpt>
      <trkpt lat="46.45364" lon="5.41537">
        <ele>450.4</ele>
        <time>2022-06-12T10:19:48Z</time>
      </trkpt>
      <trkpt lat="46.45369" lon="5.41537">
        <ele>450.4</ele>
        <time>2022-06-12T10:19:49Z</time>
      </trkpt>
      <trkpt lat="46.45385" lon="5.41536">
        <ele>450.8</ele>
        <time>2022-06-12T10:19:52Z</time>
      </trkpt>
      <trkpt lat="46.45413" lon="5.41527">
        <ele>451.6</ele>
        <time>2022-06-12T10:19:58Z</time>
      </trkpt>
      <trkpt lat="46.45429" lon="5.41521">
        <ele>451.8</ele>
        <time>2022-06-12T10:20:01Z</time>
      </trkpt>
      <trkpt lat="46.45443" lon="5.41516">
        <ele>452.4</ele>
        <time>2022-06-12T10:20:04Z</time>
      </trkpt>
      <trkpt lat="46.45466" lon="5.41506">
        <ele>453</ele>
        <time>2022-06-12T10:20:09Z</time>
      </trkpt>
      <trkpt lat="46.455" lon="5.4149">
        <ele>454.2</ele>
        <time>2022-06-12T10:20:16Z</time>
      </trkpt>
      <trkpt lat="46.45515" lon="5.41483">
        <ele>454.6</ele>
        <time>2022-06-12T10:20:19Z</time>
      </trkpt>
      <trkpt lat="46.45564" lon="5.41453">
        <ele>455.2</ele>
        <time>2022-06-12T10:20:29Z</time>
      </trkpt>
      <trkpt lat="46.45568" lon="5.4145">
        <ele>455.4</ele>
        <time>2022-06-12T10:20:30Z</time>
      </trkpt>
      <trkpt lat="46.45594" lon="5.41421">
        <ele>455.4</ele>
        <time>2022-06-12T10:20:36Z</time>
      </trkpt>
      <trkpt lat="46.45617" lon="5.41381">
        <ele>455.8</ele>
        <time>2022-06-12T10:20:43Z</time>
      </trkpt>
      <trkpt lat="46.45626" lon="5.41361">
        <ele>456.2</ele>
        <time>2022-06-12T10:20:46Z</time>
      </trkpt>
      <trkpt lat="46.45629" lon="5.41355">
        <ele>456.2</ele>
        <time>2022-06-12T10:20:47Z</time>
      </trkpt>
      <trkpt lat="46.45634" lon="5.41345">
        <ele>456.4</ele>
        <time>2022-06-12T10:20:49Z</time>
      </trkpt>
      <trkpt lat="46.45648" lon="5.41321">
        <ele>457.2</ele>
        <time>2022-06-12T10:20:53Z</time>
      </trkpt>
      <trkpt lat="46.45659" lon="5.41306">
        <ele>457.4</ele>
        <time>2022-06-12T10:20:56Z</time>
      </trkpt>
      <trkpt lat="46.45692" lon="5.41264">
        <ele>457.6</ele>
        <time>2022-06-12T10:21:03Z</time>
      </trkpt>
      <trkpt lat="46.45696" lon="5.41258">
        <ele>457.6</ele>
        <time>2022-06-12T10:21:04Z</time>
      </trkpt>
      <trkpt lat="46.4574" lon="5.41208">
        <ele>457.2</ele>
        <time>2022-06-12T10:21:13Z</time>
      </trkpt>
      <trkpt lat="46.45745" lon="5.41202">
        <ele>457.2</ele>
        <time>2022-06-12T10:21:14Z</time>
      </trkpt>
      <trkpt lat="46.45758" lon="5.41182">
        <ele>457.4</ele>
        <time>2022-06-12T10:21:17Z</time>
      </trkpt>
      <trkpt lat="46.45763" lon="5.41167">
        <ele>457.6</ele>
        <time>2022-06-12T10:21:19Z</time>
      </trkpt>
      <trkpt lat="46.45776" lon="5.41122">
        <ele>458.2</ele>
        <time>2022-06-12T10:21:25Z</time>
      </trkpt>
      <trkpt lat="46.45794" lon="5.41048">
        <ele>458.2</ele>
        <time>2022-06-12T10:21:35Z</time>
      </trkpt>
      <trkpt lat="46.45796" lon="5.41041">
        <ele>458.4</ele>
        <time>2022-06-12T10:21:36Z</time>
      </trkpt>
      <trkpt lat="46.45813" lon="5.40984">
        <ele>458.8</ele>
        <time>2022-06-12T10:21:44Z</time>
      </trkpt>
      <trkpt lat="46.45827" lon="5.4092">
        <ele>459</ele>
        <time>2022-06-12T10:21:53Z</time>
      </trkpt>
      <trkpt lat="46.45833" lon="5.40891">
        <ele>459.4</ele>
        <time>2022-06-12T10:21:57Z</time>
      </trkpt>
      <trkpt lat="46.45841" lon="5.40843">
        <ele>459.4</ele>
        <time>2022-06-12T10:22:03Z</time>
      </trkpt>
      <trkpt lat="46.45849" lon="5.40759">
        <ele>459.6</ele>
        <time>2022-06-12T10:22:13Z</time>
      </trkpt>
      <trkpt lat="46.45849" lon="5.4075">
        <ele>459.6</ele>
        <time>2022-06-12T10:22:14Z</time>
      </trkpt>
      <trkpt lat="46.45853" lon="5.40725">
        <ele>459.8</ele>
        <time>2022-06-12T10:22:17Z</time>
      </trkpt>
      <trkpt lat="46.45859" lon="5.40703">
        <ele>460.2</ele>
        <time>2022-06-12T10:22:20Z</time>
      </trkpt>
      <trkpt lat="46.45866" lon="5.40685">
        <ele>460.4</ele>
        <time>2022-06-12T10:22:23Z</time>
      </trkpt>
      <trkpt lat="46.4587" lon="5.40674">
        <ele>460.8</ele>
        <time>2022-06-12T10:22:25Z</time>
      </trkpt>
      <trkpt lat="46.45879" lon="5.40653">
        <ele>461.6</ele>
        <time>2022-06-12T10:22:29Z</time>
      </trkpt>
      <trkpt lat="46.45885" lon="5.4064">
        <ele>462.2</ele>
        <time>2022-06-12T10:22:32Z</time>
      </trkpt>
      <trkpt lat="46.45889" lon="5.40632">
        <ele>462.8</ele>
        <time>2022-06-12T10:22:34Z</time>
      </trkpt>
      <trkpt lat="46.45897" lon="5.40616">
        <ele>464.4</ele>
        <time>2022-06-12T10:22:38Z</time>
      </trkpt>
      <trkpt lat="46.45898" lon="5.40612">
        <ele>465</ele>
        <time>2022-06-12T10:22:39Z</time>
      </trkpt>
      <trkpt lat="46.45901" lon="5.40603">
        <ele>465.4</ele>
        <time>2022-06-12T10:22:41Z</time>
      </trkpt>
      <trkpt lat="46.45909" lon="5.40582">
        <ele>466.8</ele>
        <time>2022-06-12T10:22:46Z</time>
      </trkpt>
      <trkpt lat="46.45911" lon="5.40578">
        <ele>467</ele>
        <time>2022-06-12T10:22:47Z</time>
      </trkpt>
      <trkpt lat="46.45916" lon="5.40567">
        <ele>468</ele>
        <time>2022-06-12T10:22:50Z</time>
      </trkpt>
      <trkpt lat="46.45922" lon="5.40556">
        <ele>468.6</ele>
        <time>2022-06-12T10:22:53Z</time>
      </trkpt>
      <trkpt lat="46.45927" lon="5.40546">
        <ele>469.2</ele>
        <time>2022-06-12T10:22:56Z</time>
      </trkpt>
      <trkpt lat="46.45937" lon="5.40528">
        <ele>470.2</ele>
        <time>2022-06-12T10:23:01Z</time>
      </trkpt>
      <trkpt lat="46.45939" lon="5.40525">
        <ele>470.6</ele>
        <time>2022-06-12T10:23:02Z</time>
      </trkpt>
      <trkpt lat="46.45946" lon="5.40513">
        <ele>471.4</ele>
        <time>2022-06-12T10:23:06Z</time>
      </trkpt>
      <trkpt lat="46.45957" lon="5.40498">
        <ele>472.4</ele>
        <time>2022-06-12T10:23:11Z</time>
      </trkpt>
      <trkpt lat="46.45959" lon="5.40495">
        <ele>472.6</ele>
        <time>2022-06-12T10:23:12Z</time>
      </trkpt>
      <trkpt lat="46.45967" lon="5.40482">
        <ele>473.6</ele>
        <time>2022-06-12T10:23:16Z</time>
      </trkpt>
      <trkpt lat="46.45977" lon="5.40466">
        <ele>475</ele>
        <time>2022-06-12T10:23:21Z</time>
      </trkpt>
      <trkpt lat="46.45988" lon="5.40446">
        <ele>476</ele>
        <time>2022-06-12T10:23:27Z</time>
      </trkpt>
      <trkpt lat="46.45995" lon="5.40432">
        <ele>477</ele>
        <time>2022-06-12T10:23:31Z</time>
      </trkpt>
      <trkpt lat="46.45996" lon="5.40429">
        <ele>477.2</ele>
        <time>2022-06-12T10:23:32Z</time>
      </trkpt>
      <trkpt lat="46.46005" lon="5.4041">
        <ele>478.2</ele>
        <time>2022-06-12T10:23:37Z</time>
      </trkpt>
      <trkpt lat="46.46006" lon="5.40406">
        <ele>478.2</ele>
        <time>2022-06-12T10:23:38Z</time>
      </trkpt>
      <trkpt lat="46.46007" lon="5.40403">
        <ele>478.6</ele>
        <time>2022-06-12T10:23:39Z</time>
      </trkpt>
      <trkpt lat="46.46011" lon="5.40392">
        <ele>479.4</ele>
        <time>2022-06-12T10:23:42Z</time>
      </trkpt>
      <trkpt lat="46.46018" lon="5.40378">
        <ele>480</ele>
        <time>2022-06-12T10:23:46Z</time>
      </trkpt>
      <trkpt lat="46.46022" lon="5.40368">
        <ele>480.6</ele>
        <time>2022-06-12T10:23:49Z</time>
      </trkpt>
      <trkpt lat="46.46029" lon="5.40354">
        <ele>481.4</ele>
        <time>2022-06-12T10:23:53Z</time>
      </trkpt>
      <trkpt lat="46.46033" lon="5.40348">
        <ele>481.8</ele>
        <time>2022-06-12T10:23:55Z</time>
      </trkpt>
      <trkpt lat="46.46046" lon="5.40336">
        <ele>482.8</ele>
        <time>2022-06-12T10:24:00Z</time>
      </trkpt>
      <trkpt lat="46.46048" lon="5.40334">
        <ele>483</ele>
        <time>2022-06-12T10:24:01Z</time>
      </trkpt>
      <trkpt lat="46.46065" lon="5.40324">
        <ele>483.6</ele>
        <time>2022-06-12T10:24:07Z</time>
      </trkpt>
      <trkpt lat="46.46079" lon="5.40318">
        <ele>484.8</ele>
        <time>2022-06-12T10:24:12Z</time>
      </trkpt>
      <trkpt lat="46.46094" lon="5.40311">
        <ele>485.8</ele>
        <time>2022-06-12T10:24:17Z</time>
      </trkpt>
      <trkpt lat="46.46106" lon="5.40304">
        <ele>486.4</ele>
        <time>2022-06-12T10:24:22Z</time>
      </trkpt>
      <trkpt lat="46.46111" lon="5.403">
        <ele>487</ele>
        <time>2022-06-12T10:24:24Z</time>
      </trkpt>
      <trkpt lat="46.46126" lon="5.40285">
        <ele>488.2</ele>
        <time>2022-06-12T10:24:29Z</time>
      </trkpt>
      <trkpt lat="46.46131" lon="5.40278">
        <ele>488.6</ele>
        <time>2022-06-12T10:24:31Z</time>
      </trkpt>
      <trkpt lat="46.46141" lon="5.40262">
        <ele>489.4</ele>
        <time>2022-06-12T10:24:35Z</time>
      </trkpt>
      <trkpt lat="46.46152" lon="5.40244">
        <ele>490</ele>
        <time>2022-06-12T10:24:39Z</time>
      </trkpt>
      <trkpt lat="46.46161" lon="5.40228">
        <ele>490.6</ele>
        <time>2022-06-12T10:24:43Z</time>
      </trkpt>
      <trkpt lat="46.46174" lon="5.40204">
        <ele>491.6</ele>
        <time>2022-06-12T10:24:49Z</time>
      </trkpt>
      <trkpt lat="46.46176" lon="5.402">
        <ele>491.8</ele>
        <time>2022-06-12T10:24:50Z</time>
      </trkpt>
      <trkpt lat="46.46194" lon="5.40165">
        <ele>492.8</ele>
        <time>2022-06-12T10:24:58Z</time>
      </trkpt>
      <trkpt lat="46.46197" lon="5.40161">
        <ele>493</ele>
        <time>2022-06-12T10:24:59Z</time>
      </trkpt>
      <trkpt lat="46.46212" lon="5.40138">
        <ele>493.8</ele>
        <time>2022-06-12T10:25:04Z</time>
      </trkpt>
      <trkpt lat="46.46224" lon="5.40125">
        <ele>494.2</ele>
        <time>2022-06-12T10:25:07Z</time>
      </trkpt>
      <trkpt lat="46.46253" lon="5.40097">
        <ele>494.4</ele>
        <time>2022-06-12T10:25:14Z</time>
      </trkpt>
      <trkpt lat="46.4627" lon="5.4009">
        <ele>494.8</ele>
        <time>2022-06-12T10:25:18Z</time>
      </trkpt>
      <trkpt lat="46.46279" lon="5.4009">
        <ele>495</ele>
        <time>2022-06-12T10:25:20Z</time>
      </trkpt>
      <trkpt lat="46.46302" lon="5.40094">
        <ele>496</ele>
        <time>2022-06-12T10:25:26Z</time>
      </trkpt>
      <trkpt lat="46.46306" lon="5.40094">
        <ele>496</ele>
        <time>2022-06-12T10:25:27Z</time>
      </trkpt>
      <trkpt lat="46.46321" lon="5.40095">
        <ele>497.2</ele>
        <time>2022-06-12T10:25:31Z</time>
      </trkpt>
      <trkpt lat="46.46333" lon="5.40094">
        <ele>498.2</ele>
        <time>2022-06-12T10:25:34Z</time>
      </trkpt>
      <trkpt lat="46.46341" lon="5.40094">
        <ele>498.6</ele>
        <time>2022-06-12T10:25:36Z</time>
      </trkpt>
      <trkpt lat="46.46362" lon="5.4009">
        <ele>499.2</ele>
        <time>2022-06-12T10:25:41Z</time>
      </trkpt>
      <trkpt lat="46.4638" lon="5.40088">
        <ele>499.6</ele>
        <time>2022-06-12T10:25:45Z</time>
      </trkpt>
      <trkpt lat="46.46397" lon="5.40085">
        <ele>500</ele>
        <time>2022-06-12T10:25:49Z</time>
      </trkpt>
      <trkpt lat="46.46412" lon="5.40081">
        <ele>500.6</ele>
        <time>2022-06-12T10:25:53Z</time>
      </trkpt>
      <trkpt lat="46.46428" lon="5.40078">
        <ele>501</ele>
        <time>2022-06-12T10:25:57Z</time>
      </trkpt>
      <trkpt lat="46.46439" lon="5.40076">
        <ele>501.6</ele>
        <time>2022-06-12T10:26:00Z</time>
      </trkpt>
      <trkpt lat="46.46464" lon="5.40072">
        <ele>502.6</ele>
        <time>2022-06-12T10:26:06Z</time>
      </trkpt>
      <trkpt lat="46.46477" lon="5.4007">
        <ele>502.8</ele>
        <time>2022-06-12T10:26:09Z</time>
      </trkpt>
      <trkpt lat="46.46506" lon="5.40073">
        <ele>503.2</ele>
        <time>2022-06-12T10:26:16Z</time>
      </trkpt>
      <trkpt lat="46.46528" lon="5.40083">
        <ele>503.6</ele>
        <time>2022-06-12T10:26:21Z</time>
      </trkpt>
      <trkpt lat="46.46541" lon="5.40089">
        <ele>503.8</ele>
        <time>2022-06-12T10:26:24Z</time>
      </trkpt>
      <trkpt lat="46.46565" lon="5.40101">
        <ele>504.6</ele>
        <time>2022-06-12T10:26:30Z</time>
      </trkpt>
      <trkpt lat="46.46585" lon="5.40112">
        <ele>505.4</ele>
        <time>2022-06-12T10:26:35Z</time>
      </trkpt>
      <trkpt lat="46.46592" lon="5.40116">
        <ele>505.8</ele>
        <time>2022-06-12T10:26:37Z</time>
      </trkpt>
      <trkpt lat="46.46617" lon="5.40129">
        <ele>506.8</ele>
        <time>2022-06-12T10:26:44Z</time>
      </trkpt>
      <trkpt lat="46.46621" lon="5.40131">
        <ele>507</ele>
        <time>2022-06-12T10:26:45Z</time>
      </trkpt>
      <trkpt lat="46.46641" lon="5.40142">
        <ele>508.2</ele>
        <time>2022-06-12T10:26:51Z</time>
      </trkpt>
      <trkpt lat="46.46657" lon="5.4015">
        <ele>509</ele>
        <time>2022-06-12T10:26:56Z</time>
      </trkpt>
      <trkpt lat="46.46663" lon="5.40153">
        <ele>509.2</ele>
        <time>2022-06-12T10:26:58Z</time>
      </trkpt>
      <trkpt lat="46.46676" lon="5.40158">
        <ele>510.2</ele>
        <time>2022-06-12T10:27:02Z</time>
      </trkpt>
      <trkpt lat="46.46692" lon="5.40168">
        <ele>511.4</ele>
        <time>2022-06-12T10:27:07Z</time>
      </trkpt>
      <trkpt lat="46.46698" lon="5.40171">
        <ele>511.8</ele>
        <time>2022-06-12T10:27:09Z</time>
      </trkpt>
      <trkpt lat="46.46705" lon="5.40174">
        <ele>512.6</ele>
        <time>2022-06-12T10:27:11Z</time>
      </trkpt>
      <trkpt lat="46.4672" lon="5.40181">
        <ele>513.4</ele>
        <time>2022-06-12T10:27:16Z</time>
      </trkpt>
      <trkpt lat="46.46723" lon="5.40183">
        <ele>513.6</ele>
        <time>2022-06-12T10:27:17Z</time>
      </trkpt>
      <trkpt lat="46.46745" lon="5.40193">
        <ele>514.8</ele>
        <time>2022-06-12T10:27:24Z</time>
      </trkpt>
      <trkpt lat="46.46749" lon="5.40195">
        <ele>515</ele>
        <time>2022-06-12T10:27:25Z</time>
      </trkpt>
      <trkpt lat="46.4676" lon="5.40202">
        <ele>516</ele>
        <time>2022-06-12T10:27:29Z</time>
      </trkpt>
      <trkpt lat="46.46772" lon="5.40207">
        <ele>516.6</ele>
        <time>2022-06-12T10:27:33Z</time>
      </trkpt>
      <trkpt lat="46.46775" lon="5.40209">
        <ele>516.8</ele>
        <time>2022-06-12T10:27:34Z</time>
      </trkpt>
      <trkpt lat="46.46777" lon="5.40211">
        <ele>517</ele>
        <time>2022-06-12T10:27:35Z</time>
      </trkpt>
      <trkpt lat="46.46796" lon="5.40221">
        <ele>518</ele>
        <time>2022-06-12T10:27:41Z</time>
      </trkpt>
      <trkpt lat="46.468" lon="5.40223">
        <ele>518.4</ele>
        <time>2022-06-12T10:27:42Z</time>
      </trkpt>
      <trkpt lat="46.46813" lon="5.40229">
        <ele>519</ele>
        <time>2022-06-12T10:27:46Z</time>
      </trkpt>
      <trkpt lat="46.46832" lon="5.40239">
        <ele>520</ele>
        <time>2022-06-12T10:27:52Z</time>
      </trkpt>
      <trkpt lat="46.46839" lon="5.40242">
        <ele>520.2</ele>
        <time>2022-06-12T10:27:54Z</time>
      </trkpt>
      <trkpt lat="46.46856" lon="5.4025">
        <ele>521.2</ele>
        <time>2022-06-12T10:27:59Z</time>
      </trkpt>
      <trkpt lat="46.46869" lon="5.40257">
        <ele>521.8</ele>
        <time>2022-06-12T10:28:03Z</time>
      </trkpt>
      <trkpt lat="46.46874" lon="5.4026">
        <ele>522.4</ele>
        <time>2022-06-12T10:28:05Z</time>
      </trkpt>
      <trkpt lat="46.46879" lon="5.40262">
        <ele>523.2</ele>
        <time>2022-06-12T10:28:08Z</time>
      </trkpt>
      <trkpt lat="46.46879" lon="5.40262">
        <ele>523.6</ele>
        <time>2022-06-12T10:28:12Z</time>
      </trkpt>
      <trkpt lat="46.46885" lon="5.40265">
        <ele>524.2</ele>
        <time>2022-06-12T10:28:58Z</time>
      </trkpt>
      <trkpt lat="46.46889" lon="5.40267">
        <ele>524.2</ele>
        <time>2022-06-12T10:28:59Z</time>
      </trkpt>
      <trkpt lat="46.46912" lon="5.40277">
        <ele>524.2</ele>
        <time>2022-06-12T10:29:04Z</time>
      </trkpt>
      <trkpt lat="46.46922" lon="5.40282">
        <ele>524.4</ele>
        <time>2022-06-12T10:29:06Z</time>
      </trkpt>
      <trkpt lat="46.46936" lon="5.40289">
        <ele>524.8</ele>
        <time>2022-06-12T10:29:09Z</time>
      </trkpt>
      <trkpt lat="46.46944" lon="5.40295">
        <ele>525</ele>
        <time>2022-06-12T10:29:11Z</time>
      </trkpt>
      <trkpt lat="46.46952" lon="5.40299">
        <ele>525.6</ele>
        <time>2022-06-12T10:29:13Z</time>
      </trkpt>
      <trkpt lat="46.46961" lon="5.40303">
        <ele>526.2</ele>
        <time>2022-06-12T10:29:15Z</time>
      </trkpt>
      <trkpt lat="46.4697" lon="5.40307">
        <ele>526.4</ele>
        <time>2022-06-12T10:29:17Z</time>
      </trkpt>
      <trkpt lat="46.46974" lon="5.40308">
        <ele>526.8</ele>
        <time>2022-06-12T10:29:18Z</time>
      </trkpt>
      <trkpt lat="46.46988" lon="5.40313">
        <ele>527</ele>
        <time>2022-06-12T10:29:21Z</time>
      </trkpt>
      <trkpt lat="46.46998" lon="5.40316">
        <ele>528</ele>
        <time>2022-06-12T10:29:23Z</time>
      </trkpt>
      <trkpt lat="46.47026" lon="5.40321">
        <ele>528.8</ele>
        <time>2022-06-12T10:29:29Z</time>
      </trkpt>
      <trkpt lat="46.47061" lon="5.40323">
        <ele>528.6</ele>
        <time>2022-06-12T10:29:35Z</time>
      </trkpt>
      <trkpt lat="46.47095" lon="5.40327">
        <ele>527.8</ele>
        <time>2022-06-12T10:29:40Z</time>
      </trkpt>
      <trkpt lat="46.47127" lon="5.40331">
        <ele>527.4</ele>
        <time>2022-06-12T10:29:44Z</time>
      </trkpt>
      <trkpt lat="46.47153" lon="5.40338">
        <ele>526.6</ele>
        <time>2022-06-12T10:29:47Z</time>
      </trkpt>
      <trkpt lat="46.47172" lon="5.40345">
        <ele>525.6</ele>
        <time>2022-06-12T10:29:49Z</time>
      </trkpt>
      <trkpt lat="46.47182" lon="5.4035">
        <ele>525.6</ele>
        <time>2022-06-12T10:29:50Z</time>
      </trkpt>
      <trkpt lat="46.47191" lon="5.40357">
        <ele>525.2</ele>
        <time>2022-06-12T10:29:51Z</time>
      </trkpt>
      <trkpt lat="46.47206" lon="5.40376">
        <ele>524.2</ele>
        <time>2022-06-12T10:29:53Z</time>
      </trkpt>
      <trkpt lat="46.47229" lon="5.40408">
        <ele>523.2</ele>
        <time>2022-06-12T10:29:56Z</time>
      </trkpt>
      <trkpt lat="46.47239" lon="5.40416">
        <ele>523</ele>
        <time>2022-06-12T10:29:57Z</time>
      </trkpt>
      <trkpt lat="46.47262" lon="5.40426">
        <ele>521.8</ele>
        <time>2022-06-12T10:29:59Z</time>
      </trkpt>
      <trkpt lat="46.47273" lon="5.4043">
        <ele>521.2</ele>
        <time>2022-06-12T10:30:00Z</time>
      </trkpt>
      <trkpt lat="46.47297" lon="5.40438">
        <ele>520.2</ele>
        <time>2022-06-12T10:30:02Z</time>
      </trkpt>
      <trkpt lat="46.47334" lon="5.40443">
        <ele>518.6</ele>
        <time>2022-06-12T10:30:05Z</time>
      </trkpt>
      <trkpt lat="46.47346" lon="5.40444">
        <ele>518.2</ele>
        <time>2022-06-12T10:30:06Z</time>
      </trkpt>
      <trkpt lat="46.47358" lon="5.40445">
        <ele>517.4</ele>
        <time>2022-06-12T10:30:07Z</time>
      </trkpt>
      <trkpt lat="46.47382" lon="5.40446">
        <ele>516.2</ele>
        <time>2022-06-12T10:30:09Z</time>
      </trkpt>
      <trkpt lat="46.47406" lon="5.40443">
        <ele>515.2</ele>
        <time>2022-06-12T10:30:11Z</time>
      </trkpt>
      <trkpt lat="46.47429" lon="5.4044">
        <ele>514.2</ele>
        <time>2022-06-12T10:30:13Z</time>
      </trkpt>
      <trkpt lat="46.47452" lon="5.40442">
        <ele>512.8</ele>
        <time>2022-06-12T10:30:15Z</time>
      </trkpt>
      <trkpt lat="46.47464" lon="5.40446">
        <ele>512.2</ele>
        <time>2022-06-12T10:30:16Z</time>
      </trkpt>
      <trkpt lat="46.47485" lon="5.40453">
        <ele>511.6</ele>
        <time>2022-06-12T10:30:18Z</time>
      </trkpt>
      <trkpt lat="46.47495" lon="5.40459">
        <ele>511</ele>
        <time>2022-06-12T10:30:19Z</time>
      </trkpt>
      <trkpt lat="46.47503" lon="5.40467">
        <ele>510.2</ele>
        <time>2022-06-12T10:30:20Z</time>
      </trkpt>
      <trkpt lat="46.4751" lon="5.40476">
        <ele>508.6</ele>
        <time>2022-06-12T10:30:21Z</time>
      </trkpt>
      <trkpt lat="46.47518" lon="5.40483">
        <ele>508</ele>
        <time>2022-06-12T10:30:22Z</time>
      </trkpt>
      <trkpt lat="46.47527" lon="5.40487">
        <ele>507.4</ele>
        <time>2022-06-12T10:30:23Z</time>
      </trkpt>
      <trkpt lat="46.47534" lon="5.4049">
        <ele>507</ele>
        <time>2022-06-12T10:30:24Z</time>
      </trkpt>
      <trkpt lat="46.47549" lon="5.40499">
        <ele>506.6</ele>
        <time>2022-06-12T10:30:26Z</time>
      </trkpt>
      <trkpt lat="46.47558" lon="5.40502">
        <ele>505.8</ele>
        <time>2022-06-12T10:30:27Z</time>
      </trkpt>
      <trkpt lat="46.47569" lon="5.40502">
        <ele>504.4</ele>
        <time>2022-06-12T10:30:28Z</time>
      </trkpt>
      <trkpt lat="46.47584" lon="5.40504">
        <ele>504</ele>
        <time>2022-06-12T10:30:29Z</time>
      </trkpt>
      <trkpt lat="46.4757" lon="5.40436">
        <ele>503.2</ele>
        <time>2022-06-12T10:30:30Z</time>
      </trkpt>
      <trkpt lat="46.47558" lon="5.40388">
        <ele>502.2</ele>
        <time>2022-06-12T10:30:32Z</time>
      </trkpt>
      <trkpt lat="46.47556" lon="5.40369">
        <ele>501.4</ele>
        <time>2022-06-12T10:30:33Z</time>
      </trkpt>
      <trkpt lat="46.47548" lon="5.40348">
        <ele>501.2</ele>
        <time>2022-06-12T10:30:34Z</time>
      </trkpt>
      <trkpt lat="46.47543" lon="5.40331">
        <ele>500.8</ele>
        <time>2022-06-12T10:30:35Z</time>
      </trkpt>
      <trkpt lat="46.47544" lon="5.40314">
        <ele>500.6</ele>
        <time>2022-06-12T10:30:36Z</time>
      </trkpt>
      <trkpt lat="46.47549" lon="5.40301">
        <ele>500</ele>
        <time>2022-06-12T10:30:37Z</time>
      </trkpt>
      <trkpt lat="46.47564" lon="5.4028">
        <ele>499.2</ele>
        <time>2022-06-12T10:30:39Z</time>
      </trkpt>
      <trkpt lat="46.47574" lon="5.4027">
        <ele>498.8</ele>
        <time>2022-06-12T10:30:40Z</time>
      </trkpt>
      <trkpt lat="46.47593" lon="5.4026">
        <ele>497.4</ele>
        <time>2022-06-12T10:30:42Z</time>
      </trkpt>
      <trkpt lat="46.47614" lon="5.40255">
        <ele>495.8</ele>
        <time>2022-06-12T10:30:44Z</time>
      </trkpt>
      <trkpt lat="46.47635" lon="5.40249">
        <ele>494.8</ele>
        <time>2022-06-12T10:30:46Z</time>
      </trkpt>
      <trkpt lat="46.47647" lon="5.40247">
        <ele>494.2</ele>
        <time>2022-06-12T10:30:47Z</time>
      </trkpt>
      <trkpt lat="46.47678" lon="5.40247">
        <ele>492.6</ele>
        <time>2022-06-12T10:30:50Z</time>
      </trkpt>
      <trkpt lat="46.47687" lon="5.40246">
        <ele>491.8</ele>
        <time>2022-06-12T10:30:51Z</time>
      </trkpt>
      <trkpt lat="46.47696" lon="5.40243">
        <ele>491.4</ele>
        <time>2022-06-12T10:30:52Z</time>
      </trkpt>
      <trkpt lat="46.47704" lon="5.4024">
        <ele>491.2</ele>
        <time>2022-06-12T10:30:53Z</time>
      </trkpt>
      <trkpt lat="46.47716" lon="5.40228">
        <ele>490.2</ele>
        <time>2022-06-12T10:30:55Z</time>
      </trkpt>
      <trkpt lat="46.47721" lon="5.4022">
        <ele>489.2</ele>
        <time>2022-06-12T10:30:56Z</time>
      </trkpt>
      <trkpt lat="46.47725" lon="5.40209">
        <ele>489</ele>
        <time>2022-06-12T10:30:57Z</time>
      </trkpt>
      <trkpt lat="46.47742" lon="5.40183">
        <ele>487.6</ele>
        <time>2022-06-12T10:30:59Z</time>
      </trkpt>
      <trkpt lat="46.47757" lon="5.4016">
        <ele>487</ele>
        <time>2022-06-12T10:31:01Z</time>
      </trkpt>
      <trkpt lat="46.47763" lon="5.40147">
        <ele>486.8</ele>
        <time>2022-06-12T10:31:02Z</time>
      </trkpt>
      <trkpt lat="46.47766" lon="5.40131">
        <ele>486</ele>
        <time>2022-06-12T10:31:03Z</time>
      </trkpt>
      <trkpt lat="46.47769" lon="5.40092">
        <ele>484.8</ele>
        <time>2022-06-12T10:31:05Z</time>
      </trkpt>
      <trkpt lat="46.47769" lon="5.40058">
        <ele>483.8</ele>
        <time>2022-06-12T10:31:07Z</time>
      </trkpt>
      <trkpt lat="46.47767" lon="5.40042">
        <ele>483</ele>
        <time>2022-06-12T10:31:08Z</time>
      </trkpt>
      <trkpt lat="46.47772" lon="5.40017">
        <ele>482.2</ele>
        <time>2022-06-12T10:31:10Z</time>
      </trkpt>
      <trkpt lat="46.47784" lon="5.39997">
        <ele>481.4</ele>
        <time>2022-06-12T10:31:12Z</time>
      </trkpt>
      <trkpt lat="46.47793" lon="5.39991">
        <ele>480.6</ele>
        <time>2022-06-12T10:31:13Z</time>
      </trkpt>
      <trkpt lat="46.47804" lon="5.39986">
        <ele>480.2</ele>
        <time>2022-06-12T10:31:14Z</time>
      </trkpt>
      <trkpt lat="46.47815" lon="5.39982">
        <ele>479.6</ele>
        <time>2022-06-12T10:31:15Z</time>
      </trkpt>
      <trkpt lat="46.47838" lon="5.39972">
        <ele>478.4</ele>
        <time>2022-06-12T10:31:17Z</time>
      </trkpt>
      <trkpt lat="46.4786" lon="5.3996">
        <ele>477.4</ele>
        <time>2022-06-12T10:31:19Z</time>
      </trkpt>
      <trkpt lat="46.47881" lon="5.39948">
        <ele>476</ele>
        <time>2022-06-12T10:31:21Z</time>
      </trkpt>
      <trkpt lat="46.47903" lon="5.39935">
        <ele>474.6</ele>
        <time>2022-06-12T10:31:23Z</time>
      </trkpt>
      <trkpt lat="46.47915" lon="5.39929">
        <ele>473.8</ele>
        <time>2022-06-12T10:31:24Z</time>
      </trkpt>
      <trkpt lat="46.47926" lon="5.39923">
        <ele>473.4</ele>
        <time>2022-06-12T10:31:25Z</time>
      </trkpt>
      <trkpt lat="46.47948" lon="5.3991">
        <ele>471.6</ele>
        <time>2022-06-12T10:31:27Z</time>
      </trkpt>
      <trkpt lat="46.4797" lon="5.39898">
        <ele>470.6</ele>
        <time>2022-06-12T10:31:29Z</time>
      </trkpt>
      <trkpt lat="46.47991" lon="5.39889">
        <ele>469.4</ele>
        <time>2022-06-12T10:31:31Z</time>
      </trkpt>
      <trkpt lat="46.48001" lon="5.39884">
        <ele>469.2</ele>
        <time>2022-06-12T10:31:32Z</time>
      </trkpt>
      <trkpt lat="46.48012" lon="5.39882">
        <ele>468.8</ele>
        <time>2022-06-12T10:31:33Z</time>
      </trkpt>
      <trkpt lat="46.48032" lon="5.39885">
        <ele>468.6</ele>
        <time>2022-06-12T10:31:35Z</time>
      </trkpt>
      <trkpt lat="46.4806" lon="5.39901">
        <ele>468.4</ele>
        <time>2022-06-12T10:31:38Z</time>
      </trkpt>
      <trkpt lat="46.48069" lon="5.39905">
        <ele>468.2</ele>
        <time>2022-06-12T10:31:39Z</time>
      </trkpt>
      <trkpt lat="46.48088" lon="5.39909">
        <ele>468.2</ele>
        <time>2022-06-12T10:31:41Z</time>
      </trkpt>
      <trkpt lat="46.48097" lon="5.39908">
        <ele>468.2</ele>
        <time>2022-06-12T10:31:42Z</time>
      </trkpt>
      <trkpt lat="46.48151" lon="5.39893">
        <ele>468</ele>
        <time>2022-06-12T10:31:48Z</time>
      </trkpt>
      <trkpt lat="46.48193" lon="5.39863">
        <ele>467.8</ele>
        <time>2022-06-12T10:31:53Z</time>
      </trkpt>
      <trkpt lat="46.48201" lon="5.3984">
        <ele>467.8</ele>
        <time>2022-06-12T10:31:55Z</time>
      </trkpt>
      <trkpt lat="46.48197" lon="5.39814">
        <ele>467.6</ele>
        <time>2022-06-12T10:31:57Z</time>
      </trkpt>
      <trkpt lat="46.48188" lon="5.39765">
        <ele>467</ele>
        <time>2022-06-12T10:32:01Z</time>
      </trkpt>
      <trkpt lat="46.48184" lon="5.39742">
        <ele>466.6</ele>
        <time>2022-06-12T10:32:03Z</time>
      </trkpt>
      <trkpt lat="46.4818" lon="5.39706">
        <ele>466</ele>
        <time>2022-06-12T10:32:06Z</time>
      </trkpt>
      <trkpt lat="46.48179" lon="5.39669">
        <ele>465.4</ele>
        <time>2022-06-12T10:32:09Z</time>
      </trkpt>
      <trkpt lat="46.4818" lon="5.39656">
        <ele>465</ele>
        <time>2022-06-12T10:32:10Z</time>
      </trkpt>
      <trkpt lat="46.48183" lon="5.39643">
        <ele>464.8</ele>
        <time>2022-06-12T10:32:11Z</time>
      </trkpt>
      <trkpt lat="46.48186" lon="5.39631">
        <ele>464.6</ele>
        <time>2022-06-12T10:32:12Z</time>
      </trkpt>
      <trkpt lat="46.48201" lon="5.39592">
        <ele>463.4</ele>
        <time>2022-06-12T10:32:15Z</time>
      </trkpt>
      <trkpt lat="46.4821" lon="5.39564">
        <ele>462.4</ele>
        <time>2022-06-12T10:32:17Z</time>
      </trkpt>
      <trkpt lat="46.48216" lon="5.39533">
        <ele>461.4</ele>
        <time>2022-06-12T10:32:19Z</time>
      </trkpt>
      <trkpt lat="46.48218" lon="5.39518">
        <ele>460.8</ele>
        <time>2022-06-12T10:32:20Z</time>
      </trkpt>
      <trkpt lat="46.48222" lon="5.39504">
        <ele>460.6</ele>
        <time>2022-06-12T10:32:21Z</time>
      </trkpt>
      <trkpt lat="46.48227" lon="5.39492">
        <ele>459.4</ele>
        <time>2022-06-12T10:32:22Z</time>
      </trkpt>
      <trkpt lat="46.48233" lon="5.39482">
        <ele>458.6</ele>
        <time>2022-06-12T10:32:23Z</time>
      </trkpt>
      <trkpt lat="46.48239" lon="5.39473">
        <ele>458.2</ele>
        <time>2022-06-12T10:32:24Z</time>
      </trkpt>
      <trkpt lat="46.48246" lon="5.39466">
        <ele>456.4</ele>
        <time>2022-06-12T10:32:25Z</time>
      </trkpt>
      <trkpt lat="46.48261" lon="5.3946">
        <ele>454.4</ele>
        <time>2022-06-12T10:32:27Z</time>
      </trkpt>
      <trkpt lat="46.48269" lon="5.39461">
        <ele>454</ele>
        <time>2022-06-12T10:32:28Z</time>
      </trkpt>
      <trkpt lat="46.48276" lon="5.39461">
        <ele>452.6</ele>
        <time>2022-06-12T10:32:29Z</time>
      </trkpt>
      <trkpt lat="46.48292" lon="5.39461">
        <ele>451.4</ele>
        <time>2022-06-12T10:32:31Z</time>
      </trkpt>
      <trkpt lat="46.483" lon="5.39458">
        <ele>450.8</ele>
        <time>2022-06-12T10:32:32Z</time>
      </trkpt>
      <trkpt lat="46.48307" lon="5.39455">
        <ele>450.8</ele>
        <time>2022-06-12T10:32:33Z</time>
      </trkpt>
      <trkpt lat="46.48314" lon="5.39452">
        <ele>450</ele>
        <time>2022-06-12T10:32:34Z</time>
      </trkpt>
      <trkpt lat="46.48318" lon="5.39445">
        <ele>449.8</ele>
        <time>2022-06-12T10:32:35Z</time>
      </trkpt>
      <trkpt lat="46.4832" lon="5.39413">
        <ele>448.4</ele>
        <time>2022-06-12T10:32:37Z</time>
      </trkpt>
      <trkpt lat="46.48323" lon="5.39389">
        <ele>448</ele>
        <time>2022-06-12T10:32:38Z</time>
      </trkpt>
      <trkpt lat="46.48327" lon="5.3937">
        <ele>447</ele>
        <time>2022-06-12T10:32:39Z</time>
      </trkpt>
      <trkpt lat="46.48332" lon="5.39357">
        <ele>446.8</ele>
        <time>2022-06-12T10:32:40Z</time>
      </trkpt>
      <trkpt lat="46.48339" lon="5.39345">
        <ele>445.8</ele>
        <time>2022-06-12T10:32:41Z</time>
      </trkpt>
      <trkpt lat="46.48355" lon="5.39323">
        <ele>444</ele>
        <time>2022-06-12T10:32:43Z</time>
      </trkpt>
      <trkpt lat="46.48373" lon="5.39315">
        <ele>443</ele>
        <time>2022-06-12T10:32:45Z</time>
      </trkpt>
      <trkpt lat="46.48382" lon="5.39313">
        <ele>441.8</ele>
        <time>2022-06-12T10:32:46Z</time>
      </trkpt>
      <trkpt lat="46.48391" lon="5.39313">
        <ele>441.2</ele>
        <time>2022-06-12T10:32:47Z</time>
      </trkpt>
      <trkpt lat="46.48402" lon="5.39315">
        <ele>440</ele>
        <time>2022-06-12T10:32:48Z</time>
      </trkpt>
      <trkpt lat="46.48413" lon="5.39318">
        <ele>439.6</ele>
        <time>2022-06-12T10:32:49Z</time>
      </trkpt>
      <trkpt lat="46.48426" lon="5.39319">
        <ele>438</ele>
        <time>2022-06-12T10:32:50Z</time>
      </trkpt>
      <trkpt lat="46.48438" lon="5.39318">
        <ele>437</ele>
        <time>2022-06-12T10:32:51Z</time>
      </trkpt>
      <trkpt lat="46.48449" lon="5.39315">
        <ele>436.6</ele>
        <time>2022-06-12T10:32:52Z</time>
      </trkpt>
      <trkpt lat="46.4846" lon="5.39313">
        <ele>435.8</ele>
        <time>2022-06-12T10:32:53Z</time>
      </trkpt>
      <trkpt lat="46.48484" lon="5.39308">
        <ele>434</ele>
        <time>2022-06-12T10:32:55Z</time>
      </trkpt>
      <trkpt lat="46.48509" lon="5.39303">
        <ele>432.2</ele>
        <time>2022-06-12T10:32:57Z</time>
      </trkpt>
      <trkpt lat="46.48522" lon="5.393">
        <ele>431.2</ele>
        <time>2022-06-12T10:32:58Z</time>
      </trkpt>
      <trkpt lat="46.48546" lon="5.39293">
        <ele>430</ele>
        <time>2022-06-12T10:33:00Z</time>
      </trkpt>
      <trkpt lat="46.48585" lon="5.39286">
        <ele>428.2</ele>
        <time>2022-06-12T10:33:03Z</time>
      </trkpt>
      <trkpt lat="46.48597" lon="5.39284">
        <ele>427</ele>
        <time>2022-06-12T10:33:04Z</time>
      </trkpt>
      <trkpt lat="46.48623" lon="5.3928">
        <ele>425.4</ele>
        <time>2022-06-12T10:33:06Z</time>
      </trkpt>
      <trkpt lat="46.48635" lon="5.39278">
        <ele>424.4</ele>
        <time>2022-06-12T10:33:07Z</time>
      </trkpt>
      <trkpt lat="46.48647" lon="5.39278">
        <ele>423.8</ele>
        <time>2022-06-12T10:33:08Z</time>
      </trkpt>
      <trkpt lat="46.48658" lon="5.39278">
        <ele>422.8</ele>
        <time>2022-06-12T10:33:09Z</time>
      </trkpt>
      <trkpt lat="46.48678" lon="5.39282">
        <ele>419.8</ele>
        <time>2022-06-12T10:33:11Z</time>
      </trkpt>
      <trkpt lat="46.48687" lon="5.39285">
        <ele>418.2</ele>
        <time>2022-06-12T10:33:12Z</time>
      </trkpt>
      <trkpt lat="46.48696" lon="5.3929">
        <ele>417.6</ele>
        <time>2022-06-12T10:33:13Z</time>
      </trkpt>
      <trkpt lat="46.48705" lon="5.39296">
        <ele>416.4</ele>
        <time>2022-06-12T10:33:14Z</time>
      </trkpt>
      <trkpt lat="46.48712" lon="5.39301">
        <ele>415.8</ele>
        <time>2022-06-12T10:33:15Z</time>
      </trkpt>
      <trkpt lat="46.48719" lon="5.39305">
        <ele>415</ele>
        <time>2022-06-12T10:33:16Z</time>
      </trkpt>
      <trkpt lat="46.48728" lon="5.39304">
        <ele>414</ele>
        <time>2022-06-12T10:33:18Z</time>
      </trkpt>
      <trkpt lat="46.48732" lon="5.39299">
        <ele>412.8</ele>
        <time>2022-06-12T10:33:19Z</time>
      </trkpt>
      <trkpt lat="46.48734" lon="5.3929">
        <ele>412</ele>
        <time>2022-06-12T10:33:20Z</time>
      </trkpt>
      <trkpt lat="46.48731" lon="5.39279">
        <ele>410.8</ele>
        <time>2022-06-12T10:33:21Z</time>
      </trkpt>
      <trkpt lat="46.48726" lon="5.39269">
        <ele>410.4</ele>
        <time>2022-06-12T10:33:22Z</time>
      </trkpt>
      <trkpt lat="46.48719" lon="5.39259">
        <ele>409.8</ele>
        <time>2022-06-12T10:33:23Z</time>
      </trkpt>
      <trkpt lat="46.48712" lon="5.39249">
        <ele>409.2</ele>
        <time>2022-06-12T10:33:24Z</time>
      </trkpt>
      <trkpt lat="46.48704" lon="5.39239">
        <ele>407.8</ele>
        <time>2022-06-12T10:33:25Z</time>
      </trkpt>
      <trkpt lat="46.48687" lon="5.39216">
        <ele>406.2</ele>
        <time>2022-06-12T10:33:27Z</time>
      </trkpt>
      <trkpt lat="46.48679" lon="5.39204">
        <ele>404.8</ele>
        <time>2022-06-12T10:33:28Z</time>
      </trkpt>
      <trkpt lat="46.48671" lon="5.39192">
        <ele>404.4</ele>
        <time>2022-06-12T10:33:29Z</time>
      </trkpt>
      <trkpt lat="46.48663" lon="5.39179">
        <ele>403.6</ele>
        <time>2022-06-12T10:33:30Z</time>
      </trkpt>
      <trkpt lat="46.48636" lon="5.39144">
        <ele>402.2</ele>
        <time>2022-06-12T10:33:33Z</time>
      </trkpt>
      <trkpt lat="46.48626" lon="5.39135">
        <ele>401.8</ele>
        <time>2022-06-12T10:33:34Z</time>
      </trkpt>
      <trkpt lat="46.48615" lon="5.39126">
        <ele>400.8</ele>
        <time>2022-06-12T10:33:35Z</time>
      </trkpt>
      <trkpt lat="46.4858" lon="5.391">
        <ele>399</ele>
        <time>2022-06-12T10:33:38Z</time>
      </trkpt>
      <trkpt lat="46.48569" lon="5.39091">
        <ele>397.8</ele>
        <time>2022-06-12T10:33:39Z</time>
      </trkpt>
      <trkpt lat="46.48557" lon="5.39083">
        <ele>395.8</ele>
        <time>2022-06-12T10:33:40Z</time>
      </trkpt>
      <trkpt lat="46.48544" lon="5.39076">
        <ele>394.8</ele>
        <time>2022-06-12T10:33:41Z</time>
      </trkpt>
      <trkpt lat="46.4853" lon="5.39068">
        <ele>393.6</ele>
        <time>2022-06-12T10:33:42Z</time>
      </trkpt>
      <trkpt lat="46.48519" lon="5.39059">
        <ele>392.8</ele>
        <time>2022-06-12T10:33:43Z</time>
      </trkpt>
      <trkpt lat="46.4851" lon="5.39048">
        <ele>391.4</ele>
        <time>2022-06-12T10:33:44Z</time>
      </trkpt>
      <trkpt lat="46.48502" lon="5.39034">
        <ele>390.6</ele>
        <time>2022-06-12T10:33:45Z</time>
      </trkpt>
      <trkpt lat="46.48497" lon="5.39015">
        <ele>389.2</ele>
        <time>2022-06-12T10:33:46Z</time>
      </trkpt>
      <trkpt lat="46.48492" lon="5.38996">
        <ele>388</ele>
        <time>2022-06-12T10:33:47Z</time>
      </trkpt>
      <trkpt lat="46.48488" lon="5.38976">
        <ele>387.4</ele>
        <time>2022-06-12T10:33:48Z</time>
      </trkpt>
      <trkpt lat="46.48481" lon="5.38959">
        <ele>385.6</ele>
        <time>2022-06-12T10:33:49Z</time>
      </trkpt>
      <trkpt lat="46.48473" lon="5.38944">
        <ele>384.8</ele>
        <time>2022-06-12T10:33:50Z</time>
      </trkpt>
      <trkpt lat="46.48466" lon="5.3893">
        <ele>383.8</ele>
        <time>2022-06-12T10:33:51Z</time>
      </trkpt>
      <trkpt lat="46.48454" lon="5.38903">
        <ele>381.8</ele>
        <time>2022-06-12T10:33:53Z</time>
      </trkpt>
      <trkpt lat="46.48452" lon="5.38889">
        <ele>381</ele>
        <time>2022-06-12T10:33:54Z</time>
      </trkpt>
      <trkpt lat="46.48455" lon="5.38876">
        <ele>380.4</ele>
        <time>2022-06-12T10:33:55Z</time>
      </trkpt>
      <trkpt lat="46.4846" lon="5.38864">
        <ele>379</ele>
        <time>2022-06-12T10:33:56Z</time>
      </trkpt>
      <trkpt lat="46.48467" lon="5.38854">
        <ele>378.6</ele>
        <time>2022-06-12T10:33:57Z</time>
      </trkpt>
      <trkpt lat="46.48486" lon="5.38838">
        <ele>377.6</ele>
        <time>2022-06-12T10:33:59Z</time>
      </trkpt>
      <trkpt lat="46.48507" lon="5.38825">
        <ele>375.6</ele>
        <time>2022-06-12T10:34:01Z</time>
      </trkpt>
      <trkpt lat="46.48538" lon="5.38806">
        <ele>374.2</ele>
        <time>2022-06-12T10:34:04Z</time>
      </trkpt>
      <trkpt lat="46.48549" lon="5.38799">
        <ele>373.2</ele>
        <time>2022-06-12T10:34:05Z</time>
      </trkpt>
      <trkpt lat="46.48578" lon="5.38779">
        <ele>371.6</ele>
        <time>2022-06-12T10:34:08Z</time>
      </trkpt>
      <trkpt lat="46.48586" lon="5.38775">
        <ele>371.2</ele>
        <time>2022-06-12T10:34:09Z</time>
      </trkpt>
      <trkpt lat="46.48594" lon="5.38774">
        <ele>370</ele>
        <time>2022-06-12T10:34:10Z</time>
      </trkpt>
      <trkpt lat="46.48601" lon="5.38776">
        <ele>369.6</ele>
        <time>2022-06-12T10:34:11Z</time>
      </trkpt>
      <trkpt lat="46.48607" lon="5.38778">
        <ele>369</ele>
        <time>2022-06-12T10:34:12Z</time>
      </trkpt>
      <trkpt lat="46.48614" lon="5.38778">
        <ele>368.2</ele>
        <time>2022-06-12T10:34:13Z</time>
      </trkpt>
      <trkpt lat="46.48621" lon="5.38776">
        <ele>367</ele>
        <time>2022-06-12T10:34:14Z</time>
      </trkpt>
      <trkpt lat="46.48628" lon="5.38771">
        <ele>365.8</ele>
        <time>2022-06-12T10:34:15Z</time>
      </trkpt>
      <trkpt lat="46.4864" lon="5.38759">
        <ele>364</ele>
        <time>2022-06-12T10:34:17Z</time>
      </trkpt>
      <trkpt lat="46.48644" lon="5.38746">
        <ele>363.6</ele>
        <time>2022-06-12T10:34:18Z</time>
      </trkpt>
      <trkpt lat="46.48648" lon="5.38732">
        <ele>362.6</ele>
        <time>2022-06-12T10:34:19Z</time>
      </trkpt>
      <trkpt lat="46.48649" lon="5.38716">
        <ele>362.2</ele>
        <time>2022-06-12T10:34:20Z</time>
      </trkpt>
      <trkpt lat="46.48649" lon="5.387">
        <ele>361.4</ele>
        <time>2022-06-12T10:34:21Z</time>
      </trkpt>
      <trkpt lat="46.48648" lon="5.38683">
        <ele>360.6</ele>
        <time>2022-06-12T10:34:22Z</time>
      </trkpt>
      <trkpt lat="46.48646" lon="5.38666">
        <ele>360.2</ele>
        <time>2022-06-12T10:34:23Z</time>
      </trkpt>
      <trkpt lat="46.48634" lon="5.38618">
        <ele>359</ele>
        <time>2022-06-12T10:34:26Z</time>
      </trkpt>
      <trkpt lat="46.48625" lon="5.38587">
        <ele>357.6</ele>
        <time>2022-06-12T10:34:28Z</time>
      </trkpt>
      <trkpt lat="46.4862" lon="5.38571">
        <ele>356.4</ele>
        <time>2022-06-12T10:34:29Z</time>
      </trkpt>
      <trkpt lat="46.48611" lon="5.38538">
        <ele>355</ele>
        <time>2022-06-12T10:34:31Z</time>
      </trkpt>
      <trkpt lat="46.48602" lon="5.38506">
        <ele>353.8</ele>
        <time>2022-06-12T10:34:33Z</time>
      </trkpt>
    </trkseg>
  </trk>
</gpx>